<?xml version='1.0' encoding='UTF-8'?><gpx version="1.1" creator="JPX - https://github.com/jenetics/jpx" xmlns="http://www.topografix.com/GPX/1/1"><trk><trkseg><trkpt lat="43.32811407499814" lon="-0.415217263341018"><ele>187.0</ele><time>2026-04-26T14:21:26.999Z</time></trkpt><trkpt lat="43.32812117399433" lon="-0.41536069787592206"><ele>187.0</ele><time>2026-04-26T14:21:29.999Z</time></trkpt><trkpt lat="43.3281860529208" lon="-0.4154009616292801"><ele>187.0</ele><time>2026-04-26T14:21:30.999Z</time></trkpt><trkpt lat="43.32828056599723" lon="-0.41539950258074926"><ele>187.0</ele><time>2026-04-26T14:21:33Z</time></trkpt><trkpt lat="43.328373370541954" lon="-0.41540491193989265"><ele>187.0</ele><time>2026-04-26T14:21:35Z</time></trkpt><trkpt lat="43.32842922008356" lon="-0.41545512614774993"><ele>187.0</ele><time>2026-04-26T14:21:37Z</time></trkpt><trkpt lat="43.32849098267206" lon="-0.4155461496561562"><ele>187.0</ele><time>2026-04-26T14:21:39Z</time></trkpt><trkpt lat="43.32855849704252" lon="-0.41561935487586166"><ele>187.0</ele><time>2026-04-26T14:21:41Z</time></trkpt><trkpt lat="43.328653224807645" lon="-0.41559264588909184"><ele>187.0</ele><time>2026-04-26T14:21:43Z</time></trkpt><trkpt lat="43.32874668682214" lon="-0.4155076439191716"><ele>187.0</ele><time>2026-04-26T14:21:45Z</time></trkpt><trkpt lat="43.32883686154792" lon="-0.4154053296161471"><ele>187.0</ele><time>2026-04-26T14:21:47Z</time></trkpt><trkpt lat="43.328867581620955" lon="-0.41532422884123704"><ele>187.0</ele><time>2026-04-26T14:21:48Z</time></trkpt><trkpt lat="43.32897362498299" lon="-0.41523736337844974"><ele>187.0</ele><time>2026-04-26T14:21:50Z</time></trkpt><trkpt lat="43.329041299200114" lon="-0.41520981729701595"><ele>187.0</ele><time>2026-04-26T14:21:51Z</time></trkpt><trkpt lat="43.329111327279755" lon="-0.4152267542653658"><ele>187.0</ele><time>2026-04-26T14:21:52Z</time></trkpt><trkpt lat="43.32918075547382" lon="-0.41522532250952765"><ele>187.0</ele><time>2026-04-26T14:21:53Z</time></trkpt><trkpt lat="43.329254033031965" lon="-0.4152398002144342"><ele>187.0</ele><time>2026-04-26T14:21:54Z</time></trkpt><trkpt lat="43.32932336108092" lon="-0.4152662320551908"><ele>187.0</ele><time>2026-04-26T14:21:55Z</time></trkpt><trkpt lat="43.329395217513" lon="-0.41529482113438027"><ele>187.0</ele><time>2026-04-26T14:21:56Z</time></trkpt><trkpt lat="43.32946815693809" lon="-0.415313184978367"><ele>187.0</ele><time>2026-04-26T14:21:57Z</time></trkpt><trkpt lat="43.3295758061187" lon="-0.41533382762665133"><ele>187.0</ele><time>2026-04-26T14:21:59Z</time></trkpt><trkpt lat="43.32967148584362" lon="-0.415378230971803"><ele>187.0</ele><time>2026-04-26T14:22:01Z</time></trkpt><trkpt lat="43.32974695268956" lon="-0.41521788377417"><ele>187.2</ele><time>2026-04-26T14:22:04Z</time></trkpt><trkpt lat="43.32975534107325" lon="-0.41505934129840816"><ele>187.39999999999998</ele><time>2026-04-26T14:22:06Z</time></trkpt><trkpt lat="43.329793949947664" lon="-0.4149280474992359"><ele>187.60000000000002</ele><time>2026-04-26T14:22:08Z</time></trkpt><trkpt lat="43.329830825668985" lon="-0.4147711653691345"><ele>187.8</ele><time>2026-04-26T14:22:10Z</time></trkpt><trkpt lat="43.32984441518467" lon="-0.4146819080134599"><ele>188.0</ele><time>2026-04-26T14:22:11Z</time></trkpt><trkpt lat="43.329860870274466" lon="-0.4145931250986055"><ele>188.0</ele><time>2026-04-26T14:22:12Z</time></trkpt><trkpt lat="43.32987804599401" lon="-0.41450121708926957"><ele>188.0</ele><time>2026-04-26T14:22:13Z</time></trkpt><trkpt lat="43.3298913604353" lon="-0.4143986620380926"><ele>188.0</ele><time>2026-04-26T14:22:14Z</time></trkpt><trkpt lat="43.32991285339374" lon="-0.41430763995315134"><ele>188.0</ele><time>2026-04-26T14:22:15Z</time></trkpt><trkpt lat="43.3299359923132" lon="-0.41421750087298403"><ele>188.0</ele><time>2026-04-26T14:22:16Z</time></trkpt><trkpt lat="43.32995533114652" lon="-0.4141256818984229"><ele>188.0</ele><time>2026-04-26T14:22:17Z</time></trkpt><trkpt lat="43.329972025228166" lon="-0.41402588485822356"><ele>188.0</ele><time>2026-04-26T14:22:18Z</time></trkpt><trkpt lat="43.329990272773294" lon="-0.4139253808303866"><ele>188.0</ele><time>2026-04-26T14:22:19Z</time></trkpt><trkpt lat="43.3299977376628" lon="-0.41383026478864815"><ele>188.0</ele><time>2026-04-26T14:22:20Z</time></trkpt><trkpt lat="43.32999633965817" lon="-0.4137260204060934"><ele>188.0</ele><time>2026-04-26T14:22:21Z</time></trkpt><trkpt lat="43.32999574684797" lon="-0.41362386098490644"><ele>188.0</ele><time>2026-04-26T14:22:22Z</time></trkpt><trkpt lat="43.32999745827745" lon="-0.4135254090669831"><ele>188.0</ele><time>2026-04-26T14:22:23Z</time></trkpt><trkpt lat="43.32998156630621" lon="-0.4134282400085197"><ele>188.0</ele><time>2026-04-26T14:22:24Z</time></trkpt><trkpt lat="43.32997003869672" lon="-0.4133375169498992"><ele>188.0</ele><time>2026-04-26T14:22:25Z</time></trkpt><trkpt lat="43.32995882024824" lon="-0.4132461130197956"><ele>187.85714285714286</ele><time>2026-04-26T14:22:26Z</time></trkpt><trkpt lat="43.32993292576337" lon="-0.41315706134812363"><ele>187.71428571428572</ele><time>2026-04-26T14:22:27Z</time></trkpt><trkpt lat="43.32991778554536" lon="-0.4130698368539358"><ele>187.57142857142856</ele><time>2026-04-26T14:22:28Z</time></trkpt><trkpt lat="43.3299027976008" lon="-0.41297975897456546"><ele>187.42857142857144</ele><time>2026-04-26T14:22:29Z</time></trkpt><trkpt lat="43.32988772880351" lon="-0.41288872975237173"><ele>187.2857142857143</ele><time>2026-04-26T14:22:30Z</time></trkpt><trkpt lat="43.32987764357204" lon="-0.4127963331094229"><ele>187.14285714285714</ele><time>2026-04-26T14:22:31Z</time></trkpt><trkpt lat="43.3298590412235" lon="-0.41270541717604353"><ele>187.0</ele><time>2026-04-26T14:22:32Z</time></trkpt><trkpt lat="43.32984298442188" lon="-0.4126183301895596"><ele>187.5</ele><time>2026-04-26T14:22:33Z</time></trkpt><trkpt lat="43.32982418179468" lon="-0.4125307616175958"><ele>188.0</ele><time>2026-04-26T14:22:34Z</time></trkpt><trkpt lat="43.329812577673344" lon="-0.4124371161256659"><ele>188.5</ele><time>2026-04-26T14:22:35Z</time></trkpt><trkpt lat="43.32980509160501" lon="-0.4123468905743585"><ele>189.0</ele><time>2026-04-26T14:22:36Z</time></trkpt><trkpt lat="43.3297814977851" lon="-0.4122573990287943"><ele>189.5</ele><time>2026-04-26T14:22:37Z</time></trkpt><trkpt lat="43.32976324669659" lon="-0.41217093650235603"><ele>190.0</ele><time>2026-04-26T14:22:38Z</time></trkpt><trkpt lat="43.3297117150104" lon="-0.41200036699632925"><ele>190.0</ele><time>2026-04-26T14:22:40Z</time></trkpt><trkpt lat="43.32967913716463" lon="-0.41191528141683015"><ele>190.0</ele><time>2026-04-26T14:22:41Z</time></trkpt><trkpt lat="43.329653262231965" lon="-0.41182990032009464"><ele>190.0</ele><time>2026-04-26T14:22:42Z</time></trkpt><trkpt lat="43.32963110664613" lon="-0.41174320501558076"><ele>190.0</ele><time>2026-04-26T14:22:43Z</time></trkpt><trkpt lat="43.32960340211275" lon="-0.4116600116260206"><ele>190.0</ele><time>2026-04-26T14:22:44Z</time></trkpt><trkpt lat="43.329574411341994" lon="-0.41157909764759154"><ele>190.0</ele><time>2026-04-26T14:22:45Z</time></trkpt><trkpt lat="43.32954184128255" lon="-0.4114958745497809"><ele>190.0</ele><time>2026-04-26T14:22:46Z</time></trkpt><trkpt lat="43.32949513761985" lon="-0.4113304964372229"><ele>190.14285714285714</ele><time>2026-04-26T14:22:48Z</time></trkpt><trkpt lat="43.329470433935526" lon="-0.4112361745408502"><ele>190.28571428571428</ele><time>2026-04-26T14:22:49Z</time></trkpt><trkpt lat="43.32943646039636" lon="-0.41115239755181154"><ele>190.42857142857144</ele><time>2026-04-26T14:22:50Z</time></trkpt><trkpt lat="43.329414005511396" lon="-0.4110675780016217"><ele>190.57142857142856</ele><time>2026-04-26T14:22:51Z</time></trkpt><trkpt lat="43.32939222282267" lon="-0.41098173716529285"><ele>190.7142857142857</ele><time>2026-04-26T14:22:52Z</time></trkpt><trkpt lat="43.32936342684322" lon="-0.41090190096645485"><ele>190.85714285714286</ele><time>2026-04-26T14:22:53Z</time></trkpt><trkpt lat="43.32934107921368" lon="-0.41081216098031703"><ele>191.0</ele><time>2026-04-26T14:22:54Z</time></trkpt><trkpt lat="43.32931238031762" lon="-0.4107324507547514"><ele>191.0</ele><time>2026-04-26T14:22:55Z</time></trkpt><trkpt lat="43.32929468970071" lon="-0.4106422754320688"><ele>191.0</ele><time>2026-04-26T14:22:56Z</time></trkpt><trkpt lat="43.329274056929776" lon="-0.41055311706338704"><ele>191.0</ele><time>2026-04-26T14:22:57Z</time></trkpt><trkpt lat="43.32925862949261" lon="-0.41046737073569367"><ele>191.0</ele><time>2026-04-26T14:22:58Z</time></trkpt><trkpt lat="43.329242999354705" lon="-0.410380256306438"><ele>191.0</ele><time>2026-04-26T14:22:59Z</time></trkpt><trkpt lat="43.32923939025346" lon="-0.41028796107222"><ele>191.0</ele><time>2026-04-26T14:23:00Z</time></trkpt><trkpt lat="43.329240569770626" lon="-0.4101618971912733"><ele>191.0</ele><time>2026-04-26T14:23:01Z</time></trkpt><trkpt lat="43.32922168612153" lon="-0.4100108332976726"><ele>190.85714285714286</ele><time>2026-04-26T14:23:03Z</time></trkpt><trkpt lat="43.329218426457196" lon="-0.40991466008272137"><ele>190.7142857142857</ele><time>2026-04-26T14:23:04Z</time></trkpt><trkpt lat="43.329222251155635" lon="-0.4098215567759054"><ele>190.57142857142856</ele><time>2026-04-26T14:23:05Z</time></trkpt><trkpt lat="43.32922323490342" lon="-0.4097263116530744"><ele>190.42857142857144</ele><time>2026-04-26T14:23:06Z</time></trkpt><trkpt lat="43.32923046122119" lon="-0.40963020158913777"><ele>190.28571428571428</ele><time>2026-04-26T14:23:07Z</time></trkpt><trkpt lat="43.32924207309197" lon="-0.40953661769829897"><ele>190.14285714285714</ele><time>2026-04-26T14:23:08Z</time></trkpt><trkpt lat="43.32924041734012" lon="-0.4094433574555987"><ele>190.0</ele><time>2026-04-26T14:23:09Z</time></trkpt><trkpt lat="43.32924921985732" lon="-0.4093517788942789"><ele>190.33333333333334</ele><time>2026-04-26T14:23:10Z</time></trkpt><trkpt lat="43.32924991059576" lon="-0.40925679597875947"><ele>190.66666666666669</ele><time>2026-04-26T14:23:11Z</time></trkpt><trkpt lat="43.32925663760332" lon="-0.4091652904950061"><ele>191.0</ele><time>2026-04-26T14:23:12Z</time></trkpt><trkpt lat="43.32926726772892" lon="-0.4090706114883011"><ele>191.33333333333334</ele><time>2026-04-26T14:23:13Z</time></trkpt><trkpt lat="43.32927202777458" lon="-0.4089818527721953"><ele>191.66666666666666</ele><time>2026-04-26T14:23:14Z</time></trkpt><trkpt lat="43.3292739938624" lon="-0.40889350553411524"><ele>192.0</ele><time>2026-04-26T14:23:14.999Z</time></trkpt><trkpt lat="43.32928920777336" lon="-0.40872160653796136"><ele>192.0</ele><time>2026-04-26T14:23:16.999Z</time></trkpt><trkpt lat="43.32929035983295" lon="-0.4085520578961382"><ele>192.0</ele><time>2026-04-26T14:23:18.999Z</time></trkpt><trkpt lat="43.32929877395779" lon="-0.4084370856140648"><ele>192.0</ele><time>2026-04-26T14:23:20.999Z</time></trkpt><trkpt lat="43.329341802626786" lon="-0.40856182669848745"><ele>192.0</ele><time>2026-04-26T14:23:25.999Z</time></trkpt><trkpt lat="43.32933938081985" lon="-0.40866890173511367"><ele>192.0</ele><time>2026-04-26T14:23:27.999Z</time></trkpt><trkpt lat="43.32933287190507" lon="-0.4088044049896564"><ele>192.0</ele><time>2026-04-26T14:23:29.999Z</time></trkpt><trkpt lat="43.32932749654593" lon="-0.4089495996958278"><ele>192.0</ele><time>2026-04-26T14:23:31.999Z</time></trkpt><trkpt lat="43.329315978082576" lon="-0.409107118323648"><ele>192.0</ele><time>2026-04-26T14:23:33.999Z</time></trkpt><trkpt lat="43.32931372408895" lon="-0.40919949211283135"><ele>192.0</ele><time>2026-04-26T14:23:34.999Z</time></trkpt><trkpt lat="43.32931125980548" lon="-0.40928810685287265"><ele>192.0</ele><time>2026-04-26T14:23:36Z</time></trkpt><trkpt lat="43.32930797034243" lon="-0.4093819162835789"><ele>192.0</ele><time>2026-04-26T14:23:37Z</time></trkpt><trkpt lat="43.3293039939811" lon="-0.40946894186407595"><ele>191.99999999999997</ele><time>2026-04-26T14:23:38Z</time></trkpt><trkpt lat="43.32929736487909" lon="-0.40955929255689294"><ele>192.0</ele><time>2026-04-26T14:23:39Z</time></trkpt><trkpt lat="43.32928883350905" lon="-0.4096494868883613"><ele>192.0</ele><time>2026-04-26T14:23:40Z</time></trkpt><trkpt lat="43.32928412472224" lon="-0.4097430032091437"><ele>192.0</ele><time>2026-04-26T14:23:41Z</time></trkpt><trkpt lat="43.32928346896131" lon="-0.40983845457486107"><ele>192.0</ele><time>2026-04-26T14:23:42Z</time></trkpt><trkpt lat="43.329280483881696" lon="-0.409932453123125"><ele>191.99999999999997</ele><time>2026-04-26T14:23:43Z</time></trkpt><trkpt lat="43.32928210517528" lon="-0.4100315858122478"><ele>192.0</ele><time>2026-04-26T14:23:44Z</time></trkpt><trkpt lat="43.32928367931168" lon="-0.4101288848667809"><ele>191.83333333333334</ele><time>2026-04-26T14:23:45Z</time></trkpt><trkpt lat="43.32928672459173" lon="-0.4102270298629911"><ele>191.66666666666666</ele><time>2026-04-26T14:23:46Z</time></trkpt><trkpt lat="43.32929710879189" lon="-0.4103284362462131"><ele>191.5</ele><time>2026-04-26T14:23:47Z</time></trkpt><trkpt lat="43.32930933614218" lon="-0.410430898323382"><ele>191.33333333333331</ele><time>2026-04-26T14:23:48Z</time></trkpt><trkpt lat="43.329324860951104" lon="-0.41053084994474714"><ele>191.16666666666666</ele><time>2026-04-26T14:23:49Z</time></trkpt><trkpt lat="43.32934647780445" lon="-0.41063446451203595"><ele>191.0</ele><time>2026-04-26T14:23:50Z</time></trkpt><trkpt lat="43.32937217156482" lon="-0.41073247211483194"><ele>191.0</ele><time>2026-04-26T14:23:51Z</time></trkpt><trkpt lat="43.32939952364016" lon="-0.41082709401078105"><ele>191.0</ele><time>2026-04-26T14:23:52Z</time></trkpt><trkpt lat="43.32942867833856" lon="-0.4109288873836709"><ele>191.0</ele><time>2026-04-26T14:23:53Z</time></trkpt><trkpt lat="43.329457750349825" lon="-0.41102894932400796"><ele>191.0</ele><time>2026-04-26T14:23:54Z</time></trkpt><trkpt lat="43.32948924283206" lon="-0.41113014886687566"><ele>191.0</ele><time>2026-04-26T14:23:55Z</time></trkpt><trkpt lat="43.32952083737659" lon="-0.41123360498027134"><ele>191.0</ele><time>2026-04-26T14:23:56Z</time></trkpt><trkpt lat="43.32954963598735" lon="-0.4113312540541489"><ele>190.83333333333331</ele><time>2026-04-26T14:23:57Z</time></trkpt><trkpt lat="43.32957976696438" lon="-0.41143834458129025"><ele>190.66666666666666</ele><time>2026-04-26T14:23:58Z</time></trkpt><trkpt lat="43.32960821284754" lon="-0.41153959055388334"><ele>190.5</ele><time>2026-04-26T14:23:59Z</time></trkpt><trkpt lat="43.329639904712934" lon="-0.4116483416240148"><ele>190.33333333333334</ele><time>2026-04-26T14:24:00Z</time></trkpt><trkpt lat="43.329669788511126" lon="-0.41174925037079485"><ele>190.16666666666669</ele><time>2026-04-26T14:24:01Z</time></trkpt><trkpt lat="43.32970075031485" lon="-0.4118523519140548"><ele>190.0</ele><time>2026-04-26T14:24:02Z</time></trkpt><trkpt lat="43.32973491219368" lon="-0.41195803763481653"><ele>190.0</ele><time>2026-04-26T14:24:03Z</time></trkpt><trkpt lat="43.32976378868443" lon="-0.41206435882173914"><ele>190.0</ele><time>2026-04-26T14:24:04Z</time></trkpt><trkpt lat="43.3297926111822" lon="-0.41216786149230317"><ele>190.0</ele><time>2026-04-26T14:24:05Z</time></trkpt><trkpt lat="43.329821263218854" lon="-0.41227123166806295"><ele>190.0</ele><time>2026-04-26T14:24:06Z</time></trkpt><trkpt lat="43.3298405663784" lon="-0.4123791596626754"><ele>190.0</ele><time>2026-04-26T14:24:07Z</time></trkpt><trkpt lat="43.32985807597574" lon="-0.4124894661594036"><ele>190.0</ele><time>2026-04-26T14:24:08Z</time></trkpt><trkpt lat="43.32986879209675" lon="-0.4126050714273669"><ele>190.14285714285714</ele><time>2026-04-26T14:24:09Z</time></trkpt><trkpt lat="43.32989278523922" lon="-0.4127054808318879"><ele>190.28571428571428</ele><time>2026-04-26T14:24:10Z</time></trkpt><trkpt lat="43.3299132190462" lon="-0.4128100800585946"><ele>190.42857142857144</ele><time>2026-04-26T14:24:11Z</time></trkpt><trkpt lat="43.3299298605686" lon="-0.41291503929153955"><ele>190.57142857142856</ele><time>2026-04-26T14:24:12Z</time></trkpt><trkpt lat="43.32994577978031" lon="-0.4130151766933253"><ele>190.7142857142857</ele><time>2026-04-26T14:24:13Z</time></trkpt><trkpt lat="43.329960044499245" lon="-0.4131154128568772"><ele>190.85714285714286</ele><time>2026-04-26T14:24:14Z</time></trkpt><trkpt lat="43.32997596116955" lon="-0.41320043315013977"><ele>191.0</ele><time>2026-04-26T14:24:15Z</time></trkpt><trkpt lat="43.330013699569086" lon="-0.4132799244942843"><ele>190.20000000000002</ele><time>2026-04-26T14:24:16Z</time></trkpt><trkpt lat="43.33018978639561" lon="-0.4133067980120043"><ele>189.4</ele><time>2026-04-26T14:24:19Z</time></trkpt><trkpt lat="43.330256638767246" lon="-0.4132897116746739"><ele>188.6</ele><time>2026-04-26T14:24:20Z</time></trkpt><trkpt lat="43.33032159090651" lon="-0.41327339170451743"><ele>187.8</ele><time>2026-04-26T14:24:21Z</time></trkpt><trkpt lat="43.330437817213166" lon="-0.4132443760965433"><ele>187.0</ele><time>2026-04-26T14:24:23Z</time></trkpt><trkpt lat="43.330555728928005" lon="-0.41321710460069094"><ele>187.8</ele><time>2026-04-26T14:24:25Z</time></trkpt><trkpt lat="43.33067404626781" lon="-0.41318971766786117"><ele>188.6</ele><time>2026-04-26T14:24:27Z</time></trkpt><trkpt lat="43.330797522611796" lon="-0.4131610915339459"><ele>189.4</ele><time>2026-04-26T14:24:29Z</time></trkpt><trkpt lat="43.33086952051475" lon="-0.4131564645643834"><ele>190.20000000000002</ele><time>2026-04-26T14:24:30Z</time></trkpt><trkpt lat="43.33098484192291" lon="-0.41311794467020496"><ele>191.0</ele><time>2026-04-26T14:24:32Z</time></trkpt><trkpt lat="43.331049379954486" lon="-0.41310085281566933"><ele>191.0</ele><time>2026-04-26T14:24:33Z</time></trkpt><trkpt lat="43.331154902131445" lon="-0.4130850382627824"><ele>191.0</ele><time>2026-04-26T14:24:35Z</time></trkpt><trkpt lat="43.33127873353132" lon="-0.4130434536598492"><ele>191.0</ele><time>2026-04-26T14:24:37Z</time></trkpt><trkpt lat="43.331365108842085" lon="-0.4130174541973226"><ele>191.0</ele><time>2026-04-26T14:24:39Z</time></trkpt><trkpt lat="43.33143142457115" lon="-0.41300044698521365"><ele>191.0</ele><time>2026-04-26T14:24:41Z</time></trkpt><trkpt lat="43.33149875187052" lon="-0.41298144428401834"><ele>191.0</ele><time>2026-04-26T14:24:46Z</time></trkpt><trkpt lat="43.33158323444596" lon="-0.413129044101955"><ele>191.0</ele><time>2026-04-26T14:24:50Z</time></trkpt><trkpt lat="43.33158666763998" lon="-0.4132700959798158"><ele>191.0</ele><time>2026-04-26T14:24:52Z</time></trkpt><trkpt lat="43.33160728244125" lon="-0.4134132075740418"><ele>191.0</ele><time>2026-04-26T14:24:54Z</time></trkpt><trkpt lat="43.33163360400971" lon="-0.41357121705744215"><ele>191.0</ele><time>2026-04-26T14:24:56Z</time></trkpt><trkpt lat="43.33166610059094" lon="-0.41373364814118657"><ele>191.0</ele><time>2026-04-26T14:24:58Z</time></trkpt><trkpt lat="43.33168874291125" lon="-0.41389745505208086"><ele>191.0</ele><time>2026-04-26T14:25:00Z</time></trkpt><trkpt lat="43.33171570785749" lon="-0.41406225511356176"><ele>191.0</ele><time>2026-04-26T14:25:02Z</time></trkpt><trkpt lat="43.33172794680945" lon="-0.414148319819005"><ele>191.0</ele><time>2026-04-26T14:25:03Z</time></trkpt><trkpt lat="43.331746991505376" lon="-0.41431818178999824"><ele>191.0</ele><time>2026-04-26T14:25:05Z</time></trkpt><trkpt lat="43.33175639512239" lon="-0.4144048522549349"><ele>191.0</ele><time>2026-04-26T14:25:06Z</time></trkpt><trkpt lat="43.33176310008691" lon="-0.41449344743733024"><ele>191.0</ele><time>2026-04-26T14:25:07Z</time></trkpt><trkpt lat="43.331772025431896" lon="-0.4145826093810491"><ele>191.0</ele><time>2026-04-26T14:25:08Z</time></trkpt><trkpt lat="43.33178267527904" lon="-0.41467071115592413"><ele>191.0</ele><time>2026-04-26T14:25:09Z</time></trkpt><trkpt lat="43.33179296068176" lon="-0.4147607052357279"><ele>191.0</ele><time>2026-04-26T14:25:10Z</time></trkpt><trkpt lat="43.331796100505045" lon="-0.4148526462709272"><ele>191.0</ele><time>2026-04-26T14:25:11Z</time></trkpt><trkpt lat="43.33179955787938" lon="-0.4149426935485424"><ele>191.16666666666666</ele><time>2026-04-26T14:25:12Z</time></trkpt><trkpt lat="43.33180540767864" lon="-0.41503549128684986"><ele>191.33333333333331</ele><time>2026-04-26T14:25:13Z</time></trkpt><trkpt lat="43.33181504932604" lon="-0.4151286382527786"><ele>191.5</ele><time>2026-04-26T14:25:14Z</time></trkpt><trkpt lat="43.33182459579659" lon="-0.41522252460523795"><ele>191.66666666666666</ele><time>2026-04-26T14:25:15Z</time></trkpt><trkpt lat="43.33184159892482" lon="-0.4154185207493411"><ele>191.83333333333334</ele><time>2026-04-26T14:25:17Z</time></trkpt><trkpt lat="43.33184919886464" lon="-0.4155189064238812"><ele>192.0</ele><time>2026-04-26T14:25:18Z</time></trkpt><trkpt lat="43.33185714127009" lon="-0.41561810018821466"><ele>191.66666666666666</ele><time>2026-04-26T14:25:19Z</time></trkpt><trkpt lat="43.33186255513809" lon="-0.4157197579596923"><ele>191.33333333333334</ele><time>2026-04-26T14:25:20Z</time></trkpt><trkpt lat="43.33186532835234" lon="-0.4158226584374689"><ele>191.0</ele><time>2026-04-26T14:25:20.999Z</time></trkpt><trkpt lat="43.33186638472483" lon="-0.4159250395721725"><ele>190.66666666666669</ele><time>2026-04-26T14:25:21.999Z</time></trkpt><trkpt lat="43.33186998342425" lon="-0.4160274241078284"><ele>190.33333333333334</ele><time>2026-04-26T14:25:22.999Z</time></trkpt><trkpt lat="43.331875252242" lon="-0.41613111658146523"><ele>190.0</ele><time>2026-04-26T14:25:23.999Z</time></trkpt><trkpt lat="43.331882244080134" lon="-0.4162351758509461"><ele>190.0</ele><time>2026-04-26T14:25:24.999Z</time></trkpt><trkpt lat="43.331891904142516" lon="-0.41634123107216847"><ele>190.0</ele><time>2026-04-26T14:25:25.999Z</time></trkpt><trkpt lat="43.33189955987086" lon="-0.41645110116572764"><ele>190.0</ele><time>2026-04-26T14:25:26.999Z</time></trkpt><trkpt lat="43.33190937773103" lon="-0.4165513548984807"><ele>190.0</ele><time>2026-04-26T14:25:27.999Z</time></trkpt><trkpt lat="43.331916695624315" lon="-0.41665322536774946"><ele>190.0</ele><time>2026-04-26T14:25:28.999Z</time></trkpt><trkpt lat="43.33192672945562" lon="-0.4167577878460695"><ele>190.0</ele><time>2026-04-26T14:25:29.999Z</time></trkpt><trkpt lat="43.331933387296324" lon="-0.41686137035158577"><ele>190.0</ele><time>2026-04-26T14:25:30.999Z</time></trkpt><trkpt lat="43.331941676787935" lon="-0.4169596934661866"><ele>190.0</ele><time>2026-04-26T14:25:31.999Z</time></trkpt><trkpt lat="43.331947602819824" lon="-0.4170633623138991"><ele>190.0</ele><time>2026-04-26T14:25:32.999Z</time></trkpt><trkpt lat="43.33194901714013" lon="-0.4171638816331107"><ele>190.0</ele><time>2026-04-26T14:25:33.999Z</time></trkpt><trkpt lat="43.33195225122987" lon="-0.41727105264035497"><ele>190.0</ele><time>2026-04-26T14:25:34.999Z</time></trkpt><trkpt lat="43.331949990218604" lon="-0.41737606988575454"><ele>190.0</ele><time>2026-04-26T14:25:35.999Z</time></trkpt><trkpt lat="43.33194523441144" lon="-0.41747671701564054"><ele>190.0</ele><time>2026-04-26T14:25:37Z</time></trkpt><trkpt lat="43.331943690988616" lon="-0.4175803979271202"><ele>189.83333333333334</ele><time>2026-04-26T14:25:38Z</time></trkpt><trkpt lat="43.331940116546036" lon="-0.4176846479908913"><ele>189.66666666666669</ele><time>2026-04-26T14:25:39Z</time></trkpt><trkpt lat="43.33193561659861" lon="-0.41778844509248825"><ele>189.5</ele><time>2026-04-26T14:25:40Z</time></trkpt><trkpt lat="43.331933496881994" lon="-0.4178913001838235"><ele>189.33333333333334</ele><time>2026-04-26T14:25:41Z</time></trkpt><trkpt lat="43.331926002723485" lon="-0.41799880085307795"><ele>189.16666666666666</ele><time>2026-04-26T14:25:42Z</time></trkpt><trkpt lat="43.331915982559984" lon="-0.4181038586797445"><ele>189.0</ele><time>2026-04-26T14:25:43Z</time></trkpt><trkpt lat="43.33191036756799" lon="-0.41820842949022236"><ele>189.0</ele><time>2026-04-26T14:25:44Z</time></trkpt><trkpt lat="43.33190368231941" lon="-0.4183100372462145"><ele>189.0</ele><time>2026-04-26T14:25:45Z</time></trkpt><trkpt lat="43.33189875869912" lon="-0.418407205001592"><ele>189.0</ele><time>2026-04-26T14:25:46Z</time></trkpt><trkpt lat="43.33189343181018" lon="-0.4185190194547762"><ele>189.0</ele><time>2026-04-26T14:25:47Z</time></trkpt><trkpt lat="43.3318901280867" lon="-0.41862559773219543"><ele>189.0</ele><time>2026-04-26T14:25:48Z</time></trkpt><trkpt lat="43.33188285788196" lon="-0.41872598665324556"><ele>189.0</ele><time>2026-04-26T14:25:49Z</time></trkpt><trkpt lat="43.3318784298195" lon="-0.41883240394351523"><ele>189.0</ele><time>2026-04-26T14:25:50Z</time></trkpt><trkpt lat="43.3318792579305" lon="-0.4189320391476655"><ele>189.0</ele><time>2026-04-26T14:25:51Z</time></trkpt><trkpt lat="43.33187717717506" lon="-0.4190360137406386"><ele>189.0</ele><time>2026-04-26T14:25:52Z</time></trkpt><trkpt lat="43.331873500154984" lon="-0.41914224249718823"><ele>189.0</ele><time>2026-04-26T14:25:53Z</time></trkpt><trkpt lat="43.33187183445091" lon="-0.4192510917572229"><ele>189.0</ele><time>2026-04-26T14:25:54Z</time></trkpt><trkpt lat="43.33186516650451" lon="-0.4193553889020247"><ele>189.0</ele><time>2026-04-26T14:25:55Z</time></trkpt><trkpt lat="43.33186044189659" lon="-0.4194603838829911"><ele>189.0</ele><time>2026-04-26T14:25:56Z</time></trkpt><trkpt lat="43.33185806437507" lon="-0.41955941484658615"><ele>189.0</ele><time>2026-04-26T14:25:57Z</time></trkpt><trkpt lat="43.331859474519504" lon="-0.419655060041864"><ele>189.0</ele><time>2026-04-26T14:25:58Z</time></trkpt><trkpt lat="43.33185545527405" lon="-0.4197487070303334"><ele>189.0</ele><time>2026-04-26T14:25:59Z</time></trkpt><trkpt lat="43.3318536034918" lon="-0.41983975857124245"><ele>189.0</ele><time>2026-04-26T14:26:00Z</time></trkpt><trkpt lat="43.33186010342482" lon="-0.41999613321199797"><ele>189.0</ele><time>2026-04-26T14:26:02Z</time></trkpt><trkpt lat="43.331868628317814" lon="-0.4201435786740287"><ele>188.79999999999998</ele><time>2026-04-26T14:26:04Z</time></trkpt><trkpt lat="43.33191897421173" lon="-0.4202205109104769"><ele>188.6</ele><time>2026-04-26T14:26:06Z</time></trkpt><trkpt lat="43.33202033427934" lon="-0.42021548681695114"><ele>188.4</ele><time>2026-04-26T14:26:07Z</time></trkpt><trkpt lat="43.332145007558566" lon="-0.4201565156668197"><ele>188.2</ele><time>2026-04-26T14:26:09Z</time></trkpt><trkpt lat="43.33227024765884" lon="-0.4201160507571375"><ele>188.0</ele><time>2026-04-26T14:26:11Z</time></trkpt><trkpt lat="43.33233943586036" lon="-0.42010136577733104"><ele>188.0</ele><time>2026-04-26T14:26:12Z</time></trkpt><trkpt lat="43.332409575371045" lon="-0.42008964755457184"><ele>188.0</ele><time>2026-04-26T14:26:13Z</time></trkpt><trkpt lat="43.33248105830955" lon="-0.4200699877476674"><ele>188.0</ele><time>2026-04-26T14:26:14Z</time></trkpt><trkpt lat="43.332554196148955" lon="-0.42005268909048304"><ele>188.0</ele><time>2026-04-26T14:26:15Z</time></trkpt><trkpt lat="43.332626945875084" lon="-0.42003361113955834"><ele>188.0</ele><time>2026-04-26T14:26:16Z</time></trkpt><trkpt lat="43.3327003965999" lon="-0.42001664660206145"><ele>188.0</ele><time>2026-04-26T14:26:17Z</time></trkpt><trkpt lat="43.33277433187664" lon="-0.41999734226531293"><ele>188.0</ele><time>2026-04-26T14:26:18Z</time></trkpt><trkpt lat="43.33285002207459" lon="-0.41997536257314505"><ele>188.0</ele><time>2026-04-26T14:26:19Z</time></trkpt><trkpt lat="43.33293095687348" lon="-0.41996219563945764"><ele>188.0</ele><time>2026-04-26T14:26:20Z</time></trkpt><trkpt lat="43.333006858275944" lon="-0.4199406708566015"><ele>188.0</ele><time>2026-04-26T14:26:21Z</time></trkpt><trkpt lat="43.33307896563955" lon="-0.41991995274661637"><ele>188.0</ele><time>2026-04-26T14:26:22Z</time></trkpt><trkpt lat="43.333147124105494" lon="-0.41989802328351444"><ele>188.0</ele><time>2026-04-26T14:26:23Z</time></trkpt><trkpt lat="43.33322960474355" lon="-0.4198821793329824"><ele>188.0</ele><time>2026-04-26T14:26:24Z</time></trkpt><trkpt lat="43.33330670290512" lon="-0.4198673390286147"><ele>187.83333333333331</ele><time>2026-04-26T14:26:25Z</time></trkpt><trkpt lat="43.33338271482935" lon="-0.419864239831245"><ele>187.66666666666666</ele><time>2026-04-26T14:26:26Z</time></trkpt><trkpt lat="43.33345896113693" lon="-0.41985740505218994"><ele>187.5</ele><time>2026-04-26T14:26:27Z</time></trkpt><trkpt lat="43.333532113224145" lon="-0.4198547420444428"><ele>187.33333333333334</ele><time>2026-04-26T14:26:28Z</time></trkpt><trkpt lat="43.333607408431895" lon="-0.41987007116307656"><ele>187.16666666666669</ele><time>2026-04-26T14:26:29Z</time></trkpt><trkpt lat="43.33368401863971" lon="-0.4199004800695851"><ele>187.0</ele><time>2026-04-26T14:26:30Z</time></trkpt><trkpt lat="43.33375321291627" lon="-0.4199288468115695"><ele>187.0</ele><time>2026-04-26T14:26:31Z</time></trkpt><trkpt lat="43.3338279888475" lon="-0.4199435364695826"><ele>187.0</ele><time>2026-04-26T14:26:32Z</time></trkpt><trkpt lat="43.33389872949263" lon="-0.41995386480121233"><ele>187.0</ele><time>2026-04-26T14:26:33Z</time></trkpt><trkpt lat="43.33397239649361" lon="-0.41995894252039995"><ele>187.0</ele><time>2026-04-26T14:26:34Z</time></trkpt><trkpt lat="43.334040211937385" lon="-0.4199622241877247"><ele>187.0</ele><time>2026-04-26T14:26:35Z</time></trkpt><trkpt lat="43.334110789475176" lon="-0.4199608865383281"><ele>187.0</ele><time>2026-04-26T14:26:36Z</time></trkpt><trkpt lat="43.33417977853674" lon="-0.4199582951728462"><ele>187.0</ele><time>2026-04-26T14:26:37Z</time></trkpt><trkpt lat="43.33425510467812" lon="-0.4199544139910377"><ele>186.8</ele><time>2026-04-26T14:26:38Z</time></trkpt><trkpt lat="43.33438914228758" lon="-0.4199442440587652"><ele>186.6</ele><time>2026-04-26T14:26:40Z</time></trkpt><trkpt lat="43.33445885708273" lon="-0.41993728343521514"><ele>186.4</ele><time>2026-04-26T14:26:41Z</time></trkpt><trkpt lat="43.33452484343332" lon="-0.4199286755145574"><ele>186.20000000000002</ele><time>2026-04-26T14:26:42Z</time></trkpt><trkpt lat="43.334655473407295" lon="-0.4199179992314929"><ele>186.0</ele><time>2026-04-26T14:26:44Z</time></trkpt><trkpt lat="43.33472359526963" lon="-0.419908510722965"><ele>186.42857142857144</ele><time>2026-04-26T14:26:45Z</time></trkpt><trkpt lat="43.33479392809947" lon="-0.41989987778108495"><ele>186.85714285714286</ele><time>2026-04-26T14:26:46Z</time></trkpt><trkpt lat="43.33485870731009" lon="-0.41988945621139495"><ele>187.28571428571428</ele><time>2026-04-26T14:26:47Z</time></trkpt><trkpt lat="43.33492284739095" lon="-0.4198823718873086"><ele>187.71428571428572</ele><time>2026-04-26T14:26:48Z</time></trkpt><trkpt lat="43.3349924215424" lon="-0.4198725532080573"><ele>188.14285714285714</ele><time>2026-04-26T14:26:49Z</time></trkpt><trkpt lat="43.335060997015425" lon="-0.4198658939388772"><ele>188.57142857142858</ele><time>2026-04-26T14:26:50Z</time></trkpt><trkpt lat="43.33512936383376" lon="-0.4198635219408284"><ele>189.0</ele><time>2026-04-26T14:26:51Z</time></trkpt><trkpt lat="43.335196237356534" lon="-0.41986679866860627"><ele>189.0</ele><time>2026-04-26T14:26:52Z</time></trkpt><trkpt lat="43.33526512528916" lon="-0.41986060961632776"><ele>189.0</ele><time>2026-04-26T14:26:53Z</time></trkpt><trkpt lat="43.33533107080746" lon="-0.41985200058204797"><ele>189.0</ele><time>2026-04-26T14:26:54Z</time></trkpt><trkpt lat="43.33539787258615" lon="-0.41984736679964957"><ele>189.0</ele><time>2026-04-26T14:26:55Z</time></trkpt><trkpt lat="43.33546425493735" lon="-0.41984315868925914"><ele>189.0</ele><time>2026-04-26T14:26:56Z</time></trkpt><trkpt lat="43.33553372418617" lon="-0.41984554077922454"><ele>189.0</ele><time>2026-04-26T14:26:57Z</time></trkpt><trkpt lat="43.3355971974529" lon="-0.4198535113832385"><ele>189.0</ele><time>2026-04-26T14:26:58Z</time></trkpt><trkpt lat="43.33566559292131" lon="-0.4198515590365217"><ele>189.0</ele><time>2026-04-26T14:26:59Z</time></trkpt><trkpt lat="43.33578524754693" lon="-0.41985324728111534"><ele>189.0</ele><time>2026-04-26T14:27:01Z</time></trkpt><trkpt lat="43.335907308168316" lon="-0.4198400956739146"><ele>189.0</ele><time>2026-04-26T14:27:04Z</time></trkpt><trkpt lat="43.335992160255365" lon="-0.4198169777003042"><ele>189.0</ele><time>2026-04-26T14:27:07Z</time></trkpt><trkpt lat="43.33601853456206" lon="-0.41970790894409493"><ele>189.0</ele><time>2026-04-26T14:27:08Z</time></trkpt><trkpt lat="43.33606901105522" lon="-0.4196004367869998"><ele>189.0</ele><time>2026-04-26T14:27:10Z</time></trkpt><trkpt lat="43.33614969721593" lon="-0.41953056681562456"><ele>189.0</ele><time>2026-04-26T14:27:12Z</time></trkpt><trkpt lat="43.336247082986084" lon="-0.41948547299410616"><ele>189.0</ele><time>2026-04-26T14:27:14Z</time></trkpt><trkpt lat="43.336331432263776" lon="-0.41935820472874974"><ele>189.0</ele><time>2026-04-26T14:27:16Z</time></trkpt><trkpt lat="43.33641629283548" lon="-0.4192322517460973"><ele>189.0</ele><time>2026-04-26T14:27:18Z</time></trkpt><trkpt lat="43.336459262792644" lon="-0.4191664571438819"><ele>188.57142857142858</ele><time>2026-04-26T14:27:19Z</time></trkpt><trkpt lat="43.33650297410507" lon="-0.4190905407243205"><ele>188.14285714285714</ele><time>2026-04-26T14:27:20Z</time></trkpt><trkpt lat="43.33651828381706" lon="-0.4189973918064108"><ele>187.71428571428572</ele><time>2026-04-26T14:27:21Z</time></trkpt><trkpt lat="43.33654544326262" lon="-0.4189104471472281"><ele>187.28571428571428</ele><time>2026-04-26T14:27:22Z</time></trkpt><trkpt lat="43.33658353120111" lon="-0.4188280166682694"><ele>186.85714285714286</ele><time>2026-04-26T14:27:23Z</time></trkpt><trkpt lat="43.336607210892375" lon="-0.41873670342535946"><ele>186.42857142857144</ele><time>2026-04-26T14:27:24Z</time></trkpt><trkpt lat="43.336639042983215" lon="-0.4186384470479336"><ele>186.0</ele><time>2026-04-26T14:27:25Z</time></trkpt><trkpt lat="43.33667415521051" lon="-0.418550847341348"><ele>186.0</ele><time>2026-04-26T14:27:26Z</time></trkpt><trkpt lat="43.33671378676736" lon="-0.41845950557593364"><ele>186.0</ele><time>2026-04-26T14:27:27Z</time></trkpt><trkpt lat="43.33676510792869" lon="-0.41836199278226804"><ele>186.0</ele><time>2026-04-26T14:27:28Z</time></trkpt><trkpt lat="43.33685239608555" lon="-0.4182978682988382"><ele>186.0</ele><time>2026-04-26T14:27:29Z</time></trkpt><trkpt lat="43.336946631142524" lon="-0.4182441824214537"><ele>186.0</ele><time>2026-04-26T14:27:30Z</time></trkpt><trkpt lat="43.3370407303538" lon="-0.41823139423636607"><ele>186.0</ele><time>2026-04-26T14:27:31Z</time></trkpt><trkpt lat="43.337127605164795" lon="-0.41824286208817857"><ele>186.0</ele><time>2026-04-26T14:27:32Z</time></trkpt><trkpt lat="43.33720801322634" lon="-0.41820665084930264"><ele>186.0</ele><time>2026-04-26T14:27:33Z</time></trkpt><trkpt lat="43.337289999404454" lon="-0.41820621915773015"><ele>186.0</ele><time>2026-04-26T14:27:34Z</time></trkpt><trkpt lat="43.33735469562179" lon="-0.4181411845485139"><ele>186.0</ele><time>2026-04-26T14:27:35Z</time></trkpt><trkpt lat="43.33741786116592" lon="-0.41809226340824873"><ele>186.0</ele><time>2026-04-26T14:27:36Z</time></trkpt><trkpt lat="43.33748251020812" lon="-0.41805428136790046"><ele>185.0</ele><time>2026-04-26T14:27:37Z</time></trkpt><trkpt lat="43.33754721160101" lon="-0.41799368649064755"><ele>184.0</ele><time>2026-04-26T14:27:38Z</time></trkpt><trkpt lat="43.337607576115246" lon="-0.4179287796119693"><ele>183.0</ele><time>2026-04-26T14:27:39Z</time></trkpt><trkpt lat="43.337674210342605" lon="-0.417878224603681"><ele>182.0</ele><time>2026-04-26T14:27:40Z</time></trkpt><trkpt lat="43.33773530923761" lon="-0.4178236419339188"><ele>181.0</ele><time>2026-04-26T14:27:41Z</time></trkpt><trkpt lat="43.33779276214823" lon="-0.41776393868184686"><ele>180.0</ele><time>2026-04-26T14:27:42Z</time></trkpt><trkpt lat="43.3379052963007" lon="-0.417697007034034"><ele>180.0</ele><time>2026-04-26T14:27:44Z</time></trkpt><trkpt lat="43.33801989169597" lon="-0.41764706446831906"><ele>180.0</ele><time>2026-04-26T14:27:46Z</time></trkpt><trkpt lat="43.33813421873251" lon="-0.41761088004480135"><ele>180.0</ele><time>2026-04-26T14:27:48Z</time></trkpt><trkpt lat="43.33820706267385" lon="-0.4175754036263266"><ele>180.0</ele><time>2026-04-26T14:27:50Z</time></trkpt><trkpt lat="43.338131093128844" lon="-0.41759540801623113"><ele>180.0</ele><time>2026-04-26T14:27:54Z</time></trkpt><trkpt lat="43.33805568395523" lon="-0.4176251560593925"><ele>180.0</ele><time>2026-04-26T14:27:56Z</time></trkpt><trkpt lat="43.337975861769465" lon="-0.4176908148080268"><ele>180.0</ele><time>2026-04-26T14:27:58Z</time></trkpt><trkpt lat="43.33788984225168" lon="-0.4177380248112928"><ele>180.0</ele><time>2026-04-26T14:28:00Z</time></trkpt><trkpt lat="43.3377811377697" lon="-0.41781485807427815"><ele>180.0</ele><time>2026-04-26T14:28:02Z</time></trkpt><trkpt lat="43.33772491086856" lon="-0.41785658513284396"><ele>180.0</ele><time>2026-04-26T14:28:03Z</time></trkpt><trkpt lat="43.33763211027735" lon="-0.41794661995134524"><ele>179.7142857142857</ele><time>2026-04-26T14:28:05Z</time></trkpt><trkpt lat="43.33757495335588" lon="-0.4179951685781248"><ele>179.42857142857144</ele><time>2026-04-26T14:28:06Z</time></trkpt><trkpt lat="43.33751888238491" lon="-0.4180434432037902"><ele>179.14285714285714</ele><time>2026-04-26T14:28:07Z</time></trkpt><trkpt lat="43.33745550413471" lon="-0.41808820669512037"><ele>178.85714285714283</ele><time>2026-04-26T14:28:08Z</time></trkpt><trkpt lat="43.33739698483153" lon="-0.41812689579707424"><ele>178.57142857142856</ele><time>2026-04-26T14:28:09Z</time></trkpt><trkpt lat="43.337333367985956" lon="-0.4181632910405014"><ele>178.28571428571428</ele><time>2026-04-26T14:28:10Z</time></trkpt><trkpt lat="43.33727196343326" lon="-0.41818336006281015"><ele>178.0</ele><time>2026-04-26T14:28:11Z</time></trkpt><trkpt lat="43.33721083932809" lon="-0.41820664647163197"><ele>179.60000000000002</ele><time>2026-04-26T14:28:12Z</time></trkpt><trkpt lat="43.33714277248429" lon="-0.41822587384166626"><ele>181.20000000000002</ele><time>2026-04-26T14:28:13Z</time></trkpt><trkpt lat="43.337012386480595" lon="-0.4182519584404446"><ele>182.8</ele><time>2026-04-26T14:28:15Z</time></trkpt><trkpt lat="43.33688607339412" lon="-0.4182999312687168"><ele>184.4</ele><time>2026-04-26T14:28:17Z</time></trkpt><trkpt lat="43.3368272205502" lon="-0.4183445069437313"><ele>186.0</ele><time>2026-04-26T14:28:18Z</time></trkpt><trkpt lat="43.336778725577766" lon="-0.4184007326289761"><ele>186.0</ele><time>2026-04-26T14:28:19Z</time></trkpt><trkpt lat="43.33672949095412" lon="-0.41849471475647426"><ele>186.0</ele><time>2026-04-26T14:28:20Z</time></trkpt><trkpt lat="43.33669125813131" lon="-0.4185893877331465"><ele>186.0</ele><time>2026-04-26T14:28:22Z</time></trkpt><trkpt lat="43.33664155931804" lon="-0.4187250024205312"><ele>186.0</ele><time>2026-04-26T14:28:24Z</time></trkpt><trkpt lat="43.336597688971395" lon="-0.41882432202419223"><ele>186.0</ele><time>2026-04-26T14:28:26Z</time></trkpt><trkpt lat="43.33658077305536" lon="-0.4189214785392043"><ele>186.0</ele><time>2026-04-26T14:28:28Z</time></trkpt><trkpt lat="43.33655025858888" lon="-0.41901454650545916"><ele>185.66666666666666</ele><time>2026-04-26T14:28:30Z</time></trkpt><trkpt lat="43.336507638266305" lon="-0.4190919965339743"><ele>185.33333333333334</ele><time>2026-04-26T14:28:32Z</time></trkpt><trkpt lat="43.33646029373564" lon="-0.4191881820849279"><ele>185.0</ele><time>2026-04-26T14:28:34Z</time></trkpt><trkpt lat="43.33641187257213" lon="-0.41926981302928445"><ele>184.66666666666669</ele><time>2026-04-26T14:28:36Z</time></trkpt><trkpt lat="43.33635556791072" lon="-0.41936251541542874"><ele>184.33333333333334</ele><time>2026-04-26T14:28:38Z</time></trkpt><trkpt lat="43.33629427677026" lon="-0.41945636549377946"><ele>184.0</ele><time>2026-04-26T14:28:40Z</time></trkpt><trkpt lat="43.33622901651569" lon="-0.41955566721882553"><ele>185.0</ele><time>2026-04-26T14:28:42Z</time></trkpt><trkpt lat="43.33615050060246" lon="-0.419650342632045"><ele>186.0</ele><time>2026-04-26T14:28:44Z</time></trkpt><trkpt lat="43.33607983286606" lon="-0.41972560667373016"><ele>187.0</ele><time>2026-04-26T14:28:46Z</time></trkpt><trkpt lat="43.336031526948254" lon="-0.4197933197904952"><ele>188.0</ele><time>2026-04-26T14:28:48Z</time></trkpt><trkpt lat="43.33599882188199" lon="-0.4198973927323492"><ele>189.0</ele><time>2026-04-26T14:28:50Z</time></trkpt><trkpt lat="43.33597655444546" lon="-0.4200420766394145"><ele>189.0</ele><time>2026-04-26T14:28:52Z</time></trkpt><trkpt lat="43.33595434546095" lon="-0.42017343235836224"><ele>189.0</ele><time>2026-04-26T14:28:54Z</time></trkpt><trkpt lat="43.33594337158208" lon="-0.4202664607926604"><ele>189.0</ele><time>2026-04-26T14:28:55Z</time></trkpt><trkpt lat="43.335928913639776" lon="-0.4204353649867819"><ele>189.0</ele><time>2026-04-26T14:28:57Z</time></trkpt><trkpt lat="43.33590571712808" lon="-0.4205204878183326"><ele>189.0</ele><time>2026-04-26T14:28:58Z</time></trkpt><trkpt lat="43.33589411661912" lon="-0.4206102843664459"><ele>189.0</ele><time>2026-04-26T14:28:59Z</time></trkpt><trkpt lat="43.33587737632511" lon="-0.4206962989992792"><ele>188.57142857142858</ele><time>2026-04-26T14:29:00Z</time></trkpt><trkpt lat="43.33586548146735" lon="-0.4207880068243513"><ele>188.14285714285714</ele><time>2026-04-26T14:29:01Z</time></trkpt><trkpt lat="43.33585218430218" lon="-0.42087625989201777"><ele>187.71428571428572</ele><time>2026-04-26T14:29:02Z</time></trkpt><trkpt lat="43.33583363336049" lon="-0.4209628441793832"><ele>187.28571428571428</ele><time>2026-04-26T14:29:03Z</time></trkpt><trkpt lat="43.335822576780295" lon="-0.4210485772761773"><ele>186.85714285714286</ele><time>2026-04-26T14:29:04Z</time></trkpt><trkpt lat="43.33580923458716" lon="-0.4211436734687694"><ele>186.42857142857144</ele><time>2026-04-26T14:29:05Z</time></trkpt><trkpt lat="43.33578996505855" lon="-0.42123414648920404"><ele>186.0</ele><time>2026-04-26T14:29:06Z</time></trkpt><trkpt lat="43.33577548600442" lon="-0.42132622790754487"><ele>186.0</ele><time>2026-04-26T14:29:07Z</time></trkpt><trkpt lat="43.33575956591311" lon="-0.42141406104104207"><ele>186.0</ele><time>2026-04-26T14:29:08Z</time></trkpt><trkpt lat="43.33572567074225" lon="-0.4215908966991248"><ele>186.0</ele><time>2026-04-26T14:29:10Z</time></trkpt><trkpt lat="43.33569875498125" lon="-0.42167804383468854"><ele>186.0</ele><time>2026-04-26T14:29:11Z</time></trkpt><trkpt lat="43.335663243366625" lon="-0.4217617188725203"><ele>186.0</ele><time>2026-04-26T14:29:12Z</time></trkpt><trkpt lat="43.33562305941671" lon="-0.42184960788129605"><ele>186.0</ele><time>2026-04-26T14:29:13Z</time></trkpt><trkpt lat="43.33558432253428" lon="-0.421930560845222"><ele>186.14285714285717</ele><time>2026-04-26T14:29:14Z</time></trkpt><trkpt lat="43.33554168759375" lon="-0.4220111263425442"><ele>186.28571428571428</ele><time>2026-04-26T14:29:15Z</time></trkpt><trkpt lat="43.33549897904076" lon="-0.4220915993009471"><ele>186.42857142857144</ele><time>2026-04-26T14:29:16Z</time></trkpt><trkpt lat="43.33545715734493" lon="-0.42217269078185626"><ele>186.57142857142858</ele><time>2026-04-26T14:29:17Z</time></trkpt><trkpt lat="43.33541655684896" lon="-0.422253758866588"><ele>186.71428571428572</ele><time>2026-04-26T14:29:18Z</time></trkpt><trkpt lat="43.335369637754425" lon="-0.42232847164933984"><ele>186.85714285714286</ele><time>2026-04-26T14:29:19Z</time></trkpt><trkpt lat="43.33532617389128" lon="-0.4224083880666893"><ele>187.0</ele><time>2026-04-26T14:29:20Z</time></trkpt><trkpt lat="43.335283225406506" lon="-0.4224868514258444"><ele>187.0</ele><time>2026-04-26T14:29:21Z</time></trkpt><trkpt lat="43.33524174438221" lon="-0.4225642597495573"><ele>187.0</ele><time>2026-04-26T14:29:22Z</time></trkpt><trkpt lat="43.33519232228141" lon="-0.42264014918037"><ele>187.0</ele><time>2026-04-26T14:29:23Z</time></trkpt><trkpt lat="43.3351436601203" lon="-0.422713570749695"><ele>187.0</ele><time>2026-04-26T14:29:24Z</time></trkpt><trkpt lat="43.33509489812863" lon="-0.42278577673074497"><ele>187.0</ele><time>2026-04-26T14:29:25Z</time></trkpt><trkpt lat="43.33504838658249" lon="-0.42285772267413324"><ele>187.0</ele><time>2026-04-26T14:29:26Z</time></trkpt><trkpt lat="43.334997994678936" lon="-0.422927361842282"><ele>187.0</ele><time>2026-04-26T14:29:27Z</time></trkpt><trkpt lat="43.334940442169206" lon="-0.42299270442404063"><ele>186.7142857142857</ele><time>2026-04-26T14:29:28Z</time></trkpt><trkpt lat="43.33488657643372" lon="-0.42305515271081123"><ele>186.42857142857144</ele><time>2026-04-26T14:29:29Z</time></trkpt><trkpt lat="43.334826616724925" lon="-0.42311143694702824"><ele>186.14285714285714</ele><time>2026-04-26T14:29:30Z</time></trkpt><trkpt lat="43.33476719466887" lon="-0.42316264813541954"><ele>185.85714285714283</ele><time>2026-04-26T14:29:31Z</time></trkpt><trkpt lat="43.33470459442767" lon="-0.4232097785588583"><ele>185.57142857142856</ele><time>2026-04-26T14:29:32Z</time></trkpt><trkpt lat="43.33464248584292" lon="-0.4232633359035152"><ele>185.28571428571428</ele><time>2026-04-26T14:29:33Z</time></trkpt><trkpt lat="43.334581008841745" lon="-0.4233195648318348"><ele>185.0</ele><time>2026-04-26T14:29:34Z</time></trkpt><trkpt lat="43.334520662156635" lon="-0.42337100741358086"><ele>184.99999999999997</ele><time>2026-04-26T14:29:35Z</time></trkpt><trkpt lat="43.334457824325156" lon="-0.42342323017751937"><ele>185.0</ele><time>2026-04-26T14:29:36Z</time></trkpt><trkpt lat="43.33440006490122" lon="-0.42347519223080476"><ele>185.0</ele><time>2026-04-26T14:29:37Z</time></trkpt><trkpt lat="43.33433993995495" lon="-0.42352727617012087"><ele>185.0</ele><time>2026-04-26T14:29:38Z</time></trkpt><trkpt lat="43.33427810328269" lon="-0.42358275094444875"><ele>185.0</ele><time>2026-04-26T14:29:39Z</time></trkpt><trkpt lat="43.33421733475146" lon="-0.423637167622182"><ele>184.99999999999997</ele><time>2026-04-26T14:29:40Z</time></trkpt><trkpt lat="43.33415912707201" lon="-0.4236910137807872"><ele>185.0</ele><time>2026-04-26T14:29:41Z</time></trkpt><trkpt lat="43.33410367226212" lon="-0.4237410184642848"><ele>185.0</ele><time>2026-04-26T14:29:42Z</time></trkpt><trkpt lat="43.3340481228067" lon="-0.42379829932282026"><ele>185.0</ele><time>2026-04-26T14:29:43Z</time></trkpt><trkpt lat="43.333954017771354" lon="-0.42390046038505874"><ele>185.0</ele><time>2026-04-26T14:29:45Z</time></trkpt><trkpt lat="43.33387598827468" lon="-0.4240046021442003"><ele>185.0</ele><time>2026-04-26T14:29:47Z</time></trkpt><trkpt lat="43.33383367276867" lon="-0.42410371119687057"><ele>185.0</ele><time>2026-04-26T14:29:49Z</time></trkpt><trkpt lat="43.333858999518526" lon="-0.42423654776956543"><ele>185.0</ele><time>2026-04-26T14:29:51Z</time></trkpt><trkpt lat="43.33387648799014" lon="-0.4243860477966584"><ele>185.0</ele><time>2026-04-26T14:29:53Z</time></trkpt><trkpt lat="43.33390309312381" lon="-0.4245397627096484"><ele>185.0</ele><time>2026-04-26T14:29:55Z</time></trkpt><trkpt lat="43.333928119709235" lon="-0.4246241400100829"><ele>185.0</ele><time>2026-04-26T14:29:56Z</time></trkpt><trkpt lat="43.33394895205115" lon="-0.42471468226709924"><ele>185.0</ele><time>2026-04-26T14:29:57Z</time></trkpt><trkpt lat="43.33397071083094" lon="-0.4248008634959333"><ele>185.0</ele><time>2026-04-26T14:29:58Z</time></trkpt><trkpt lat="43.33399482043284" lon="-0.4248888926743193"><ele>184.85714285714283</ele><time>2026-04-26T14:29:59Z</time></trkpt><trkpt lat="43.33401980259064" lon="-0.4249740024454885"><ele>184.71428571428572</ele><time>2026-04-26T14:30:00Z</time></trkpt><trkpt lat="43.33404469131498" lon="-0.4250636985459314"><ele>184.57142857142856</ele><time>2026-04-26T14:30:01Z</time></trkpt><trkpt lat="43.33407027090774" lon="-0.42515040121267433"><ele>184.42857142857142</ele><time>2026-04-26T14:30:02Z</time></trkpt><trkpt lat="43.33409840283838" lon="-0.4252386509338523"><ele>184.28571428571428</ele><time>2026-04-26T14:30:03Z</time></trkpt><trkpt lat="43.33412364590342" lon="-0.4253260426828562"><ele>184.14285714285714</ele><time>2026-04-26T14:30:04Z</time></trkpt><trkpt lat="43.33414791530472" lon="-0.4254150582865276"><ele>184.0</ele><time>2026-04-26T14:30:05Z</time></trkpt><trkpt lat="43.33416960362646" lon="-0.4255042916756591"><ele>184.0</ele><time>2026-04-26T14:30:06Z</time></trkpt><trkpt lat="43.334198638890825" lon="-0.42559659403875716"><ele>184.0</ele><time>2026-04-26T14:30:07Z</time></trkpt><trkpt lat="43.334225521474025" lon="-0.4256825410271495"><ele>184.0</ele><time>2026-04-26T14:30:08Z</time></trkpt><trkpt lat="43.33424289509566" lon="-0.42577309740791336"><ele>184.0</ele><time>2026-04-26T14:30:09Z</time></trkpt><trkpt lat="43.334253486581886" lon="-0.42586314480909543"><ele>184.0</ele><time>2026-04-26T14:30:10Z</time></trkpt><trkpt lat="43.334256015892485" lon="-0.4259509168121151"><ele>184.0</ele><time>2026-04-26T14:30:11Z</time></trkpt><trkpt lat="43.33421671921676" lon="-0.426020376976721"><ele>184.0</ele><time>2026-04-26T14:30:12Z</time></trkpt><trkpt lat="43.33430127938161" lon="-0.42610923885576407"><ele>184.0</ele><time>2026-04-26T14:30:13Z</time></trkpt><trkpt lat="43.33435249203436" lon="-0.4261746720067749"><ele>184.0</ele><time>2026-04-26T14:30:14Z</time></trkpt><trkpt lat="43.33439287373553" lon="-0.4262504385876761"><ele>184.0</ele><time>2026-04-26T14:30:15Z</time></trkpt><trkpt lat="43.334420621858044" lon="-0.42633610611964773"><ele>184.0</ele><time>2026-04-26T14:30:16Z</time></trkpt><trkpt lat="43.334447765182645" lon="-0.42643141095827025"><ele>184.0</ele><time>2026-04-26T14:30:17Z</time></trkpt><trkpt lat="43.33449515440253" lon="-0.42661075855784464"><ele>184.0</ele><time>2026-04-26T14:30:19Z</time></trkpt><trkpt lat="43.334518927616884" lon="-0.4267020078831043"><ele>184.16666666666669</ele><time>2026-04-26T14:30:20Z</time></trkpt><trkpt lat="43.334540302075794" lon="-0.4267978971439325"><ele>184.33333333333334</ele><time>2026-04-26T14:30:21Z</time></trkpt><trkpt lat="43.33456335841002" lon="-0.4268897594013085"><ele>184.5</ele><time>2026-04-26T14:30:22Z</time></trkpt><trkpt lat="43.334586361770334" lon="-0.4269849516206505"><ele>184.66666666666666</ele><time>2026-04-26T14:30:23Z</time></trkpt><trkpt lat="43.33461370905356" lon="-0.4271869950528689"><ele>184.83333333333331</ele><time>2026-04-26T14:30:25Z</time></trkpt><trkpt lat="43.33461769558009" lon="-0.42729150359379764"><ele>185.0</ele><time>2026-04-26T14:30:26Z</time></trkpt><trkpt lat="43.33462327101517" lon="-0.42738942995336654"><ele>185.16666666666666</ele><time>2026-04-26T14:30:27Z</time></trkpt><trkpt lat="43.33462732202697" lon="-0.42749254466801534"><ele>185.33333333333331</ele><time>2026-04-26T14:30:28Z</time></trkpt><trkpt lat="43.33462927440765" lon="-0.427597489159085"><ele>185.5</ele><time>2026-04-26T14:30:29Z</time></trkpt><trkpt lat="43.33463802290604" lon="-0.4277043175467308"><ele>185.66666666666666</ele><time>2026-04-26T14:30:30Z</time></trkpt><trkpt lat="43.334642922691366" lon="-0.42780801688714293"><ele>185.83333333333334</ele><time>2026-04-26T14:30:31Z</time></trkpt><trkpt lat="43.33464876667659" lon="-0.4279146160641363"><ele>186.0</ele><time>2026-04-26T14:30:32Z</time></trkpt><trkpt lat="43.334654373491134" lon="-0.428017909773913"><ele>185.66666666666666</ele><time>2026-04-26T14:30:33Z</time></trkpt><trkpt lat="43.33465858391939" lon="-0.4281219137488817"><ele>185.33333333333334</ele><time>2026-04-26T14:30:34Z</time></trkpt><trkpt lat="43.334664294026595" lon="-0.42822500171957134"><ele>185.0</ele><time>2026-04-26T14:30:35Z</time></trkpt><trkpt lat="43.33466827602853" lon="-0.4283260858329379"><ele>184.66666666666669</ele><time>2026-04-26T14:30:36Z</time></trkpt><trkpt lat="43.33467499443426" lon="-0.42842750546541164"><ele>184.33333333333334</ele><time>2026-04-26T14:30:37Z</time></trkpt><trkpt lat="43.33468190329043" lon="-0.42853661156577244"><ele>184.0</ele><time>2026-04-26T14:30:38Z</time></trkpt><trkpt lat="43.33468773728376" lon="-0.42863738652968614"><ele>184.0</ele><time>2026-04-26T14:30:39Z</time></trkpt><trkpt lat="43.33469196994764" lon="-0.42874037824929084"><ele>184.0</ele><time>2026-04-26T14:30:40Z</time></trkpt><trkpt lat="43.33469796033375" lon="-0.42884229138661917"><ele>184.0</ele><time>2026-04-26T14:30:41Z</time></trkpt><trkpt lat="43.33470137460718" lon="-0.42894053088151723"><ele>184.0</ele><time>2026-04-26T14:30:42Z</time></trkpt><trkpt lat="43.33470522673021" lon="-0.42904123122765053"><ele>184.0</ele><time>2026-04-26T14:30:43Z</time></trkpt><trkpt lat="43.334715184528136" lon="-0.42914296390386136"><ele>184.0</ele><time>2026-04-26T14:30:44Z</time></trkpt><trkpt lat="43.33472372274429" lon="-0.4292449770595502"><ele>184.0</ele><time>2026-04-26T14:30:45Z</time></trkpt><trkpt lat="43.334740177873044" lon="-0.4293375005943543"><ele>184.0</ele><time>2026-04-26T14:30:46Z</time></trkpt><trkpt lat="43.33476891428744" lon="-0.4294345394784759"><ele>184.0</ele><time>2026-04-26T14:30:47Z</time></trkpt><trkpt lat="43.334792868210606" lon="-0.429527949203302"><ele>184.0</ele><time>2026-04-26T14:30:48Z</time></trkpt><trkpt lat="43.3348173391263" lon="-0.429621868040637"><ele>184.0</ele><time>2026-04-26T14:30:49Z</time></trkpt><trkpt lat="43.334844559315144" lon="-0.42971370433012196"><ele>184.0</ele><time>2026-04-26T14:30:50Z</time></trkpt><trkpt lat="43.334871890760404" lon="-0.4298072515191078"><ele>184.0</ele><time>2026-04-26T14:30:51Z</time></trkpt><trkpt lat="43.334900650521746" lon="-0.4299039549551363"><ele>184.0</ele><time>2026-04-26T14:30:52Z</time></trkpt><trkpt lat="43.33492373875291" lon="-0.4299980130789094"><ele>184.0</ele><time>2026-04-26T14:30:53Z</time></trkpt><trkpt lat="43.334949870688746" lon="-0.4300885144388804"><ele>184.0</ele><time>2026-04-26T14:30:54Z</time></trkpt><trkpt lat="43.3349751801163" lon="-0.4301774139966389"><ele>184.0</ele><time>2026-04-26T14:30:55Z</time></trkpt><trkpt lat="43.33500256295646" lon="-0.43026909323066137"><ele>184.0</ele><time>2026-04-26T14:30:56Z</time></trkpt><trkpt lat="43.33503050684642" lon="-0.43035244564067116"><ele>184.0</ele><time>2026-04-26T14:30:57Z</time></trkpt><trkpt lat="43.33505525041961" lon="-0.4304442715234379"><ele>184.0</ele><time>2026-04-26T14:30:58Z</time></trkpt><trkpt lat="43.335082182128296" lon="-0.4305314211134617"><ele>184.0</ele><time>2026-04-26T14:30:59Z</time></trkpt><trkpt lat="43.33510872491964" lon="-0.4306181769575516"><ele>183.83333333333334</ele><time>2026-04-26T14:31:00Z</time></trkpt><trkpt lat="43.335137257576996" lon="-0.4307007732704242"><ele>183.66666666666669</ele><time>2026-04-26T14:31:01Z</time></trkpt><trkpt lat="43.33517164172859" lon="-0.43077847286254556"><ele>183.5</ele><time>2026-04-26T14:31:02Z</time></trkpt><trkpt lat="43.33520531382804" lon="-0.43085805004779926"><ele>183.33333333333334</ele><time>2026-04-26T14:31:03Z</time></trkpt><trkpt lat="43.335280752373315" lon="-0.43098737405248455"><ele>183.16666666666666</ele><time>2026-04-26T14:31:05Z</time></trkpt><trkpt lat="43.33532535522397" lon="-0.4310556589046459"><ele>183.0</ele><time>2026-04-26T14:31:06Z</time></trkpt><trkpt lat="43.335441098909286" lon="-0.43109571173092437"><ele>183.0</ele><time>2026-04-26T14:31:08Z</time></trkpt><trkpt lat="43.33554453298838" lon="-0.43118211231620895"><ele>183.0</ele><time>2026-04-26T14:31:10Z</time></trkpt><trkpt lat="43.335544735923364" lon="-0.43129479157638934"><ele>183.0</ele><time>2026-04-26T14:31:11Z</time></trkpt><trkpt lat="43.335531016159244" lon="-0.43138659014638775"><ele>183.0</ele><time>2026-04-26T14:31:12Z</time></trkpt><trkpt lat="43.33554105802711" lon="-0.43155450453595356"><ele>183.0</ele><time>2026-04-26T14:31:14Z</time></trkpt><trkpt lat="43.33557585448831" lon="-0.43163167868286223"><ele>183.0</ele><time>2026-04-26T14:31:15Z</time></trkpt><trkpt lat="43.33562699754494" lon="-0.4317038350654949"><ele>183.0</ele><time>2026-04-26T14:31:16Z</time></trkpt><trkpt lat="43.335672266557616" lon="-0.4317782262539218"><ele>183.0</ele><time>2026-04-26T14:31:17Z</time></trkpt><trkpt lat="43.33570905078205" lon="-0.43186107550948777"><ele>183.0</ele><time>2026-04-26T14:31:18Z</time></trkpt><trkpt lat="43.33574266189381" lon="-0.43194474556181633"><ele>183.0</ele><time>2026-04-26T14:31:19Z</time></trkpt><trkpt lat="43.335779519686795" lon="-0.4320285639808538"><ele>183.0</ele><time>2026-04-26T14:31:20Z</time></trkpt><trkpt lat="43.33581192968196" lon="-0.43211389623005303"><ele>183.0</ele><time>2026-04-26T14:31:21Z</time></trkpt><trkpt lat="43.33583609247107" lon="-0.43220543425339353"><ele>183.0</ele><time>2026-04-26T14:31:22Z</time></trkpt><trkpt lat="43.335855147537664" lon="-0.43230369473074276"><ele>183.0</ele><time>2026-04-26T14:31:23Z</time></trkpt><trkpt lat="43.3358684427394" lon="-0.43240100424905004"><ele>183.0</ele><time>2026-04-26T14:31:24Z</time></trkpt><trkpt lat="43.33587899855891" lon="-0.4325020625845486"><ele>183.0</ele><time>2026-04-26T14:31:25Z</time></trkpt><trkpt lat="43.335881410188925" lon="-0.43260406290915526"><ele>183.0</ele><time>2026-04-26T14:31:26Z</time></trkpt><trkpt lat="43.335886158539275" lon="-0.4327052115728803"><ele>183.0</ele><time>2026-04-26T14:31:27Z</time></trkpt><trkpt lat="43.33589732009446" lon="-0.4328082351017756"><ele>183.0</ele><time>2026-04-26T14:31:28Z</time></trkpt><trkpt lat="43.33590481856735" lon="-0.43291343268650273"><ele>182.83333333333334</ele><time>2026-04-26T14:31:29Z</time></trkpt><trkpt lat="43.3359117534449" lon="-0.4330158220298092"><ele>182.66666666666666</ele><time>2026-04-26T14:31:30Z</time></trkpt><trkpt lat="43.33592517606943" lon="-0.43312017487721843"><ele>182.5</ele><time>2026-04-26T14:31:31Z</time></trkpt><trkpt lat="43.335927524537304" lon="-0.43323020681751295"><ele>182.33333333333331</ele><time>2026-04-26T14:31:32Z</time></trkpt><trkpt lat="43.33593036140054" lon="-0.4333366326491322"><ele>182.16666666666666</ele><time>2026-04-26T14:31:33Z</time></trkpt><trkpt lat="43.33593900083827" lon="-0.4334460075331757"><ele>182.0</ele><time>2026-04-26T14:31:34Z</time></trkpt><trkpt lat="43.33594966690788" lon="-0.43355137155009693"><ele>182.0</ele><time>2026-04-26T14:31:35Z</time></trkpt><trkpt lat="43.33596223451452" lon="-0.43365740708737965"><ele>182.0</ele><time>2026-04-26T14:31:36Z</time></trkpt><trkpt lat="43.33598142396868" lon="-0.43376117533442504"><ele>182.0</ele><time>2026-04-26T14:31:37Z</time></trkpt><trkpt lat="43.33600473841143" lon="-0.43386202732636525"><ele>182.0</ele><time>2026-04-26T14:31:38Z</time></trkpt><trkpt lat="43.33603294209652" lon="-0.433955251703249"><ele>182.0</ele><time>2026-04-26T14:31:39Z</time></trkpt><trkpt lat="43.33606196687396" lon="-0.43404732376442345"><ele>182.0</ele><time>2026-04-26T14:31:40Z</time></trkpt><trkpt lat="43.33608677430264" lon="-0.4341348697076134"><ele>182.0</ele><time>2026-04-26T14:31:41Z</time></trkpt><trkpt lat="43.33613341656576" lon="-0.43426454833760864"><ele>182.0</ele><time>2026-04-26T14:31:43Z</time></trkpt><trkpt lat="43.33616645874409" lon="-0.43437530720381423"><ele>182.0</ele><time>2026-04-26T14:31:45Z</time></trkpt><trkpt lat="43.33622369232408" lon="-0.4344465610376631"><ele>182.0</ele><time>2026-04-26T14:31:47Z</time></trkpt><trkpt lat="43.33624607245665" lon="-0.43457983017067914"><ele>182.0</ele><time>2026-04-26T14:31:49Z</time></trkpt><trkpt lat="43.33615108639529" lon="-0.43465464021941075"><ele>182.0</ele><time>2026-04-26T14:31:51Z</time></trkpt><trkpt lat="43.33604602859293" lon="-0.43460480706182913"><ele>181.8</ele><time>2026-04-26T14:31:53Z</time></trkpt><trkpt lat="43.335943973526646" lon="-0.43466591953849815"><ele>181.6</ele><time>2026-04-26T14:31:55Z</time></trkpt><trkpt lat="43.33589300323847" lon="-0.4347308927327399"><ele>181.4</ele><time>2026-04-26T14:31:56Z</time></trkpt><trkpt lat="43.335796661796884" lon="-0.43483256490145306"><ele>181.20000000000002</ele><time>2026-04-26T14:31:58Z</time></trkpt><trkpt lat="43.33570308881565" lon="-0.4349290941838855"><ele>181.0</ele><time>2026-04-26T14:32:00Z</time></trkpt><trkpt lat="43.33561068111491" lon="-0.43501362956471706"><ele>181.0</ele><time>2026-04-26T14:32:02Z</time></trkpt><trkpt lat="43.33551167404001" lon="-0.4351517378469231"><ele>181.0</ele><time>2026-04-26T14:32:05Z</time></trkpt><trkpt lat="43.33557213618716" lon="-0.4353039242091714"><ele>181.0</ele><time>2026-04-26T14:32:07Z</time></trkpt><trkpt lat="43.33566220859788" lon="-0.43533387418129216"><ele>181.0</ele><time>2026-04-26T14:32:09Z</time></trkpt><trkpt lat="43.33572743125034" lon="-0.435328284396873"><ele>181.0</ele><time>2026-04-26T14:32:10Z</time></trkpt><trkpt lat="43.33582154774569" lon="-0.4353891019344637"><ele>181.16666666666669</ele><time>2026-04-26T14:32:12Z</time></trkpt><trkpt lat="43.33592704364762" lon="-0.43547104864803693"><ele>181.33333333333334</ele><time>2026-04-26T14:32:14Z</time></trkpt><trkpt lat="43.33596629664359" lon="-0.43553891777965337"><ele>181.5</ele><time>2026-04-26T14:32:15Z</time></trkpt><trkpt lat="43.336012419228126" lon="-0.43560105364465995"><ele>181.66666666666666</ele><time>2026-04-26T14:32:16Z</time></trkpt><trkpt lat="43.33605587956711" lon="-0.435667490509828"><ele>181.83333333333331</ele><time>2026-04-26T14:32:17Z</time></trkpt><trkpt lat="43.33610525479991" lon="-0.4357300019744516"><ele>182.0</ele><time>2026-04-26T14:32:18Z</time></trkpt><trkpt lat="43.33620303437381" lon="-0.43583223506110047"><ele>182.0</ele><time>2026-04-26T14:32:20Z</time></trkpt><trkpt lat="43.33626129127896" lon="-0.4358849622946735"><ele>182.0</ele><time>2026-04-26T14:32:21Z</time></trkpt><trkpt lat="43.336368962171214" lon="-0.4359942856501305"><ele>182.0</ele><time>2026-04-26T14:32:23Z</time></trkpt><trkpt lat="43.33641749375174" lon="-0.43605664583286946"><ele>182.0</ele><time>2026-04-26T14:32:24Z</time></trkpt><trkpt lat="43.33644930660926" lon="-0.4361407454533664"><ele>182.0</ele><time>2026-04-26T14:32:25Z</time></trkpt><trkpt lat="43.33645077436619" lon="-0.43624455918904986"><ele>182.0</ele><time>2026-04-26T14:32:26Z</time></trkpt><trkpt lat="43.33647516582327" lon="-0.43632566093399855"><ele>182.0</ele><time>2026-04-26T14:32:27Z</time></trkpt><trkpt lat="43.33651352879091" lon="-0.43640939051761585"><ele>182.0</ele><time>2026-04-26T14:32:28Z</time></trkpt><trkpt lat="43.336538955419044" lon="-0.43649649478559766"><ele>182.0</ele><time>2026-04-26T14:32:29Z</time></trkpt><trkpt lat="43.336547192966265" lon="-0.43658975630162844"><ele>182.0</ele><time>2026-04-26T14:32:30Z</time></trkpt><trkpt lat="43.33657973889567" lon="-0.4366793365214884"><ele>182.0</ele><time>2026-04-26T14:32:31Z</time></trkpt><trkpt lat="43.336587050796616" lon="-0.4367756822926966"><ele>182.0</ele><time>2026-04-26T14:32:32Z</time></trkpt><trkpt lat="43.33660771731623" lon="-0.43686992317222956"><ele>182.0</ele><time>2026-04-26T14:32:33Z</time></trkpt><trkpt lat="43.336630102585744" lon="-0.4369618106654308"><ele>182.0</ele><time>2026-04-26T14:32:34Z</time></trkpt><trkpt lat="43.33665451993231" lon="-0.43705563867243724"><ele>182.0</ele><time>2026-04-26T14:32:35Z</time></trkpt><trkpt lat="43.33668322440022" lon="-0.4371463080861651"><ele>182.0</ele><time>2026-04-26T14:32:36Z</time></trkpt><trkpt lat="43.33671192044011" lon="-0.4372298621725051"><ele>182.0</ele><time>2026-04-26T14:32:37Z</time></trkpt><trkpt lat="43.33675938832018" lon="-0.4373063145188181"><ele>182.0</ele><time>2026-04-26T14:32:38Z</time></trkpt><trkpt lat="43.33678380622328" lon="-0.4373950362609732"><ele>182.0</ele><time>2026-04-26T14:32:39Z</time></trkpt><trkpt lat="43.33682640575052" lon="-0.43747023744201274"><ele>182.0</ele><time>2026-04-26T14:32:40Z</time></trkpt><trkpt lat="43.33686825712957" lon="-0.43754590340631705"><ele>182.0</ele><time>2026-04-26T14:32:41Z</time></trkpt><trkpt lat="43.336906517161026" lon="-0.4376244640292164"><ele>182.0</ele><time>2026-04-26T14:32:42Z</time></trkpt><trkpt lat="43.33694680487562" lon="-0.4377062955252983"><ele>182.0</ele><time>2026-04-26T14:32:43Z</time></trkpt><trkpt lat="43.336991460926605" lon="-0.4377914871221277"><ele>182.0</ele><time>2026-04-26T14:32:44Z</time></trkpt><trkpt lat="43.337037095648746" lon="-0.43787527519102154"><ele>182.0</ele><time>2026-04-26T14:32:45Z</time></trkpt><trkpt lat="43.33708377307325" lon="-0.4379605814438924"><ele>182.0</ele><time>2026-04-26T14:32:46Z</time></trkpt><trkpt lat="43.33712800514914" lon="-0.43805028727080114"><ele>182.0</ele><time>2026-04-26T14:32:47Z</time></trkpt><trkpt lat="43.33717092137712" lon="-0.4381404590190387"><ele>182.0</ele><time>2026-04-26T14:32:48Z</time></trkpt><trkpt lat="43.33721399093484" lon="-0.43823029889271475"><ele>182.0</ele><time>2026-04-26T14:32:49Z</time></trkpt><trkpt lat="43.337256114250735" lon="-0.4383180544685145"><ele>182.0</ele><time>2026-04-26T14:32:50Z</time></trkpt><trkpt lat="43.33730061399314" lon="-0.4384027658101669"><ele>182.0</ele><time>2026-04-26T14:32:51Z</time></trkpt><trkpt lat="43.337349431888335" lon="-0.43848835273984677"><ele>182.0</ele><time>2026-04-26T14:32:52Z</time></trkpt><trkpt lat="43.33739350161692" lon="-0.43856627428636413"><ele>182.0</ele><time>2026-04-26T14:32:53Z</time></trkpt><trkpt lat="43.33743233652565" lon="-0.43866286000662336"><ele>182.0</ele><time>2026-04-26T14:32:54Z</time></trkpt><trkpt lat="43.33747511596862" lon="-0.43874525585382185"><ele>182.0</ele><time>2026-04-26T14:32:55Z</time></trkpt><trkpt lat="43.337524543837446" lon="-0.4388226542223501"><ele>182.0</ele><time>2026-04-26T14:32:56Z</time></trkpt><trkpt lat="43.33757817311399" lon="-0.4389276625196848"><ele>182.0</ele><time>2026-04-26T14:32:57Z</time></trkpt><trkpt lat="43.33761649177027" lon="-0.439003021782417"><ele>182.0</ele><time>2026-04-26T14:32:58Z</time></trkpt><trkpt lat="43.33766236057818" lon="-0.439093327345426"><ele>181.83333333333331</ele><time>2026-04-26T14:32:59Z</time></trkpt><trkpt lat="43.33770776906658" lon="-0.4391827266284058"><ele>181.66666666666666</ele><time>2026-04-26T14:33:00Z</time></trkpt><trkpt lat="43.33775396236954" lon="-0.43927367103578885"><ele>181.5</ele><time>2026-04-26T14:33:01Z</time></trkpt><trkpt lat="43.33779871656893" lon="-0.43936178217337296"><ele>181.33333333333334</ele><time>2026-04-26T14:33:02Z</time></trkpt><trkpt lat="43.33783870139801" lon="-0.4394621732571386"><ele>181.16666666666669</ele><time>2026-04-26T14:33:03Z</time></trkpt><trkpt lat="43.337877998484544" lon="-0.43955290680173514"><ele>181.0</ele><time>2026-04-26T14:33:04Z</time></trkpt><trkpt lat="43.3379240476404" lon="-0.43963651224628303"><ele>181.0</ele><time>2026-04-26T14:33:05Z</time></trkpt><trkpt lat="43.33797104268476" lon="-0.4397265325872914"><ele>181.0</ele><time>2026-04-26T14:33:06Z</time></trkpt><trkpt lat="43.338018819304295" lon="-0.43981668211825914"><ele>181.0</ele><time>2026-04-26T14:33:07Z</time></trkpt><trkpt lat="43.33806572371314" lon="-0.4399052144371543"><ele>181.0</ele><time>2026-04-26T14:33:08Z</time></trkpt><trkpt lat="43.33811092868528" lon="-0.4399933968897837"><ele>181.0</ele><time>2026-04-26T14:33:09Z</time></trkpt><trkpt lat="43.33815238370204" lon="-0.44008084030497047"><ele>181.0</ele><time>2026-04-26T14:33:10Z</time></trkpt><trkpt lat="43.33819657820532" lon="-0.4401684523670936"><ele>181.0</ele><time>2026-04-26T14:33:11Z</time></trkpt><trkpt lat="43.33824027208515" lon="-0.4402554800848123"><ele>181.0</ele><time>2026-04-26T14:33:12Z</time></trkpt><trkpt lat="43.33828438933692" lon="-0.4403447902139827"><ele>181.0</ele><time>2026-04-26T14:33:13Z</time></trkpt><trkpt lat="43.33832527960216" lon="-0.4404169808513489"><ele>181.0</ele><time>2026-04-26T14:33:14Z</time></trkpt><trkpt lat="43.33837171626594" lon="-0.4405009026846485"><ele>181.0</ele><time>2026-04-26T14:33:15Z</time></trkpt><trkpt lat="43.33841838977304" lon="-0.4405835099276804"><ele>181.0</ele><time>2026-04-26T14:33:16Z</time></trkpt><trkpt lat="43.33846553435703" lon="-0.44067202971399816"><ele>181.0</ele><time>2026-04-26T14:33:17Z</time></trkpt><trkpt lat="43.338509231961105" lon="-0.44076151302395444"><ele>181.0</ele><time>2026-04-26T14:33:18Z</time></trkpt><trkpt lat="43.338556059753174" lon="-0.4408460460325788"><ele>181.0</ele><time>2026-04-26T14:33:19Z</time></trkpt><trkpt lat="43.3386063236902" lon="-0.4409253848697219"><ele>181.0</ele><time>2026-04-26T14:33:20Z</time></trkpt><trkpt lat="43.33865387411323" lon="-0.44100890793470343"><ele>181.0</ele><time>2026-04-26T14:33:21Z</time></trkpt><trkpt lat="43.33869520804342" lon="-0.4410955515483398"><ele>181.0</ele><time>2026-04-26T14:33:22Z</time></trkpt><trkpt lat="43.33873934777631" lon="-0.44117936227425875"><ele>181.0</ele><time>2026-04-26T14:33:23Z</time></trkpt><trkpt lat="43.3387821625504" lon="-0.44126493557148505"><ele>181.0</ele><time>2026-04-26T14:33:24Z</time></trkpt><trkpt lat="43.338826247965216" lon="-0.4413499927340046"><ele>181.0</ele><time>2026-04-26T14:33:25Z</time></trkpt><trkpt lat="43.338869035521554" lon="-0.4414321685028145"><ele>181.0</ele><time>2026-04-26T14:33:26Z</time></trkpt><trkpt lat="43.33891336612881" lon="-0.441519546604454"><ele>181.0</ele><time>2026-04-26T14:33:27Z</time></trkpt><trkpt lat="43.338955991794684" lon="-0.4416046248472609"><ele>181.0</ele><time>2026-04-26T14:33:28Z</time></trkpt><trkpt lat="43.339003503074636" lon="-0.44168866139508134"><ele>181.0</ele><time>2026-04-26T14:33:29Z</time></trkpt><trkpt lat="43.339053002645514" lon="-0.44177015348497733"><ele>181.0</ele><time>2026-04-26T14:33:30Z</time></trkpt><trkpt lat="43.33910408457076" lon="-0.4418413467835238"><ele>181.0</ele><time>2026-04-26T14:33:31Z</time></trkpt><trkpt lat="43.339155518562215" lon="-0.44192026289701253"><ele>181.0</ele><time>2026-04-26T14:33:32Z</time></trkpt><trkpt lat="43.33920425230626" lon="-0.44200250210853337"><ele>181.0</ele><time>2026-04-26T14:33:33Z</time></trkpt><trkpt lat="43.339256890564364" lon="-0.4420780995370019"><ele>181.0</ele><time>2026-04-26T14:33:34Z</time></trkpt><trkpt lat="43.33931039369445" lon="-0.4421558239488941"><ele>181.0</ele><time>2026-04-26T14:33:35Z</time></trkpt><trkpt lat="43.33936165375043" lon="-0.4422316875268601"><ele>181.0</ele><time>2026-04-26T14:33:36Z</time></trkpt><trkpt lat="43.33941097718935" lon="-0.44230926354389294"><ele>181.0</ele><time>2026-04-26T14:33:37Z</time></trkpt><trkpt lat="43.3394590432712" lon="-0.44238863405190565"><ele>181.0</ele><time>2026-04-26T14:33:38Z</time></trkpt><trkpt lat="43.33950662625155" lon="-0.44247464568083433"><ele>181.0</ele><time>2026-04-26T14:33:39Z</time></trkpt><trkpt lat="43.33955628392796" lon="-0.4425524167473328"><ele>181.0</ele><time>2026-04-26T14:33:40Z</time></trkpt><trkpt lat="43.3396104677149" lon="-0.44262623120449807"><ele>181.0</ele><time>2026-04-26T14:33:41Z</time></trkpt><trkpt lat="43.33966535110452" lon="-0.442701673948502"><ele>181.0</ele><time>2026-04-26T14:33:42Z</time></trkpt><trkpt lat="43.33971810653548" lon="-0.442778236245495"><ele>181.0</ele><time>2026-04-26T14:33:43Z</time></trkpt><trkpt lat="43.33976847633444" lon="-0.4428607518444952"><ele>181.0</ele><time>2026-04-26T14:33:44Z</time></trkpt><trkpt lat="43.33982089503741" lon="-0.4429361300248628"><ele>181.0</ele><time>2026-04-26T14:33:45Z</time></trkpt><trkpt lat="43.33987654105451" lon="-0.4430220050720337"><ele>181.0</ele><time>2026-04-26T14:33:46Z</time></trkpt><trkpt lat="43.33993028056472" lon="-0.4430947338946862"><ele>180.5</ele><time>2026-04-26T14:33:47Z</time></trkpt><trkpt lat="43.33998485218538" lon="-0.44317072231424776"><ele>180.0</ele><time>2026-04-26T14:33:48Z</time></trkpt><trkpt lat="43.340036969055525" lon="-0.44324918432680277"><ele>179.5</ele><time>2026-04-26T14:33:49Z</time></trkpt><trkpt lat="43.340085840841816" lon="-0.44332242256508897"><ele>179.0</ele><time>2026-04-26T14:33:50Z</time></trkpt><trkpt lat="43.34014098375135" lon="-0.44340019986890483"><ele>178.5</ele><time>2026-04-26T14:33:51Z</time></trkpt><trkpt lat="43.34019735637344" lon="-0.44347382765469767"><ele>178.0</ele><time>2026-04-26T14:33:52Z</time></trkpt><trkpt lat="43.34025064779708" lon="-0.4435470886215638"><ele>178.0</ele><time>2026-04-26T14:33:53Z</time></trkpt><trkpt lat="43.34030520722725" lon="-0.44362510990249143"><ele>178.0</ele><time>2026-04-26T14:33:54Z</time></trkpt><trkpt lat="43.340361839667565" lon="-0.4437012802008445"><ele>178.0</ele><time>2026-04-26T14:33:55Z</time></trkpt><trkpt lat="43.340416824540355" lon="-0.443776088233727"><ele>178.0</ele><time>2026-04-26T14:33:56Z</time></trkpt><trkpt lat="43.340469917229605" lon="-0.443854807443719"><ele>178.0</ele><time>2026-04-26T14:33:57Z</time></trkpt><trkpt lat="43.3405257306352" lon="-0.44393477883344096"><ele>178.0</ele><time>2026-04-26T14:33:58Z</time></trkpt><trkpt lat="43.3405771207668" lon="-0.44401570941993485"><ele>177.99999999999997</ele><time>2026-04-26T14:33:59Z</time></trkpt><trkpt lat="43.340624751626564" lon="-0.44409100705923354"><ele>178.0</ele><time>2026-04-26T14:34:00Z</time></trkpt><trkpt lat="43.34067054027392" lon="-0.44417385045624724"><ele>178.0</ele><time>2026-04-26T14:34:01Z</time></trkpt><trkpt lat="43.34071193375718" lon="-0.44425761856232265"><ele>178.0</ele><time>2026-04-26T14:34:02Z</time></trkpt><trkpt lat="43.34075114563201" lon="-0.44434278930295373"><ele>178.0</ele><time>2026-04-26T14:34:03Z</time></trkpt><trkpt lat="43.34079409895809" lon="-0.44442593193797686"><ele>177.99999999999997</ele><time>2026-04-26T14:34:04Z</time></trkpt><trkpt lat="43.340838336758864" lon="-0.44450777404446556"><ele>178.0</ele><time>2026-04-26T14:34:05Z</time></trkpt><trkpt lat="43.34088158430966" lon="-0.44459451689327706"><ele>177.99999999999997</ele><time>2026-04-26T14:34:06Z</time></trkpt><trkpt lat="43.34092182591199" lon="-0.44468008581999013"><ele>178.0</ele><time>2026-04-26T14:34:07Z</time></trkpt><trkpt lat="43.34096127081259" lon="-0.4447643379048076"><ele>178.0</ele><time>2026-04-26T14:34:08Z</time></trkpt><trkpt lat="43.341003249964956" lon="-0.44485220224124905"><ele>178.0</ele><time>2026-04-26T14:34:09Z</time></trkpt><trkpt lat="43.34103956875683" lon="-0.44493988237235504"><ele>178.0</ele><time>2026-04-26T14:34:10Z</time></trkpt><trkpt lat="43.341076624590585" lon="-0.4450259316998103"><ele>177.99999999999997</ele><time>2026-04-26T14:34:11Z</time></trkpt><trkpt lat="43.34111443495887" lon="-0.44511463216948677"><ele>178.0</ele><time>2026-04-26T14:34:12Z</time></trkpt><trkpt lat="43.341151087502595" lon="-0.4452006318299073"><ele>177.99999999999997</ele><time>2026-04-26T14:34:13Z</time></trkpt><trkpt lat="43.341189483411426" lon="-0.4452835032552044"><ele>178.0</ele><time>2026-04-26T14:34:14Z</time></trkpt><trkpt lat="43.341227261718245" lon="-0.4453723908553636"><ele>178.0</ele><time>2026-04-26T14:34:15Z</time></trkpt><trkpt lat="43.34126466661147" lon="-0.44546072550022836"><ele>178.0</ele><time>2026-04-26T14:34:16Z</time></trkpt><trkpt lat="43.341300832948946" lon="-0.4455481283179892"><ele>178.0</ele><time>2026-04-26T14:34:17Z</time></trkpt><trkpt lat="43.34133732655041" lon="-0.4456361028789823"><ele>177.99999999999997</ele><time>2026-04-26T14:34:18Z</time></trkpt><trkpt lat="43.341374921749484" lon="-0.4457252815550052"><ele>178.0</ele><time>2026-04-26T14:34:19Z</time></trkpt><trkpt lat="43.341409995444906" lon="-0.44581166501907654"><ele>177.85714285714283</ele><time>2026-04-26T14:34:20Z</time></trkpt><trkpt lat="43.3414468836636" lon="-0.4458975534551712"><ele>177.71428571428572</ele><time>2026-04-26T14:34:21Z</time></trkpt><trkpt lat="43.3414868832794" lon="-0.44598273936521327"><ele>177.57142857142856</ele><time>2026-04-26T14:34:22Z</time></trkpt><trkpt lat="43.34152242951108" lon="-0.4460694638212755"><ele>177.42857142857142</ele><time>2026-04-26T14:34:23Z</time></trkpt><trkpt lat="43.34155623033151" lon="-0.44615817851264533"><ele>177.28571428571428</ele><time>2026-04-26T14:34:24Z</time></trkpt><trkpt lat="43.341592582445216" lon="-0.44624565013076606"><ele>177.14285714285714</ele><time>2026-04-26T14:34:25Z</time></trkpt><trkpt lat="43.34162609571058" lon="-0.44632775618544995"><ele>177.0</ele><time>2026-04-26T14:34:26Z</time></trkpt><trkpt lat="43.3416566301361" lon="-0.44641494396099674"><ele>177.2857142857143</ele><time>2026-04-26T14:34:27Z</time></trkpt><trkpt lat="43.3416981514444" lon="-0.4464903800022447"><ele>177.57142857142856</ele><time>2026-04-26T14:34:28Z</time></trkpt><trkpt lat="43.34173043701583" lon="-0.4465701878429139"><ele>177.85714285714286</ele><time>2026-04-26T14:34:29Z</time></trkpt><trkpt lat="43.34176035060566" lon="-0.44665722993433443"><ele>178.14285714285717</ele><time>2026-04-26T14:34:30Z</time></trkpt><trkpt lat="43.341798844329794" lon="-0.446733160193867"><ele>178.42857142857144</ele><time>2026-04-26T14:34:31Z</time></trkpt><trkpt lat="43.34184110165334" lon="-0.446806900916958"><ele>178.71428571428572</ele><time>2026-04-26T14:34:32Z</time></trkpt><trkpt lat="43.34188668060976" lon="-0.4468822470940273"><ele>179.0</ele><time>2026-04-26T14:34:33Z</time></trkpt><trkpt lat="43.341927114854194" lon="-0.4469647105447157"><ele>179.0</ele><time>2026-04-26T14:34:34Z</time></trkpt><trkpt lat="43.341965371795546" lon="-0.4470545496406444"><ele>179.0</ele><time>2026-04-26T14:34:35Z</time></trkpt><trkpt lat="43.34200151761532" lon="-0.4471425115296172"><ele>179.0</ele><time>2026-04-26T14:34:36Z</time></trkpt><trkpt lat="43.34204189051729" lon="-0.4472336288614786"><ele>179.0</ele><time>2026-04-26T14:34:37Z</time></trkpt><trkpt lat="43.342073057827264" lon="-0.4473414436743964"><ele>179.0</ele><time>2026-04-26T14:34:38Z</time></trkpt><trkpt lat="43.34211475960647" lon="-0.44742714387735943"><ele>179.0</ele><time>2026-04-26T14:34:39Z</time></trkpt><trkpt lat="43.342154302659985" lon="-0.4475160987672172"><ele>179.0</ele><time>2026-04-26T14:34:40Z</time></trkpt><trkpt lat="43.34219679186155" lon="-0.4476086994656148"><ele>179.0</ele><time>2026-04-26T14:34:41Z</time></trkpt><trkpt lat="43.34223545442667" lon="-0.44770398227792846"><ele>179.0</ele><time>2026-04-26T14:34:42Z</time></trkpt><trkpt lat="43.34227306433129" lon="-0.447796394309285"><ele>179.0</ele><time>2026-04-26T14:34:43Z</time></trkpt><trkpt lat="43.342312095667545" lon="-0.4478875641008444"><ele>179.0</ele><time>2026-04-26T14:34:44Z</time></trkpt><trkpt lat="43.34235197587822" lon="-0.44797876541838877"><ele>179.0</ele><time>2026-04-26T14:34:45Z</time></trkpt><trkpt lat="43.342392705721664" lon="-0.448067363956506"><ele>179.14285714285717</ele><time>2026-04-26T14:34:46Z</time></trkpt><trkpt lat="43.342434341833105" lon="-0.4481532052574731"><ele>179.28571428571428</ele><time>2026-04-26T14:34:47Z</time></trkpt><trkpt lat="43.34247307929818" lon="-0.44824172614422736"><ele>179.42857142857144</ele><time>2026-04-26T14:34:48Z</time></trkpt><trkpt lat="43.34251375756009" lon="-0.448328273204392"><ele>179.57142857142858</ele><time>2026-04-26T14:34:49Z</time></trkpt><trkpt lat="43.34255235006552" lon="-0.4484152780029201"><ele>179.71428571428572</ele><time>2026-04-26T14:34:50Z</time></trkpt><trkpt lat="43.34259230625401" lon="-0.4484998440312572"><ele>179.85714285714286</ele><time>2026-04-26T14:34:51Z</time></trkpt><trkpt lat="43.34263341418657" lon="-0.4485852513686726"><ele>180.0</ele><time>2026-04-26T14:34:52Z</time></trkpt><trkpt lat="43.34267289692789" lon="-0.44866817417075416"><ele>180.0</ele><time>2026-04-26T14:34:53Z</time></trkpt><trkpt lat="43.342708317574214" lon="-0.44878648128431203"><ele>180.0</ele><time>2026-04-26T14:34:54Z</time></trkpt><trkpt lat="43.34277167019504" lon="-0.4488843312681959"><ele>180.0</ele><time>2026-04-26T14:34:55Z</time></trkpt><trkpt lat="43.34283430377854" lon="-0.4490132289859427"><ele>180.0</ele><time>2026-04-26T14:34:57Z</time></trkpt><trkpt lat="43.34286892732565" lon="-0.4491001846136079"><ele>180.0</ele><time>2026-04-26T14:34:58Z</time></trkpt><trkpt lat="43.34290961316827" lon="-0.44918271281120803"><ele>180.0</ele><time>2026-04-26T14:34:59Z</time></trkpt><trkpt lat="43.34294649913929" lon="-0.4492728391169146"><ele>180.28571428571428</ele><time>2026-04-26T14:35:00Z</time></trkpt><trkpt lat="43.342988241707374" lon="-0.449353438098564"><ele>180.57142857142858</ele><time>2026-04-26T14:35:01Z</time></trkpt><trkpt lat="43.343026603956865" lon="-0.44943651388922323"><ele>180.85714285714286</ele><time>2026-04-26T14:35:02Z</time></trkpt><trkpt lat="43.343064507297704" lon="-0.44952257883184227"><ele>181.14285714285714</ele><time>2026-04-26T14:35:03Z</time></trkpt><trkpt lat="43.343106435533805" lon="-0.4496030959671382"><ele>181.42857142857144</ele><time>2026-04-26T14:35:04Z</time></trkpt><trkpt lat="43.34314499490555" lon="-0.4496880040031852"><ele>181.71428571428572</ele><time>2026-04-26T14:35:05Z</time></trkpt><trkpt lat="43.34318306963748" lon="-0.4497763086485856"><ele>182.0</ele><time>2026-04-26T14:35:06Z</time></trkpt><trkpt lat="43.343222663182516" lon="-0.44986227673252555"><ele>182.0</ele><time>2026-04-26T14:35:07Z</time></trkpt><trkpt lat="43.343262750832736" lon="-0.4499448543721128"><ele>182.0</ele><time>2026-04-26T14:35:08Z</time></trkpt><trkpt lat="43.34329920080656" lon="-0.4500324294016279"><ele>182.0</ele><time>2026-04-26T14:35:09Z</time></trkpt><trkpt lat="43.34333735282553" lon="-0.45011678214514667"><ele>182.0</ele><time>2026-04-26T14:35:10Z</time></trkpt><trkpt lat="43.34337548095659" lon="-0.4501987890129822"><ele>182.0</ele><time>2026-04-26T14:35:11Z</time></trkpt><trkpt lat="43.34341213623364" lon="-0.45028453762148957"><ele>182.0</ele><time>2026-04-26T14:35:12Z</time></trkpt><trkpt lat="43.343449414404056" lon="-0.4503734404445947"><ele>182.0</ele><time>2026-04-26T14:35:13Z</time></trkpt><trkpt lat="43.343489277632614" lon="-0.4504576147025239"><ele>181.71428571428572</ele><time>2026-04-26T14:35:14Z</time></trkpt><trkpt lat="43.3435287940167" lon="-0.4505464150166992"><ele>181.42857142857144</ele><time>2026-04-26T14:35:15Z</time></trkpt><trkpt lat="43.34356750210439" lon="-0.45063332599033584"><ele>181.14285714285714</ele><time>2026-04-26T14:35:16Z</time></trkpt><trkpt lat="43.343608904167006" lon="-0.4507181544869448"><ele>180.85714285714286</ele><time>2026-04-26T14:35:17Z</time></trkpt><trkpt lat="43.34364987904874" lon="-0.45080145310454295"><ele>180.57142857142858</ele><time>2026-04-26T14:35:18Z</time></trkpt><trkpt lat="43.34368587689266" lon="-0.4508942349729504"><ele>180.28571428571428</ele><time>2026-04-26T14:35:19Z</time></trkpt><trkpt lat="43.34371973006308" lon="-0.4509867057683285"><ele>180.0</ele><time>2026-04-26T14:35:20Z</time></trkpt><trkpt lat="43.34375886115051" lon="-0.45107516437502443"><ele>180.0</ele><time>2026-04-26T14:35:21Z</time></trkpt><trkpt lat="43.343797635186775" lon="-0.4511595178302046"><ele>180.0</ele><time>2026-04-26T14:35:22Z</time></trkpt><trkpt lat="43.34383295646528" lon="-0.4512479289891019"><ele>180.0</ele><time>2026-04-26T14:35:23Z</time></trkpt><trkpt lat="43.34386227525859" lon="-0.4513380615958184"><ele>180.0</ele><time>2026-04-26T14:35:24Z</time></trkpt><trkpt lat="43.34393288110561" lon="-0.4514830894861207"><ele>180.0</ele><time>2026-04-26T14:35:26Z</time></trkpt><trkpt lat="43.34396568697714" lon="-0.45157880725361665"><ele>180.0</ele><time>2026-04-26T14:35:27Z</time></trkpt><trkpt lat="43.34399998511494" lon="-0.45166495828053155"><ele>179.57142857142856</ele><time>2026-04-26T14:35:28Z</time></trkpt><trkpt lat="43.3440407126936" lon="-0.4517497637849592"><ele>179.14285714285717</ele><time>2026-04-26T14:35:29Z</time></trkpt><trkpt lat="43.34407757189807" lon="-0.451837434712409"><ele>178.71428571428572</ele><time>2026-04-26T14:35:30Z</time></trkpt><trkpt lat="43.344115790524455" lon="-0.45192862478257495"><ele>178.28571428571428</ele><time>2026-04-26T14:35:31Z</time></trkpt><trkpt lat="43.34415426358971" lon="-0.4520200120439848"><ele>177.85714285714283</ele><time>2026-04-26T14:35:32Z</time></trkpt><trkpt lat="43.344192946320476" lon="-0.45210030948834656"><ele>177.42857142857144</ele><time>2026-04-26T14:35:33Z</time></trkpt><trkpt lat="43.344228615459095" lon="-0.45218752695479364"><ele>177.0</ele><time>2026-04-26T14:35:34Z</time></trkpt><trkpt lat="43.34426415483401" lon="-0.452274412330255"><ele>176.83333333333334</ele><time>2026-04-26T14:35:35Z</time></trkpt><trkpt lat="43.344301798301956" lon="-0.4523578929765207"><ele>176.66666666666666</ele><time>2026-04-26T14:35:36Z</time></trkpt><trkpt lat="43.34434376402608" lon="-0.4524466515200692"><ele>176.5</ele><time>2026-04-26T14:35:37Z</time></trkpt><trkpt lat="43.34438469943038" lon="-0.452531785116591"><ele>176.33333333333331</ele><time>2026-04-26T14:35:38Z</time></trkpt><trkpt lat="43.344426386937435" lon="-0.45262232492014015"><ele>176.16666666666666</ele><time>2026-04-26T14:35:39Z</time></trkpt><trkpt lat="43.34449773461225" lon="-0.45275037499870313"><ele>176.0</ele><time>2026-04-26T14:35:40Z</time></trkpt><trkpt lat="43.344541316178294" lon="-0.45283861865990704"><ele>175.83333333333331</ele><time>2026-04-26T14:35:41Z</time></trkpt><trkpt lat="43.3445847312369" lon="-0.4529861573423267"><ele>175.66666666666666</ele><time>2026-04-26T14:35:43Z</time></trkpt><trkpt lat="43.344634318390234" lon="-0.4530520878244568"><ele>175.5</ele><time>2026-04-26T14:35:44Z</time></trkpt><trkpt lat="43.344697493026565" lon="-0.4531580790997809"><ele>175.33333333333334</ele><time>2026-04-26T14:35:45Z</time></trkpt><trkpt lat="43.344755334290845" lon="-0.45323757537806453"><ele>175.16666666666669</ele><time>2026-04-26T14:35:46Z</time></trkpt><trkpt lat="43.34480383045294" lon="-0.45331498652037927"><ele>175.0</ele><time>2026-04-26T14:35:47Z</time></trkpt><trkpt lat="43.344855814411204" lon="-0.45338914441274764"><ele>174.16666666666669</ele><time>2026-04-26T14:35:48Z</time></trkpt><trkpt lat="43.344913281323606" lon="-0.4534560184537781"><ele>173.33333333333334</ele><time>2026-04-26T14:35:49Z</time></trkpt><trkpt lat="43.34497698623201" lon="-0.45350886868912227"><ele>172.5</ele><time>2026-04-26T14:35:50Z</time></trkpt><trkpt lat="43.34503527220732" lon="-0.45356422617736303"><ele>171.66666666666666</ele><time>2026-04-26T14:35:51Z</time></trkpt><trkpt lat="43.34510029964879" lon="-0.45363111490184393"><ele>170.83333333333331</ele><time>2026-04-26T14:35:52Z</time></trkpt><trkpt lat="43.34514543293199" lon="-0.45374227171462866"><ele>170.0</ele><time>2026-04-26T14:35:53Z</time></trkpt><trkpt lat="43.34519112248631" lon="-0.4538337083033821"><ele>170.0</ele><time>2026-04-26T14:35:54Z</time></trkpt><trkpt lat="43.34523403548276" lon="-0.4539274980823769"><ele>170.0</ele><time>2026-04-26T14:35:55Z</time></trkpt><trkpt lat="43.34527379934395" lon="-0.4540228206100743"><ele>170.0</ele><time>2026-04-26T14:35:56Z</time></trkpt><trkpt lat="43.345316607380425" lon="-0.45411216884579825"><ele>170.0</ele><time>2026-04-26T14:35:57Z</time></trkpt><trkpt lat="43.34535059905047" lon="-0.45420134008398616"><ele>170.0</ele><time>2026-04-26T14:35:58Z</time></trkpt><trkpt lat="43.34538312916306" lon="-0.45429343607673306"><ele>170.0</ele><time>2026-04-26T14:35:59Z</time></trkpt><trkpt lat="43.345418759890634" lon="-0.4543780687528029"><ele>170.0</ele><time>2026-04-26T14:36:00Z</time></trkpt><trkpt lat="43.34545752627686" lon="-0.45446065312856243"><ele>170.0</ele><time>2026-04-26T14:36:01Z</time></trkpt><trkpt lat="43.34549145405434" lon="-0.4545451719297631"><ele>170.0</ele><time>2026-04-26T14:36:02Z</time></trkpt><trkpt lat="43.34553251354808" lon="-0.4546245995796487"><ele>170.0</ele><time>2026-04-26T14:36:03Z</time></trkpt><trkpt lat="43.34556221057463" lon="-0.45471162213459476"><ele>170.0</ele><time>2026-04-26T14:36:04Z</time></trkpt><trkpt lat="43.3455921913579" lon="-0.454797058962049"><ele>170.0</ele><time>2026-04-26T14:36:05Z</time></trkpt><trkpt lat="43.345615030192434" lon="-0.4548888589773464"><ele>170.0</ele><time>2026-04-26T14:36:06Z</time></trkpt><trkpt lat="43.34562896889142" lon="-0.4549756410108898"><ele>169.83333333333331</ele><time>2026-04-26T14:36:07Z</time></trkpt><trkpt lat="43.345650763471475" lon="-0.45506167087272925"><ele>169.66666666666666</ele><time>2026-04-26T14:36:08Z</time></trkpt><trkpt lat="43.34568647702687" lon="-0.4551512763831488"><ele>169.5</ele><time>2026-04-26T14:36:09Z</time></trkpt><trkpt lat="43.34570333691392" lon="-0.45525307556053735"><ele>169.33333333333334</ele><time>2026-04-26T14:36:10Z</time></trkpt><trkpt lat="43.34570781818052" lon="-0.45544602262460654"><ele>169.16666666666669</ele><time>2026-04-26T14:36:12Z</time></trkpt><trkpt lat="43.3457221556719" lon="-0.45554182756881095"><ele>169.0</ele><time>2026-04-26T14:36:13Z</time></trkpt><trkpt lat="43.345740296212206" lon="-0.4556429462147305"><ele>169.0</ele><time>2026-04-26T14:36:14Z</time></trkpt><trkpt lat="43.345755163003595" lon="-0.4557397462369649"><ele>169.0</ele><time>2026-04-26T14:36:15Z</time></trkpt><trkpt lat="43.3457787586272" lon="-0.45583804801780364"><ele>169.0</ele><time>2026-04-26T14:36:16Z</time></trkpt><trkpt lat="43.345803586142054" lon="-0.4559342368913958"><ele>169.0</ele><time>2026-04-26T14:36:17Z</time></trkpt><trkpt lat="43.345830060214354" lon="-0.45602638967772713"><ele>169.0</ele><time>2026-04-26T14:36:18Z</time></trkpt><trkpt lat="43.34585927695977" lon="-0.45611952701562253"><ele>169.0</ele><time>2026-04-26T14:36:19Z</time></trkpt><trkpt lat="43.345884410288065" lon="-0.4562122122341424"><ele>169.0</ele><time>2026-04-26T14:36:20Z</time></trkpt><trkpt lat="43.345912319999655" lon="-0.45630328854063534"><ele>169.33333333333334</ele><time>2026-04-26T14:36:21Z</time></trkpt><trkpt lat="43.3459305181474" lon="-0.45640409650310526"><ele>169.66666666666669</ele><time>2026-04-26T14:36:22Z</time></trkpt><trkpt lat="43.34595648324206" lon="-0.456503101723551"><ele>170.0</ele><time>2026-04-26T14:36:23Z</time></trkpt><trkpt lat="43.34598551172652" lon="-0.4565978791466344"><ele>170.33333333333334</ele><time>2026-04-26T14:36:24Z</time></trkpt><trkpt lat="43.34601742559084" lon="-0.4566925634009119"><ele>170.66666666666666</ele><time>2026-04-26T14:36:25Z</time></trkpt><trkpt lat="43.346048700787684" lon="-0.45678775245855197"><ele>171.0</ele><time>2026-04-26T14:36:26Z</time></trkpt><trkpt lat="43.34607939715323" lon="-0.45688624211113205"><ele>171.0</ele><time>2026-04-26T14:36:27Z</time></trkpt><trkpt lat="43.34610680245374" lon="-0.45699266443165604"><ele>171.0</ele><time>2026-04-26T14:36:28Z</time></trkpt><trkpt lat="43.34613927701112" lon="-0.45708998310438465"><ele>171.0</ele><time>2026-04-26T14:36:29Z</time></trkpt><trkpt lat="43.34617294209777" lon="-0.45718629157480767"><ele>171.0</ele><time>2026-04-26T14:36:30Z</time></trkpt><trkpt lat="43.34620685300576" lon="-0.4572836030261792"><ele>171.0</ele><time>2026-04-26T14:36:31Z</time></trkpt><trkpt lat="43.3462398109411" lon="-0.4573825937402635"><ele>171.0</ele><time>2026-04-26T14:36:32Z</time></trkpt><trkpt lat="43.34628144855896" lon="-0.4574714737393828"><ele>171.16666666666666</ele><time>2026-04-26T14:36:33Z</time></trkpt><trkpt lat="43.34631865956391" lon="-0.45756980401445196"><ele>171.33333333333334</ele><time>2026-04-26T14:36:34Z</time></trkpt><trkpt lat="43.34634705213264" lon="-0.4576699136381672"><ele>171.5</ele><time>2026-04-26T14:36:35Z</time></trkpt><trkpt lat="43.34636892384586" lon="-0.45778470360383583"><ele>171.66666666666669</ele><time>2026-04-26T14:36:36Z</time></trkpt><trkpt lat="43.34639581196877" lon="-0.45788729132075034"><ele>171.83333333333334</ele><time>2026-04-26T14:36:37Z</time></trkpt><trkpt lat="43.34640132174751" lon="-0.45800977148594696"><ele>172.0</ele><time>2026-04-26T14:36:38Z</time></trkpt><trkpt lat="43.34644578552342" lon="-0.4580974599062321"><ele>171.5</ele><time>2026-04-26T14:36:39Z</time></trkpt><trkpt lat="43.34647360689715" lon="-0.45819598198815603"><ele>171.0</ele><time>2026-04-26T14:36:40Z</time></trkpt><trkpt lat="43.34649773490309" lon="-0.4582991535553271"><ele>170.5</ele><time>2026-04-26T14:36:41Z</time></trkpt><trkpt lat="43.346523292702976" lon="-0.4583996134006335"><ele>170.0</ele><time>2026-04-26T14:36:42Z</time></trkpt><trkpt lat="43.34654694831284" lon="-0.4585001697785865"><ele>169.5</ele><time>2026-04-26T14:36:43Z</time></trkpt><trkpt lat="43.3465726240643" lon="-0.4586018791476255"><ele>169.0</ele><time>2026-04-26T14:36:44Z</time></trkpt><trkpt lat="43.34659549460863" lon="-0.45870472624731873"><ele>169.0</ele><time>2026-04-26T14:36:45Z</time></trkpt><trkpt lat="43.346622633442415" lon="-0.45880661481817214"><ele>169.0</ele><time>2026-04-26T14:36:46Z</time></trkpt><trkpt lat="43.34665393115721" lon="-0.45890003840730403"><ele>169.0</ele><time>2026-04-26T14:36:47Z</time></trkpt><trkpt lat="43.3466814362702" lon="-0.45899979611481107"><ele>169.0</ele><time>2026-04-26T14:36:48Z</time></trkpt><trkpt lat="43.34669806654313" lon="-0.4591085379639574"><ele>169.0</ele><time>2026-04-26T14:36:49Z</time></trkpt><trkpt lat="43.346722944509864" lon="-0.4592091882339149"><ele>169.0</ele><time>2026-04-26T14:36:50Z</time></trkpt><trkpt lat="43.34674200469641" lon="-0.45931461250719036"><ele>169.0</ele><time>2026-04-26T14:36:51Z</time></trkpt><trkpt lat="43.34676535501167" lon="-0.45941458893456444"><ele>169.0</ele><time>2026-04-26T14:36:52Z</time></trkpt><trkpt lat="43.34678585391821" lon="-0.45951776430268143"><ele>169.0</ele><time>2026-04-26T14:36:53Z</time></trkpt><trkpt lat="43.34680411200416" lon="-0.4596222413207281"><ele>169.0</ele><time>2026-04-26T14:36:54Z</time></trkpt><trkpt lat="43.346824486393565" lon="-0.45972363671713384"><ele>169.0</ele><time>2026-04-26T14:36:55Z</time></trkpt><trkpt lat="43.346847983967784" lon="-0.4598242314548871"><ele>169.0</ele><time>2026-04-26T14:36:56Z</time></trkpt><trkpt lat="43.3468735914907" lon="-0.45992482390991185"><ele>168.83333333333334</ele><time>2026-04-26T14:36:57Z</time></trkpt><trkpt lat="43.34689405319106" lon="-0.46002864100895047"><ele>168.66666666666669</ele><time>2026-04-26T14:36:58Z</time></trkpt><trkpt lat="43.346918527220076" lon="-0.46012848928998745"><ele>168.5</ele><time>2026-04-26T14:36:59Z</time></trkpt><trkpt lat="43.34694778468167" lon="-0.4602275408110597"><ele>168.33333333333334</ele><time>2026-04-26T14:37:00Z</time></trkpt><trkpt lat="43.34697724948903" lon="-0.4603289612021971"><ele>168.16666666666666</ele><time>2026-04-26T14:37:01Z</time></trkpt><trkpt lat="43.34700545601363" lon="-0.46043046581632924"><ele>168.0</ele><time>2026-04-26T14:37:02Z</time></trkpt><trkpt lat="43.34702715464424" lon="-0.46054075423588114"><ele>167.83333333333334</ele><time>2026-04-26T14:37:03Z</time></trkpt><trkpt lat="43.347050015519" lon="-0.4606415241292511"><ele>167.66666666666666</ele><time>2026-04-26T14:37:04Z</time></trkpt><trkpt lat="43.347070496933576" lon="-0.46075007513645866"><ele>167.5</ele><time>2026-04-26T14:37:05Z</time></trkpt><trkpt lat="43.34709470727529" lon="-0.4608525874805929"><ele>167.33333333333331</ele><time>2026-04-26T14:37:06Z</time></trkpt><trkpt lat="43.34711824240079" lon="-0.4609584898812766"><ele>167.16666666666666</ele><time>2026-04-26T14:37:07Z</time></trkpt><trkpt lat="43.3471406108454" lon="-0.46106667965483017"><ele>167.0</ele><time>2026-04-26T14:37:08Z</time></trkpt><trkpt lat="43.34716682642694" lon="-0.46117031237218786"><ele>167.0</ele><time>2026-04-26T14:37:09Z</time></trkpt><trkpt lat="43.34719322885233" lon="-0.4612719577320581"><ele>167.0</ele><time>2026-04-26T14:37:10Z</time></trkpt><trkpt lat="43.347216956656254" lon="-0.461373720266032"><ele>167.0</ele><time>2026-04-26T14:37:11Z</time></trkpt><trkpt lat="43.34722693223727" lon="-0.46148580349669743"><ele>167.0</ele><time>2026-04-26T14:37:12Z</time></trkpt><trkpt lat="43.347265641674596" lon="-0.46158207126573697"><ele>167.0</ele><time>2026-04-26T14:37:13Z</time></trkpt><trkpt lat="43.347282794167405" lon="-0.46168286975954675"><ele>167.0</ele><time>2026-04-26T14:37:14Z</time></trkpt><trkpt lat="43.347311698999285" lon="-0.46177905689428833"><ele>167.0</ele><time>2026-04-26T14:37:15Z</time></trkpt><trkpt lat="43.34733994932732" lon="-0.4618786535259445"><ele>167.0</ele><time>2026-04-26T14:37:16Z</time></trkpt><trkpt lat="43.3473746607389" lon="-0.46197529472968585"><ele>167.0</ele><time>2026-04-26T14:37:17Z</time></trkpt><trkpt lat="43.3474068064327" lon="-0.46207398986267345"><ele>167.0</ele><time>2026-04-26T14:37:18Z</time></trkpt><trkpt lat="43.34743737743668" lon="-0.46217849574303693"><ele>167.0</ele><time>2026-04-26T14:37:19Z</time></trkpt><trkpt lat="43.347473438913646" lon="-0.4622793905410493"><ele>167.0</ele><time>2026-04-26T14:37:20Z</time></trkpt><trkpt lat="43.34750730187064" lon="-0.46238011445397786"><ele>167.0</ele><time>2026-04-26T14:37:21Z</time></trkpt><trkpt lat="43.34752830830127" lon="-0.46248625878764166"><ele>167.0</ele><time>2026-04-26T14:37:22Z</time></trkpt><trkpt lat="43.34754886505738" lon="-0.46259147886625596"><ele>167.0</ele><time>2026-04-26T14:37:23Z</time></trkpt><trkpt lat="43.34757016929539" lon="-0.46269858005116027"><ele>167.0</ele><time>2026-04-26T14:37:24Z</time></trkpt><trkpt lat="43.34758646536339" lon="-0.4628012404782871"><ele>167.0</ele><time>2026-04-26T14:37:25Z</time></trkpt><trkpt lat="43.347597441906565" lon="-0.46290590121516856"><ele>167.0</ele><time>2026-04-26T14:37:26Z</time></trkpt><trkpt lat="43.347622896737604" lon="-0.46300617769153457"><ele>166.66666666666666</ele><time>2026-04-26T14:37:27Z</time></trkpt><trkpt lat="43.34764679211448" lon="-0.463111353808095"><ele>166.33333333333331</ele><time>2026-04-26T14:37:28Z</time></trkpt><trkpt lat="43.34766874172557" lon="-0.46321489228575735"><ele>166.0</ele><time>2026-04-26T14:37:29Z</time></trkpt><trkpt lat="43.34769265076108" lon="-0.46331219255376194"><ele>165.66666666666666</ele><time>2026-04-26T14:37:30Z</time></trkpt><trkpt lat="43.347712417643415" lon="-0.46341761553318855"><ele>165.33333333333334</ele><time>2026-04-26T14:37:31Z</time></trkpt><trkpt lat="43.347732048506884" lon="-0.4635249033820468"><ele>165.0</ele><time>2026-04-26T14:37:32Z</time></trkpt><trkpt lat="43.34777799825882" lon="-0.4636091164416607"><ele>165.0</ele><time>2026-04-26T14:37:33Z</time></trkpt><trkpt lat="43.34781193720571" lon="-0.46369978272932755"><ele>165.0</ele><time>2026-04-26T14:37:34Z</time></trkpt><trkpt lat="43.34784758781171" lon="-0.46378738916046647"><ele>165.0</ele><time>2026-04-26T14:37:35Z</time></trkpt><trkpt lat="43.347868991932714" lon="-0.46388203772690456"><ele>165.0</ele><time>2026-04-26T14:37:36Z</time></trkpt><trkpt lat="43.34791605110181" lon="-0.4639954251927165"><ele>165.0</ele><time>2026-04-26T14:37:37Z</time></trkpt><trkpt lat="43.34797290988749" lon="-0.46415614269776406"><ele>165.0</ele><time>2026-04-26T14:37:39Z</time></trkpt><trkpt lat="43.3480088190235" lon="-0.4642547840563913"><ele>164.85714285714286</ele><time>2026-04-26T14:37:40Z</time></trkpt><trkpt lat="43.348036679906365" lon="-0.46435151926078483"><ele>164.71428571428572</ele><time>2026-04-26T14:37:41Z</time></trkpt><trkpt lat="43.34805985046946" lon="-0.4644487455284083"><ele>164.57142857142856</ele><time>2026-04-26T14:37:42Z</time></trkpt><trkpt lat="43.34808196997155" lon="-0.4645441909194377"><ele>164.42857142857144</ele><time>2026-04-26T14:37:43Z</time></trkpt><trkpt lat="43.3480982868355" lon="-0.4646378347167834"><ele>164.28571428571428</ele><time>2026-04-26T14:37:44Z</time></trkpt><trkpt lat="43.34811053255973" lon="-0.464734784819018"><ele>164.14285714285714</ele><time>2026-04-26T14:37:45Z</time></trkpt><trkpt lat="43.34812218276456" lon="-0.46483735659010966"><ele>164.0</ele><time>2026-04-26T14:37:46Z</time></trkpt><trkpt lat="43.34813448220235" lon="-0.46493937005222896"><ele>163.14285714285714</ele><time>2026-04-26T14:37:47Z</time></trkpt><trkpt lat="43.34814970485925" lon="-0.46504125865303"><ele>162.28571428571428</ele><time>2026-04-26T14:37:48Z</time></trkpt><trkpt lat="43.348161475058475" lon="-0.4651420535666421"><ele>161.42857142857144</ele><time>2026-04-26T14:37:49Z</time></trkpt><trkpt lat="43.348171061316066" lon="-0.46524259785387345"><ele>160.57142857142856</ele><time>2026-04-26T14:37:50Z</time></trkpt><trkpt lat="43.34819059061939" lon="-0.4653450409320523"><ele>159.71428571428572</ele><time>2026-04-26T14:37:51Z</time></trkpt><trkpt lat="43.34820953250156" lon="-0.46543760412299834"><ele>158.85714285714286</ele><time>2026-04-26T14:37:52Z</time></trkpt><trkpt lat="43.348221769456174" lon="-0.46553590724387633"><ele>158.0</ele><time>2026-04-26T14:37:53Z</time></trkpt><trkpt lat="43.34824122527612" lon="-0.46562635825798676"><ele>158.0</ele><time>2026-04-26T14:37:54Z</time></trkpt><trkpt lat="43.34826675091966" lon="-0.4657129961581835"><ele>158.0</ele><time>2026-04-26T14:37:55Z</time></trkpt><trkpt lat="43.34829281790375" lon="-0.4658036617956678"><ele>158.0</ele><time>2026-04-26T14:37:56Z</time></trkpt><trkpt lat="43.34831570099392" lon="-0.4659023582915442"><ele>158.0</ele><time>2026-04-26T14:37:57Z</time></trkpt><trkpt lat="43.34833445163361" lon="-0.466007634513033"><ele>158.0</ele><time>2026-04-26T14:37:58Z</time></trkpt><trkpt lat="43.348356173055464" lon="-0.46611950330589424"><ele>158.0</ele><time>2026-04-26T14:37:59Z</time></trkpt><trkpt lat="43.34838130425143" lon="-0.4662416861584007"><ele>157.6</ele><time>2026-04-26T14:38:00Z</time></trkpt><trkpt lat="43.348400932793936" lon="-0.4663701196015846"><ele>157.20000000000002</ele><time>2026-04-26T14:38:01Z</time></trkpt><trkpt lat="43.34842827269097" lon="-0.46649995791424603"><ele>156.8</ele><time>2026-04-26T14:38:02Z</time></trkpt><trkpt lat="43.34845216115129" lon="-0.4666318370198219"><ele>156.4</ele><time>2026-04-26T14:38:03Z</time></trkpt><trkpt lat="43.34847983084277" lon="-0.4667649541155121"><ele>156.0</ele><time>2026-04-26T14:38:04Z</time></trkpt><trkpt lat="43.34850207687809" lon="-0.4668998411735216"><ele>156.0</ele><time>2026-04-26T14:38:05Z</time></trkpt><trkpt lat="43.348527873407825" lon="-0.4670390009423082"><ele>156.0</ele><time>2026-04-26T14:38:06Z</time></trkpt><trkpt lat="43.34855925660512" lon="-0.4671840984093348"><ele>156.0</ele><time>2026-04-26T14:38:07Z</time></trkpt><trkpt lat="43.348565929491684" lon="-0.4673210352544191"><ele>156.0</ele><time>2026-04-26T14:38:08Z</time></trkpt><trkpt lat="43.348566611552215" lon="-0.46745843678404264"><ele>156.0</ele><time>2026-04-26T14:38:09Z</time></trkpt><trkpt lat="43.34856350398737" lon="-0.46759349865752026"><ele>155.16666666666666</ele><time>2026-04-26T14:38:10Z</time></trkpt><trkpt lat="43.34855896624947" lon="-0.46772104576980394"><ele>154.33333333333334</ele><time>2026-04-26T14:38:11Z</time></trkpt><trkpt lat="43.348564277290826" lon="-0.46784469113652694"><ele>153.5</ele><time>2026-04-26T14:38:12Z</time></trkpt><trkpt lat="43.34855830832903" lon="-0.4679579887333715"><ele>152.66666666666669</ele><time>2026-04-26T14:38:13Z</time></trkpt><trkpt lat="43.3485431900149" lon="-0.4680675863881898"><ele>151.83333333333334</ele><time>2026-04-26T14:38:14Z</time></trkpt><trkpt lat="43.3485153805965" lon="-0.46817224399080964"><ele>151.0</ele><time>2026-04-26T14:38:15Z</time></trkpt><trkpt lat="43.34848122967669" lon="-0.4682715490655516"><ele>150.2857142857143</ele><time>2026-04-26T14:38:16Z</time></trkpt><trkpt lat="43.34844572955005" lon="-0.4683701011323676"><ele>149.57142857142858</ele><time>2026-04-26T14:38:17Z</time></trkpt><trkpt lat="43.348410034063356" lon="-0.46847619053878203"><ele>148.85714285714286</ele><time>2026-04-26T14:38:18Z</time></trkpt><trkpt lat="43.34837908041463" lon="-0.4685599251832264"><ele>148.14285714285717</ele><time>2026-04-26T14:38:19Z</time></trkpt><trkpt lat="43.34834528911118" lon="-0.4686437131545491"><ele>147.42857142857144</ele><time>2026-04-26T14:38:20Z</time></trkpt><trkpt lat="43.348329590660285" lon="-0.46873672600712485"><ele>146.71428571428572</ele><time>2026-04-26T14:38:21Z</time></trkpt><trkpt lat="43.34830280094202" lon="-0.46882544541011134"><ele>146.0</ele><time>2026-04-26T14:38:22Z</time></trkpt><trkpt lat="43.34833839796668" lon="-0.4689186582539476"><ele>145.8</ele><time>2026-04-26T14:38:23Z</time></trkpt><trkpt lat="43.348377453376855" lon="-0.4689992704973157"><ele>145.6</ele><time>2026-04-26T14:38:24Z</time></trkpt><trkpt lat="43.34848900505663" lon="-0.4691123473522601"><ele>145.4</ele><time>2026-04-26T14:38:26Z</time></trkpt><trkpt lat="43.348552083212674" lon="-0.4691727117455134"><ele>145.2</ele><time>2026-04-26T14:38:27Z</time></trkpt><trkpt lat="43.34867105170705" lon="-0.469289970708749"><ele>145.0</ele><time>2026-04-26T14:38:29Z</time></trkpt><trkpt lat="43.34873607224835" lon="-0.46935068550228487"><ele>145.0</ele><time>2026-04-26T14:38:30Z</time></trkpt><trkpt lat="43.34879471545364" lon="-0.4694227864882571"><ele>145.0</ele><time>2026-04-26T14:38:31Z</time></trkpt><trkpt lat="43.348855827375935" lon="-0.46949144581779456"><ele>145.0</ele><time>2026-04-26T14:38:32Z</time></trkpt><trkpt lat="43.3489145515148" lon="-0.4695607791991701"><ele>145.0</ele><time>2026-04-26T14:38:33Z</time></trkpt><trkpt lat="43.348973718318305" lon="-0.4696296148694812"><ele>145.0</ele><time>2026-04-26T14:38:34Z</time></trkpt><trkpt lat="43.349036663170914" lon="-0.46969611752136836"><ele>145.0</ele><time>2026-04-26T14:38:35Z</time></trkpt><trkpt lat="43.349095238123034" lon="-0.46976550462566935"><ele>145.0</ele><time>2026-04-26T14:38:36Z</time></trkpt><trkpt lat="43.34915160824668" lon="-0.4698378362988424"><ele>145.0</ele><time>2026-04-26T14:38:37Z</time></trkpt><trkpt lat="43.349214045764015" lon="-0.4699039844437545"><ele>145.0</ele><time>2026-04-26T14:38:38Z</time></trkpt><trkpt lat="43.34928602999272" lon="-0.4699511124584908"><ele>145.0</ele><time>2026-04-26T14:38:39Z</time></trkpt><trkpt lat="43.34936200021955" lon="-0.46998821244265454"><ele>145.0</ele><time>2026-04-26T14:38:40Z</time></trkpt><trkpt lat="43.349438306412345" lon="-0.47001640218288004"><ele>145.0</ele><time>2026-04-26T14:38:41Z</time></trkpt><trkpt lat="43.34951198387103" lon="-0.47006129116007733"><ele>145.0</ele><time>2026-04-26T14:38:42Z</time></trkpt><trkpt lat="43.34958739459899" lon="-0.47009720630985496"><ele>145.0</ele><time>2026-04-26T14:38:43Z</time></trkpt><trkpt lat="43.349657164038916" lon="-0.47013139178828983"><ele>145.0</ele><time>2026-04-26T14:38:44Z</time></trkpt><trkpt lat="43.34972582288189" lon="-0.47017606386417166"><ele>145.0</ele><time>2026-04-26T14:38:45Z</time></trkpt><trkpt lat="43.34977868012918" lon="-0.47025405178358487"><ele>145.0</ele><time>2026-04-26T14:38:46Z</time></trkpt><trkpt lat="43.349833481579445" lon="-0.47030798380508554"><ele>145.0</ele><time>2026-04-26T14:38:47Z</time></trkpt><trkpt lat="43.34987364895864" lon="-0.4703806730305714"><ele>145.0</ele><time>2026-04-26T14:38:48Z</time></trkpt><trkpt lat="43.34995282062254" lon="-0.4704704145749769"><ele>144.83333333333334</ele><time>2026-04-26T14:38:50Z</time></trkpt><trkpt lat="43.35003153421453" lon="-0.47049791000836383"><ele>144.66666666666669</ele><time>2026-04-26T14:38:52Z</time></trkpt><trkpt lat="43.35010503774084" lon="-0.4703763719781177"><ele>144.5</ele><time>2026-04-26T14:38:54Z</time></trkpt><trkpt lat="43.350131341918555" lon="-0.47029334231233033"><ele>144.33333333333334</ele><time>2026-04-26T14:38:55Z</time></trkpt><trkpt lat="43.35019684776185" lon="-0.4701831138430879"><ele>144.16666666666666</ele><time>2026-04-26T14:38:57Z</time></trkpt><trkpt lat="43.35025391518059" lon="-0.4701307483025204"><ele>144.0</ele><time>2026-04-26T14:38:58Z</time></trkpt><trkpt lat="43.350293797372004" lon="-0.47005326298606454"><ele>144.0</ele><time>2026-04-26T14:38:59Z</time></trkpt><trkpt lat="43.350343396971645" lon="-0.46999329883130914"><ele>144.0</ele><time>2026-04-26T14:39:00Z</time></trkpt><trkpt lat="43.350389381036166" lon="-0.4699148293036395"><ele>144.0</ele><time>2026-04-26T14:39:01Z</time></trkpt><trkpt lat="43.35044100306539" lon="-0.4698328464716783"><ele>144.0</ele><time>2026-04-26T14:39:02Z</time></trkpt><trkpt lat="43.35054187664767" lon="-0.4697352335227518"><ele>144.0</ele><time>2026-04-26T14:39:04Z</time></trkpt><trkpt lat="43.35059786440233" lon="-0.469670564267308"><ele>144.0</ele><time>2026-04-26T14:39:05Z</time></trkpt><trkpt lat="43.35065737042237" lon="-0.46962733101747944"><ele>144.2857142857143</ele><time>2026-04-26T14:39:06Z</time></trkpt><trkpt lat="43.35070812507788" lon="-0.46957419729221467"><ele>144.57142857142858</ele><time>2026-04-26T14:39:07Z</time></trkpt><trkpt lat="43.350765341790414" lon="-0.4695182414873781"><ele>144.85714285714286</ele><time>2026-04-26T14:39:08Z</time></trkpt><trkpt lat="43.35082618168887" lon="-0.4694520718139654"><ele>145.14285714285717</ele><time>2026-04-26T14:39:09Z</time></trkpt><trkpt lat="43.3508841428173" lon="-0.469385045367224"><ele>145.42857142857144</ele><time>2026-04-26T14:39:10Z</time></trkpt><trkpt lat="43.35094292266979" lon="-0.4693372036086216"><ele>145.71428571428572</ele><time>2026-04-26T14:39:11Z</time></trkpt><trkpt lat="43.350996245901875" lon="-0.46928202601301544"><ele>146.0</ele><time>2026-04-26T14:39:12Z</time></trkpt><trkpt lat="43.35106953384193" lon="-0.469233386114188"><ele>146.0</ele><time>2026-04-26T14:39:13Z</time></trkpt><trkpt lat="43.351127012106026" lon="-0.4691850081570503"><ele>146.0</ele><time>2026-04-26T14:39:14Z</time></trkpt><trkpt lat="43.3511846382378" lon="-0.4691449804499853"><ele>146.0</ele><time>2026-04-26T14:39:15Z</time></trkpt><trkpt lat="43.35128852185809" lon="-0.4690715972669419"><ele>146.0</ele><time>2026-04-26T14:39:17Z</time></trkpt><trkpt lat="43.35137998651732" lon="-0.4690390398595199"><ele>146.0</ele><time>2026-04-26T14:39:19Z</time></trkpt><trkpt lat="43.35145534453888" lon="-0.4690164021977822"><ele>146.0</ele><time>2026-04-26T14:39:21Z</time></trkpt><trkpt lat="43.35153015111323" lon="-0.46899671051156105"><ele>147.0</ele><time>2026-04-26T14:39:23Z</time></trkpt><trkpt lat="43.35160648027717" lon="-0.4689697864447056"><ele>148.0</ele><time>2026-04-26T14:39:25Z</time></trkpt><trkpt lat="43.35168167776316" lon="-0.4689435486375887"><ele>149.0</ele><time>2026-04-26T14:39:27Z</time></trkpt><trkpt lat="43.351750110602524" lon="-0.4689241521127434"><ele>150.0</ele><time>2026-04-26T14:39:29Z</time></trkpt><trkpt lat="43.35181821489738" lon="-0.4689019672125074"><ele>151.0</ele><time>2026-04-26T14:39:31Z</time></trkpt><trkpt lat="43.35189249817755" lon="-0.46889156085896827"><ele>152.0</ele><time>2026-04-26T14:39:34Z</time></trkpt><trkpt lat="43.35197021291491" lon="-0.46889691520391086"><ele>153.0</ele><time>2026-04-26T14:39:38Z</time></trkpt><trkpt lat="43.35203380907612" lon="-0.46890639371801507"><ele>162.0</ele><time>2026-04-26T14:39:42Z</time></trkpt><trkpt lat="43.35268319273818" lon="-0.46977454982187355"><ele>162.0</ele><time>2026-04-26T14:40:25Z</time></trkpt><trkpt lat="43.352764139443074" lon="-0.4697964817371617"><ele>162.0</ele><time>2026-04-26T14:40:27Z</time></trkpt><trkpt lat="43.35283442570762" lon="-0.46976738321137546"><ele>162.0</ele><time>2026-04-26T14:40:29Z</time></trkpt><trkpt lat="43.352918472423895" lon="-0.4697655452758586"><ele>162.0</ele><time>2026-04-26T14:40:31Z</time></trkpt><trkpt lat="43.3530078465734" lon="-0.46974196460096146"><ele>162.0</ele><time>2026-04-26T14:40:33Z</time></trkpt><trkpt lat="43.35310222948773" lon="-0.46969913297171634"><ele>162.0</ele><time>2026-04-26T14:40:35Z</time></trkpt><trkpt lat="43.35319061466463" lon="-0.4696509311575207"><ele>162.6</ele><time>2026-04-26T14:40:37Z</time></trkpt><trkpt lat="43.35327011112945" lon="-0.4695813990819731"><ele>163.2</ele><time>2026-04-26T14:40:39Z</time></trkpt><trkpt lat="43.353362842148094" lon="-0.46951807860089756"><ele>163.8</ele><time>2026-04-26T14:40:41Z</time></trkpt><trkpt lat="43.3534602201577" lon="-0.4694725731193258"><ele>164.4</ele><time>2026-04-26T14:40:43Z</time></trkpt><trkpt lat="43.35356055340813" lon="-0.4694277294309642"><ele>165.0</ele><time>2026-04-26T14:40:45Z</time></trkpt><trkpt lat="43.35366474839916" lon="-0.46936696598703465"><ele>165.0</ele><time>2026-04-26T14:40:47Z</time></trkpt><trkpt lat="43.35377872819554" lon="-0.46933662303955964"><ele>165.0</ele><time>2026-04-26T14:40:49Z</time></trkpt><trkpt lat="43.35389409152671" lon="-0.46931551401991406"><ele>165.0</ele><time>2026-04-26T14:40:51Z</time></trkpt><trkpt lat="43.3540044657497" lon="-0.4692762868197642"><ele>165.0</ele><time>2026-04-26T14:40:53Z</time></trkpt><trkpt lat="43.35412049578029" lon="-0.4692326832197341"><ele>165.4</ele><time>2026-04-26T14:40:55Z</time></trkpt><trkpt lat="43.354239291995206" lon="-0.4691968829688446"><ele>165.8</ele><time>2026-04-26T14:40:57Z</time></trkpt><trkpt lat="43.35430138371931" lon="-0.4691711542150031"><ele>166.2</ele><time>2026-04-26T14:40:58Z</time></trkpt><trkpt lat="43.35442366659682" lon="-0.46913649436936944"><ele>166.6</ele><time>2026-04-26T14:41:00Z</time></trkpt><trkpt lat="43.35448792407503" lon="-0.4691232399108195"><ele>167.0</ele><time>2026-04-26T14:41:01Z</time></trkpt><trkpt lat="43.35460469682586" lon="-0.4690866672268859"><ele>167.0</ele><time>2026-04-26T14:41:03Z</time></trkpt><trkpt lat="43.35466983174594" lon="-0.4690671269256826"><ele>167.0</ele><time>2026-04-26T14:41:04Z</time></trkpt><trkpt lat="43.35473513396738" lon="-0.46904358931063556"><ele>167.0</ele><time>2026-04-26T14:41:05Z</time></trkpt><trkpt lat="43.35485557614346" lon="-0.46900003072433455"><ele>167.0</ele><time>2026-04-26T14:41:07Z</time></trkpt><trkpt lat="43.35491767026185" lon="-0.4689714165554421"><ele>167.0</ele><time>2026-04-26T14:41:08Z</time></trkpt><trkpt lat="43.35497736948317" lon="-0.46894101390892207"><ele>167.0</ele><time>2026-04-26T14:41:09Z</time></trkpt><trkpt lat="43.35503525992517" lon="-0.46890336007377714"><ele>167.0</ele><time>2026-04-26T14:41:10Z</time></trkpt><trkpt lat="43.35509617247396" lon="-0.4688718253168843"><ele>167.0</ele><time>2026-04-26T14:41:11Z</time></trkpt><trkpt lat="43.35520731232016" lon="-0.46881401124620525"><ele>167.0</ele><time>2026-04-26T14:41:13Z</time></trkpt><trkpt lat="43.35530380688102" lon="-0.46874099524969365"><ele>167.0</ele><time>2026-04-26T14:41:15Z</time></trkpt><trkpt lat="43.355393947251784" lon="-0.46867071408436944"><ele>167.0</ele><time>2026-04-26T14:41:17Z</time></trkpt><trkpt lat="43.35547103635824" lon="-0.4686331891866328"><ele>167.0</ele><time>2026-04-26T14:41:19Z</time></trkpt><trkpt lat="43.35553311347471" lon="-0.4687530433170024"><ele>167.0</ele><time>2026-04-26T14:41:22Z</time></trkpt><trkpt lat="43.35554698455622" lon="-0.46889437783377297"><ele>167.0</ele><time>2026-04-26T14:41:24Z</time></trkpt><trkpt lat="43.35557038447448" lon="-0.46903328983521436"><ele>167.0</ele><time>2026-04-26T14:41:26Z</time></trkpt><trkpt lat="43.355594180245305" lon="-0.46919671020780557"><ele>167.0</ele><time>2026-04-26T14:41:28Z</time></trkpt><trkpt lat="43.3556105904722" lon="-0.46928064924986534"><ele>167.0</ele><time>2026-04-26T14:41:29Z</time></trkpt><trkpt lat="43.35563205509608" lon="-0.46936269637163264"><ele>167.0</ele><time>2026-04-26T14:41:30Z</time></trkpt><trkpt lat="43.355654498503526" lon="-0.4695312515608129"><ele>167.0</ele><time>2026-04-26T14:41:32Z</time></trkpt><trkpt lat="43.35567470955857" lon="-0.4696166523405584"><ele>167.0</ele><time>2026-04-26T14:41:33Z</time></trkpt><trkpt lat="43.35569469012427" lon="-0.4697010815815487"><ele>167.0</ele><time>2026-04-26T14:41:34Z</time></trkpt><trkpt lat="43.35571843755657" lon="-0.4697859456398407"><ele>167.0</ele><time>2026-04-26T14:41:35Z</time></trkpt><trkpt lat="43.35573834437375" lon="-0.4698761985032182"><ele>167.0</ele><time>2026-04-26T14:41:36Z</time></trkpt><trkpt lat="43.35576140419463" lon="-0.4699625798056088"><ele>167.0</ele><time>2026-04-26T14:41:37Z</time></trkpt><trkpt lat="43.35578091958411" lon="-0.47005137872461816"><ele>167.0</ele><time>2026-04-26T14:41:38Z</time></trkpt><trkpt lat="43.35580290570862" lon="-0.4701457968887289"><ele>167.0</ele><time>2026-04-26T14:41:39Z</time></trkpt><trkpt lat="43.355821394963606" lon="-0.4702380286515868"><ele>167.0</ele><time>2026-04-26T14:41:40Z</time></trkpt><trkpt lat="43.35585527308829" lon="-0.47032446399609223"><ele>167.0</ele><time>2026-04-26T14:41:41Z</time></trkpt><trkpt lat="43.35586815399556" lon="-0.4704168934208087"><ele>167.0</ele><time>2026-04-26T14:41:42Z</time></trkpt><trkpt lat="43.35589318505474" lon="-0.470511339734809"><ele>166.71428571428572</ele><time>2026-04-26T14:41:43Z</time></trkpt><trkpt lat="43.355916536685726" lon="-0.4706072442559172"><ele>166.42857142857144</ele><time>2026-04-26T14:41:44Z</time></trkpt><trkpt lat="43.35594070603649" lon="-0.4707007469563071"><ele>166.14285714285717</ele><time>2026-04-26T14:41:45Z</time></trkpt><trkpt lat="43.35596550580481" lon="-0.47079336283842954"><ele>165.85714285714286</ele><time>2026-04-26T14:41:46Z</time></trkpt><trkpt lat="43.35598862111571" lon="-0.470886868075395"><ele>165.57142857142858</ele><time>2026-04-26T14:41:47Z</time></trkpt><trkpt lat="43.356009903066905" lon="-0.47098570201739093"><ele>165.2857142857143</ele><time>2026-04-26T14:41:48Z</time></trkpt><trkpt lat="43.35604352697297" lon="-0.47107526301307084"><ele>165.0</ele><time>2026-04-26T14:41:49Z</time></trkpt><trkpt lat="43.35606731419761" lon="-0.4711674541268831"><ele>165.00000000000003</ele><time>2026-04-26T14:41:50Z</time></trkpt><trkpt lat="43.35609349892815" lon="-0.47125754715942847"><ele>165.0</ele><time>2026-04-26T14:41:51Z</time></trkpt><trkpt lat="43.356121967913325" lon="-0.4713500984391217"><ele>165.0</ele><time>2026-04-26T14:41:52Z</time></trkpt><trkpt lat="43.35614272399452" lon="-0.47143675648258254"><ele>165.0</ele><time>2026-04-26T14:41:53Z</time></trkpt><trkpt lat="43.3561672550668" lon="-0.4715340770288776"><ele>165.0</ele><time>2026-04-26T14:41:54Z</time></trkpt><trkpt lat="43.35619659862848" lon="-0.4716274771794138"><ele>165.00000000000003</ele><time>2026-04-26T14:41:55Z</time></trkpt><trkpt lat="43.35622015165526" lon="-0.47172425569580845"><ele>165.0</ele><time>2026-04-26T14:41:56Z</time></trkpt><trkpt lat="43.35625169537274" lon="-0.4718138319203567"><ele>165.0</ele><time>2026-04-26T14:41:57Z</time></trkpt><trkpt lat="43.356311817233426" lon="-0.4718857094630524"><ele>165.0</ele><time>2026-04-26T14:41:58Z</time></trkpt><trkpt lat="43.3563575341668" lon="-0.47196502609744173"><ele>165.0</ele><time>2026-04-26T14:41:59Z</time></trkpt><trkpt lat="43.35640121846389" lon="-0.47204815281938667"><ele>165.0</ele><time>2026-04-26T14:42:00Z</time></trkpt><trkpt lat="43.3564424536586" lon="-0.47213980993411603"><ele>165.0</ele><time>2026-04-26T14:42:01Z</time></trkpt><trkpt lat="43.35647041118494" lon="-0.47224282765442666"><ele>165.0</ele><time>2026-04-26T14:42:02Z</time></trkpt><trkpt lat="43.35649754269339" lon="-0.4723392327609005"><ele>165.0</ele><time>2026-04-26T14:42:03Z</time></trkpt><trkpt lat="43.35652413715626" lon="-0.47244031933367786"><ele>165.0</ele><time>2026-04-26T14:42:04Z</time></trkpt><trkpt lat="43.356553915328604" lon="-0.4725374622556124"><ele>165.0</ele><time>2026-04-26T14:42:05Z</time></trkpt><trkpt lat="43.35658564325661" lon="-0.47263579608319023"><ele>165.0</ele><time>2026-04-26T14:42:06Z</time></trkpt><trkpt lat="43.35661620746237" lon="-0.4727336862225469"><ele>165.0</ele><time>2026-04-26T14:42:07Z</time></trkpt><trkpt lat="43.35664862621862" lon="-0.4728350727588425"><ele>165.0</ele><time>2026-04-26T14:42:08Z</time></trkpt><trkpt lat="43.35667656300843" lon="-0.4729390345800745"><ele>164.66666666666666</ele><time>2026-04-26T14:42:09Z</time></trkpt><trkpt lat="43.35670695617384" lon="-0.4730400537361419"><ele>164.33333333333334</ele><time>2026-04-26T14:42:10Z</time></trkpt><trkpt lat="43.35673755758454" lon="-0.47314017712067247"><ele>164.0</ele><time>2026-04-26T14:42:11Z</time></trkpt><trkpt lat="43.3567785277256" lon="-0.47323310603616836"><ele>163.66666666666669</ele><time>2026-04-26T14:42:12Z</time></trkpt><trkpt lat="43.35680762960161" lon="-0.4733340588435056"><ele>163.33333333333334</ele><time>2026-04-26T14:42:13Z</time></trkpt><trkpt lat="43.356841897794965" lon="-0.47343531660927296"><ele>163.0</ele><time>2026-04-26T14:42:14Z</time></trkpt><trkpt lat="43.35687073616746" lon="-0.4735334480532873"><ele>163.0</ele><time>2026-04-26T14:42:15Z</time></trkpt><trkpt lat="43.35689959319674" lon="-0.47362472490855045"><ele>163.0</ele><time>2026-04-26T14:42:16Z</time></trkpt><trkpt lat="43.35693121057734" lon="-0.47372781309920686"><ele>163.0</ele><time>2026-04-26T14:42:17Z</time></trkpt><trkpt lat="43.356965413338294" lon="-0.473830925743231"><ele>163.0</ele><time>2026-04-26T14:42:18Z</time></trkpt><trkpt lat="43.35699471105423" lon="-0.47392381336065625"><ele>163.0</ele><time>2026-04-26T14:42:19Z</time></trkpt><trkpt lat="43.35702615206268" lon="-0.4740664918387839"><ele>163.0</ele><time>2026-04-26T14:42:20Z</time></trkpt><trkpt lat="43.35705954401591" lon="-0.47414156900142934"><ele>163.0</ele><time>2026-04-26T14:42:21Z</time></trkpt><trkpt lat="43.35708698244341" lon="-0.4742422703386693"><ele>163.0</ele><time>2026-04-26T14:42:22Z</time></trkpt><trkpt lat="43.35711754280771" lon="-0.4743364137395485"><ele>163.0</ele><time>2026-04-26T14:42:23Z</time></trkpt><trkpt lat="43.35714658872165" lon="-0.47443696689526665"><ele>163.0</ele><time>2026-04-26T14:42:24Z</time></trkpt><trkpt lat="43.35717597593129" lon="-0.47453156574648636"><ele>163.0</ele><time>2026-04-26T14:42:25Z</time></trkpt><trkpt lat="43.35720356162419" lon="-0.4746297283773511"><ele>163.0</ele><time>2026-04-26T14:42:26Z</time></trkpt><trkpt lat="43.35724069842375" lon="-0.47472461942236927"><ele>163.14285714285714</ele><time>2026-04-26T14:42:27Z</time></trkpt><trkpt lat="43.357271685659136" lon="-0.47482022927068307"><ele>163.28571428571428</ele><time>2026-04-26T14:42:28Z</time></trkpt><trkpt lat="43.357291130934094" lon="-0.47490937918107173"><ele>163.42857142857142</ele><time>2026-04-26T14:42:29Z</time></trkpt><trkpt lat="43.357322206591796" lon="-0.4750049847715758"><ele>163.57142857142856</ele><time>2026-04-26T14:42:30Z</time></trkpt><trkpt lat="43.357356779191626" lon="-0.4750992308551475"><ele>163.71428571428572</ele><time>2026-04-26T14:42:31Z</time></trkpt><trkpt lat="43.3573898105731" lon="-0.47518785951300757"><ele>163.85714285714283</ele><time>2026-04-26T14:42:32Z</time></trkpt><trkpt lat="43.35743142676693" lon="-0.4752758073983067"><ele>164.0</ele><time>2026-04-26T14:42:33Z</time></trkpt><trkpt lat="43.35747470189751" lon="-0.4753549119924943"><ele>164.0</ele><time>2026-04-26T14:42:34Z</time></trkpt><trkpt lat="43.3575386293267" lon="-0.47540063179227043"><ele>164.0</ele><time>2026-04-26T14:42:35Z</time></trkpt><trkpt lat="43.35759931583952" lon="-0.47546420749690044"><ele>164.0</ele><time>2026-04-26T14:42:36Z</time></trkpt><trkpt lat="43.35765358167952" lon="-0.47551694631780417"><ele>164.0</ele><time>2026-04-26T14:42:37Z</time></trkpt><trkpt lat="43.35771068435131" lon="-0.47557774115790874"><ele>164.0</ele><time>2026-04-26T14:42:38Z</time></trkpt><trkpt lat="43.35780075372774" lon="-0.4757043879582144"><ele>164.0</ele><time>2026-04-26T14:42:40Z</time></trkpt><trkpt lat="43.35785708510303" lon="-0.47574834694637796"><ele>163.79999999999998</ele><time>2026-04-26T14:42:41Z</time></trkpt><trkpt lat="43.35790525767729" lon="-0.47580637204219456"><ele>163.6</ele><time>2026-04-26T14:42:42Z</time></trkpt><trkpt lat="43.357984160752615" lon="-0.4759312625578377"><ele>163.4</ele><time>2026-04-26T14:42:44Z</time></trkpt><trkpt lat="43.358074041216675" lon="-0.47604599189525404"><ele>163.2</ele><time>2026-04-26T14:42:46Z</time></trkpt><trkpt lat="43.35814078059551" lon="-0.4761524944865565"><ele>163.0</ele><time>2026-04-26T14:42:48Z</time></trkpt><trkpt lat="43.358209227010995" lon="-0.47626429599350634"><ele>163.0</ele><time>2026-04-26T14:42:50Z</time></trkpt><trkpt lat="43.358275498996136" lon="-0.4764089645092555"><ele>163.0</ele><time>2026-04-26T14:42:52Z</time></trkpt><trkpt lat="43.3583103947466" lon="-0.4764848684925156"><ele>163.0</ele><time>2026-04-26T14:42:53Z</time></trkpt><trkpt lat="43.35834568828008" lon="-0.47656180669340825"><ele>163.0</ele><time>2026-04-26T14:42:54Z</time></trkpt><trkpt lat="43.358384435252844" lon="-0.4766327180220116"><ele>163.0</ele><time>2026-04-26T14:42:55Z</time></trkpt><trkpt lat="43.35842342003596" lon="-0.4767138209907137"><ele>163.0</ele><time>2026-04-26T14:42:56Z</time></trkpt><trkpt lat="43.358495381783825" lon="-0.4768751638970591"><ele>163.0</ele><time>2026-04-26T14:42:58Z</time></trkpt><trkpt lat="43.35854523872964" lon="-0.476946001055843"><ele>163.0</ele><time>2026-04-26T14:42:59Z</time></trkpt><trkpt lat="43.3585821333171" lon="-0.47703709660784577"><ele>163.0</ele><time>2026-04-26T14:43:00Z</time></trkpt><trkpt lat="43.35861965173872" lon="-0.4771214583490603"><ele>163.0</ele><time>2026-04-26T14:43:01Z</time></trkpt><trkpt lat="43.35865850075707" lon="-0.47720038812674387"><ele>163.0</ele><time>2026-04-26T14:43:02Z</time></trkpt><trkpt lat="43.3587028812517" lon="-0.4772794441617587"><ele>163.0</ele><time>2026-04-26T14:43:03Z</time></trkpt><trkpt lat="43.358741949190645" lon="-0.47736277234710217"><ele>163.0</ele><time>2026-04-26T14:43:04Z</time></trkpt><trkpt lat="43.35877510608591" lon="-0.47743955330939464"><ele>163.0</ele><time>2026-04-26T14:43:05Z</time></trkpt><trkpt lat="43.35881901476657" lon="-0.4775192891993125"><ele>163.0</ele><time>2026-04-26T14:43:06Z</time></trkpt><trkpt lat="43.358869304260836" lon="-0.47759211404747925"><ele>163.0</ele><time>2026-04-26T14:43:07Z</time></trkpt><trkpt lat="43.358918780008125" lon="-0.4776682433795376"><ele>163.0</ele><time>2026-04-26T14:43:08Z</time></trkpt><trkpt lat="43.35896564740093" lon="-0.47774480760854315"><ele>163.0</ele><time>2026-04-26T14:43:09Z</time></trkpt><trkpt lat="43.35902157934394" lon="-0.47780808060383656"><ele>163.0</ele><time>2026-04-26T14:43:10Z</time></trkpt><trkpt lat="43.359057582796034" lon="-0.47788823313911766"><ele>163.0</ele><time>2026-04-26T14:43:11Z</time></trkpt><trkpt lat="43.35911435207522" lon="-0.4779635522500078"><ele>162.83333333333334</ele><time>2026-04-26T14:43:12Z</time></trkpt><trkpt lat="43.35916513743157" lon="-0.47803474733958284"><ele>162.66666666666669</ele><time>2026-04-26T14:43:13Z</time></trkpt><trkpt lat="43.359225721762265" lon="-0.4781018579250725"><ele>162.5</ele><time>2026-04-26T14:43:14Z</time></trkpt><trkpt lat="43.359272934257035" lon="-0.4781767505924567"><ele>162.33333333333334</ele><time>2026-04-26T14:43:15Z</time></trkpt><trkpt lat="43.359324425210104" lon="-0.4782527560975971"><ele>162.16666666666666</ele><time>2026-04-26T14:43:16Z</time></trkpt><trkpt lat="43.359376318392485" lon="-0.47832644336978275"><ele>162.0</ele><time>2026-04-26T14:43:17Z</time></trkpt><trkpt lat="43.35942918194742" lon="-0.47840472109316634"><ele>162.0</ele><time>2026-04-26T14:43:18Z</time></trkpt><trkpt lat="43.35948174015843" lon="-0.47847795770809043"><ele>162.0</ele><time>2026-04-26T14:43:19Z</time></trkpt><trkpt lat="43.35953903761544" lon="-0.478547115072065"><ele>162.0</ele><time>2026-04-26T14:43:20Z</time></trkpt><trkpt lat="43.35958854728515" lon="-0.4786263411243992"><ele>162.0</ele><time>2026-04-26T14:43:21Z</time></trkpt><trkpt lat="43.35964582661066" lon="-0.47867790122304243"><ele>162.0</ele><time>2026-04-26T14:43:22Z</time></trkpt><trkpt lat="43.359703365789095" lon="-0.4787558229071517"><ele>162.0</ele><time>2026-04-26T14:43:23Z</time></trkpt><trkpt lat="43.35974406583604" lon="-0.4788374998188211"><ele>162.0</ele><time>2026-04-26T14:43:24Z</time></trkpt><trkpt lat="43.35979816408985" lon="-0.47890982399250953"><ele>162.0</ele><time>2026-04-26T14:43:25Z</time></trkpt><trkpt lat="43.35985007473065" lon="-0.4789795688747248"><ele>162.0</ele><time>2026-04-26T14:43:26Z</time></trkpt><trkpt lat="43.35990053898573" lon="-0.4790618364191082"><ele>162.0</ele><time>2026-04-26T14:43:27Z</time></trkpt><trkpt lat="43.35995451971424" lon="-0.47911491126350236"><ele>162.0</ele><time>2026-04-26T14:43:28Z</time></trkpt><trkpt lat="43.36000319132779" lon="-0.4791720840185452"><ele>162.0</ele><time>2026-04-26T14:43:29Z</time></trkpt><trkpt lat="43.3600848246439" lon="-0.47929842050397475"><ele>162.0</ele><time>2026-04-26T14:43:31Z</time></trkpt><trkpt lat="43.36009701105311" lon="-0.47946775620788074"><ele>162.0</ele><time>2026-04-26T14:43:33Z</time></trkpt><trkpt lat="43.36006466830118" lon="-0.47954583968009945"><ele>162.0</ele><time>2026-04-26T14:43:34Z</time></trkpt><trkpt lat="43.360007879428615" lon="-0.4795947571581211"><ele>162.0</ele><time>2026-04-26T14:43:35Z</time></trkpt><trkpt lat="43.35994656435181" lon="-0.4796197903551495"><ele>162.0</ele><time>2026-04-26T14:43:36Z</time></trkpt><trkpt lat="43.359821880015154" lon="-0.4796519492907225"><ele>162.0</ele><time>2026-04-26T14:43:38Z</time></trkpt><trkpt lat="43.35974566822343" lon="-0.47966415615547003"><ele>162.0</ele><time>2026-04-26T14:43:39Z</time></trkpt><trkpt lat="43.3596213076549" lon="-0.4796878156682366"><ele>161.83333333333334</ele><time>2026-04-26T14:43:41Z</time></trkpt><trkpt lat="43.35955500361414" lon="-0.47970735779201457"><ele>161.66666666666666</ele><time>2026-04-26T14:43:42Z</time></trkpt><trkpt lat="43.3594927733919" lon="-0.4797307895020321"><ele>161.5</ele><time>2026-04-26T14:43:43Z</time></trkpt><trkpt lat="43.359430769732334" lon="-0.4797598549124709"><ele>161.33333333333331</ele><time>2026-04-26T14:43:44Z</time></trkpt><trkpt lat="43.35931345019123" lon="-0.47982287028588294"><ele>161.16666666666666</ele><time>2026-04-26T14:43:46.001Z</time></trkpt><trkpt lat="43.35921656142092" lon="-0.4799191266038816"><ele>161.0</ele><time>2026-04-26T14:43:48.001Z</time></trkpt><trkpt lat="43.359165834036034" lon="-0.479995271193963"><ele>161.0</ele><time>2026-04-26T14:43:50.001Z</time></trkpt><trkpt lat="43.35919521499849" lon="-0.48010644292050175"><ele>161.0</ele><time>2026-04-26T14:43:53.001Z</time></trkpt><trkpt lat="43.3592646517182" lon="-0.4801826244122072"><ele>161.0</ele><time>2026-04-26T14:43:55.001Z</time></trkpt><trkpt lat="43.35934707649077" lon="-0.4802514271954246"><ele>161.0</ele><time>2026-04-26T14:43:57.001Z</time></trkpt><trkpt lat="43.35943854553648" lon="-0.48033787338263806"><ele>161.0</ele><time>2026-04-26T14:43:59.001Z</time></trkpt><trkpt lat="43.35954019034812" lon="-0.4804287791633137"><ele>160.85714285714286</ele><time>2026-04-26T14:44:01.001Z</time></trkpt><trkpt lat="43.359594739112936" lon="-0.48047783686974876"><ele>160.71428571428572</ele><time>2026-04-26T14:44:02.001Z</time></trkpt><trkpt lat="43.3596554430226" lon="-0.48052001268875416"><ele>160.57142857142856</ele><time>2026-04-26T14:44:03.001Z</time></trkpt><trkpt lat="43.35971968159446" lon="-0.48055939715490154"><ele>160.42857142857144</ele><time>2026-04-26T14:44:04.001Z</time></trkpt><trkpt lat="43.35978870638024" lon="-0.48059838440140673"><ele>160.28571428571428</ele><time>2026-04-26T14:44:05.001Z</time></trkpt><trkpt lat="43.359854518844955" lon="-0.4806408227562891"><ele>160.14285714285714</ele><time>2026-04-26T14:44:06.001Z</time></trkpt><trkpt lat="43.359930162236424" lon="-0.4806784745823797"><ele>160.0</ele><time>2026-04-26T14:44:07.001Z</time></trkpt><trkpt lat="43.35999648937578" lon="-0.48071231220600835"><ele>160.0</ele><time>2026-04-26T14:44:08.001Z</time></trkpt><trkpt lat="43.3600631973214" lon="-0.4807540242912242"><ele>160.0</ele><time>2026-04-26T14:44:09.001Z</time></trkpt><trkpt lat="43.360131479790894" lon="-0.48079364288999327"><ele>160.0</ele><time>2026-04-26T14:44:10.001Z</time></trkpt><trkpt lat="43.36019590769789" lon="-0.48083374835055787"><ele>160.0</ele><time>2026-04-26T14:44:11.001Z</time></trkpt><trkpt lat="43.360265474975265" lon="-0.48087230676725"><ele>160.0</ele><time>2026-04-26T14:44:12.001Z</time></trkpt><trkpt lat="43.36033221007234" lon="-0.4809107158794591"><ele>160.0</ele><time>2026-04-26T14:44:13.001Z</time></trkpt><trkpt lat="43.36039522214208" lon="-0.480946390176881"><ele>160.0</ele><time>2026-04-26T14:44:14.001Z</time></trkpt><trkpt lat="43.360465407151295" lon="-0.4809829493545864"><ele>160.0</ele><time>2026-04-26T14:44:15Z</time></trkpt><trkpt lat="43.36052910378183" lon="-0.4810300938877463"><ele>160.0</ele><time>2026-04-26T14:44:16Z</time></trkpt><trkpt lat="43.36059589016439" lon="-0.4810725382193795"><ele>160.0</ele><time>2026-04-26T14:44:17Z</time></trkpt><trkpt lat="43.36067192806101" lon="-0.4810790426533617"><ele>160.0</ele><time>2026-04-26T14:44:18Z</time></trkpt><trkpt lat="43.36074212776794" lon="-0.48111465778751644"><ele>160.0</ele><time>2026-04-26T14:44:19Z</time></trkpt><trkpt lat="43.36080939740165" lon="-0.48114878625168545"><ele>160.0</ele><time>2026-04-26T14:44:20Z</time></trkpt><trkpt lat="43.360875946890886" lon="-0.48118254941617883"><ele>160.0</ele><time>2026-04-26T14:44:21Z</time></trkpt><trkpt lat="43.36094199696356" lon="-0.48123970140544464"><ele>160.0</ele><time>2026-04-26T14:44:22Z</time></trkpt><trkpt lat="43.36102073714097" lon="-0.4812560071911501"><ele>160.0</ele><time>2026-04-26T14:44:23Z</time></trkpt><trkpt lat="43.361091780545074" lon="-0.4812920502741249"><ele>160.0</ele><time>2026-04-26T14:44:24Z</time></trkpt><trkpt lat="43.36116318897867" lon="-0.4813260725151203"><ele>160.0</ele><time>2026-04-26T14:44:25Z</time></trkpt><trkpt lat="43.361234427930356" lon="-0.4813597962909284"><ele>160.0</ele><time>2026-04-26T14:44:26Z</time></trkpt><trkpt lat="43.361309231152966" lon="-0.4813943809327271"><ele>160.0</ele><time>2026-04-26T14:44:27Z</time></trkpt><trkpt lat="43.361383703206755" lon="-0.4814277603187365"><ele>160.16666666666669</ele><time>2026-04-26T14:44:28Z</time></trkpt><trkpt lat="43.361456413074535" lon="-0.4814603499320741"><ele>160.33333333333334</ele><time>2026-04-26T14:44:29Z</time></trkpt><trkpt lat="43.36153047000202" lon="-0.4815067533375384"><ele>160.5</ele><time>2026-04-26T14:44:30Z</time></trkpt><trkpt lat="43.36160285489369" lon="-0.4815431537685207"><ele>160.66666666666666</ele><time>2026-04-26T14:44:31Z</time></trkpt><trkpt lat="43.36167567494746" lon="-0.4815766112725873"><ele>160.83333333333331</ele><time>2026-04-26T14:44:32Z</time></trkpt><trkpt lat="43.36175213087761" lon="-0.4816096781395389"><ele>161.0</ele><time>2026-04-26T14:44:33Z</time></trkpt><trkpt lat="43.361829697861445" lon="-0.4816364304400115"><ele>161.0</ele><time>2026-04-26T14:44:34Z</time></trkpt><trkpt lat="43.36190001510591" lon="-0.4816699955485907"><ele>161.0</ele><time>2026-04-26T14:44:35Z</time></trkpt><trkpt lat="43.36197288827164" lon="-0.4817015797510752"><ele>161.0</ele><time>2026-04-26T14:44:36Z</time></trkpt><trkpt lat="43.36205146288469" lon="-0.481735512252613"><ele>161.0</ele><time>2026-04-26T14:44:37Z</time></trkpt><trkpt lat="43.362124162977274" lon="-0.4817663262012427"><ele>161.0</ele><time>2026-04-26T14:44:38Z</time></trkpt><trkpt lat="43.362195127063714" lon="-0.4817963808799231"><ele>161.0</ele><time>2026-04-26T14:44:39Z</time></trkpt><trkpt lat="43.362271291502" lon="-0.4818253986737319"><ele>160.83333333333331</ele><time>2026-04-26T14:44:40Z</time></trkpt><trkpt lat="43.36234453300533" lon="-0.48185515630875886"><ele>160.66666666666666</ele><time>2026-04-26T14:44:41Z</time></trkpt><trkpt lat="43.36241778814284" lon="-0.4818784919875368"><ele>160.5</ele><time>2026-04-26T14:44:42Z</time></trkpt><trkpt lat="43.362494233009265" lon="-0.48190336551528135"><ele>160.33333333333334</ele><time>2026-04-26T14:44:43Z</time></trkpt><trkpt lat="43.36256654900849" lon="-0.4819338799310738"><ele>160.16666666666669</ele><time>2026-04-26T14:44:44Z</time></trkpt><trkpt lat="43.36263899590231" lon="-0.48196101804420277"><ele>160.0</ele><time>2026-04-26T14:44:45Z</time></trkpt><trkpt lat="43.36271213489852" lon="-0.4819841822661907"><ele>160.0</ele><time>2026-04-26T14:44:46Z</time></trkpt><trkpt lat="43.36278135701" lon="-0.4820166195586429"><ele>160.0</ele><time>2026-04-26T14:44:47Z</time></trkpt><trkpt lat="43.36285148952102" lon="-0.4820509127328652"><ele>160.0</ele><time>2026-04-26T14:44:48Z</time></trkpt><trkpt lat="43.36292344839519" lon="-0.4820662338324442"><ele>160.0</ele><time>2026-04-26T14:44:49Z</time></trkpt><trkpt lat="43.36299638423279" lon="-0.48208557533448126"><ele>160.0</ele><time>2026-04-26T14:44:50Z</time></trkpt><trkpt lat="43.3630684017441" lon="-0.4821049608663483"><ele>160.0</ele><time>2026-04-26T14:44:51Z</time></trkpt><trkpt lat="43.3631418610366" lon="-0.48212033147927974"><ele>160.0</ele><time>2026-04-26T14:44:52Z</time></trkpt><trkpt lat="43.36321870469976" lon="-0.482131630557625"><ele>160.16666666666669</ele><time>2026-04-26T14:44:53Z</time></trkpt><trkpt lat="43.36329492987459" lon="-0.48213678971959295"><ele>160.33333333333334</ele><time>2026-04-26T14:44:54Z</time></trkpt><trkpt lat="43.36337153675664" lon="-0.48215201567517607"><ele>160.5</ele><time>2026-04-26T14:44:55Z</time></trkpt><trkpt lat="43.36344470785729" lon="-0.4821649466956966"><ele>160.66666666666666</ele><time>2026-04-26T14:44:56Z</time></trkpt><trkpt lat="43.36352379644358" lon="-0.48218215614244"><ele>160.83333333333331</ele><time>2026-04-26T14:44:57Z</time></trkpt><trkpt lat="43.36359867128287" lon="-0.482194165714422"><ele>161.0</ele><time>2026-04-26T14:44:58Z</time></trkpt><trkpt lat="43.363675786647754" lon="-0.4822088241630189"><ele>161.0</ele><time>2026-04-26T14:44:59Z</time></trkpt><trkpt lat="43.363749367229985" lon="-0.48222338277120147"><ele>161.0</ele><time>2026-04-26T14:45:00Z</time></trkpt><trkpt lat="43.36383031471228" lon="-0.48223271799081363"><ele>161.0</ele><time>2026-04-26T14:45:01Z</time></trkpt><trkpt lat="43.363905870366075" lon="-0.48224983407755345"><ele>161.0</ele><time>2026-04-26T14:45:02Z</time></trkpt><trkpt lat="43.36398348792772" lon="-0.4822672768411154"><ele>161.0</ele><time>2026-04-26T14:45:03Z</time></trkpt><trkpt lat="43.36406337760226" lon="-0.48228592043748714"><ele>161.0</ele><time>2026-04-26T14:45:04Z</time></trkpt><trkpt lat="43.36414025113299" lon="-0.48229900471281056"><ele>160.66666666666666</ele><time>2026-04-26T14:45:05Z</time></trkpt><trkpt lat="43.364220552159914" lon="-0.48231721075373146"><ele>160.33333333333331</ele><time>2026-04-26T14:45:06Z</time></trkpt><trkpt lat="43.364301298297946" lon="-0.48233493091506113"><ele>160.0</ele><time>2026-04-26T14:45:07Z</time></trkpt><trkpt lat="43.36437838087659" lon="-0.48235505652030886"><ele>159.66666666666666</ele><time>2026-04-26T14:45:08Z</time></trkpt><trkpt lat="43.364461625960146" lon="-0.48237535655908204"><ele>159.33333333333334</ele><time>2026-04-26T14:45:09Z</time></trkpt><trkpt lat="43.36454347236532" lon="-0.4823846495308417"><ele>159.0</ele><time>2026-04-26T14:45:10Z</time></trkpt><trkpt lat="43.36462497778426" lon="-0.48239824301816725"><ele>158.66666666666666</ele><time>2026-04-26T14:45:11Z</time></trkpt><trkpt lat="43.364700785326335" lon="-0.4824121669213849"><ele>158.33333333333334</ele><time>2026-04-26T14:45:12Z</time></trkpt><trkpt lat="43.36479305521942" lon="-0.4824185593596873"><ele>158.0</ele><time>2026-04-26T14:45:13Z</time></trkpt><trkpt lat="43.36487087349629" lon="-0.48242993179826416"><ele>157.66666666666669</ele><time>2026-04-26T14:45:14Z</time></trkpt><trkpt lat="43.36497083679596" lon="-0.48244307016563953"><ele>157.33333333333334</ele><time>2026-04-26T14:45:15Z</time></trkpt><trkpt lat="43.36505732340717" lon="-0.48242642822533544"><ele>157.0</ele><time>2026-04-26T14:45:16Z</time></trkpt><trkpt lat="43.36514263121352" lon="-0.4824086022359739"><ele>157.0</ele><time>2026-04-26T14:45:17Z</time></trkpt><trkpt lat="43.3652304542633" lon="-0.48238585350394625"><ele>157.0</ele><time>2026-04-26T14:45:18Z</time></trkpt><trkpt lat="43.36531082392208" lon="-0.48236329457135363"><ele>157.0</ele><time>2026-04-26T14:45:19Z</time></trkpt><trkpt lat="43.36539359034149" lon="-0.4823311630408252"><ele>157.0</ele><time>2026-04-26T14:45:20Z</time></trkpt><trkpt lat="43.36547762051389" lon="-0.4822895691571725"><ele>157.0</ele><time>2026-04-26T14:45:21Z</time></trkpt><trkpt lat="43.365552044323266" lon="-0.48225663935955415"><ele>157.0</ele><time>2026-04-26T14:45:22Z</time></trkpt><trkpt lat="43.36562836754043" lon="-0.48222092208788764"><ele>156.99999999999997</ele><time>2026-04-26T14:45:23Z</time></trkpt><trkpt lat="43.36570037111556" lon="-0.4821872289496275"><ele>157.0</ele><time>2026-04-26T14:45:24Z</time></trkpt><trkpt lat="43.365772726287894" lon="-0.48216030111663755"><ele>157.0</ele><time>2026-04-26T14:45:25Z</time></trkpt><trkpt lat="43.3658399874433" lon="-0.4821340361235232"><ele>157.0</ele><time>2026-04-26T14:45:26Z</time></trkpt><trkpt lat="43.36590817223758" lon="-0.4820982352885691"><ele>157.0</ele><time>2026-04-26T14:45:27Z</time></trkpt><trkpt lat="43.36597803328611" lon="-0.4820625922005123"><ele>156.99999999999997</ele><time>2026-04-26T14:45:28Z</time></trkpt><trkpt lat="43.36604502421053" lon="-0.4820320777718402"><ele>157.0</ele><time>2026-04-26T14:45:29Z</time></trkpt><trkpt lat="43.36611485785977" lon="-0.4820052716159273"><ele>157.14285714285714</ele><time>2026-04-26T14:45:30Z</time></trkpt><trkpt lat="43.36618784698584" lon="-0.4819748164101138"><ele>157.28571428571428</ele><time>2026-04-26T14:45:31Z</time></trkpt><trkpt lat="43.36625665554258" lon="-0.48194764199991763"><ele>157.42857142857144</ele><time>2026-04-26T14:45:32Z</time></trkpt><trkpt lat="43.366333450675924" lon="-0.48192249439299567"><ele>157.57142857142856</ele><time>2026-04-26T14:45:33Z</time></trkpt><trkpt lat="43.36640501556649" lon="-0.4818941981106024"><ele>157.71428571428572</ele><time>2026-04-26T14:45:34Z</time></trkpt><trkpt lat="43.36647542566054" lon="-0.48187433697585996"><ele>157.85714285714286</ele><time>2026-04-26T14:45:35Z</time></trkpt><trkpt lat="43.36654956945574" lon="-0.4818541604181564"><ele>158.0</ele><time>2026-04-26T14:45:36Z</time></trkpt><trkpt lat="43.36667946506353" lon="-0.48180510635085744"><ele>158.0</ele><time>2026-04-26T14:45:38Z</time></trkpt><trkpt lat="43.36674568092905" lon="-0.48178980023312284"><ele>158.0</ele><time>2026-04-26T14:45:39Z</time></trkpt><trkpt lat="43.366809668854664" lon="-0.4817859600607023"><ele>158.0</ele><time>2026-04-26T14:45:40Z</time></trkpt><trkpt lat="43.36692126053353" lon="-0.48175689528987165"><ele>158.0</ele><time>2026-04-26T14:45:42Z</time></trkpt><trkpt lat="43.36702335438706" lon="-0.48172596314020777"><ele>158.0</ele><time>2026-04-26T14:45:44Z</time></trkpt><trkpt lat="43.36710942502712" lon="-0.48169986371540885"><ele>158.0</ele><time>2026-04-26T14:45:46Z</time></trkpt><trkpt lat="43.367198161465716" lon="-0.481673519114486"><ele>158.66666666666666</ele><time>2026-04-26T14:45:48Z</time></trkpt><trkpt lat="43.36728214844439" lon="-0.48165498769408205"><ele>159.33333333333331</ele><time>2026-04-26T14:45:50Z</time></trkpt><trkpt lat="43.36736333191577" lon="-0.48162673238659015"><ele>160.0</ele><time>2026-04-26T14:45:52Z</time></trkpt><trkpt lat="43.36743989414663" lon="-0.48158979598865015"><ele>160.66666666666666</ele><time>2026-04-26T14:45:54Z</time></trkpt><trkpt lat="43.36750555364104" lon="-0.48156515024278146"><ele>161.33333333333334</ele><time>2026-04-26T14:45:56Z</time></trkpt><trkpt lat="43.36758647968252" lon="-0.48153038942715165"><ele>162.0</ele><time>2026-04-26T14:45:58Z</time></trkpt><trkpt lat="43.367664742397004" lon="-0.4814969844589576"><ele>162.0</ele><time>2026-04-26T14:46:00Z</time></trkpt><trkpt lat="43.367741406197666" lon="-0.4814534660811516"><ele>162.0</ele><time>2026-04-26T14:46:02.001Z</time></trkpt><trkpt lat="43.36782954525021" lon="-0.48140913737037094"><ele>162.0</ele><time>2026-04-26T14:46:04.001Z</time></trkpt><trkpt lat="43.36791446527065" lon="-0.4813607749114357"><ele>162.0</ele><time>2026-04-26T14:46:06.001Z</time></trkpt><trkpt lat="43.36801034946737" lon="-0.4813080068296572"><ele>162.0</ele><time>2026-04-26T14:46:08.001Z</time></trkpt><trkpt lat="43.368098589630286" lon="-0.48125750028786385"><ele>162.39999999999998</ele><time>2026-04-26T14:46:10.001Z</time></trkpt><trkpt lat="43.36819202642439" lon="-0.4812059886281814"><ele>162.79999999999998</ele><time>2026-04-26T14:46:12.001Z</time></trkpt><trkpt lat="43.36829169598637" lon="-0.4811535910114575"><ele>163.2</ele><time>2026-04-26T14:46:14.001Z</time></trkpt><trkpt lat="43.36838840305435" lon="-0.4810883145199782"><ele>163.6</ele><time>2026-04-26T14:46:16.001Z</time></trkpt><trkpt lat="43.3684989530489" lon="-0.4810403175856492"><ele>164.0</ele><time>2026-04-26T14:46:18.001Z</time></trkpt><trkpt lat="43.3686010934782" lon="-0.4809866201869243"><ele>164.0</ele><time>2026-04-26T14:46:20.001Z</time></trkpt><trkpt lat="43.368731090313325" lon="-0.48093042775899797"><ele>164.0</ele><time>2026-04-26T14:46:22Z</time></trkpt><trkpt lat="43.368795870171205" lon="-0.4809115140040191"><ele>164.0</ele><time>2026-04-26T14:46:23Z</time></trkpt><trkpt lat="43.36886498654859" lon="-0.48089577324963784"><ele>164.0</ele><time>2026-04-26T14:46:24Z</time></trkpt><trkpt lat="43.36893855809769" lon="-0.48087586322352216"><ele>164.0</ele><time>2026-04-26T14:46:25Z</time></trkpt><trkpt lat="43.36901148347001" lon="-0.4808601646749768"><ele>164.0</ele><time>2026-04-26T14:46:26Z</time></trkpt><trkpt lat="43.36908431762688" lon="-0.4808500662718801"><ele>164.85714285714283</ele><time>2026-04-26T14:46:27Z</time></trkpt><trkpt lat="43.369159415545546" lon="-0.4808442142229147"><ele>165.71428571428572</ele><time>2026-04-26T14:46:28Z</time></trkpt><trkpt lat="43.36923539620064" lon="-0.4808425403773673"><ele>166.57142857142856</ele><time>2026-04-26T14:46:29Z</time></trkpt><trkpt lat="43.36931363427267" lon="-0.48084887487777767"><ele>167.42857142857142</ele><time>2026-04-26T14:46:30Z</time></trkpt><trkpt lat="43.369382694758585" lon="-0.4808630223488057"><ele>168.28571428571428</ele><time>2026-04-26T14:46:31Z</time></trkpt><trkpt lat="43.369449321063584" lon="-0.48087390512999195"><ele>169.14285714285714</ele><time>2026-04-26T14:46:32Z</time></trkpt><trkpt lat="43.36951681172836" lon="-0.4808782322794234"><ele>170.0</ele><time>2026-04-26T14:46:33Z</time></trkpt><trkpt lat="43.36958097705073" lon="-0.4808713122671708"><ele>170.0</ele><time>2026-04-26T14:46:34Z</time></trkpt><trkpt lat="43.36965039641432" lon="-0.48087924336180554"><ele>170.0</ele><time>2026-04-26T14:46:35Z</time></trkpt><trkpt lat="43.369778316261794" lon="-0.4808578932944108"><ele>170.0</ele><time>2026-04-26T14:46:37Z</time></trkpt><trkpt lat="43.369844672960554" lon="-0.4808344269045368"><ele>170.0</ele><time>2026-04-26T14:46:38Z</time></trkpt><trkpt lat="43.36991551874786" lon="-0.4808109804305274"><ele>170.0</ele><time>2026-04-26T14:46:39Z</time></trkpt><trkpt lat="43.36997758450918" lon="-0.48077295201141146"><ele>170.0</ele><time>2026-04-26T14:46:40Z</time></trkpt><trkpt lat="43.37002874532081" lon="-0.48071139408874297"><ele>170.2857142857143</ele><time>2026-04-26T14:46:41Z</time></trkpt><trkpt lat="43.370109892337105" lon="-0.4806618782520986"><ele>170.57142857142856</ele><time>2026-04-26T14:46:42Z</time></trkpt><trkpt lat="43.37015630682804" lon="-0.480592098280036"><ele>170.85714285714286</ele><time>2026-04-26T14:46:43Z</time></trkpt><trkpt lat="43.370205037261776" lon="-0.480525440054663"><ele>171.14285714285717</ele><time>2026-04-26T14:46:44Z</time></trkpt><trkpt lat="43.3702550318362" lon="-0.4804569606322977"><ele>171.42857142857144</ele><time>2026-04-26T14:46:45Z</time></trkpt><trkpt lat="43.3703013426486" lon="-0.4803979778090334"><ele>171.71428571428572</ele><time>2026-04-26T14:46:46Z</time></trkpt><trkpt lat="43.37034433983303" lon="-0.48033242158940415"><ele>172.0</ele><time>2026-04-26T14:46:47Z</time></trkpt><trkpt lat="43.37038969342317" lon="-0.48026820921944363"><ele>171.8</ele><time>2026-04-26T14:46:48Z</time></trkpt><trkpt lat="43.37043130835794" lon="-0.48018715601688783"><ele>171.6</ele><time>2026-04-26T14:46:49Z</time></trkpt><trkpt lat="43.37051243151102" lon="-0.48007008736136714"><ele>171.4</ele><time>2026-04-26T14:46:51Z</time></trkpt><trkpt lat="43.370593700495114" lon="-0.4799611379970411"><ele>171.20000000000002</ele><time>2026-04-26T14:46:53Z</time></trkpt><trkpt lat="43.370682716635606" lon="-0.479856698883289"><ele>171.0</ele><time>2026-04-26T14:46:55Z</time></trkpt><trkpt lat="43.37076878919054" lon="-0.4797644455834448"><ele>171.0</ele><time>2026-04-26T14:46:57Z</time></trkpt><trkpt lat="43.3708509122535" lon="-0.479661227408166"><ele>171.0</ele><time>2026-04-26T14:46:59Z</time></trkpt><trkpt lat="43.37092920241903" lon="-0.47957666398533144"><ele>171.0</ele><time>2026-04-26T14:47:01Z</time></trkpt><trkpt lat="43.370997378037366" lon="-0.47946504222425906"><ele>171.0</ele><time>2026-04-26T14:47:03Z</time></trkpt><trkpt lat="43.37106942753281" lon="-0.4793637302795917"><ele>171.0</ele><time>2026-04-26T14:47:05Z</time></trkpt><trkpt lat="43.37112849197531" lon="-0.47926721713688797"><ele>171.66666666666666</ele><time>2026-04-26T14:47:07Z</time></trkpt><trkpt lat="43.37118900656823" lon="-0.4791676691788902"><ele>172.33333333333334</ele><time>2026-04-26T14:47:09Z</time></trkpt><trkpt lat="43.37124950007205" lon="-0.47907135954296504"><ele>173.0</ele><time>2026-04-26T14:47:11Z</time></trkpt><trkpt lat="43.371313349351276" lon="-0.47898309092226377"><ele>173.66666666666669</ele><time>2026-04-26T14:47:13Z</time></trkpt><trkpt lat="43.37137079982933" lon="-0.4788900454206173"><ele>174.33333333333334</ele><time>2026-04-26T14:47:15Z</time></trkpt><trkpt lat="43.37142185649553" lon="-0.478804530922984"><ele>175.0</ele><time>2026-04-26T14:47:17Z</time></trkpt><trkpt lat="43.37147441654796" lon="-0.47872000996372155"><ele>176.0</ele><time>2026-04-26T14:47:19Z</time></trkpt><trkpt lat="43.37152400739654" lon="-0.47863531365838674"><ele>177.0</ele><time>2026-04-26T14:47:21Z</time></trkpt><trkpt lat="43.371571254027494" lon="-0.4785598123157149"><ele>178.0</ele><time>2026-04-26T14:47:23Z</time></trkpt><trkpt lat="43.37163457401997" lon="-0.4784885985108297"><ele>179.0</ele><time>2026-04-26T14:47:25Z</time></trkpt><trkpt lat="43.37167915845929" lon="-0.47840833102927977"><ele>180.0</ele><time>2026-04-26T14:47:27Z</time></trkpt><trkpt lat="43.3717342651526" lon="-0.47834054248358165"><ele>181.0</ele><time>2026-04-26T14:47:29Z</time></trkpt><trkpt lat="43.37178489835874" lon="-0.47827535962582246"><ele>181.0</ele><time>2026-04-26T14:47:31Z</time></trkpt><trkpt lat="43.37184345914266" lon="-0.4782018989791227"><ele>181.0</ele><time>2026-04-26T14:47:33Z</time></trkpt><trkpt lat="43.37192300883246" lon="-0.4781474734715263"><ele>181.0</ele><time>2026-04-26T14:47:35Z</time></trkpt><trkpt lat="43.371969531079" lon="-0.47805977394241506"><ele>181.0</ele><time>2026-04-26T14:47:37Z</time></trkpt><trkpt lat="43.3720323802991" lon="-0.4779896368251627"><ele>181.0</ele><time>2026-04-26T14:47:39Z</time></trkpt><trkpt lat="43.37209749437817" lon="-0.4779225493579295"><ele>181.0</ele><time>2026-04-26T14:47:41Z</time></trkpt><trkpt lat="43.372158908638845" lon="-0.47785389290983205"><ele>182.42857142857142</ele><time>2026-04-26T14:47:43Z</time></trkpt><trkpt lat="43.37221653600881" lon="-0.477786293497639"><ele>183.85714285714283</ele><time>2026-04-26T14:47:45Z</time></trkpt><trkpt lat="43.37228218075996" lon="-0.47774457970129275"><ele>185.28571428571428</ele><time>2026-04-26T14:47:47Z</time></trkpt><trkpt lat="43.372348426737034" lon="-0.4777056257711689"><ele>186.71428571428572</ele><time>2026-04-26T14:47:49Z</time></trkpt><trkpt lat="43.37240842672536" lon="-0.47767791372661833"><ele>188.14285714285714</ele><time>2026-04-26T14:47:51Z</time></trkpt><trkpt lat="43.372485626175674" lon="-0.4776553267219184"><ele>189.57142857142858</ele><time>2026-04-26T14:47:53Z</time></trkpt><trkpt lat="43.3725570896978" lon="-0.4775915829271882"><ele>191.0</ele><time>2026-04-26T14:47:55Z</time></trkpt><trkpt lat="43.37264785215477" lon="-0.47755515186632563"><ele>191.0</ele><time>2026-04-26T14:47:57Z</time></trkpt><trkpt lat="43.37273112242946" lon="-0.4775081845781385"><ele>191.0</ele><time>2026-04-26T14:47:59Z</time></trkpt><trkpt lat="43.37278647601163" lon="-0.47745841882105705"><ele>191.0</ele><time>2026-04-26T14:48:01Z</time></trkpt><trkpt lat="43.372855797562565" lon="-0.47740209841497944"><ele>191.0</ele><time>2026-04-26T14:48:03Z</time></trkpt><trkpt lat="43.37291438113508" lon="-0.47735237851886564"><ele>191.0</ele><time>2026-04-26T14:48:05.001Z</time></trkpt><trkpt lat="43.37297738659788" lon="-0.4772993991916762"><ele>191.0</ele><time>2026-04-26T14:48:07.001Z</time></trkpt><trkpt lat="43.373045046066345" lon="-0.4772626713781933"><ele>191.0</ele><time>2026-04-26T14:48:09.001Z</time></trkpt><trkpt lat="43.37312018193713" lon="-0.47722413732454505"><ele>191.0</ele><time>2026-04-26T14:48:12.001Z</time></trkpt><trkpt lat="43.37326266984652" lon="-0.47719045392947634"><ele>191.0</ele><time>2026-04-26T14:49:16Z</time></trkpt><trkpt lat="43.37331703883209" lon="-0.4771314494309653"><ele>191.0</ele><time>2026-04-26T14:49:23Z</time></trkpt><trkpt lat="43.37338693293386" lon="-0.47709321521849135"><ele>191.0</ele><time>2026-04-26T14:49:28Z</time></trkpt><trkpt lat="43.37344816490532" lon="-0.47706640994450944"><ele>191.0</ele><time>2026-04-26T14:49:31Z</time></trkpt><trkpt lat="43.373514597134935" lon="-0.4770070044258621"><ele>191.33333333333331</ele><time>2026-04-26T14:49:34Z</time></trkpt><trkpt lat="43.373571548248506" lon="-0.47693767951972565"><ele>191.66666666666666</ele><time>2026-04-26T14:49:37Z</time></trkpt><trkpt lat="43.373624893571524" lon="-0.47683886395280545"><ele>192.0</ele><time>2026-04-26T14:49:40Z</time></trkpt><trkpt lat="43.373662157193564" lon="-0.4767673413879349"><ele>192.33333333333331</ele><time>2026-04-26T14:49:42Z</time></trkpt><trkpt lat="43.37369568100134" lon="-0.4766545076760705"><ele>192.66666666666666</ele><time>2026-04-26T14:49:45Z</time></trkpt><trkpt lat="43.37372213198415" lon="-0.4765371251729575"><ele>193.0</ele><time>2026-04-26T14:49:48.001Z</time></trkpt><trkpt lat="43.373739473866145" lon="-0.47641771689677526"><ele>192.99999999999997</ele><time>2026-04-26T14:49:51.001Z</time></trkpt><trkpt lat="43.37375619629828" lon="-0.4762900910959783"><ele>193.0</ele><time>2026-04-26T14:49:54.001Z</time></trkpt><trkpt lat="43.37376443649705" lon="-0.4761996828806145"><ele>193.0</ele><time>2026-04-26T14:49:56.001Z</time></trkpt><trkpt lat="43.37379161770338" lon="-0.47610838950928036"><ele>193.0</ele><time>2026-04-26T14:49:58.001Z</time></trkpt><trkpt lat="43.373818319456696" lon="-0.47602797149408915"><ele>192.99999999999997</ele><time>2026-04-26T14:50:00.001Z</time></trkpt><trkpt lat="43.3738411554845" lon="-0.4759094106386191"><ele>193.0</ele><time>2026-04-26T14:50:03.001Z</time></trkpt><trkpt lat="43.37387671941392" lon="-0.4758150050722022"><ele>193.85714285714286</ele><time>2026-04-26T14:50:06.001Z</time></trkpt><trkpt lat="43.37390883172382" lon="-0.47572617622777513"><ele>194.71428571428572</ele><time>2026-04-26T14:50:09.001Z</time></trkpt><trkpt lat="43.37393785324434" lon="-0.4756444959470488"><ele>195.57142857142856</ele><time>2026-04-26T14:50:12.001Z</time></trkpt><trkpt lat="43.37397708664157" lon="-0.4755643634846773"><ele>196.42857142857144</ele><time>2026-04-26T14:50:15.001Z</time></trkpt><trkpt lat="43.37402318815844" lon="-0.47548037458669934"><ele>197.28571428571428</ele><time>2026-04-26T14:50:18.001Z</time></trkpt><trkpt lat="43.374064843929055" lon="-0.4753726736207232"><ele>198.14285714285714</ele><time>2026-04-26T14:50:21.001Z</time></trkpt><trkpt lat="43.37410133128839" lon="-0.47529485782498737"><ele>199.0</ele><time>2026-04-26T14:50:23.001Z</time></trkpt><trkpt lat="43.374134915241356" lon="-0.4751740632448417"><ele>199.33333333333331</ele><time>2026-04-26T14:50:26.001Z</time></trkpt><trkpt lat="43.37416162331735" lon="-0.4750932583245693"><ele>199.66666666666666</ele><time>2026-04-26T14:50:28.001Z</time></trkpt><trkpt lat="43.37418139870326" lon="-0.474964627166228"><ele>200.0</ele><time>2026-04-26T14:50:31.001Z</time></trkpt><trkpt lat="43.37418683491611" lon="-0.4748741396725163"><ele>200.33333333333331</ele><time>2026-04-26T14:50:33.001Z</time></trkpt><trkpt lat="43.374190938743716" lon="-0.47478081300936137"><ele>200.66666666666666</ele><time>2026-04-26T14:50:35.001Z</time></trkpt><trkpt lat="43.37419054309026" lon="-0.4746741847728521"><ele>201.0</ele><time>2026-04-26T14:50:37.001Z</time></trkpt><trkpt lat="43.37419299702042" lon="-0.47456357060636384"><ele>201.83333333333334</ele><time>2026-04-26T14:50:39.001Z</time></trkpt><trkpt lat="43.37420099927303" lon="-0.47445539269607656"><ele>202.66666666666669</ele><time>2026-04-26T14:50:41.001Z</time></trkpt><trkpt lat="43.37419083900086" lon="-0.474342319620156"><ele>203.5</ele><time>2026-04-26T14:50:43.001Z</time></trkpt><trkpt lat="43.37420453153539" lon="-0.47424178373399467"><ele>204.33333333333334</ele><time>2026-04-26T14:50:45.001Z</time></trkpt><trkpt lat="43.37422298045689" lon="-0.4741406663512487"><ele>205.16666666666669</ele><time>2026-04-26T14:50:47.001Z</time></trkpt><trkpt lat="43.37422889190181" lon="-0.47402695292966207"><ele>206.0</ele><time>2026-04-26T14:50:49.001Z</time></trkpt><trkpt lat="43.3742424490842" lon="-0.4739304038429081"><ele>205.99999999999997</ele><time>2026-04-26T14:50:51.001Z</time></trkpt><trkpt lat="43.37425210095713" lon="-0.4738288101007692"><ele>206.0</ele><time>2026-04-26T14:50:53.001Z</time></trkpt><trkpt lat="43.37428293837359" lon="-0.4737471368993643"><ele>206.0</ele><time>2026-04-26T14:50:55.001Z</time></trkpt><trkpt lat="43.374299568297374" lon="-0.47365396587892544"><ele>206.0</ele><time>2026-04-26T14:50:57Z</time></trkpt><trkpt lat="43.3743224072575" lon="-0.4735639471086061"><ele>206.0</ele><time>2026-04-26T14:50:59Z</time></trkpt><trkpt lat="43.374350234426146" lon="-0.47347585248337626"><ele>205.99999999999997</ele><time>2026-04-26T14:51:01Z</time></trkpt><trkpt lat="43.374369041269425" lon="-0.4733748768380451"><ele>206.0</ele><time>2026-04-26T14:51:03Z</time></trkpt><trkpt lat="43.37439143187485" lon="-0.4732909460618737"><ele>206.33333333333334</ele><time>2026-04-26T14:51:05Z</time></trkpt><trkpt lat="43.37442086800762" lon="-0.47319911898037514"><ele>206.66666666666669</ele><time>2026-04-26T14:51:07Z</time></trkpt><trkpt lat="43.37443756243263" lon="-0.47310150997418726"><ele>207.0</ele><time>2026-04-26T14:51:09Z</time></trkpt><trkpt lat="43.37444341402443" lon="-0.4729906427951508"><ele>207.33333333333331</ele><time>2026-04-26T14:51:11Z</time></trkpt><trkpt lat="43.37444933952441" lon="-0.47288983872178325"><ele>207.66666666666666</ele><time>2026-04-26T14:51:13Z</time></trkpt><trkpt lat="43.37444312804776" lon="-0.4727794399282521"><ele>208.0</ele><time>2026-04-26T14:51:15Z</time></trkpt><trkpt lat="43.374425811583556" lon="-0.47267201331801095"><ele>209.66666666666666</ele><time>2026-04-26T14:51:17Z</time></trkpt><trkpt lat="43.37441354150924" lon="-0.4725798301459823"><ele>211.33333333333331</ele><time>2026-04-26T14:51:19.001Z</time></trkpt><trkpt lat="43.37438224318781" lon="-0.47249662296077555"><ele>213.0</ele><time>2026-04-26T14:51:22.001Z</time></trkpt><trkpt lat="43.37377671325682" lon="-0.4723645543095029"><ele>213.7142857142857</ele><time>2026-04-26T14:52:19.001Z</time></trkpt><trkpt lat="43.373713955444885" lon="-0.4723852395309711"><ele>214.42857142857142</ele><time>2026-04-26T14:52:37.001Z</time></trkpt><trkpt lat="43.37364858099904" lon="-0.4723914745552059"><ele>215.14285714285714</ele><time>2026-04-26T14:52:41.001Z</time></trkpt><trkpt lat="43.373584197652924" lon="-0.4724104570760397"><ele>215.85714285714283</ele><time>2026-04-26T14:52:44.001Z</time></trkpt><trkpt lat="43.3735199038248" lon="-0.4724328587379566"><ele>216.57142857142858</ele><time>2026-04-26T14:52:47.001Z</time></trkpt><trkpt lat="43.37344709351757" lon="-0.4724390072886832"><ele>217.28571428571428</ele><time>2026-04-26T14:52:51.001Z</time></trkpt><trkpt lat="43.37338300593763" lon="-0.47244671923086656"><ele>218.0</ele><time>2026-04-26T14:52:58.001Z</time></trkpt><trkpt lat="43.373299708698184" lon="-0.47245616280324193"><ele>218.0</ele><time>2026-04-26T14:53:01.001Z</time></trkpt><trkpt lat="43.37322284960486" lon="-0.47246325716996174"><ele>218.0</ele><time>2026-04-26T14:53:04Z</time></trkpt><trkpt lat="43.37315978121873" lon="-0.47242606456346975"><ele>218.0</ele><time>2026-04-26T14:53:12Z</time></trkpt><trkpt lat="43.37308826438657" lon="-0.47241751977652485"><ele>218.0</ele><time>2026-04-26T14:53:15Z</time></trkpt><trkpt lat="43.3730039921979" lon="-0.4724000044304079"><ele>218.0</ele><time>2026-04-26T14:53:18Z</time></trkpt><trkpt lat="43.37294233117678" lon="-0.47238145568398326"><ele>218.0</ele><time>2026-04-26T14:53:20Z</time></trkpt><trkpt lat="43.37287098817348" lon="-0.47235933514470396"><ele>218.0</ele><time>2026-04-26T14:53:22Z</time></trkpt><trkpt lat="43.37279363004999" lon="-0.4723268159768091"><ele>219.2</ele><time>2026-04-26T14:53:24Z</time></trkpt><trkpt lat="43.372715399387715" lon="-0.4722795172669021"><ele>220.4</ele><time>2026-04-26T14:53:26Z</time></trkpt><trkpt lat="43.372649827143945" lon="-0.47220291760593935"><ele>221.59999999999997</ele><time>2026-04-26T14:53:28Z</time></trkpt><trkpt lat="43.372606278826844" lon="-0.4720849267006448"><ele>222.79999999999998</ele><time>2026-04-26T14:53:30Z</time></trkpt><trkpt lat="43.372604153164474" lon="-0.4719515378343301"><ele>224.0</ele><time>2026-04-26T14:53:32Z</time></trkpt><trkpt lat="43.37263044319454" lon="-0.47183254364806665"><ele>224.0</ele><time>2026-04-26T14:53:34Z</time></trkpt><trkpt lat="43.37266691355066" lon="-0.47170426802640153"><ele>223.99999999999997</ele><time>2026-04-26T14:53:36Z</time></trkpt><trkpt lat="43.37270661118014" lon="-0.47158052083003593"><ele>223.99999999999997</ele><time>2026-04-26T14:53:38Z</time></trkpt><trkpt lat="43.372744549707434" lon="-0.47144626680134416"><ele>224.0</ele><time>2026-04-26T14:53:40Z</time></trkpt><trkpt lat="43.37278225463526" lon="-0.47132255574960813"><ele>224.0</ele><time>2026-04-26T14:53:42Z</time></trkpt><trkpt lat="43.37280029304206" lon="-0.4712016845847325"><ele>223.33333333333334</ele><time>2026-04-26T14:53:44Z</time></trkpt><trkpt lat="43.37279762105717" lon="-0.4710959953681507"><ele>222.66666666666669</ele><time>2026-04-26T14:53:46Z</time></trkpt><trkpt lat="43.37276804921709" lon="-0.4709901619242874"><ele>222.0</ele><time>2026-04-26T14:53:48Z</time></trkpt><trkpt lat="43.37271101861636" lon="-0.47090554292013503"><ele>221.33333333333331</ele><time>2026-04-26T14:53:50Z</time></trkpt><trkpt lat="43.372658518567796" lon="-0.4708074348849413"><ele>220.66666666666666</ele><time>2026-04-26T14:53:52Z</time></trkpt><trkpt lat="43.37262820589145" lon="-0.470723902628429"><ele>220.0</ele><time>2026-04-26T14:53:53Z</time></trkpt><trkpt lat="43.37262380614878" lon="-0.47056144064226785"><ele>219.99999999999997</ele><time>2026-04-26T14:53:55Z</time></trkpt><trkpt lat="43.37264919093993" lon="-0.4704694744535112"><ele>220.0</ele><time>2026-04-26T14:53:56Z</time></trkpt><trkpt lat="43.3726950219709" lon="-0.47037788893346233"><ele>220.0</ele><time>2026-04-26T14:53:57Z</time></trkpt><trkpt lat="43.37272015922376" lon="-0.47025774107440765"><ele>220.0</ele><time>2026-04-26T14:53:58.001Z</time></trkpt><trkpt lat="43.372756603126255" lon="-0.4701441090760184"><ele>219.99999999999997</ele><time>2026-04-26T14:53:59.001Z</time></trkpt><trkpt lat="43.372795274694916" lon="-0.4700392717252968"><ele>220.0</ele><time>2026-04-26T14:54:00.001Z</time></trkpt><trkpt lat="43.372843396935785" lon="-0.469945541780237"><ele>218.83333333333331</ele><time>2026-04-26T14:54:01.001Z</time></trkpt><trkpt lat="43.372887604293496" lon="-0.46985038626447795"><ele>217.66666666666666</ele><time>2026-04-26T14:54:02.001Z</time></trkpt><trkpt lat="43.37293795325747" lon="-0.4697689820751555"><ele>216.5</ele><time>2026-04-26T14:54:03.001Z</time></trkpt><trkpt lat="43.37298572259618" lon="-0.4696881825874436"><ele>215.33333333333331</ele><time>2026-04-26T14:54:04.001Z</time></trkpt><trkpt lat="43.373023065525935" lon="-0.4696059936394067"><ele>214.16666666666666</ele><time>2026-04-26T14:54:05.001Z</time></trkpt><trkpt lat="43.373058173045145" lon="-0.4695141383752045"><ele>213.0</ele><time>2026-04-26T14:54:06.001Z</time></trkpt><trkpt lat="43.37309270578096" lon="-0.46942156800265383"><ele>210.57142857142856</ele><time>2026-04-26T14:54:07.001Z</time></trkpt><trkpt lat="43.373116869634906" lon="-0.46932990451654605"><ele>208.14285714285714</ele><time>2026-04-26T14:54:08.001Z</time></trkpt><trkpt lat="43.37312911989727" lon="-0.4692390623814437"><ele>205.71428571428572</ele><time>2026-04-26T14:54:09.001Z</time></trkpt><trkpt lat="43.373147208820484" lon="-0.46914043532194544"><ele>203.28571428571428</ele><time>2026-04-26T14:54:10.001Z</time></trkpt><trkpt lat="43.373170594635575" lon="-0.4690393468425709"><ele>200.85714285714286</ele><time>2026-04-26T14:54:11.001Z</time></trkpt><trkpt lat="43.373194489559076" lon="-0.46895016451804883"><ele>198.42857142857142</ele><time>2026-04-26T14:54:12.001Z</time></trkpt><trkpt lat="43.37322899752986" lon="-0.4688518735172028"><ele>196.0</ele><time>2026-04-26T14:54:13.001Z</time></trkpt><trkpt lat="43.373269220739815" lon="-0.46875342177754686"><ele>195.0</ele><time>2026-04-26T14:54:14.001Z</time></trkpt><trkpt lat="43.3733212157334" lon="-0.4686577610288244"><ele>194.0</ele><time>2026-04-26T14:54:15.001Z</time></trkpt><trkpt lat="43.37338837771624" lon="-0.4685657665748547"><ele>193.0</ele><time>2026-04-26T14:54:16.001Z</time></trkpt><trkpt lat="43.37346349366834" lon="-0.4684733826959023"><ele>192.0</ele><time>2026-04-26T14:54:17.001Z</time></trkpt><trkpt lat="43.3735434289237" lon="-0.4683885067308518"><ele>191.0</ele><time>2026-04-26T14:54:18.001Z</time></trkpt><trkpt lat="43.37362154057621" lon="-0.4682998342228256"><ele>191.0</ele><time>2026-04-26T14:54:19.001Z</time></trkpt><trkpt lat="43.373699787888626" lon="-0.46820546477579833"><ele>191.0</ele><time>2026-04-26T14:54:20.001Z</time></trkpt><trkpt lat="43.373777429392185" lon="-0.4681068625586663"><ele>191.0</ele><time>2026-04-26T14:54:21.001Z</time></trkpt><trkpt lat="43.37385656841393" lon="-0.46800431858959185"><ele>191.0</ele><time>2026-04-26T14:54:22.001Z</time></trkpt><trkpt lat="43.37393421753924" lon="-0.4679053402266985"><ele>191.0</ele><time>2026-04-26T14:54:23.001Z</time></trkpt><trkpt lat="43.374018387380666" lon="-0.46780754981732775"><ele>189.0</ele><time>2026-04-26T14:54:24.001Z</time></trkpt><trkpt lat="43.37410524369016" lon="-0.46771573632991825"><ele>187.0</ele><time>2026-04-26T14:54:25.001Z</time></trkpt><trkpt lat="43.374187517891464" lon="-0.4676234280252432"><ele>185.0</ele><time>2026-04-26T14:54:26.001Z</time></trkpt><trkpt lat="43.37426687597235" lon="-0.46752566018293995"><ele>183.0</ele><time>2026-04-26T14:54:27.001Z</time></trkpt><trkpt lat="43.37434203967281" lon="-0.4674265224399941"><ele>181.0</ele><time>2026-04-26T14:54:28.001Z</time></trkpt><trkpt lat="43.37442261008666" lon="-0.4673285587264977"><ele>181.0</ele><time>2026-04-26T14:54:29.001Z</time></trkpt><trkpt lat="43.3745009794511" lon="-0.46722399798126235"><ele>181.0</ele><time>2026-04-26T14:54:30.001Z</time></trkpt><trkpt lat="43.374575178943275" lon="-0.4671159227516052"><ele>181.0</ele><time>2026-04-26T14:54:31.001Z</time></trkpt><trkpt lat="43.37464996215155" lon="-0.4670060208241195"><ele>181.0</ele><time>2026-04-26T14:54:32.001Z</time></trkpt><trkpt lat="43.374718135492614" lon="-0.4668965644223619"><ele>181.0</ele><time>2026-04-26T14:54:33.001Z</time></trkpt><trkpt lat="43.37478070439629" lon="-0.46678506461861907"><ele>180.4</ele><time>2026-04-26T14:54:34.001Z</time></trkpt><trkpt lat="43.37484229647922" lon="-0.4666747972902605"><ele>179.8</ele><time>2026-04-26T14:54:35.001Z</time></trkpt><trkpt lat="43.374899722249154" lon="-0.4665605838474501"><ele>179.20000000000002</ele><time>2026-04-26T14:54:36.001Z</time></trkpt><trkpt lat="43.37495551685138" lon="-0.46644433105605637"><ele>178.60000000000002</ele><time>2026-04-26T14:54:37.001Z</time></trkpt><trkpt lat="43.37501158342481" lon="-0.4663350026918044"><ele>178.0</ele><time>2026-04-26T14:54:38.001Z</time></trkpt><trkpt lat="43.375066050511066" lon="-0.4662138975018266"><ele>177.8</ele><time>2026-04-26T14:54:39.001Z</time></trkpt><trkpt lat="43.37512572424115" lon="-0.4661061553074117"><ele>177.60000000000002</ele><time>2026-04-26T14:54:40.001Z</time></trkpt><trkpt lat="43.37517938545034" lon="-0.4659965305266528"><ele>177.39999999999998</ele><time>2026-04-26T14:54:41.001Z</time></trkpt><trkpt lat="43.37523050855402" lon="-0.46588714188804625"><ele>177.2</ele><time>2026-04-26T14:54:42.001Z</time></trkpt><trkpt lat="43.3752770530437" lon="-0.46578921534561535"><ele>177.0</ele><time>2026-04-26T14:54:43.001Z</time></trkpt><trkpt lat="43.375317527594625" lon="-0.4656979417922697"><ele>177.0</ele><time>2026-04-26T14:54:44.001Z</time></trkpt><trkpt lat="43.37535214044504" lon="-0.46560551537755707"><ele>177.0</ele><time>2026-04-26T14:54:45Z</time></trkpt><trkpt lat="43.37538644026651" lon="-0.46552477842886375"><ele>177.0</ele><time>2026-04-26T14:54:46Z</time></trkpt><trkpt lat="43.37541635343812" lon="-0.465448342671839"><ele>177.0</ele><time>2026-04-26T14:54:47Z</time></trkpt><trkpt lat="43.37542660689053" lon="-0.46532267675341105"><ele>177.0</ele><time>2026-04-26T14:54:49Z</time></trkpt><trkpt lat="43.37534049144387" lon="-0.465262539986443"><ele>177.0</ele><time>2026-04-26T14:54:51Z</time></trkpt><trkpt lat="43.3752300625462" lon="-0.4652537513842563"><ele>176.66666666666666</ele><time>2026-04-26T14:54:53Z</time></trkpt><trkpt lat="43.37511426996101" lon="-0.4652247867198308"><ele>176.33333333333334</ele><time>2026-04-26T14:54:55Z</time></trkpt><trkpt lat="43.375049419231104" lon="-0.4652019849469911"><ele>176.0</ele><time>2026-04-26T14:54:56Z</time></trkpt><trkpt lat="43.37498654719359" lon="-0.4651789291296366"><ele>175.66666666666669</ele><time>2026-04-26T14:54:57Z</time></trkpt><trkpt lat="43.37486341049817" lon="-0.4651299318504992"><ele>175.33333333333334</ele><time>2026-04-26T14:54:59Z</time></trkpt><trkpt lat="43.37479966222628" lon="-0.46510393080595014"><ele>175.0</ele><time>2026-04-26T14:55:00Z</time></trkpt><trkpt lat="43.37473611423024" lon="-0.465075076653542"><ele>175.0</ele><time>2026-04-26T14:55:01Z</time></trkpt><trkpt lat="43.37467380762932" lon="-0.46504876660192507"><ele>175.0</ele><time>2026-04-26T14:55:02Z</time></trkpt><trkpt lat="43.37460617019867" lon="-0.4650253652944596"><ele>175.0</ele><time>2026-04-26T14:55:03Z</time></trkpt><trkpt lat="43.37453975106542" lon="-0.4649949198598413"><ele>175.0</ele><time>2026-04-26T14:55:04Z</time></trkpt><trkpt lat="43.3744737603026" lon="-0.46496306215758987"><ele>175.0</ele><time>2026-04-26T14:55:05Z</time></trkpt><trkpt lat="43.37440231469695" lon="-0.4649298422632827"><ele>175.0</ele><time>2026-04-26T14:55:06Z</time></trkpt><trkpt lat="43.37433361529934" lon="-0.4649034469825643"><ele>175.0</ele><time>2026-04-26T14:55:07Z</time></trkpt><trkpt lat="43.37426504823967" lon="-0.4648725272797075"><ele>175.0</ele><time>2026-04-26T14:55:08Z</time></trkpt><trkpt lat="43.37419423511996" lon="-0.46484106740461484"><ele>175.0</ele><time>2026-04-26T14:55:09Z</time></trkpt><trkpt lat="43.37412291266531" lon="-0.46481459856901236"><ele>175.0</ele><time>2026-04-26T14:55:10Z</time></trkpt><trkpt lat="43.3740496665187" lon="-0.4647799929745305"><ele>175.0</ele><time>2026-04-26T14:55:11Z</time></trkpt><trkpt lat="43.373979421670036" lon="-0.4647470210344686"><ele>175.0</ele><time>2026-04-26T14:55:12Z</time></trkpt><trkpt lat="43.37390887338163" lon="-0.46471895105972505"><ele>175.0</ele><time>2026-04-26T14:55:13Z</time></trkpt><trkpt lat="43.37383736646149" lon="-0.4646862583701497"><ele>175.0</ele><time>2026-04-26T14:55:14Z</time></trkpt><trkpt lat="43.37377079148288" lon="-0.46465104710833294"><ele>175.0</ele><time>2026-04-26T14:55:15Z</time></trkpt><trkpt lat="43.37370305243662" lon="-0.464617840667341"><ele>175.0</ele><time>2026-04-26T14:55:16Z</time></trkpt><trkpt lat="43.37363334490871" lon="-0.46458650597826107"><ele>175.0</ele><time>2026-04-26T14:55:17Z</time></trkpt><trkpt lat="43.373563948448464" lon="-0.46455893495721506"><ele>175.0</ele><time>2026-04-26T14:55:18Z</time></trkpt><trkpt lat="43.373495872126725" lon="-0.4645277068360939"><ele>175.0</ele><time>2026-04-26T14:55:19Z</time></trkpt><trkpt lat="43.373426068584024" lon="-0.46449128496965475"><ele>175.0</ele><time>2026-04-26T14:55:20Z</time></trkpt><trkpt lat="43.37335475509186" lon="-0.46446000387236647"><ele>175.0</ele><time>2026-04-26T14:55:21Z</time></trkpt><trkpt lat="43.37328430226345" lon="-0.46443016904432155"><ele>175.0</ele><time>2026-04-26T14:55:22Z</time></trkpt><trkpt lat="43.37321475089765" lon="-0.4643978100493482"><ele>175.0</ele><time>2026-04-26T14:55:23Z</time></trkpt><trkpt lat="43.3731465065014" lon="-0.4643653503247242"><ele>175.0</ele><time>2026-04-26T14:55:24Z</time></trkpt><trkpt lat="43.37307534572306" lon="-0.46433551935756495"><ele>175.0</ele><time>2026-04-26T14:55:25Z</time></trkpt><trkpt lat="43.37300492722089" lon="-0.46430906484633366"><ele>175.0</ele><time>2026-04-26T14:55:26Z</time></trkpt><trkpt lat="43.37293345694643" lon="-0.4642879411992109"><ele>175.0</ele><time>2026-04-26T14:55:27Z</time></trkpt><trkpt lat="43.37286036809372" lon="-0.4642681544521689"><ele>175.0</ele><time>2026-04-26T14:55:28Z</time></trkpt><trkpt lat="43.37278798197441" lon="-0.46425258452602963"><ele>175.14285714285714</ele><time>2026-04-26T14:55:29Z</time></trkpt><trkpt lat="43.37271275538544" lon="-0.46424055868450215"><ele>175.28571428571428</ele><time>2026-04-26T14:55:30Z</time></trkpt><trkpt lat="43.37264154526573" lon="-0.4642245783844827"><ele>175.42857142857144</ele><time>2026-04-26T14:55:31Z</time></trkpt><trkpt lat="43.3725681620492" lon="-0.4642130765576226"><ele>175.57142857142856</ele><time>2026-04-26T14:55:32Z</time></trkpt><trkpt lat="43.372497847260156" lon="-0.4641870488988545"><ele>175.71428571428572</ele><time>2026-04-26T14:55:33Z</time></trkpt><trkpt lat="43.37242828242249" lon="-0.46414644737094873"><ele>175.85714285714286</ele><time>2026-04-26T14:55:34Z</time></trkpt><trkpt lat="43.372376616910245" lon="-0.46407063155006956"><ele>176.0</ele><time>2026-04-26T14:55:35Z</time></trkpt><trkpt lat="43.37233853402727" lon="-0.46397651200023643"><ele>176.0</ele><time>2026-04-26T14:55:36Z</time></trkpt><trkpt lat="43.372303351567744" lon="-0.46388210543092645"><ele>176.0</ele><time>2026-04-26T14:55:37Z</time></trkpt><trkpt lat="43.37229054908357" lon="-0.4637542089609787"><ele>176.0</ele><time>2026-04-26T14:55:38Z</time></trkpt><trkpt lat="43.37230087918175" lon="-0.46366582621688357"><ele>176.0</ele><time>2026-04-26T14:55:39Z</time></trkpt><trkpt lat="43.3722754168524" lon="-0.4635660154070043"><ele>176.0</ele><time>2026-04-26T14:55:40Z</time></trkpt><trkpt lat="43.37223277559293" lon="-0.46348661235538413"><ele>176.0</ele><time>2026-04-26T14:55:41Z</time></trkpt><trkpt lat="43.372174548309786" lon="-0.4634468144444555"><ele>176.0</ele><time>2026-04-26T14:55:42Z</time></trkpt><trkpt lat="43.37211680730634" lon="-0.46337911929380865"><ele>176.0</ele><time>2026-04-26T14:55:43Z</time></trkpt><trkpt lat="43.37203356759224" lon="-0.4633405791416412"><ele>176.0</ele><time>2026-04-26T14:55:44Z</time></trkpt><trkpt lat="43.37196369552398" lon="-0.4633003012466502"><ele>176.0</ele><time>2026-04-26T14:55:45Z</time></trkpt><trkpt lat="43.37189258793506" lon="-0.4632531223889665"><ele>176.0</ele><time>2026-04-26T14:55:46Z</time></trkpt><trkpt lat="43.3718194583953" lon="-0.46321061499667304"><ele>176.0</ele><time>2026-04-26T14:55:47Z</time></trkpt><trkpt lat="43.37175158745748" lon="-0.4631805199458826"><ele>176.0</ele><time>2026-04-26T14:55:48Z</time></trkpt><trkpt lat="43.371679125894175" lon="-0.4631447104330421"><ele>176.0</ele><time>2026-04-26T14:55:49Z</time></trkpt><trkpt lat="43.37161001583648" lon="-0.4631122347868739"><ele>176.0</ele><time>2026-04-26T14:55:50Z</time></trkpt><trkpt lat="43.371537060191066" lon="-0.4630823019440297"><ele>176.0</ele><time>2026-04-26T14:55:51Z</time></trkpt><trkpt lat="43.371465293683755" lon="-0.4630545905399898"><ele>176.0</ele><time>2026-04-26T14:55:52Z</time></trkpt><trkpt lat="43.3713912388921" lon="-0.4630227593646061"><ele>176.0</ele><time>2026-04-26T14:55:53Z</time></trkpt><trkpt lat="43.371319335291105" lon="-0.4629956568421094"><ele>176.16666666666666</ele><time>2026-04-26T14:55:54Z</time></trkpt><trkpt lat="43.371247703845114" lon="-0.4629637884594959"><ele>176.33333333333331</ele><time>2026-04-26T14:55:55Z</time></trkpt><trkpt lat="43.37117433889679" lon="-0.4629354444305968"><ele>176.5</ele><time>2026-04-26T14:55:56Z</time></trkpt><trkpt lat="43.371100909116876" lon="-0.46290540452938195"><ele>176.66666666666666</ele><time>2026-04-26T14:55:57Z</time></trkpt><trkpt lat="43.37102868209066" lon="-0.46287883554736636"><ele>176.83333333333334</ele><time>2026-04-26T14:55:58Z</time></trkpt><trkpt lat="43.37095532459903" lon="-0.4628465224930858"><ele>177.0</ele><time>2026-04-26T14:55:59Z</time></trkpt><trkpt lat="43.37088003212956" lon="-0.46282130973960217"><ele>176.5</ele><time>2026-04-26T14:56:00Z</time></trkpt><trkpt lat="43.37080514414779" lon="-0.46279864269811555"><ele>176.0</ele><time>2026-04-26T14:56:01Z</time></trkpt><trkpt lat="43.37073200151629" lon="-0.4627822379754905"><ele>175.5</ele><time>2026-04-26T14:56:02Z</time></trkpt><trkpt lat="43.3706593047225" lon="-0.4627697404216201"><ele>175.0</ele><time>2026-04-26T14:56:03Z</time></trkpt><trkpt lat="43.37058485041192" lon="-0.4627529222838827"><ele>174.5</ele><time>2026-04-26T14:56:04Z</time></trkpt><trkpt lat="43.37051020140094" lon="-0.4627356382531832"><ele>174.0</ele><time>2026-04-26T14:56:05Z</time></trkpt><trkpt lat="43.37043493035586" lon="-0.4627140260860834"><ele>174.0</ele><time>2026-04-26T14:56:06Z</time></trkpt><trkpt lat="43.370360400985675" lon="-0.46269470558967696"><ele>174.0</ele><time>2026-04-26T14:56:07Z</time></trkpt><trkpt lat="43.37028524867176" lon="-0.4626724585275025"><ele>174.0</ele><time>2026-04-26T14:56:08Z</time></trkpt><trkpt lat="43.37020831125806" lon="-0.46265053036097514"><ele>174.0</ele><time>2026-04-26T14:56:09Z</time></trkpt><trkpt lat="43.370135845980826" lon="-0.46262721769000137"><ele>174.0</ele><time>2026-04-26T14:56:10Z</time></trkpt><trkpt lat="43.370062278544864" lon="-0.4626013256681587"><ele>174.0</ele><time>2026-04-26T14:56:11Z</time></trkpt><trkpt lat="43.36998666735546" lon="-0.4625868439287157"><ele>174.0</ele><time>2026-04-26T14:56:12Z</time></trkpt><trkpt lat="43.369910022563374" lon="-0.46258364055318646"><ele>174.0</ele><time>2026-04-26T14:56:13Z</time></trkpt><trkpt lat="43.36983499628885" lon="-0.4625783233596082"><ele>174.0</ele><time>2026-04-26T14:56:14Z</time></trkpt><trkpt lat="43.36975154066325" lon="-0.4626111170104205"><ele>174.0</ele><time>2026-04-26T14:56:15Z</time></trkpt><trkpt lat="43.36968160049582" lon="-0.4626324130842305"><ele>174.0</ele><time>2026-04-26T14:56:16Z</time></trkpt><trkpt lat="43.369615527670796" lon="-0.46266173423116397"><ele>174.0</ele><time>2026-04-26T14:56:17Z</time></trkpt><trkpt lat="43.369547508993875" lon="-0.46269196407014856"><ele>174.14285714285714</ele><time>2026-04-26T14:56:18Z</time></trkpt><trkpt lat="43.369479512491736" lon="-0.46272234952954877"><ele>174.28571428571428</ele><time>2026-04-26T14:56:19Z</time></trkpt><trkpt lat="43.36941251405305" lon="-0.46273034741407904"><ele>174.42857142857144</ele><time>2026-04-26T14:56:20Z</time></trkpt><trkpt lat="43.369343174179264" lon="-0.462725537441084"><ele>174.57142857142856</ele><time>2026-04-26T14:56:21Z</time></trkpt><trkpt lat="43.36927440533967" lon="-0.46270882893137577"><ele>174.71428571428572</ele><time>2026-04-26T14:56:22Z</time></trkpt><trkpt lat="43.36920890191027" lon="-0.4626844556859621"><ele>174.85714285714286</ele><time>2026-04-26T14:56:23Z</time></trkpt><trkpt lat="43.36914262249596" lon="-0.4626598157182591"><ele>175.0</ele><time>2026-04-26T14:56:24Z</time></trkpt><trkpt lat="43.369076901511136" lon="-0.46263134717695636"><ele>175.0</ele><time>2026-04-26T14:56:25Z</time></trkpt><trkpt lat="43.3690130084985" lon="-0.46259920598865806"><ele>175.0</ele><time>2026-04-26T14:56:26Z</time></trkpt><trkpt lat="43.36894869935253" lon="-0.4625661579437978"><ele>175.0</ele><time>2026-04-26T14:56:27Z</time></trkpt><trkpt lat="43.36888378957793" lon="-0.4625336132224546"><ele>175.0</ele><time>2026-04-26T14:56:28Z</time></trkpt><trkpt lat="43.36882133366811" lon="-0.46250448398541544"><ele>175.0</ele><time>2026-04-26T14:56:29Z</time></trkpt><trkpt lat="43.36875620798554" lon="-0.46247657817152055"><ele>175.0</ele><time>2026-04-26T14:56:30Z</time></trkpt><trkpt lat="43.36869189129251" lon="-0.46244611602076857"><ele>175.0</ele><time>2026-04-26T14:56:31Z</time></trkpt><trkpt lat="43.368628683168836" lon="-0.46241534001984647"><ele>175.28571428571428</ele><time>2026-04-26T14:56:32Z</time></trkpt><trkpt lat="43.36856560028209" lon="-0.46238219405556685"><ele>175.57142857142856</ele><time>2026-04-26T14:56:33Z</time></trkpt><trkpt lat="43.368502147397855" lon="-0.46235123389400895"><ele>175.85714285714286</ele><time>2026-04-26T14:56:34Z</time></trkpt><trkpt lat="43.36843849969427" lon="-0.4623140102701052"><ele>176.14285714285714</ele><time>2026-04-26T14:56:35Z</time></trkpt><trkpt lat="43.368376371734854" lon="-0.4622784228832018"><ele>176.42857142857142</ele><time>2026-04-26T14:56:36Z</time></trkpt><trkpt lat="43.368314113511396" lon="-0.46224066548400694"><ele>176.71428571428572</ele><time>2026-04-26T14:56:37Z</time></trkpt><trkpt lat="43.36825422833981" lon="-0.4621984894481477"><ele>177.0</ele><time>2026-04-26T14:56:38Z</time></trkpt><trkpt lat="43.36819349796881" lon="-0.46215761152521995"><ele>177.0</ele><time>2026-04-26T14:56:39Z</time></trkpt><trkpt lat="43.368130557973124" lon="-0.4621180388156522"><ele>177.0</ele><time>2026-04-26T14:56:40Z</time></trkpt><trkpt lat="43.3680662638103" lon="-0.46208233994502595"><ele>177.0</ele><time>2026-04-26T14:56:41Z</time></trkpt><trkpt lat="43.36800239029596" lon="-0.4620414204286705"><ele>177.0</ele><time>2026-04-26T14:56:42Z</time></trkpt><trkpt lat="43.36793993643073" lon="-0.46199601322117734"><ele>177.0</ele><time>2026-04-26T14:56:43Z</time></trkpt><trkpt lat="43.36787847080108" lon="-0.46195191198934965"><ele>177.0</ele><time>2026-04-26T14:56:44Z</time></trkpt><trkpt lat="43.367816106769396" lon="-0.4619045906973144"><ele>177.0</ele><time>2026-04-26T14:56:45Z</time></trkpt><trkpt lat="43.367757673027015" lon="-0.46185314776922837"><ele>177.14285714285714</ele><time>2026-04-26T14:56:46Z</time></trkpt><trkpt lat="43.36770005554726" lon="-0.4617968528206707"><ele>177.28571428571428</ele><time>2026-04-26T14:56:47Z</time></trkpt><trkpt lat="43.36764136337655" lon="-0.46173362334098716"><ele>177.42857142857142</ele><time>2026-04-26T14:56:48Z</time></trkpt><trkpt lat="43.367587223871894" lon="-0.4616645415548862"><ele>177.57142857142856</ele><time>2026-04-26T14:56:49Z</time></trkpt><trkpt lat="43.36754278637495" lon="-0.4615843804267394"><ele>177.71428571428572</ele><time>2026-04-26T14:56:50Z</time></trkpt><trkpt lat="43.36750320402113" lon="-0.46149922917857106"><ele>177.85714285714283</ele><time>2026-04-26T14:56:51Z</time></trkpt><trkpt lat="43.36746591047293" lon="-0.4614116910606114"><ele>178.0</ele><time>2026-04-26T14:56:52Z</time></trkpt><trkpt lat="43.367428914573765" lon="-0.4613250471643254"><ele>177.99999999999997</ele><time>2026-04-26T14:56:53Z</time></trkpt><trkpt lat="43.36738777850372" lon="-0.4612385336547366"><ele>178.0</ele><time>2026-04-26T14:56:54Z</time></trkpt><trkpt lat="43.36734674354443" lon="-0.46115938930797107"><ele>178.0</ele><time>2026-04-26T14:56:55Z</time></trkpt><trkpt lat="43.3672982846454" lon="-0.46108080353422554"><ele>178.0</ele><time>2026-04-26T14:56:56Z</time></trkpt><trkpt lat="43.367245849952894" lon="-0.461007410767878"><ele>178.0</ele><time>2026-04-26T14:56:57Z</time></trkpt><trkpt lat="43.36719782781003" lon="-0.4609491818696712"><ele>177.99999999999997</ele><time>2026-04-26T14:56:58Z</time></trkpt><trkpt lat="43.367134748062895" lon="-0.4608711261037613"><ele>178.0</ele><time>2026-04-26T14:56:59Z</time></trkpt><trkpt lat="43.367086005719585" lon="-0.46079758366515744"><ele>178.0</ele><time>2026-04-26T14:57:00Z</time></trkpt><trkpt lat="43.36702682547957" lon="-0.4607275754972739"><ele>178.0</ele><time>2026-04-26T14:57:01Z</time></trkpt><trkpt lat="43.366974373525494" lon="-0.46065529601066896"><ele>178.0</ele><time>2026-04-26T14:57:02Z</time></trkpt><trkpt lat="43.36692263598177" lon="-0.4605814732177231"><ele>178.0</ele><time>2026-04-26T14:57:03Z</time></trkpt><trkpt lat="43.36687020534394" lon="-0.4605096869432347"><ele>178.0</ele><time>2026-04-26T14:57:04Z</time></trkpt><trkpt lat="43.366818329736056" lon="-0.4604287439644968"><ele>178.0</ele><time>2026-04-26T14:57:05Z</time></trkpt><trkpt lat="43.36676440707562" lon="-0.46035954192510864"><ele>177.5</ele><time>2026-04-26T14:57:06Z</time></trkpt><trkpt lat="43.36670686709603" lon="-0.460287331141932"><ele>177.0</ele><time>2026-04-26T14:57:07Z</time></trkpt><trkpt lat="43.366651009380966" lon="-0.46021078414998845"><ele>176.5</ele><time>2026-04-26T14:57:08Z</time></trkpt><trkpt lat="43.36659606019435" lon="-0.46014056561346367"><ele>176.0</ele><time>2026-04-26T14:57:09Z</time></trkpt><trkpt lat="43.36654145374074" lon="-0.4600738666368575"><ele>175.5</ele><time>2026-04-26T14:57:10Z</time></trkpt><trkpt lat="43.36648517919385" lon="-0.46000023667252826"><ele>175.0</ele><time>2026-04-26T14:57:11Z</time></trkpt><trkpt lat="43.366428861910926" lon="-0.45992867542548804"><ele>175.0</ele><time>2026-04-26T14:57:12Z</time></trkpt><trkpt lat="43.36637572980635" lon="-0.45986371024640016"><ele>175.0</ele><time>2026-04-26T14:57:13Z</time></trkpt><trkpt lat="43.366323882195125" lon="-0.45979733196878797"><ele>175.0</ele><time>2026-04-26T14:57:14Z</time></trkpt><trkpt lat="43.36627407962673" lon="-0.45972592320840666"><ele>175.0</ele><time>2026-04-26T14:57:15Z</time></trkpt><trkpt lat="43.36622732992027" lon="-0.45965305589943833"><ele>175.0</ele><time>2026-04-26T14:57:16Z</time></trkpt><trkpt lat="43.36617931820538" lon="-0.4595799849322828"><ele>175.0</ele><time>2026-04-26T14:57:17Z</time></trkpt><trkpt lat="43.36613381890847" lon="-0.4595030110591265"><ele>175.0</ele><time>2026-04-26T14:57:18Z</time></trkpt><trkpt lat="43.36609923355728" lon="-0.4594173296865707"><ele>174.71428571428572</ele><time>2026-04-26T14:57:19Z</time></trkpt><trkpt lat="43.36606640722254" lon="-0.4593215679577689"><ele>174.42857142857144</ele><time>2026-04-26T14:57:20Z</time></trkpt><trkpt lat="43.36604079573253" lon="-0.4592256008040093"><ele>174.14285714285714</ele><time>2026-04-26T14:57:21Z</time></trkpt><trkpt lat="43.36602004418038" lon="-0.4591255850487064"><ele>173.85714285714286</ele><time>2026-04-26T14:57:22Z</time></trkpt><trkpt lat="43.36599874987073" lon="-0.4590299366856471"><ele>173.57142857142858</ele><time>2026-04-26T14:57:23Z</time></trkpt><trkpt lat="43.36597605940204" lon="-0.4589293419307733"><ele>173.28571428571428</ele><time>2026-04-26T14:57:24Z</time></trkpt><trkpt lat="43.365957365158664" lon="-0.458832535933921"><ele>173.0</ele><time>2026-04-26T14:57:25Z</time></trkpt><trkpt lat="43.365935568185805" lon="-0.45873833504526773"><ele>173.0</ele><time>2026-04-26T14:57:26Z</time></trkpt><trkpt lat="43.36591103993799" lon="-0.45864262257788996"><ele>173.0</ele><time>2026-04-26T14:57:27Z</time></trkpt><trkpt lat="43.36588870325541" lon="-0.4585484157468583"><ele>173.0</ele><time>2026-04-26T14:57:28Z</time></trkpt><trkpt lat="43.365865566101505" lon="-0.45844918602470397"><ele>173.0</ele><time>2026-04-26T14:57:29Z</time></trkpt><trkpt lat="43.3658442684263" lon="-0.45835501165114"><ele>173.0</ele><time>2026-04-26T14:57:30Z</time></trkpt><trkpt lat="43.365826184923186" lon="-0.4582581853527466"><ele>173.0</ele><time>2026-04-26T14:57:31Z</time></trkpt><trkpt lat="43.36580458051819" lon="-0.4581620307312265"><ele>173.0</ele><time>2026-04-26T14:57:32Z</time></trkpt><trkpt lat="43.36578470987828" lon="-0.45806969963979494"><ele>173.0</ele><time>2026-04-26T14:57:33Z</time></trkpt><trkpt lat="43.365756463426806" lon="-0.45797552651582063"><ele>173.0</ele><time>2026-04-26T14:57:34Z</time></trkpt><trkpt lat="43.36574149773466" lon="-0.4578755347333842"><ele>173.0</ele><time>2026-04-26T14:57:35Z</time></trkpt><trkpt lat="43.36572596130172" lon="-0.45777850943312026"><ele>173.0</ele><time>2026-04-26T14:57:36Z</time></trkpt><trkpt lat="43.36570941809221" lon="-0.4576835269368534"><ele>173.0</ele><time>2026-04-26T14:57:37Z</time></trkpt><trkpt lat="43.36569359309011" lon="-0.4575879682838933"><ele>173.0</ele><time>2026-04-26T14:57:38Z</time></trkpt><trkpt lat="43.36567570886792" lon="-0.45749166376812367"><ele>173.0</ele><time>2026-04-26T14:57:39Z</time></trkpt><trkpt lat="43.36566075387585" lon="-0.45739487934316286"><ele>173.16666666666666</ele><time>2026-04-26T14:57:40Z</time></trkpt><trkpt lat="43.365644172553075" lon="-0.4573012252607608"><ele>173.33333333333331</ele><time>2026-04-26T14:57:41Z</time></trkpt><trkpt lat="43.36563160349972" lon="-0.4572074425811477"><ele>173.5</ele><time>2026-04-26T14:57:42Z</time></trkpt><trkpt lat="43.36561229866653" lon="-0.4571131902906251"><ele>173.66666666666666</ele><time>2026-04-26T14:57:43Z</time></trkpt><trkpt lat="43.36559283575285" lon="-0.4570217686439957"><ele>173.83333333333334</ele><time>2026-04-26T14:57:44Z</time></trkpt><trkpt lat="43.36557163712149" lon="-0.4569236824536785"><ele>174.0</ele><time>2026-04-26T14:57:45Z</time></trkpt><trkpt lat="43.36551955519258" lon="-0.45675164651753014"><ele>174.33333333333334</ele><time>2026-04-26T14:57:47Z</time></trkpt><trkpt lat="43.36549341509371" lon="-0.456658618377837"><ele>174.66666666666666</ele><time>2026-04-26T14:57:48Z</time></trkpt><trkpt lat="43.36547162845465" lon="-0.45657596342751"><ele>175.0</ele><time>2026-04-26T14:57:49Z</time></trkpt><trkpt lat="43.36544735377218" lon="-0.4564894874872748"><ele>175.33333333333331</ele><time>2026-04-26T14:57:50Z</time></trkpt><trkpt lat="43.36541704533878" lon="-0.45640818291204166"><ele>175.66666666666666</ele><time>2026-04-26T14:57:51Z</time></trkpt><trkpt lat="43.36537104502795" lon="-0.456323605733742"><ele>176.0</ele><time>2026-04-26T14:57:53Z</time></trkpt><trkpt lat="43.36525110221438" lon="-0.4563725304694548"><ele>176.0</ele><time>2026-04-26T14:57:56Z</time></trkpt><trkpt lat="43.36525254947044" lon="-0.45648893967712084"><ele>176.0</ele><time>2026-04-26T14:57:58Z</time></trkpt><trkpt lat="43.365230094148174" lon="-0.4566128161239882"><ele>176.0</ele><time>2026-04-26T14:58:00Z</time></trkpt><trkpt lat="43.36521410847996" lon="-0.4567472621212525"><ele>176.0</ele><time>2026-04-26T14:58:02Z</time></trkpt><trkpt lat="43.36518112741415" lon="-0.4568912868699963"><ele>176.0</ele><time>2026-04-26T14:58:04Z</time></trkpt><trkpt lat="43.36511792296918" lon="-0.4570321793379652"><ele>175.8</ele><time>2026-04-26T14:58:06Z</time></trkpt><trkpt lat="43.36504762301095" lon="-0.4571654039283747"><ele>175.60000000000002</ele><time>2026-04-26T14:58:08Z</time></trkpt><trkpt lat="43.364996349197554" lon="-0.4572206127168578"><ele>175.4</ele><time>2026-04-26T14:58:09Z</time></trkpt><trkpt lat="43.36489960935305" lon="-0.4573276951374938"><ele>175.2</ele><time>2026-04-26T14:58:11Z</time></trkpt><trkpt lat="43.36479346595179" lon="-0.45741416910401206"><ele>175.0</ele><time>2026-04-26T14:58:13Z</time></trkpt><trkpt lat="43.36468924243673" lon="-0.45749209909415584"><ele>175.0</ele><time>2026-04-26T14:58:15Z</time></trkpt><trkpt lat="43.36458597858351" lon="-0.45756194243492493"><ele>175.0</ele><time>2026-04-26T14:58:17Z</time></trkpt><trkpt lat="43.364485012538125" lon="-0.45763421939881627"><ele>175.0</ele><time>2026-04-26T14:58:19Z</time></trkpt><trkpt lat="43.364376590472496" lon="-0.45770458151821086"><ele>175.0</ele><time>2026-04-26T14:58:21Z</time></trkpt><trkpt lat="43.364266478451285" lon="-0.45778194373051684"><ele>175.0</ele><time>2026-04-26T14:58:23Z</time></trkpt><trkpt lat="43.364157588303456" lon="-0.45785791592156283"><ele>175.0</ele><time>2026-04-26T14:58:25Z</time></trkpt><trkpt lat="43.36405086378672" lon="-0.45793750392339017"><ele>175.0</ele><time>2026-04-26T14:58:27Z</time></trkpt><trkpt lat="43.3639428467909" lon="-0.4580110200794892"><ele>175.0</ele><time>2026-04-26T14:58:29Z</time></trkpt><trkpt lat="43.36383695912095" lon="-0.4580871805254866"><ele>175.0</ele><time>2026-04-26T14:58:31Z</time></trkpt><trkpt lat="43.363731200675225" lon="-0.4581712203368839"><ele>175.0</ele><time>2026-04-26T14:58:33Z</time></trkpt><trkpt lat="43.36362901577525" lon="-0.4582470616109801"><ele>175.0</ele><time>2026-04-26T14:58:35Z</time></trkpt><trkpt lat="43.363518961960025" lon="-0.458320103637514"><ele>175.0</ele><time>2026-04-26T14:58:37Z</time></trkpt><trkpt lat="43.36341342275925" lon="-0.4584028361698646"><ele>175.0</ele><time>2026-04-26T14:58:39Z</time></trkpt><trkpt lat="43.36330371700766" lon="-0.45847510482590026"><ele>175.0</ele><time>2026-04-26T14:58:41Z</time></trkpt><trkpt lat="43.363197132376996" lon="-0.4585533488372789"><ele>175.0</ele><time>2026-04-26T14:58:43Z</time></trkpt><trkpt lat="43.36309163177314" lon="-0.45862964724895644"><ele>175.0</ele><time>2026-04-26T14:58:45Z</time></trkpt><trkpt lat="43.36303599781808" lon="-0.45867434969044873"><ele>175.0</ele><time>2026-04-26T14:58:46Z</time></trkpt><trkpt lat="43.36292532845781" lon="-0.45875222610825084"><ele>175.4</ele><time>2026-04-26T14:58:48Z</time></trkpt><trkpt lat="43.362813598448675" lon="-0.45883345830538297"><ele>175.8</ele><time>2026-04-26T14:58:50Z</time></trkpt><trkpt lat="43.36275624543549" lon="-0.4588702996352157"><ele>176.2</ele><time>2026-04-26T14:58:51Z</time></trkpt><trkpt lat="43.36269971748897" lon="-0.4589133786484573"><ele>176.6</ele><time>2026-04-26T14:58:52Z</time></trkpt><trkpt lat="43.36258944895646" lon="-0.45899414844486014"><ele>177.0</ele><time>2026-04-26T14:58:54Z</time></trkpt><trkpt lat="43.36248091955909" lon="-0.4590748705116856"><ele>177.0</ele><time>2026-04-26T14:58:56Z</time></trkpt><trkpt lat="43.36242165906933" lon="-0.4591194530014811"><ele>177.0</ele><time>2026-04-26T14:58:57Z</time></trkpt><trkpt lat="43.36236183519062" lon="-0.45916285988523153"><ele>177.0</ele><time>2026-04-26T14:58:58Z</time></trkpt><trkpt lat="43.36230469359539" lon="-0.45921071253976553"><ele>177.0</ele><time>2026-04-26T14:58:59Z</time></trkpt><trkpt lat="43.36219596302424" lon="-0.4592933302576871"><ele>177.0</ele><time>2026-04-26T14:59:01Z</time></trkpt><trkpt lat="43.36208289186237" lon="-0.4593727334532652"><ele>177.0</ele><time>2026-04-26T14:59:03Z</time></trkpt><trkpt lat="43.36202367047731" lon="-0.45941203949788545"><ele>177.0</ele><time>2026-04-26T14:59:04Z</time></trkpt><trkpt lat="43.36190946083898" lon="-0.4594872009546662"><ele>177.0</ele><time>2026-04-26T14:59:06Z</time></trkpt><trkpt lat="43.361800494578496" lon="-0.45957337591270153"><ele>177.0</ele><time>2026-04-26T14:59:08Z</time></trkpt><trkpt lat="43.36169045233447" lon="-0.45965467243914554"><ele>177.0</ele><time>2026-04-26T14:59:10Z</time></trkpt><trkpt lat="43.361585993800325" lon="-0.45973369289742183"><ele>177.0</ele><time>2026-04-26T14:59:12Z</time></trkpt><trkpt lat="43.36148091191827" lon="-0.45981794071815735"><ele>177.0</ele><time>2026-04-26T14:59:14Z</time></trkpt><trkpt lat="43.36137483903252" lon="-0.45987909507602637"><ele>177.0</ele><time>2026-04-26T14:59:16Z</time></trkpt><trkpt lat="43.36127462428864" lon="-0.45995496126081625"><ele>177.0</ele><time>2026-04-26T14:59:18Z</time></trkpt><trkpt lat="43.361167105328335" lon="-0.4600333328163746"><ele>177.0</ele><time>2026-04-26T14:59:20Z</time></trkpt><trkpt lat="43.36105973458592" lon="-0.4601050822984716"><ele>177.0</ele><time>2026-04-26T14:59:22Z</time></trkpt><trkpt lat="43.360956530694274" lon="-0.4601708471772462"><ele>177.0</ele><time>2026-04-26T14:59:24Z</time></trkpt><trkpt lat="43.36089854106674" lon="-0.46020626238184076"><ele>177.0</ele><time>2026-04-26T14:59:25Z</time></trkpt><trkpt lat="43.360791119089804" lon="-0.4602566410727874"><ele>177.0</ele><time>2026-04-26T14:59:27Z</time></trkpt><trkpt lat="43.36068058690499" lon="-0.4603063766208431"><ele>177.0</ele><time>2026-04-26T14:59:29Z</time></trkpt><trkpt lat="43.360569143055095" lon="-0.46035880263237067"><ele>177.0</ele><time>2026-04-26T14:59:31Z</time></trkpt><trkpt lat="43.36045934491363" lon="-0.4604092867383702"><ele>177.0</ele><time>2026-04-26T14:59:33Z</time></trkpt><trkpt lat="43.36035075760647" lon="-0.4604603072832446"><ele>177.0</ele><time>2026-04-26T14:59:35Z</time></trkpt><trkpt lat="43.36024803322419" lon="-0.46051208835757"><ele>177.8</ele><time>2026-04-26T14:59:37Z</time></trkpt><trkpt lat="43.360147935368566" lon="-0.4605550788143261"><ele>178.6</ele><time>2026-04-26T14:59:39Z</time></trkpt><trkpt lat="43.360047015725925" lon="-0.4606057716010332"><ele>179.4</ele><time>2026-04-26T14:59:41Z</time></trkpt><trkpt lat="43.35994830919001" lon="-0.4606589849660021"><ele>180.20000000000002</ele><time>2026-04-26T14:59:43Z</time></trkpt><trkpt lat="43.359856841969375" lon="-0.4607054008541379"><ele>181.0</ele><time>2026-04-26T14:59:45Z</time></trkpt><trkpt lat="43.35977296569619" lon="-0.46075653516832643"><ele>181.0</ele><time>2026-04-26T14:59:47Z</time></trkpt><trkpt lat="43.35968521246475" lon="-0.46080235354058996"><ele>181.0</ele><time>2026-04-26T14:59:49Z</time></trkpt><trkpt lat="43.35960318708802" lon="-0.46085079451837113"><ele>181.0</ele><time>2026-04-26T14:59:51Z</time></trkpt><trkpt lat="43.359524141892024" lon="-0.46091180177789115"><ele>181.0</ele><time>2026-04-26T14:59:53Z</time></trkpt><trkpt lat="43.3594207078611" lon="-0.4609718094499688"><ele>181.0</ele><time>2026-04-26T14:59:56Z</time></trkpt><trkpt lat="43.35935636988837" lon="-0.4610132125907802"><ele>181.0</ele><time>2026-04-26T14:59:57Z</time></trkpt><trkpt lat="43.359282521646996" lon="-0.46105910424906893"><ele>181.0</ele><time>2026-04-26T14:59:59Z</time></trkpt><trkpt lat="43.359212978048404" lon="-0.4611119924716626"><ele>181.0</ele><time>2026-04-26T15:00:02Z</time></trkpt><trkpt lat="43.35912053439058" lon="-0.46117568740658643"><ele>181.0</ele><time>2026-04-26T15:00:04Z</time></trkpt><trkpt lat="43.359011798102806" lon="-0.46127630983324686"><ele>181.0</ele><time>2026-04-26T15:00:05Z</time></trkpt><trkpt lat="43.35894922384081" lon="-0.4613170612410452"><ele>181.20000000000002</ele><time>2026-04-26T15:00:06Z</time></trkpt><trkpt lat="43.35886965191883" lon="-0.4613855324812615"><ele>181.4</ele><time>2026-04-26T15:00:08Z</time></trkpt><trkpt lat="43.358767672742346" lon="-0.461453218771949"><ele>181.6</ele><time>2026-04-26T15:00:10Z</time></trkpt><trkpt lat="43.35867409598085" lon="-0.461531452970231"><ele>181.8</ele><time>2026-04-26T15:00:12Z</time></trkpt><trkpt lat="43.35856776294987" lon="-0.4616106663953472"><ele>182.0</ele><time>2026-04-26T15:00:14Z</time></trkpt><trkpt lat="43.35846334413244" lon="-0.46168463925876424"><ele>182.0</ele><time>2026-04-26T15:00:16Z</time></trkpt><trkpt lat="43.3584110872362" lon="-0.4617394738668079"><ele>182.0</ele><time>2026-04-26T15:00:17Z</time></trkpt><trkpt lat="43.35832801055856" lon="-0.46184571809019187"><ele>182.0</ele><time>2026-04-26T15:00:19Z</time></trkpt><trkpt lat="43.358208453447425" lon="-0.46192730703348006"><ele>182.0</ele><time>2026-04-26T15:00:21Z</time></trkpt><trkpt lat="43.35816161089642" lon="-0.4620149433152363"><ele>182.0</ele><time>2026-04-26T15:00:22Z</time></trkpt><trkpt lat="43.35812143790538" lon="-0.4620898901778701"><ele>181.83333333333331</ele><time>2026-04-26T15:00:23Z</time></trkpt><trkpt lat="43.35807016228834" lon="-0.46216457648056375"><ele>181.66666666666666</ele><time>2026-04-26T15:00:24Z</time></trkpt><trkpt lat="43.358010937096225" lon="-0.4622387889113573"><ele>181.5</ele><time>2026-04-26T15:00:25Z</time></trkpt><trkpt lat="43.35796643874018" lon="-0.46233472186374736"><ele>181.33333333333334</ele><time>2026-04-26T15:00:26Z</time></trkpt><trkpt lat="43.35792669474104" lon="-0.46244318449698285"><ele>181.16666666666669</ele><time>2026-04-26T15:00:27Z</time></trkpt><trkpt lat="43.35789129494861" lon="-0.4625457948646756"><ele>181.0</ele><time>2026-04-26T15:00:28Z</time></trkpt><trkpt lat="43.35785432877821" lon="-0.4626458010209332"><ele>180.66666666666669</ele><time>2026-04-26T15:00:29Z</time></trkpt><trkpt lat="43.357827683931035" lon="-0.4627427865075148"><ele>180.33333333333334</ele><time>2026-04-26T15:00:30Z</time></trkpt><trkpt lat="43.35779841556979" lon="-0.46286021694955376"><ele>180.0</ele><time>2026-04-26T15:00:31Z</time></trkpt><trkpt lat="43.357779340140894" lon="-0.46297711909515654"><ele>179.66666666666666</ele><time>2026-04-26T15:00:32Z</time></trkpt><trkpt lat="43.35776713540119" lon="-0.46309583896396994"><ele>179.33333333333331</ele><time>2026-04-26T15:00:33Z</time></trkpt><trkpt lat="43.35775044724567" lon="-0.4632088396001304"><ele>179.0</ele><time>2026-04-26T15:00:34Z</time></trkpt><trkpt lat="43.35772633941448" lon="-0.46333030211959564"><ele>178.79999999999998</ele><time>2026-04-26T15:00:35Z</time></trkpt><trkpt lat="43.357698483166274" lon="-0.4634456098105665"><ele>178.6</ele><time>2026-04-26T15:00:36Z</time></trkpt><trkpt lat="43.35767314283809" lon="-0.46356142887863566"><ele>178.4</ele><time>2026-04-26T15:00:37Z</time></trkpt><trkpt lat="43.357654824536844" lon="-0.46368683181012826"><ele>178.2</ele><time>2026-04-26T15:00:38Z</time></trkpt><trkpt lat="43.35762276740329" lon="-0.46381706311948834"><ele>178.0</ele><time>2026-04-26T15:00:39Z</time></trkpt><trkpt lat="43.357590844143715" lon="-0.4639462178206038"><ele>176.8</ele><time>2026-04-26T15:00:40Z</time></trkpt><trkpt lat="43.357548719997546" lon="-0.46407386259333"><ele>175.60000000000002</ele><time>2026-04-26T15:00:41Z</time></trkpt><trkpt lat="43.35750312659537" lon="-0.4642230996623572"><ele>174.39999999999998</ele><time>2026-04-26T15:00:42Z</time></trkpt><trkpt lat="43.357445006569385" lon="-0.46435190608126575"><ele>173.2</ele><time>2026-04-26T15:00:43Z</time></trkpt><trkpt lat="43.35738233461538" lon="-0.4644848260266174"><ele>172.0</ele><time>2026-04-26T15:00:44Z</time></trkpt><trkpt lat="43.357315321717735" lon="-0.464624967558361"><ele>170.75</ele><time>2026-04-26T15:00:45Z</time></trkpt><trkpt lat="43.35723649685178" lon="-0.46475370294345125"><ele>169.5</ele><time>2026-04-26T15:00:46Z</time></trkpt><trkpt lat="43.35715679937773" lon="-0.4648725580632827"><ele>168.25</ele><time>2026-04-26T15:00:47Z</time></trkpt><trkpt lat="43.357080798561164" lon="-0.4649875690119998"><ele>167.0</ele><time>2026-04-26T15:00:48Z</time></trkpt><trkpt lat="43.35700879277855" lon="-0.46509630379564326"><ele>167.0</ele><time>2026-04-26T15:00:49Z</time></trkpt><trkpt lat="43.35693603456152" lon="-0.465203330943758"><ele>167.0</ele><time>2026-04-26T15:00:50Z</time></trkpt><trkpt lat="43.35686789795156" lon="-0.4653144460094877"><ele>167.0</ele><time>2026-04-26T15:00:51Z</time></trkpt><trkpt lat="43.356811168354625" lon="-0.46543257161693546"><ele>167.0</ele><time>2026-04-26T15:00:52Z</time></trkpt><trkpt lat="43.356747135626925" lon="-0.4655395722941841"><ele>167.0</ele><time>2026-04-26T15:00:53Z</time></trkpt><trkpt lat="43.35667669168352" lon="-0.46563440268210005"><ele>167.0</ele><time>2026-04-26T15:00:54Z</time></trkpt><trkpt lat="43.35660686758181" lon="-0.4657342568090213"><ele>167.0</ele><time>2026-04-26T15:00:55Z</time></trkpt><trkpt lat="43.356540934396506" lon="-0.46583297304794585"><ele>167.0</ele><time>2026-04-26T15:00:56Z</time></trkpt><trkpt lat="43.35647588496426" lon="-0.46593229014951343"><ele>167.0</ele><time>2026-04-26T15:00:57Z</time></trkpt><trkpt lat="43.35641521614247" lon="-0.4660307747676499"><ele>167.0</ele><time>2026-04-26T15:00:58Z</time></trkpt><trkpt lat="43.356357147734414" lon="-0.46611681085562917"><ele>166.83333333333331</ele><time>2026-04-26T15:00:59Z</time></trkpt><trkpt lat="43.356294084329335" lon="-0.4662045268749803"><ele>166.66666666666666</ele><time>2026-04-26T15:01:00Z</time></trkpt><trkpt lat="43.35623882425092" lon="-0.4662946063704364"><ele>166.5</ele><time>2026-04-26T15:01:01Z</time></trkpt><trkpt lat="43.356186321637985" lon="-0.4663866901884883"><ele>166.33333333333334</ele><time>2026-04-26T15:01:02Z</time></trkpt><trkpt lat="43.356135081058596" lon="-0.46646473879792555"><ele>166.16666666666669</ele><time>2026-04-26T15:01:03Z</time></trkpt><trkpt lat="43.3560790869317" lon="-0.4665385202516674"><ele>166.0</ele><time>2026-04-26T15:01:04Z</time></trkpt><trkpt lat="43.356025919758615" lon="-0.46661226278982737"><ele>166.0</ele><time>2026-04-26T15:01:05Z</time></trkpt><trkpt lat="43.35597400131794" lon="-0.46668613173443324"><ele>166.0</ele><time>2026-04-26T15:01:06Z</time></trkpt><trkpt lat="43.355928063356586" lon="-0.46675901001986325"><ele>166.0</ele><time>2026-04-26T15:01:07Z</time></trkpt><trkpt lat="43.35587486634111" lon="-0.466824776368367"><ele>166.0</ele><time>2026-04-26T15:01:08Z</time></trkpt><trkpt lat="43.355828744600515" lon="-0.4668995835163726"><ele>166.0</ele><time>2026-04-26T15:01:09Z</time></trkpt><trkpt lat="43.35579529701763" lon="-0.46698560909690545"><ele>166.0</ele><time>2026-04-26T15:01:10Z</time></trkpt><trkpt lat="43.35574756327931" lon="-0.4670715325419754"><ele>166.0</ele><time>2026-04-26T15:01:11Z</time></trkpt><trkpt lat="43.35566114023084" lon="-0.467206474104632"><ele>166.0</ele><time>2026-04-26T15:01:13Z</time></trkpt><trkpt lat="43.355568346082386" lon="-0.46732591527177375"><ele>166.0</ele><time>2026-04-26T15:01:15Z</time></trkpt><trkpt lat="43.35552784542374" lon="-0.46740244329629593"><ele>166.0</ele><time>2026-04-26T15:01:16Z</time></trkpt><trkpt lat="43.35547921899419" lon="-0.467467715579004"><ele>166.0</ele><time>2026-04-26T15:01:17Z</time></trkpt><trkpt lat="43.35543671842264" lon="-0.4675462859546668"><ele>166.0</ele><time>2026-04-26T15:01:18Z</time></trkpt><trkpt lat="43.35540070950052" lon="-0.46762866759962685"><ele>166.0</ele><time>2026-04-26T15:01:19Z</time></trkpt><trkpt lat="43.35537987390185" lon="-0.46771884440405515"><ele>165.85714285714286</ele><time>2026-04-26T15:01:20Z</time></trkpt><trkpt lat="43.35537386150935" lon="-0.46781202503191804"><ele>165.71428571428572</ele><time>2026-04-26T15:01:21Z</time></trkpt><trkpt lat="43.35537888139202" lon="-0.46791486101184776"><ele>165.57142857142858</ele><time>2026-04-26T15:01:22Z</time></trkpt><trkpt lat="43.35538393527262" lon="-0.4680144705705102"><ele>165.42857142857144</ele><time>2026-04-26T15:01:23Z</time></trkpt><trkpt lat="43.355413639015154" lon="-0.4681131191340116"><ele>165.28571428571428</ele><time>2026-04-26T15:01:24Z</time></trkpt><trkpt lat="43.35544432582689" lon="-0.4682062096858054"><ele>165.14285714285717</ele><time>2026-04-26T15:01:25Z</time></trkpt><trkpt lat="43.35547409786308" lon="-0.4682935549229454"><ele>165.0</ele><time>2026-04-26T15:01:26Z</time></trkpt><trkpt lat="43.35550004389155" lon="-0.46837738811632346"><ele>165.2857142857143</ele><time>2026-04-26T15:01:27Z</time></trkpt><trkpt lat="43.3555096218632" lon="-0.46847683720173605"><ele>165.57142857142858</ele><time>2026-04-26T15:01:28Z</time></trkpt><trkpt lat="43.355512145468936" lon="-0.46857709800203257"><ele>165.85714285714286</ele><time>2026-04-26T15:01:29Z</time></trkpt><trkpt lat="43.355483528436565" lon="-0.46866183487445506"><ele>166.14285714285717</ele><time>2026-04-26T15:01:30Z</time></trkpt><trkpt lat="43.355439465699575" lon="-0.4687256016762552"><ele>166.42857142857144</ele><time>2026-04-26T15:01:31Z</time></trkpt><trkpt lat="43.35537840302064" lon="-0.4687650045616613"><ele>166.71428571428572</ele><time>2026-04-26T15:01:32Z</time></trkpt><trkpt lat="43.35531304366688" lon="-0.4687938600772694"><ele>167.0</ele><time>2026-04-26T15:01:33Z</time></trkpt><trkpt lat="43.35524272140959" lon="-0.46883768628677625"><ele>167.16666666666666</ele><time>2026-04-26T15:01:34Z</time></trkpt><trkpt lat="43.35517346596905" lon="-0.46888249141183086"><ele>167.33333333333331</ele><time>2026-04-26T15:01:35Z</time></trkpt><trkpt lat="43.35510863086101" lon="-0.4689227167288873"><ele>167.5</ele><time>2026-04-26T15:01:36Z</time></trkpt><trkpt lat="43.35504067902114" lon="-0.4689614703618553"><ele>167.66666666666666</ele><time>2026-04-26T15:01:37Z</time></trkpt><trkpt lat="43.35496733476256" lon="-0.46899772976167164"><ele>167.83333333333334</ele><time>2026-04-26T15:01:38Z</time></trkpt><trkpt lat="43.35489485840563" lon="-0.46903343522145086"><ele>168.0</ele><time>2026-04-26T15:01:39Z</time></trkpt><trkpt lat="43.354815434103436" lon="-0.4690628781657675"><ele>168.0</ele><time>2026-04-26T15:01:40Z</time></trkpt><trkpt lat="43.35473713144641" lon="-0.46909798278939085"><ele>168.0</ele><time>2026-04-26T15:01:41Z</time></trkpt><trkpt lat="43.35466189168068" lon="-0.4691125659884105"><ele>168.0</ele><time>2026-04-26T15:01:42Z</time></trkpt><trkpt lat="43.35458367982543" lon="-0.4691436526651529"><ele>168.0</ele><time>2026-04-26T15:01:43Z</time></trkpt><trkpt lat="43.354502096763774" lon="-0.4691736026460667"><ele>168.0</ele><time>2026-04-26T15:01:44Z</time></trkpt><trkpt lat="43.354422111341854" lon="-0.4691948666049384"><ele>168.0</ele><time>2026-04-26T15:01:45Z</time></trkpt><trkpt lat="43.35434232129826" lon="-0.46921204611077094"><ele>167.83333333333334</ele><time>2026-04-26T15:01:46Z</time></trkpt><trkpt lat="43.354261964222054" lon="-0.46923293534271066"><ele>167.66666666666666</ele><time>2026-04-26T15:01:47Z</time></trkpt><trkpt lat="43.354182649221556" lon="-0.4692563866377623"><ele>167.5</ele><time>2026-04-26T15:01:48Z</time></trkpt><trkpt lat="43.35410745165653" lon="-0.46927719733742235"><ele>167.33333333333331</ele><time>2026-04-26T15:01:49Z</time></trkpt><trkpt lat="43.35402855501157" lon="-0.469306143457912"><ele>167.16666666666666</ele><time>2026-04-26T15:01:50Z</time></trkpt><trkpt lat="43.353953231253456" lon="-0.46932399819732307"><ele>167.0</ele><time>2026-04-26T15:01:51Z</time></trkpt><trkpt lat="43.353881990869546" lon="-0.4693489952681557"><ele>166.66666666666666</ele><time>2026-04-26T15:01:52Z</time></trkpt><trkpt lat="43.35380530814117" lon="-0.4693715997938376"><ele>166.33333333333331</ele><time>2026-04-26T15:01:53Z</time></trkpt><trkpt lat="43.3537256801431" lon="-0.46938364640084657"><ele>166.0</ele><time>2026-04-26T15:01:54Z</time></trkpt><trkpt lat="43.353652647029406" lon="-0.46940417630338493"><ele>165.66666666666666</ele><time>2026-04-26T15:01:55Z</time></trkpt><trkpt lat="43.353580441742324" lon="-0.4694277166347789"><ele>165.33333333333334</ele><time>2026-04-26T15:01:56Z</time></trkpt><trkpt lat="43.353507909168556" lon="-0.46945224892659004"><ele>165.0</ele><time>2026-04-26T15:01:57Z</time></trkpt><trkpt lat="43.35343544415495" lon="-0.4694913528001852"><ele>165.0</ele><time>2026-04-26T15:01:58Z</time></trkpt><trkpt lat="43.353368679400525" lon="-0.4695393324172414"><ele>165.0</ele><time>2026-04-26T15:01:59Z</time></trkpt><trkpt lat="43.3532974934816" lon="-0.46959714514400636"><ele>165.0</ele><time>2026-04-26T15:02:00Z</time></trkpt><trkpt lat="43.35322816374402" lon="-0.46964982221245155"><ele>165.0</ele><time>2026-04-26T15:02:01Z</time></trkpt><trkpt lat="43.35315467012748" lon="-0.46968589735995364"><ele>165.0</ele><time>2026-04-26T15:02:02Z</time></trkpt><trkpt lat="43.35309044928429" lon="-0.46973805149972053"><ele>165.0</ele><time>2026-04-26T15:02:03Z</time></trkpt><trkpt lat="43.35302159355127" lon="-0.46977405389282345"><ele>164.5</ele><time>2026-04-26T15:02:04Z</time></trkpt><trkpt lat="43.35294358199208" lon="-0.4697933468765199"><ele>164.0</ele><time>2026-04-26T15:02:05Z</time></trkpt><trkpt lat="43.3528676508302" lon="-0.4698105207227622"><ele>163.5</ele><time>2026-04-26T15:02:06Z</time></trkpt><trkpt lat="43.35278798480229" lon="-0.46981339640567255"><ele>163.0</ele><time>2026-04-26T15:02:07Z</time></trkpt><trkpt lat="43.35270943981848" lon="-0.4698113578176128"><ele>162.5</ele><time>2026-04-26T15:02:08Z</time></trkpt><trkpt lat="43.3526349666267" lon="-0.469797698888218"><ele>162.0</ele><time>2026-04-26T15:02:09Z</time></trkpt><trkpt lat="43.352566139460855" lon="-0.46976178130310603"><ele>162.0</ele><time>2026-04-26T15:02:10Z</time></trkpt><trkpt lat="43.35249733711136" lon="-0.4697072787689556"><ele>162.0</ele><time>2026-04-26T15:02:11Z</time></trkpt><trkpt lat="43.35243870579914" lon="-0.46965401366539905"><ele>162.0</ele><time>2026-04-26T15:02:12Z</time></trkpt><trkpt lat="43.35238454392655" lon="-0.4695848827280526"><ele>162.0</ele><time>2026-04-26T15:02:13Z</time></trkpt><trkpt lat="43.352340151215586" lon="-0.4695165042380775"><ele>162.0</ele><time>2026-04-26T15:02:14Z</time></trkpt><trkpt lat="43.35230827556116" lon="-0.4694340492551385"><ele>162.0</ele><time>2026-04-26T15:02:15Z</time></trkpt><trkpt lat="43.352241999525674" lon="-0.4692934295207542"><ele>160.2</ele><time>2026-04-26T15:02:17Z</time></trkpt><trkpt lat="43.35217631801897" lon="-0.46915817718588426"><ele>158.39999999999998</ele><time>2026-04-26T15:02:19Z</time></trkpt><trkpt lat="43.35209621047686" lon="-0.46902548679719536"><ele>156.60000000000002</ele><time>2026-04-26T15:02:21Z</time></trkpt><trkpt lat="43.35198794737636" lon="-0.46894155626184125"><ele>154.8</ele><time>2026-04-26T15:02:23Z</time></trkpt><trkpt lat="43.35192273945246" lon="-0.46892939448276477"><ele>153.0</ele><time>2026-04-26T15:02:24Z</time></trkpt><trkpt lat="43.351851319011395" lon="-0.4689378369053564"><ele>153.0</ele><time>2026-04-26T15:02:25Z</time></trkpt><trkpt lat="43.351776359788815" lon="-0.4689617151875832"><ele>153.0</ele><time>2026-04-26T15:02:26Z</time></trkpt><trkpt lat="43.35170293185305" lon="-0.4689896823460264"><ele>153.0</ele><time>2026-04-26T15:02:27Z</time></trkpt><trkpt lat="43.35162959919509" lon="-0.46901037499311515"><ele>153.0</ele><time>2026-04-26T15:02:28Z</time></trkpt><trkpt lat="43.35154789657341" lon="-0.46903882241711203"><ele>153.0</ele><time>2026-04-26T15:02:29Z</time></trkpt><trkpt lat="43.35147079937138" lon="-0.4690616226572066"><ele>153.0</ele><time>2026-04-26T15:02:30Z</time></trkpt><trkpt lat="43.3513972706264" lon="-0.46908579132994943"><ele>151.83333333333334</ele><time>2026-04-26T15:02:31Z</time></trkpt><trkpt lat="43.35131684778276" lon="-0.46911230576200386"><ele>150.66666666666666</ele><time>2026-04-26T15:02:32Z</time></trkpt><trkpt lat="43.351238311000245" lon="-0.46915560360477393"><ele>149.5</ele><time>2026-04-26T15:02:33Z</time></trkpt><trkpt lat="43.35115590278018" lon="-0.46920188444782646"><ele>148.33333333333331</ele><time>2026-04-26T15:02:34Z</time></trkpt><trkpt lat="43.351075581856016" lon="-0.46925929877254846"><ele>147.16666666666666</ele><time>2026-04-26T15:02:35Z</time></trkpt><trkpt lat="43.35099546897971" lon="-0.4693225493422034"><ele>146.0</ele><time>2026-04-26T15:02:36Z</time></trkpt><trkpt lat="43.350921360799724" lon="-0.46939782991798196"><ele>146.0</ele><time>2026-04-26T15:02:37Z</time></trkpt><trkpt lat="43.35084824682286" lon="-0.4694615014457784"><ele>146.0</ele><time>2026-04-26T15:02:38Z</time></trkpt><trkpt lat="43.35077701656604" lon="-0.4695255527137658"><ele>146.0</ele><time>2026-04-26T15:02:39Z</time></trkpt><trkpt lat="43.35071385494393" lon="-0.46959249512421086"><ele>146.0</ele><time>2026-04-26T15:02:40Z</time></trkpt><trkpt lat="43.35064833533098" lon="-0.4696594178329095"><ele>146.0</ele><time>2026-04-26T15:02:41Z</time></trkpt><trkpt lat="43.35058543527393" lon="-0.46972720425252784"><ele>146.0</ele><time>2026-04-26T15:02:42Z</time></trkpt><trkpt lat="43.35052313446797" lon="-0.4697882640796379"><ele>145.71428571428572</ele><time>2026-04-26T15:02:43Z</time></trkpt><trkpt lat="43.350466701852056" lon="-0.469853931995751"><ele>145.42857142857144</ele><time>2026-04-26T15:02:44Z</time></trkpt><trkpt lat="43.350412031661754" lon="-0.4699306524217553"><ele>145.14285714285717</ele><time>2026-04-26T15:02:45Z</time></trkpt><trkpt lat="43.35036126758427" lon="-0.4700015424739792"><ele>144.85714285714286</ele><time>2026-04-26T15:02:46Z</time></trkpt><trkpt lat="43.350307216503865" lon="-0.4700671642861762"><ele>144.57142857142858</ele><time>2026-04-26T15:02:47Z</time></trkpt><trkpt lat="43.35025744333039" lon="-0.47013500608850395"><ele>144.2857142857143</ele><time>2026-04-26T15:02:48Z</time></trkpt><trkpt lat="43.35020622982821" lon="-0.4702065104321282"><ele>144.0</ele><time>2026-04-26T15:02:49Z</time></trkpt><trkpt lat="43.350159795574896" lon="-0.4702875093193735"><ele>144.0</ele><time>2026-04-26T15:02:50Z</time></trkpt><trkpt lat="43.35012188515026" lon="-0.47035683677224505"><ele>144.0</ele><time>2026-04-26T15:02:51Z</time></trkpt><trkpt lat="43.35007650322044" lon="-0.47042596159669214"><ele>144.0</ele><time>2026-04-26T15:02:52Z</time></trkpt><trkpt lat="43.349970300294316" lon="-0.47050199531506515"><ele>144.0</ele><time>2026-04-26T15:02:54Z</time></trkpt><trkpt lat="43.349849357233325" lon="-0.4704389214433571"><ele>144.0</ele><time>2026-04-26T15:02:56Z</time></trkpt><trkpt lat="43.34979849575114" lon="-0.4703752539949232"><ele>144.0</ele><time>2026-04-26T15:02:57Z</time></trkpt><trkpt lat="43.349734330795386" lon="-0.4703005266108572"><ele>144.16666666666666</ele><time>2026-04-26T15:02:58Z</time></trkpt><trkpt lat="43.34966755029438" lon="-0.4701937234066858"><ele>144.33333333333334</ele><time>2026-04-26T15:03:00Z</time></trkpt><trkpt lat="43.34959391044464" lon="-0.4701419826751421"><ele>144.5</ele><time>2026-04-26T15:03:01Z</time></trkpt><trkpt lat="43.34952620180245" lon="-0.47010722345857986"><ele>144.66666666666669</ele><time>2026-04-26T15:03:02Z</time></trkpt><trkpt lat="43.34946042698449" lon="-0.4700714848616321"><ele>144.83333333333334</ele><time>2026-04-26T15:03:03Z</time></trkpt><trkpt lat="43.34939917562816" lon="-0.47004596060476966"><ele>145.0</ele><time>2026-04-26T15:03:04Z</time></trkpt><trkpt lat="43.34933317515164" lon="-0.4700097340560323"><ele>145.0</ele><time>2026-04-26T15:03:05Z</time></trkpt><trkpt lat="43.349267764093575" lon="-0.4699785003905326"><ele>145.0</ele><time>2026-04-26T15:03:06Z</time></trkpt><trkpt lat="43.34920395309553" lon="-0.4699399662707709"><ele>145.0</ele><time>2026-04-26T15:03:07Z</time></trkpt><trkpt lat="43.34914362049166" lon="-0.46989642194099723"><ele>145.0</ele><time>2026-04-26T15:03:08Z</time></trkpt><trkpt lat="43.34908634192313" lon="-0.4698371343617748"><ele>145.0</ele><time>2026-04-26T15:03:09Z</time></trkpt><trkpt lat="43.34901865979118" lon="-0.4697748495527687"><ele>145.0</ele><time>2026-04-26T15:03:10Z</time></trkpt><trkpt lat="43.348969654632135" lon="-0.46970766765975985"><ele>145.0</ele><time>2026-04-26T15:03:11Z</time></trkpt><trkpt lat="43.348916711264465" lon="-0.4696441156102734"><ele>145.0</ele><time>2026-04-26T15:03:12Z</time></trkpt><trkpt lat="43.348859034934726" lon="-0.46958094228588976"><ele>145.0</ele><time>2026-04-26T15:03:13Z</time></trkpt><trkpt lat="43.34880459599197" lon="-0.46951917981613644"><ele>145.0</ele><time>2026-04-26T15:03:14Z</time></trkpt><trkpt lat="43.348748392559976" lon="-0.4694542676958355"><ele>145.0</ele><time>2026-04-26T15:03:15Z</time></trkpt><trkpt lat="43.348688870279936" lon="-0.4693929641370106"><ele>145.0</ele><time>2026-04-26T15:03:16Z</time></trkpt><trkpt lat="43.34862789082913" lon="-0.4693365729008126"><ele>145.0</ele><time>2026-04-26T15:03:17Z</time></trkpt><trkpt lat="43.34856991822016" lon="-0.4692778841201504"><ele>145.0</ele><time>2026-04-26T15:03:18Z</time></trkpt><trkpt lat="43.348519721753874" lon="-0.46921906342250486"><ele>145.0</ele><time>2026-04-26T15:03:19Z</time></trkpt><trkpt lat="43.348462639496304" lon="-0.4691658443145081"><ele>145.0</ele><time>2026-04-26T15:03:20Z</time></trkpt><trkpt lat="43.34839789556499" lon="-0.4691114640403829"><ele>145.0</ele><time>2026-04-26T15:03:21Z</time></trkpt><trkpt lat="43.34834437836807" lon="-0.4690540077987437"><ele>145.0</ele><time>2026-04-26T15:03:22Z</time></trkpt><trkpt lat="43.34829847755103" lon="-0.4689929318697531"><ele>145.0</ele><time>2026-04-26T15:03:23Z</time></trkpt><trkpt lat="43.34826532661665" lon="-0.46891742450405427"><ele>145.0</ele><time>2026-04-26T15:03:24Z</time></trkpt><trkpt lat="43.34828348548387" lon="-0.4687457261883611"><ele>145.14285714285714</ele><time>2026-04-26T15:03:26Z</time></trkpt><trkpt lat="43.348307259508864" lon="-0.46865990648519185"><ele>145.2857142857143</ele><time>2026-04-26T15:03:27Z</time></trkpt><trkpt lat="43.34833463150089" lon="-0.46857431047708137"><ele>145.42857142857144</ele><time>2026-04-26T15:03:28Z</time></trkpt><trkpt lat="43.348369407811425" lon="-0.4684927333591811"><ele>145.57142857142858</ele><time>2026-04-26T15:03:29Z</time></trkpt><trkpt lat="43.348402974661674" lon="-0.4684071573875502"><ele>145.71428571428572</ele><time>2026-04-26T15:03:30Z</time></trkpt><trkpt lat="43.34842692094267" lon="-0.468325590770241"><ele>145.85714285714286</ele><time>2026-04-26T15:03:31Z</time></trkpt><trkpt lat="43.34843953058302" lon="-0.4682386732018675"><ele>146.0</ele><time>2026-04-26T15:03:32Z</time></trkpt><trkpt lat="43.34846722648861" lon="-0.4681607983154944"><ele>146.0</ele><time>2026-04-26T15:03:33Z</time></trkpt><trkpt lat="43.34850486187393" lon="-0.46800223594562035"><ele>146.0</ele><time>2026-04-26T15:03:35Z</time></trkpt><trkpt lat="43.3485232944173" lon="-0.46783201441765754"><ele>146.0</ele><time>2026-04-26T15:03:37Z</time></trkpt><trkpt lat="43.348521299572596" lon="-0.4677377441414763"><ele>146.0</ele><time>2026-04-26T15:03:38Z</time></trkpt><trkpt lat="43.348514729595095" lon="-0.46756870317477267"><ele>146.0</ele><time>2026-04-26T15:03:40Z</time></trkpt><trkpt lat="43.34851782546409" lon="-0.4673977176855036"><ele>147.0</ele><time>2026-04-26T15:03:42Z</time></trkpt><trkpt lat="43.34851012603018" lon="-0.4672342904523565"><ele>148.0</ele><time>2026-04-26T15:03:44Z</time></trkpt><trkpt lat="43.348492452216234" lon="-0.46709408688189785"><ele>149.0</ele><time>2026-04-26T15:03:46Z</time></trkpt><trkpt lat="43.34846275732572" lon="-0.46700473306935825"><ele>150.0</ele><time>2026-04-26T15:03:47Z</time></trkpt><trkpt lat="43.34845293826188" lon="-0.46684106532707337"><ele>151.0</ele><time>2026-04-26T15:03:49Z</time></trkpt><trkpt lat="43.34842607472842" lon="-0.46670811839381887"><ele>152.0</ele><time>2026-04-26T15:03:51Z</time></trkpt><trkpt lat="43.34839966516402" lon="-0.4666086398122163"><ele>153.0</ele><time>2026-04-26T15:03:53Z</time></trkpt><trkpt lat="43.3483830672215" lon="-0.4664896654010254"><ele>154.0</ele><time>2026-04-26T15:03:55Z</time></trkpt><trkpt lat="43.34836155492074" lon="-0.4664015959778186"><ele>155.0</ele><time>2026-04-26T15:03:57Z</time></trkpt><trkpt lat="43.34834541029026" lon="-0.46629490059325346"><ele>156.0</ele><time>2026-04-26T15:04:00Z</time></trkpt><trkpt lat="43.348198295411436" lon="-0.46568831915695447"><ele>156.33333333333334</ele><time>2026-04-26T15:04:32Z</time></trkpt><trkpt lat="43.348184116322805" lon="-0.46559957141793823"><ele>156.66666666666666</ele><time>2026-04-26T15:04:36Z</time></trkpt><trkpt lat="43.348167352982145" lon="-0.46549595539036465"><ele>157.0</ele><time>2026-04-26T15:04:39Z</time></trkpt><trkpt lat="43.34815562235077" lon="-0.4654065888388591"><ele>157.33333333333331</ele><time>2026-04-26T15:04:41Z</time></trkpt><trkpt lat="43.34814284282284" lon="-0.46530387826275815"><ele>157.66666666666666</ele><time>2026-04-26T15:04:43Z</time></trkpt><trkpt lat="43.34812746298019" lon="-0.4651937777901834"><ele>158.0</ele><time>2026-04-26T15:04:45Z</time></trkpt><trkpt lat="43.34811617472709" lon="-0.46506588455263315"><ele>158.0</ele><time>2026-04-26T15:04:47Z</time></trkpt><trkpt lat="43.34809925436206" lon="-0.46495923568865627"><ele>158.0</ele><time>2026-04-26T15:04:49Z</time></trkpt><trkpt lat="43.3480890223522" lon="-0.4648149219444461"><ele>158.0</ele><time>2026-04-26T15:04:51Z</time></trkpt><trkpt lat="43.34807212745566" lon="-0.4646774098875736"><ele>158.0</ele><time>2026-04-26T15:04:53Z</time></trkpt><trkpt lat="43.34804714902901" lon="-0.4645430787788885"><ele>158.0</ele><time>2026-04-26T15:04:55Z</time></trkpt><trkpt lat="43.348011613934396" lon="-0.464406486878538"><ele>159.2</ele><time>2026-04-26T15:04:57Z</time></trkpt><trkpt lat="43.34796855289914" lon="-0.46427862176436013"><ele>160.4</ele><time>2026-04-26T15:04:59Z</time></trkpt><trkpt lat="43.347923602416714" lon="-0.46414699022502776"><ele>161.6</ele><time>2026-04-26T15:05:01Z</time></trkpt><trkpt lat="43.34788247074196" lon="-0.46400508705224014"><ele>162.79999999999998</ele><time>2026-04-26T15:05:03Z</time></trkpt><trkpt lat="43.347832131287966" lon="-0.4638751511476634"><ele>164.0</ele><time>2026-04-26T15:05:05Z</time></trkpt><trkpt lat="43.34777570092146" lon="-0.46373726000413173"><ele>164.2</ele><time>2026-04-26T15:05:07Z</time></trkpt><trkpt lat="43.347727623536244" lon="-0.46360091570673095"><ele>164.39999999999998</ele><time>2026-04-26T15:05:09Z</time></trkpt><trkpt lat="43.34768009565917" lon="-0.4634642712634647"><ele>164.6</ele><time>2026-04-26T15:05:11Z</time></trkpt><trkpt lat="43.34764894804548" lon="-0.4633147651689933"><ele>164.8</ele><time>2026-04-26T15:05:13Z</time></trkpt><trkpt lat="43.347616336760204" lon="-0.46316225985016296"><ele>165.0</ele><time>2026-04-26T15:05:15Z</time></trkpt><trkpt lat="43.34757939946476" lon="-0.4630076660831269"><ele>165.5</ele><time>2026-04-26T15:05:17Z</time></trkpt><trkpt lat="43.34755019138939" lon="-0.4628541574132578"><ele>166.0</ele><time>2026-04-26T15:05:19Z</time></trkpt><trkpt lat="43.347514529538365" lon="-0.46270347580491344"><ele>166.5</ele><time>2026-04-26T15:05:21Z</time></trkpt><trkpt lat="43.34748404914751" lon="-0.462541462909683"><ele>167.0</ele><time>2026-04-26T15:05:23Z</time></trkpt><trkpt lat="43.34745236984378" lon="-0.4623909833274499"><ele>167.0</ele><time>2026-04-26T15:05:25Z</time></trkpt><trkpt lat="43.34741583368558" lon="-0.46223336858071934"><ele>167.0</ele><time>2026-04-26T15:05:27Z</time></trkpt><trkpt lat="43.34737723822209" lon="-0.46207629613653095"><ele>167.0</ele><time>2026-04-26T15:05:29Z</time></trkpt><trkpt lat="43.347335300792665" lon="-0.4619346655677616"><ele>167.0</ele><time>2026-04-26T15:05:31Z</time></trkpt><trkpt lat="43.34727677058429" lon="-0.4618060842777914"><ele>167.0</ele><time>2026-04-26T15:05:33Z</time></trkpt><trkpt lat="43.34723657568082" lon="-0.46165669433203504"><ele>167.0</ele><time>2026-04-26T15:05:35Z</time></trkpt><trkpt lat="43.347198799659715" lon="-0.4615183656740693"><ele>167.0</ele><time>2026-04-26T15:05:37Z</time></trkpt><trkpt lat="43.34716908431644" lon="-0.46137738480940704"><ele>167.0</ele><time>2026-04-26T15:05:39Z</time></trkpt><trkpt lat="43.34713980889928" lon="-0.461239703125894"><ele>167.0</ele><time>2026-04-26T15:05:41Z</time></trkpt><trkpt lat="43.34711103967997" lon="-0.46109950377151765"><ele>167.0</ele><time>2026-04-26T15:05:43Z</time></trkpt><trkpt lat="43.34707793019032" lon="-0.46096411472502646"><ele>167.0</ele><time>2026-04-26T15:05:45Z</time></trkpt><trkpt lat="43.34704410154908" lon="-0.46082420815014963"><ele>167.0</ele><time>2026-04-26T15:05:47Z</time></trkpt><trkpt lat="43.34701431842571" lon="-0.46067826062333284"><ele>167.0</ele><time>2026-04-26T15:05:49Z</time></trkpt><trkpt lat="43.34697160093901" lon="-0.4605549247070977"><ele>167.0</ele><time>2026-04-26T15:05:51Z</time></trkpt><trkpt lat="43.346939889784274" lon="-0.460412904539326"><ele>167.2</ele><time>2026-04-26T15:05:53Z</time></trkpt><trkpt lat="43.34689777504243" lon="-0.4602827877130359"><ele>167.39999999999998</ele><time>2026-04-26T15:05:55Z</time></trkpt><trkpt lat="43.34686265084249" lon="-0.46014932235377554"><ele>167.60000000000002</ele><time>2026-04-26T15:05:57Z</time></trkpt><trkpt lat="43.346838662054154" lon="-0.4600029137389059"><ele>167.8</ele><time>2026-04-26T15:05:59Z</time></trkpt><trkpt lat="43.346811657588404" lon="-0.459854635904377"><ele>168.0</ele><time>2026-04-26T15:06:01Z</time></trkpt><trkpt lat="43.34677345630121" lon="-0.45970816967680295"><ele>168.2</ele><time>2026-04-26T15:06:03Z</time></trkpt><trkpt lat="43.34674134285818" lon="-0.4595506211605149"><ele>168.4</ele><time>2026-04-26T15:06:05Z</time></trkpt><trkpt lat="43.346713293200644" lon="-0.4593872550947038"><ele>168.6</ele><time>2026-04-26T15:06:07Z</time></trkpt><trkpt lat="43.3466797014102" lon="-0.45922860621715544"><ele>168.79999999999998</ele><time>2026-04-26T15:06:09Z</time></trkpt><trkpt lat="43.34665857377469" lon="-0.45914399654009946"><ele>169.0</ele><time>2026-04-26T15:06:10Z</time></trkpt><trkpt lat="43.3466385663912" lon="-0.4590619085284801"><ele>169.0</ele><time>2026-04-26T15:06:11Z</time></trkpt><trkpt lat="43.34660649111246" lon="-0.4588951112838088"><ele>169.0</ele><time>2026-04-26T15:06:13Z</time></trkpt><trkpt lat="43.346568263736636" lon="-0.4587282979629068"><ele>169.0</ele><time>2026-04-26T15:06:15Z</time></trkpt><trkpt lat="43.346527414900294" lon="-0.45856146860399094"><ele>169.0</ele><time>2026-04-26T15:06:17Z</time></trkpt><trkpt lat="43.34648746117513" lon="-0.45839758942423925"><ele>169.0</ele><time>2026-04-26T15:06:19Z</time></trkpt><trkpt lat="43.34646527887589" lon="-0.4583148173054508"><ele>169.0</ele><time>2026-04-26T15:06:20Z</time></trkpt><trkpt lat="43.3464281179026" lon="-0.4581503427486025"><ele>169.0</ele><time>2026-04-26T15:06:22Z</time></trkpt><trkpt lat="43.34640711668903" lon="-0.45806213262899914"><ele>169.0</ele><time>2026-04-26T15:06:23Z</time></trkpt><trkpt lat="43.3463633562268" lon="-0.45790136559178896"><ele>169.0</ele><time>2026-04-26T15:06:25Z</time></trkpt><trkpt lat="43.34632144964777" lon="-0.4577373594412857"><ele>169.39999999999998</ele><time>2026-04-26T15:06:27Z</time></trkpt><trkpt lat="43.346269934500306" lon="-0.4575810608356001"><ele>169.8</ele><time>2026-04-26T15:06:29Z</time></trkpt><trkpt lat="43.34622365243519" lon="-0.4574257192823505"><ele>170.2</ele><time>2026-04-26T15:06:31Z</time></trkpt><trkpt lat="43.34620144345371" lon="-0.45734400011574183"><ele>170.60000000000002</ele><time>2026-04-26T15:06:32Z</time></trkpt><trkpt lat="43.34617791712273" lon="-0.4572612366889975"><ele>171.0</ele><time>2026-04-26T15:06:33Z</time></trkpt><trkpt lat="43.346128561730445" lon="-0.4571058352346686"><ele>171.0</ele><time>2026-04-26T15:06:35Z</time></trkpt><trkpt lat="43.34607523441909" lon="-0.45695183775025144"><ele>171.0</ele><time>2026-04-26T15:06:37Z</time></trkpt><trkpt lat="43.34604344087046" lon="-0.4568731874330419"><ele>171.0</ele><time>2026-04-26T15:06:38Z</time></trkpt><trkpt lat="43.34601406611142" lon="-0.4567951038691208"><ele>171.0</ele><time>2026-04-26T15:06:39Z</time></trkpt><trkpt lat="43.34596329774935" lon="-0.4566368696912176"><ele>171.0</ele><time>2026-04-26T15:06:41Z</time></trkpt><trkpt lat="43.345907149820995" lon="-0.4564887501061827"><ele>171.0</ele><time>2026-04-26T15:06:43Z</time></trkpt><trkpt lat="43.345852653554225" lon="-0.45633465513867894"><ele>171.0</ele><time>2026-04-26T15:06:45Z</time></trkpt><trkpt lat="43.345826455505176" lon="-0.45625567321644417"><ele>171.0</ele><time>2026-04-26T15:06:46Z</time></trkpt><trkpt lat="43.34579603852848" lon="-0.45617361053971955"><ele>171.0</ele><time>2026-04-26T15:06:47Z</time></trkpt><trkpt lat="43.345751832610254" lon="-0.4560067457055985"><ele>171.0</ele><time>2026-04-26T15:06:49Z</time></trkpt><trkpt lat="43.345729309435555" lon="-0.455920330664614"><ele>170.7142857142857</ele><time>2026-04-26T15:06:50Z</time></trkpt><trkpt lat="43.34570834784526" lon="-0.45583101812340926"><ele>170.42857142857142</ele><time>2026-04-26T15:06:51Z</time></trkpt><trkpt lat="43.345686808655856" lon="-0.4557357210041973"><ele>170.14285714285714</ele><time>2026-04-26T15:06:52Z</time></trkpt><trkpt lat="43.345670787012544" lon="-0.4556374817305382"><ele>169.85714285714283</ele><time>2026-04-26T15:06:53Z</time></trkpt><trkpt lat="43.34565623259812" lon="-0.45554081646745587"><ele>169.57142857142856</ele><time>2026-04-26T15:06:54Z</time></trkpt><trkpt lat="43.34564715613327" lon="-0.45543948432333764"><ele>169.28571428571428</ele><time>2026-04-26T15:06:55Z</time></trkpt><trkpt lat="43.34564460025764" lon="-0.45533967851989376"><ele>169.0</ele><time>2026-04-26T15:06:56Z</time></trkpt><trkpt lat="43.34563403354936" lon="-0.45523381720325734"><ele>169.0</ele><time>2026-04-26T15:06:57Z</time></trkpt><trkpt lat="43.34561930934122" lon="-0.45512962531357515"><ele>169.0</ele><time>2026-04-26T15:06:58Z</time></trkpt><trkpt lat="43.345603027124746" lon="-0.4550300899577732"><ele>169.0</ele><time>2026-04-26T15:06:59Z</time></trkpt><trkpt lat="43.34558568277687" lon="-0.4549208780511476"><ele>169.0</ele><time>2026-04-26T15:07:00Z</time></trkpt><trkpt lat="43.345553345881974" lon="-0.45483089172807123"><ele>169.0</ele><time>2026-04-26T15:07:01Z</time></trkpt><trkpt lat="43.345513719056534" lon="-0.454737171019602"><ele>169.0</ele><time>2026-04-26T15:07:02Z</time></trkpt><trkpt lat="43.34547791412705" lon="-0.4546483423875556"><ele>169.14285714285714</ele><time>2026-04-26T15:07:03Z</time></trkpt><trkpt lat="43.34544707702163" lon="-0.4545579380176272"><ele>169.28571428571428</ele><time>2026-04-26T15:07:04Z</time></trkpt><trkpt lat="43.34541166716534" lon="-0.45446871023691143"><ele>169.42857142857144</ele><time>2026-04-26T15:07:05Z</time></trkpt><trkpt lat="43.34537476479187" lon="-0.45438692547124165"><ele>169.57142857142856</ele><time>2026-04-26T15:07:06Z</time></trkpt><trkpt lat="43.3453380467317" lon="-0.45430215957307324"><ele>169.7142857142857</ele><time>2026-04-26T15:07:07Z</time></trkpt><trkpt lat="43.34530195704695" lon="-0.4542188772132813"><ele>169.85714285714286</ele><time>2026-04-26T15:07:08Z</time></trkpt><trkpt lat="43.345267196653474" lon="-0.45413429468233324"><ele>170.0</ele><time>2026-04-26T15:07:09Z</time></trkpt><trkpt lat="43.345233626635896" lon="-0.4540486993105865"><ele>170.0</ele><time>2026-04-26T15:07:10Z</time></trkpt><trkpt lat="43.345196020607176" lon="-0.45397057348666653"><ele>170.0</ele><time>2026-04-26T15:07:11Z</time></trkpt><trkpt lat="43.34515985176358" lon="-0.4538874268061758"><ele>170.0</ele><time>2026-04-26T15:07:12Z</time></trkpt><trkpt lat="43.3451183068853" lon="-0.4538089324161513"><ele>170.0</ele><time>2026-04-26T15:07:13Z</time></trkpt><trkpt lat="43.345076228672745" lon="-0.4537358121807878"><ele>170.0</ele><time>2026-04-26T15:07:14Z</time></trkpt><trkpt lat="43.3450317177153" lon="-0.45367121008707023"><ele>170.0</ele><time>2026-04-26T15:07:15Z</time></trkpt><trkpt lat="43.34498791062786" lon="-0.4536016393452581"><ele>170.0</ele><time>2026-04-26T15:07:16Z</time></trkpt><trkpt lat="43.344941671333814" lon="-0.45353917593703247"><ele>169.8</ele><time>2026-04-26T15:07:17Z</time></trkpt><trkpt lat="43.344892454828944" lon="-0.45348160863042897"><ele>169.6</ele><time>2026-04-26T15:07:18Z</time></trkpt><trkpt lat="43.34480367775646" lon="-0.45336834531144027"><ele>169.39999999999998</ele><time>2026-04-26T15:07:20Z</time></trkpt><trkpt lat="43.3447153499821" lon="-0.4532522049668948"><ele>169.2</ele><time>2026-04-26T15:07:22Z</time></trkpt><trkpt lat="43.344639855215114" lon="-0.45313375458857674"><ele>169.0</ele><time>2026-04-26T15:07:24Z</time></trkpt><trkpt lat="43.34455721502361" lon="-0.4530139603702612"><ele>170.39999999999998</ele><time>2026-04-26T15:07:26Z</time></trkpt><trkpt lat="43.34449164129318" lon="-0.4528873131763482"><ele>171.8</ele><time>2026-04-26T15:07:28Z</time></trkpt><trkpt lat="43.34442889701248" lon="-0.45275439908621323"><ele>173.2</ele><time>2026-04-26T15:07:30Z</time></trkpt><trkpt lat="43.34437734312725" lon="-0.452621352328758"><ele>174.60000000000002</ele><time>2026-04-26T15:07:32Z</time></trkpt><trkpt lat="43.34432255361661" lon="-0.4524973537639806"><ele>176.0</ele><time>2026-04-26T15:07:34Z</time></trkpt><trkpt lat="43.34427703753979" lon="-0.45237428588250755"><ele>176.0</ele><time>2026-04-26T15:07:36Z</time></trkpt><trkpt lat="43.344212857598116" lon="-0.45225893618984075"><ele>176.0</ele><time>2026-04-26T15:07:38Z</time></trkpt><trkpt lat="43.34415365609164" lon="-0.45213387051386356"><ele>176.0</ele><time>2026-04-26T15:07:40Z</time></trkpt><trkpt lat="43.344095918540724" lon="-0.4520027781199643"><ele>176.0</ele><time>2026-04-26T15:07:42Z</time></trkpt><trkpt lat="43.3440446377586" lon="-0.4518675899615979"><ele>176.0</ele><time>2026-04-26T15:07:44Z</time></trkpt><trkpt lat="43.3439862532175" lon="-0.4517366037962147"><ele>176.0</ele><time>2026-04-26T15:07:46Z</time></trkpt><trkpt lat="43.3439423480954" lon="-0.4515939512185731"><ele>176.0</ele><time>2026-04-26T15:07:48Z</time></trkpt><trkpt lat="43.34387817633761" lon="-0.45146413390240664"><ele>176.0</ele><time>2026-04-26T15:07:50Z</time></trkpt><trkpt lat="43.34383406196859" lon="-0.45132221177672416"><ele>176.0</ele><time>2026-04-26T15:07:52Z</time></trkpt><trkpt lat="43.343768361375204" lon="-0.4511888288680381"><ele>177.0</ele><time>2026-04-26T15:07:54Z</time></trkpt><trkpt lat="43.34371965616194" lon="-0.4510541739954094"><ele>178.0</ele><time>2026-04-26T15:07:56Z</time></trkpt><trkpt lat="43.3436562737896" lon="-0.45090861235003427"><ele>179.0</ele><time>2026-04-26T15:07:58Z</time></trkpt><trkpt lat="43.343600201661644" lon="-0.45076420476030266"><ele>180.0</ele><time>2026-04-26T15:08:00Z</time></trkpt><trkpt lat="43.34351874243081" lon="-0.4506314090844431"><ele>180.0</ele><time>2026-04-26T15:08:02Z</time></trkpt><trkpt lat="43.3434853248305" lon="-0.4505570606450125"><ele>180.0</ele><time>2026-04-26T15:08:03Z</time></trkpt><trkpt lat="43.343456082625245" lon="-0.45047968781016784"><ele>180.0</ele><time>2026-04-26T15:08:04Z</time></trkpt><trkpt lat="43.34342151363123" lon="-0.4504046311666871"><ele>180.0</ele><time>2026-04-26T15:08:05Z</time></trkpt><trkpt lat="43.34338446930287" lon="-0.4503328719623759"><ele>180.0</ele><time>2026-04-26T15:08:06Z</time></trkpt><trkpt lat="43.34335186614301" lon="-0.4502584220857312"><ele>180.0</ele><time>2026-04-26T15:08:07Z</time></trkpt><trkpt lat="43.34331879184509" lon="-0.4501796627346324"><ele>180.0</ele><time>2026-04-26T15:08:08Z</time></trkpt><trkpt lat="43.34329359734713" lon="-0.4500988975889579"><ele>180.0</ele><time>2026-04-26T15:08:09Z</time></trkpt><trkpt lat="43.34326351464571" lon="-0.45001773704371295"><ele>180.28571428571428</ele><time>2026-04-26T15:08:10Z</time></trkpt><trkpt lat="43.34323285269918" lon="-0.44993978149752384"><ele>180.57142857142858</ele><time>2026-04-26T15:08:11Z</time></trkpt><trkpt lat="43.34318990844447" lon="-0.449862889493575"><ele>180.85714285714286</ele><time>2026-04-26T15:08:12Z</time></trkpt><trkpt lat="43.343154203153134" lon="-0.44978778694752747"><ele>181.14285714285714</ele><time>2026-04-26T15:08:13Z</time></trkpt><trkpt lat="43.34311798413847" lon="-0.4497075480805663"><ele>181.42857142857144</ele><time>2026-04-26T15:08:14Z</time></trkpt><trkpt lat="43.34308180774837" lon="-0.4496260677441185"><ele>181.71428571428572</ele><time>2026-04-26T15:08:15Z</time></trkpt><trkpt lat="43.343041552774835" lon="-0.4495453380203576"><ele>182.0</ele><time>2026-04-26T15:08:16Z</time></trkpt><trkpt lat="43.343005276631956" lon="-0.44946438424292096"><ele>182.0</ele><time>2026-04-26T15:08:17Z</time></trkpt><trkpt lat="43.34296379461828" lon="-0.4493854537397213"><ele>182.0</ele><time>2026-04-26T15:08:18Z</time></trkpt><trkpt lat="43.34292477495263" lon="-0.44930628182364235"><ele>182.0</ele><time>2026-04-26T15:08:19Z</time></trkpt><trkpt lat="43.34288771194766" lon="-0.44922418572513473"><ele>182.0</ele><time>2026-04-26T15:08:20Z</time></trkpt><trkpt lat="43.34285036619414" lon="-0.4491432733889484"><ele>182.0</ele><time>2026-04-26T15:08:21Z</time></trkpt><trkpt lat="43.34280845297228" lon="-0.4490653291520043"><ele>182.0</ele><time>2026-04-26T15:08:22Z</time></trkpt><trkpt lat="43.34277880262082" lon="-0.44898527194683713"><ele>182.0</ele><time>2026-04-26T15:08:23Z</time></trkpt><trkpt lat="43.34274585385423" lon="-0.44890555697763657"><ele>182.0</ele><time>2026-04-26T15:08:24Z</time></trkpt><trkpt lat="43.3427062743025" lon="-0.4488307641407188"><ele>182.0</ele><time>2026-04-26T15:08:25Z</time></trkpt><trkpt lat="43.34266932986885" lon="-0.44875238614015395"><ele>182.0</ele><time>2026-04-26T15:08:26Z</time></trkpt><trkpt lat="43.34263344598632" lon="-0.44867008454348684"><ele>182.0</ele><time>2026-04-26T15:08:27Z</time></trkpt><trkpt lat="43.342595040066826" lon="-0.44859728852277775"><ele>182.0</ele><time>2026-04-26T15:08:28Z</time></trkpt><trkpt lat="43.34255741340853" lon="-0.448521701681492"><ele>182.0</ele><time>2026-04-26T15:08:29Z</time></trkpt><trkpt lat="43.342520602101764" lon="-0.44844459050600444"><ele>182.0</ele><time>2026-04-26T15:08:30Z</time></trkpt><trkpt lat="43.34248406189649" lon="-0.4483663415661349"><ele>181.71428571428572</ele><time>2026-04-26T15:08:31Z</time></trkpt><trkpt lat="43.342448131452365" lon="-0.4482883189124186"><ele>181.42857142857144</ele><time>2026-04-26T15:08:32Z</time></trkpt><trkpt lat="43.34241383925264" lon="-0.4482107454128714"><ele>181.14285714285714</ele><time>2026-04-26T15:08:33Z</time></trkpt><trkpt lat="43.34238583130782" lon="-0.44813314391501174"><ele>180.85714285714286</ele><time>2026-04-26T15:08:34Z</time></trkpt><trkpt lat="43.342353399992675" lon="-0.4480533468959555"><ele>180.57142857142858</ele><time>2026-04-26T15:08:35Z</time></trkpt><trkpt lat="43.34232008478697" lon="-0.44797862017950585"><ele>180.28571428571428</ele><time>2026-04-26T15:08:36Z</time></trkpt><trkpt lat="43.34229630720729" lon="-0.44789840548319204"><ele>180.0</ele><time>2026-04-26T15:08:37Z</time></trkpt><trkpt lat="43.34225495542824" lon="-0.4478245320574279"><ele>179.66666666666666</ele><time>2026-04-26T15:08:38Z</time></trkpt><trkpt lat="43.342187168835025" lon="-0.44767577281589294"><ele>179.33333333333334</ele><time>2026-04-26T15:08:40Z</time></trkpt><trkpt lat="43.34215328235544" lon="-0.4476024551188216"><ele>179.0</ele><time>2026-04-26T15:08:41Z</time></trkpt><trkpt lat="43.34212182937863" lon="-0.4475205075554013"><ele>178.66666666666669</ele><time>2026-04-26T15:08:42Z</time></trkpt><trkpt lat="43.342083429306406" lon="-0.4474444794131624"><ele>178.33333333333334</ele><time>2026-04-26T15:08:43Z</time></trkpt><trkpt lat="43.34205067510049" lon="-0.44736901553414593"><ele>178.0</ele><time>2026-04-26T15:08:44Z</time></trkpt><trkpt lat="43.34201913237234" lon="-0.44729135769806017"><ele>177.99999999999997</ele><time>2026-04-26T15:08:45Z</time></trkpt><trkpt lat="43.34198928388149" lon="-0.44721072378046395"><ele>178.0</ele><time>2026-04-26T15:08:46Z</time></trkpt><trkpt lat="43.34195490631995" lon="-0.44713338746016185"><ele>178.0</ele><time>2026-04-26T15:08:47Z</time></trkpt><trkpt lat="43.34191788728005" lon="-0.4470600097504573"><ele>178.0</ele><time>2026-04-26T15:08:48Z</time></trkpt><trkpt lat="43.341880685151644" lon="-0.4469873054983475"><ele>178.0</ele><time>2026-04-26T15:08:49Z</time></trkpt><trkpt lat="43.34184688641769" lon="-0.4469137898751126"><ele>177.99999999999997</ele><time>2026-04-26T15:08:50Z</time></trkpt><trkpt lat="43.34181598979398" lon="-0.44683832986299754"><ele>178.0</ele><time>2026-04-26T15:08:51Z</time></trkpt><trkpt lat="43.341783010570474" lon="-0.446763601912132"><ele>178.16666666666669</ele><time>2026-04-26T15:08:52Z</time></trkpt><trkpt lat="43.34171575463277" lon="-0.4466147935738224"><ele>178.33333333333334</ele><time>2026-04-26T15:08:54Z</time></trkpt><trkpt lat="43.3416819436484" lon="-0.4465365975858541"><ele>178.5</ele><time>2026-04-26T15:08:55Z</time></trkpt><trkpt lat="43.34165297960499" lon="-0.4464539151643857"><ele>178.66666666666666</ele><time>2026-04-26T15:08:56Z</time></trkpt><trkpt lat="43.341619742737564" lon="-0.44637520533134806"><ele>178.83333333333331</ele><time>2026-04-26T15:08:57Z</time></trkpt><trkpt lat="43.341584264460366" lon="-0.4462980345272533"><ele>179.0</ele><time>2026-04-26T15:08:58Z</time></trkpt><trkpt lat="43.34154721184408" lon="-0.4462176060768301"><ele>179.14285714285717</ele><time>2026-04-26T15:08:59Z</time></trkpt><trkpt lat="43.34151548210864" lon="-0.44613416744164186"><ele>179.28571428571428</ele><time>2026-04-26T15:09:00Z</time></trkpt><trkpt lat="43.34148120804109" lon="-0.44605435592326537"><ele>179.42857142857144</ele><time>2026-04-26T15:09:01Z</time></trkpt><trkpt lat="43.34145190077535" lon="-0.4459713279784421"><ele>179.57142857142858</ele><time>2026-04-26T15:09:02Z</time></trkpt><trkpt lat="43.34141684038637" lon="-0.44588791916861226"><ele>179.71428571428572</ele><time>2026-04-26T15:09:03Z</time></trkpt><trkpt lat="43.34138407130453" lon="-0.4458092885545801"><ele>179.85714285714286</ele><time>2026-04-26T15:09:04Z</time></trkpt><trkpt lat="43.341350082591376" lon="-0.4457322665598252"><ele>180.0</ele><time>2026-04-26T15:09:05Z</time></trkpt><trkpt lat="43.341314385682" lon="-0.44565854207766725"><ele>180.0</ele><time>2026-04-26T15:09:06Z</time></trkpt><trkpt lat="43.341277859805935" lon="-0.4455816938532213"><ele>180.0</ele><time>2026-04-26T15:09:07Z</time></trkpt><trkpt lat="43.3412443151452" lon="-0.4455038073501004"><ele>180.0</ele><time>2026-04-26T15:09:08Z</time></trkpt><trkpt lat="43.34120780352696" lon="-0.445425373300005"><ele>180.0</ele><time>2026-04-26T15:09:09Z</time></trkpt><trkpt lat="43.3411798344866" lon="-0.44534671103274015"><ele>180.0</ele><time>2026-04-26T15:09:10Z</time></trkpt><trkpt lat="43.3411533363362" lon="-0.44526177304078424"><ele>180.0</ele><time>2026-04-26T15:09:11Z</time></trkpt><trkpt lat="43.341120495658984" lon="-0.4451823809371838"><ele>180.0</ele><time>2026-04-26T15:09:12Z</time></trkpt><trkpt lat="43.341081705991435" lon="-0.44510812951618683"><ele>179.7142857142857</ele><time>2026-04-26T15:09:13Z</time></trkpt><trkpt lat="43.34104719848638" lon="-0.4450317555436712"><ele>179.42857142857144</ele><time>2026-04-26T15:09:14Z</time></trkpt><trkpt lat="43.34101220252886" lon="-0.4449565970684172"><ele>179.14285714285714</ele><time>2026-04-26T15:09:15Z</time></trkpt><trkpt lat="43.34098055012821" lon="-0.44487798850472837"><ele>178.85714285714283</ele><time>2026-04-26T15:09:16Z</time></trkpt><trkpt lat="43.340945433115735" lon="-0.4448024665882357"><ele>178.57142857142856</ele><time>2026-04-26T15:09:17Z</time></trkpt><trkpt lat="43.34090781964373" lon="-0.4447292224335932"><ele>178.28571428571428</ele><time>2026-04-26T15:09:18Z</time></trkpt><trkpt lat="43.34086978363264" lon="-0.4446516807203193"><ele>178.0</ele><time>2026-04-26T15:09:19Z</time></trkpt><trkpt lat="43.34083652361144" lon="-0.44457813935105006"><ele>177.99999999999997</ele><time>2026-04-26T15:09:20Z</time></trkpt><trkpt lat="43.34079711338352" lon="-0.4445077193643935"><ele>178.0</ele><time>2026-04-26T15:09:21Z</time></trkpt><trkpt lat="43.34075137222421" lon="-0.444436647679837"><ele>178.0</ele><time>2026-04-26T15:09:22Z</time></trkpt><trkpt lat="43.34071674334673" lon="-0.4443605243471335"><ele>178.0</ele><time>2026-04-26T15:09:23Z</time></trkpt><trkpt lat="43.34068081921112" lon="-0.4442846857063845"><ele>178.0</ele><time>2026-04-26T15:09:24Z</time></trkpt><trkpt lat="43.34063753169703" lon="-0.44421017982060107"><ele>177.99999999999997</ele><time>2026-04-26T15:09:25Z</time></trkpt><trkpt lat="43.340597495842616" lon="-0.44414094602596427"><ele>178.0</ele><time>2026-04-26T15:09:26Z</time></trkpt><trkpt lat="43.34055508241091" lon="-0.4440721666141618"><ele>178.0</ele><time>2026-04-26T15:09:27Z</time></trkpt><trkpt lat="43.340512527064895" lon="-0.44399666430245954"><ele>178.0</ele><time>2026-04-26T15:09:28Z</time></trkpt><trkpt lat="43.34042477837113" lon="-0.44386975598173206"><ele>178.0</ele><time>2026-04-26T15:09:30Z</time></trkpt><trkpt lat="43.34037599508593" lon="-0.4438038399929357"><ele>178.0</ele><time>2026-04-26T15:09:31Z</time></trkpt><trkpt lat="43.34033310937523" lon="-0.443739083460043"><ele>178.0</ele><time>2026-04-26T15:09:32Z</time></trkpt><trkpt lat="43.340286715166734" lon="-0.44367681803570025"><ele>178.0</ele><time>2026-04-26T15:09:33Z</time></trkpt><trkpt lat="43.340241461870974" lon="-0.44361439711154205"><ele>178.0</ele><time>2026-04-26T15:09:34Z</time></trkpt><trkpt lat="43.34015132111407" lon="-0.44349615048742935"><ele>178.0</ele><time>2026-04-26T15:09:36Z</time></trkpt><trkpt lat="43.34006887308946" lon="-0.4433777048789202"><ele>178.0</ele><time>2026-04-26T15:09:38Z</time></trkpt><trkpt lat="43.34001981610133" lon="-0.44331834308254325"><ele>178.0</ele><time>2026-04-26T15:09:39Z</time></trkpt><trkpt lat="43.3399424934729" lon="-0.4431935980073678"><ele>178.0</ele><time>2026-04-26T15:09:41Z</time></trkpt><trkpt lat="43.33985821241894" lon="-0.4430743835503272"><ele>178.0</ele><time>2026-04-26T15:09:43Z</time></trkpt><trkpt lat="43.339813436759016" lon="-0.4430117820082327"><ele>178.0</ele><time>2026-04-26T15:09:44Z</time></trkpt><trkpt lat="43.33977098663562" lon="-0.44294537187934363"><ele>178.0</ele><time>2026-04-26T15:09:45Z</time></trkpt><trkpt lat="43.33972892842254" lon="-0.4428806009534357"><ele>178.0</ele><time>2026-04-26T15:09:46Z</time></trkpt><trkpt lat="43.3396512108241" lon="-0.4427523720728547"><ele>178.0</ele><time>2026-04-26T15:09:48Z</time></trkpt><trkpt lat="43.33957170095856" lon="-0.4426258874261924"><ele>178.0</ele><time>2026-04-26T15:09:50Z</time></trkpt><trkpt lat="43.339488064877855" lon="-0.4425066275287221"><ele>178.60000000000002</ele><time>2026-04-26T15:09:52Z</time></trkpt><trkpt lat="43.33940869613521" lon="-0.4423829623000525"><ele>179.20000000000002</ele><time>2026-04-26T15:09:54Z</time></trkpt><trkpt lat="43.33933120538135" lon="-0.44226199499912217"><ele>179.8</ele><time>2026-04-26T15:09:56Z</time></trkpt><trkpt lat="43.33926102619549" lon="-0.44212473332018964"><ele>180.4</ele><time>2026-04-26T15:09:58Z</time></trkpt><trkpt lat="43.33920876076229" lon="-0.4420604904845239"><ele>181.0</ele><time>2026-04-26T15:09:59Z</time></trkpt><trkpt lat="43.33916466660864" lon="-0.4419950846587478"><ele>181.0</ele><time>2026-04-26T15:10:00Z</time></trkpt><trkpt lat="43.33908462933435" lon="-0.4418551815186089"><ele>181.0</ele><time>2026-04-26T15:10:02Z</time></trkpt><trkpt lat="43.33903836687017" lon="-0.4417867454379314"><ele>181.0</ele><time>2026-04-26T15:10:03Z</time></trkpt><trkpt lat="43.338996237104396" lon="-0.4417173732940133"><ele>181.0</ele><time>2026-04-26T15:10:04Z</time></trkpt><trkpt lat="43.338961210865165" lon="-0.44164474231572404"><ele>181.0</ele><time>2026-04-26T15:10:05Z</time></trkpt><trkpt lat="43.33891547267903" lon="-0.44157397920528185"><ele>181.0</ele><time>2026-04-26T15:10:06Z</time></trkpt><trkpt lat="43.33887273543533" lon="-0.44150165419422305"><ele>181.0</ele><time>2026-04-26T15:10:07Z</time></trkpt><trkpt lat="43.33883126625888" lon="-0.4414293695199231"><ele>181.0</ele><time>2026-04-26T15:10:08Z</time></trkpt><trkpt lat="43.33879365532844" lon="-0.4413535106764645"><ele>181.0</ele><time>2026-04-26T15:10:09Z</time></trkpt><trkpt lat="43.33876152793216" lon="-0.4412762533416507"><ele>181.0</ele><time>2026-04-26T15:10:10Z</time></trkpt><trkpt lat="43.338723469285235" lon="-0.4412004304638586"><ele>181.0</ele><time>2026-04-26T15:10:11Z</time></trkpt><trkpt lat="43.338686380672094" lon="-0.4411259941510133"><ele>181.0</ele><time>2026-04-26T15:10:12Z</time></trkpt><trkpt lat="43.338648638427884" lon="-0.441050737230644"><ele>181.0</ele><time>2026-04-26T15:10:13Z</time></trkpt><trkpt lat="43.338606875592404" lon="-0.44097524128213433"><ele>181.0</ele><time>2026-04-26T15:10:14Z</time></trkpt><trkpt lat="43.338567052501254" lon="-0.4408975777975967"><ele>181.0</ele><time>2026-04-26T15:10:15Z</time></trkpt><trkpt lat="43.338528312589375" lon="-0.44082104802014915"><ele>181.0</ele><time>2026-04-26T15:10:16Z</time></trkpt><trkpt lat="43.33848810004346" lon="-0.44074448952609463"><ele>181.0</ele><time>2026-04-26T15:10:17Z</time></trkpt><trkpt lat="43.33844675683492" lon="-0.44066950073834293"><ele>181.0</ele><time>2026-04-26T15:10:18Z</time></trkpt><trkpt lat="43.33840363784326" lon="-0.44059736291574403"><ele>181.0</ele><time>2026-04-26T15:10:19Z</time></trkpt><trkpt lat="43.338361278954714" lon="-0.4405209209605052"><ele>181.0</ele><time>2026-04-26T15:10:20Z</time></trkpt><trkpt lat="43.338322206205866" lon="-0.4404451218797033"><ele>181.0</ele><time>2026-04-26T15:10:21Z</time></trkpt><trkpt lat="43.338241364993216" lon="-0.4403047489384673"><ele>181.0</ele><time>2026-04-26T15:10:23Z</time></trkpt><trkpt lat="43.33820249138097" lon="-0.4402313744287401"><ele>181.0</ele><time>2026-04-26T15:10:24Z</time></trkpt><trkpt lat="43.33815982544291" lon="-0.44015719625384675"><ele>181.0</ele><time>2026-04-26T15:10:25Z</time></trkpt><trkpt lat="43.33812033768008" lon="-0.44008234725393297"><ele>181.0</ele><time>2026-04-26T15:10:26Z</time></trkpt><trkpt lat="43.33808736688196" lon="-0.44000498327489135"><ele>181.0</ele><time>2026-04-26T15:10:27Z</time></trkpt><trkpt lat="43.33800986914958" lon="-0.4398681127941033"><ele>181.0</ele><time>2026-04-26T15:10:29Z</time></trkpt><trkpt lat="43.337965826145165" lon="-0.43979766724927843"><ele>181.0</ele><time>2026-04-26T15:10:30Z</time></trkpt><trkpt lat="43.33792897801297" lon="-0.4397264881902306"><ele>181.0</ele><time>2026-04-26T15:10:31Z</time></trkpt><trkpt lat="43.33786094510029" lon="-0.43958321301263614"><ele>181.0</ele><time>2026-04-26T15:10:33Z</time></trkpt><trkpt lat="43.33779266214065" lon="-0.43945650860822644"><ele>181.0</ele><time>2026-04-26T15:10:35Z</time></trkpt><trkpt lat="43.33772706320532" lon="-0.439331012297131"><ele>181.0</ele><time>2026-04-26T15:10:37Z</time></trkpt><trkpt lat="43.33765675764017" lon="-0.439192684687707"><ele>181.0</ele><time>2026-04-26T15:10:39Z</time></trkpt><trkpt lat="43.33758372514044" lon="-0.43905078783379187"><ele>181.0</ele><time>2026-04-26T15:10:41Z</time></trkpt><trkpt lat="43.33751056481675" lon="-0.43891159962463105"><ele>181.0</ele><time>2026-04-26T15:10:43Z</time></trkpt><trkpt lat="43.3374491281436" lon="-0.43876038339019574"><ele>181.16666666666669</ele><time>2026-04-26T15:10:45Z</time></trkpt><trkpt lat="43.33741308245688" lon="-0.43868912284085226"><ele>181.33333333333334</ele><time>2026-04-26T15:10:46Z</time></trkpt><trkpt lat="43.33734037249442" lon="-0.43853899806992597"><ele>181.5</ele><time>2026-04-26T15:10:48Z</time></trkpt><trkpt lat="43.337302708638894" lon="-0.4384601569501201"><ele>181.66666666666666</ele><time>2026-04-26T15:10:49Z</time></trkpt><trkpt lat="43.33725927815913" lon="-0.4383834788457144"><ele>181.83333333333331</ele><time>2026-04-26T15:10:50Z</time></trkpt><trkpt lat="43.33722013590594" lon="-0.43830559429556903"><ele>182.0</ele><time>2026-04-26T15:10:51Z</time></trkpt><trkpt lat="43.33717998650333" lon="-0.4382312961412874"><ele>182.0</ele><time>2026-04-26T15:10:52Z</time></trkpt><trkpt lat="43.33714109394632" lon="-0.4381561206910717"><ele>182.0</ele><time>2026-04-26T15:10:53Z</time></trkpt><trkpt lat="43.337104872989954" lon="-0.43808403499821524"><ele>182.0</ele><time>2026-04-26T15:10:54Z</time></trkpt><trkpt lat="43.33706874337656" lon="-0.4380102106071323"><ele>182.0</ele><time>2026-04-26T15:10:55Z</time></trkpt><trkpt lat="43.33703067137321" lon="-0.43793984968827243"><ele>182.0</ele><time>2026-04-26T15:10:56Z</time></trkpt><trkpt lat="43.33699250791272" lon="-0.4378694725373456"><ele>182.0</ele><time>2026-04-26T15:10:57Z</time></trkpt><trkpt lat="43.33691016238391" lon="-0.43774402090586045"><ele>182.0</ele><time>2026-04-26T15:10:59Z</time></trkpt><trkpt lat="43.33680266235577" lon="-0.4377251897316594"><ele>182.0</ele><time>2026-04-26T15:11:01Z</time></trkpt><trkpt lat="43.33673048968135" lon="-0.4378446173752942"><ele>182.0</ele><time>2026-04-26T15:11:03Z</time></trkpt><trkpt lat="43.33665699872833" lon="-0.4379563793558414"><ele>182.0</ele><time>2026-04-26T15:11:05Z</time></trkpt><trkpt lat="43.33661184518768" lon="-0.43802472232584644"><ele>182.0</ele><time>2026-04-26T15:11:06Z</time></trkpt><trkpt lat="43.336566678705815" lon="-0.43808834988214324"><ele>182.0</ele><time>2026-04-26T15:11:07Z</time></trkpt><trkpt lat="43.33647236089805" lon="-0.4382094643664477"><ele>181.83333333333331</ele><time>2026-04-26T15:11:09Z</time></trkpt><trkpt lat="43.3363720372276" lon="-0.43830981606058694"><ele>181.66666666666666</ele><time>2026-04-26T15:11:11Z</time></trkpt><trkpt lat="43.33625053923504" lon="-0.43832952479937154"><ele>181.5</ele><time>2026-04-26T15:11:13Z</time></trkpt><trkpt lat="43.336186632015654" lon="-0.4382992379889774"><ele>181.33333333333334</ele><time>2026-04-26T15:11:14Z</time></trkpt><trkpt lat="43.3361386367622" lon="-0.4382367454979334"><ele>181.16666666666669</ele><time>2026-04-26T15:11:15Z</time></trkpt><trkpt lat="43.33611260497772" lon="-0.43815757703595953"><ele>181.0</ele><time>2026-04-26T15:11:16Z</time></trkpt><trkpt lat="43.336093865493915" lon="-0.4380724523083524"><ele>181.0</ele><time>2026-04-26T15:11:17Z</time></trkpt><trkpt lat="43.336065328588866" lon="-0.43799417891119996"><ele>181.0</ele><time>2026-04-26T15:11:18Z</time></trkpt><trkpt lat="43.33600433080944" lon="-0.4378497729701692"><ele>181.0</ele><time>2026-04-26T15:11:20Z</time></trkpt><trkpt lat="43.33596804837903" lon="-0.437772396145409"><ele>181.0</ele><time>2026-04-26T15:11:21Z</time></trkpt><trkpt lat="43.3359107381276" lon="-0.4376313939819496"><ele>181.0</ele><time>2026-04-26T15:11:23Z</time></trkpt><trkpt lat="43.33587678782902" lon="-0.43755542549566084"><ele>181.0</ele><time>2026-04-26T15:11:24Z</time></trkpt><trkpt lat="43.335846576680645" lon="-0.43747749703470945"><ele>181.0</ele><time>2026-04-26T15:11:25Z</time></trkpt><trkpt lat="43.335795024038426" lon="-0.4373232847209299"><ele>181.0</ele><time>2026-04-26T15:11:27Z</time></trkpt><trkpt lat="43.335762113701016" lon="-0.4372479211582601"><ele>181.0</ele><time>2026-04-26T15:11:28Z</time></trkpt><trkpt lat="43.335727116113894" lon="-0.4371736937557561"><ele>181.0</ele><time>2026-04-26T15:11:29Z</time></trkpt><trkpt lat="43.33566299994266" lon="-0.4370276409407951"><ele>181.0</ele><time>2026-04-26T15:11:31Z</time></trkpt><trkpt lat="43.3356317349577" lon="-0.4369506190413311"><ele>181.0</ele><time>2026-04-26T15:11:32Z</time></trkpt><trkpt lat="43.33556117832645" lon="-0.43681323253683113"><ele>181.0</ele><time>2026-04-26T15:11:34Z</time></trkpt><trkpt lat="43.33548380466787" lon="-0.4366784186739546"><ele>181.0</ele><time>2026-04-26T15:11:36Z</time></trkpt><trkpt lat="43.33539987996451" lon="-0.43654404926806173"><ele>181.0</ele><time>2026-04-26T15:11:38Z</time></trkpt><trkpt lat="43.33535433011323" lon="-0.4364732978442953"><ele>181.0</ele><time>2026-04-26T15:11:39Z</time></trkpt><trkpt lat="43.335312074372126" lon="-0.43640477508884196"><ele>181.0</ele><time>2026-04-26T15:11:40Z</time></trkpt><trkpt lat="43.335223568156685" lon="-0.43630205523173965"><ele>181.0</ele><time>2026-04-26T15:11:42Z</time></trkpt><trkpt lat="43.335165085341" lon="-0.4362418081282539"><ele>181.0</ele><time>2026-04-26T15:11:44Z</time></trkpt><trkpt lat="43.335047484545456" lon="-0.4362616904315687"><ele>181.0</ele><time>2026-04-26T15:12:32Z</time></trkpt><trkpt lat="43.3349679027476" lon="-0.43631428733255606"><ele>181.0</ele><time>2026-04-26T15:12:34Z</time></trkpt><trkpt lat="43.33492658750726" lon="-0.43638208549998697"><ele>181.0</ele><time>2026-04-26T15:12:35Z</time></trkpt><trkpt lat="43.334877050879946" lon="-0.4364358732643101"><ele>181.0</ele><time>2026-04-26T15:12:36Z</time></trkpt><trkpt lat="43.334814181820526" lon="-0.43648526738921656"><ele>180.66666666666669</ele><time>2026-04-26T15:12:37Z</time></trkpt><trkpt lat="43.33474824984412" lon="-0.4365167357113462"><ele>180.33333333333334</ele><time>2026-04-26T15:12:38Z</time></trkpt><trkpt lat="43.334676535375834" lon="-0.436555462615821"><ele>180.0</ele><time>2026-04-26T15:12:39Z</time></trkpt><trkpt lat="43.33460155631316" lon="-0.43660785448541223"><ele>179.66666666666666</ele><time>2026-04-26T15:12:40Z</time></trkpt><trkpt lat="43.33452169739578" lon="-0.4366551147417469"><ele>179.33333333333331</ele><time>2026-04-26T15:12:41Z</time></trkpt><trkpt lat="43.334438856468815" lon="-0.43670433599174097"><ele>179.0</ele><time>2026-04-26T15:12:42Z</time></trkpt><trkpt lat="43.3343507385074" lon="-0.43674709287887475"><ele>178.16666666666666</ele><time>2026-04-26T15:12:43Z</time></trkpt><trkpt lat="43.33426154276226" lon="-0.4367830401099282"><ele>177.33333333333331</ele><time>2026-04-26T15:12:44Z</time></trkpt><trkpt lat="43.33417695427066" lon="-0.43680861896880613"><ele>176.5</ele><time>2026-04-26T15:12:45Z</time></trkpt><trkpt lat="43.3340961112898" lon="-0.43683536810469925"><ele>175.66666666666666</ele><time>2026-04-26T15:12:46Z</time></trkpt><trkpt lat="43.33401045349199" lon="-0.4368583960688632"><ele>174.83333333333334</ele><time>2026-04-26T15:12:47Z</time></trkpt><trkpt lat="43.33394029673282" lon="-0.4368839692870135"><ele>174.0</ele><time>2026-04-26T15:12:48Z</time></trkpt><trkpt lat="43.333870373178684" lon="-0.4369103747936397"><ele>172.33333333333334</ele><time>2026-04-26T15:12:49Z</time></trkpt><trkpt lat="43.33376995944504" lon="-0.4369548799214285"><ele>170.66666666666666</ele><time>2026-04-26T15:12:50Z</time></trkpt><trkpt lat="43.333664606258765" lon="-0.4370006261688973"><ele>169.0</ele><time>2026-04-26T15:12:52Z</time></trkpt><trkpt lat="43.33359451487543" lon="-0.4370331485179179"><ele>167.33333333333331</ele><time>2026-04-26T15:12:53Z</time></trkpt><trkpt lat="43.33351728455201" lon="-0.43706354645572837"><ele>165.66666666666666</ele><time>2026-04-26T15:12:54Z</time></trkpt><trkpt lat="43.33344323312264" lon="-0.4370973459683897"><ele>164.0</ele><time>2026-04-26T15:12:55Z</time></trkpt><trkpt lat="43.333377108460674" lon="-0.43714850672369643"><ele>163.83333333333331</ele><time>2026-04-26T15:12:56Z</time></trkpt><trkpt lat="43.333306165648864" lon="-0.43719186361390355"><ele>163.66666666666666</ele><time>2026-04-26T15:12:57Z</time></trkpt><trkpt lat="43.333245562598" lon="-0.43724168692080445"><ele>163.5</ele><time>2026-04-26T15:12:58Z</time></trkpt><trkpt lat="43.33318204790887" lon="-0.4373012180523806"><ele>163.33333333333334</ele><time>2026-04-26T15:12:59Z</time></trkpt><trkpt lat="43.33311703429187" lon="-0.43735551443382975"><ele>163.16666666666669</ele><time>2026-04-26T15:13:00Z</time></trkpt><trkpt lat="43.33305796994352" lon="-0.4374024370964259"><ele>163.0</ele><time>2026-04-26T15:13:01Z</time></trkpt><trkpt lat="43.332956011997915" lon="-0.437485938433138"><ele>162.60000000000002</ele><time>2026-04-26T15:13:03Z</time></trkpt><trkpt lat="43.33287148796641" lon="-0.4375264932997533"><ele>162.20000000000002</ele><time>2026-04-26T15:13:05Z</time></trkpt><trkpt lat="43.332807027301456" lon="-0.4374689505017357"><ele>161.8</ele><time>2026-04-26T15:13:07Z</time></trkpt><trkpt lat="43.33274208752528" lon="-0.4373613403135045"><ele>161.4</ele><time>2026-04-26T15:13:09Z</time></trkpt><trkpt lat="43.33269086015512" lon="-0.4372492201834104"><ele>161.0</ele><time>2026-04-26T15:13:11Z</time></trkpt><trkpt lat="43.332621341400404" lon="-0.4371244237945779"><ele>161.0</ele><time>2026-04-26T15:13:13Z</time></trkpt><trkpt lat="43.332609923759854" lon="-0.4370386287546192"><ele>161.0</ele><time>2026-04-26T15:13:14Z</time></trkpt><trkpt lat="43.33256160705297" lon="-0.43688967675043416"><ele>161.0</ele><time>2026-04-26T15:13:16Z</time></trkpt><trkpt lat="43.332507249136505" lon="-0.43676015955208625"><ele>161.0</ele><time>2026-04-26T15:13:18Z</time></trkpt><trkpt lat="43.33243028241081" lon="-0.43663047360091933"><ele>161.0</ele><time>2026-04-26T15:13:20Z</time></trkpt><trkpt lat="43.33235027411329" lon="-0.43651609943357206"><ele>161.0</ele><time>2026-04-26T15:13:22Z</time></trkpt><trkpt lat="43.332293368377606" lon="-0.4364093122866188"><ele>161.0</ele><time>2026-04-26T15:13:24Z</time></trkpt><trkpt lat="43.33224210197602" lon="-0.4363138377514872"><ele>161.0</ele><time>2026-04-26T15:13:26Z</time></trkpt><trkpt lat="43.332213000615674" lon="-0.4362248789846087"><ele>161.0</ele><time>2026-04-26T15:13:34Z</time></trkpt><trkpt lat="43.332166950277845" lon="-0.4361309928957695"><ele>161.0</ele><time>2026-04-26T15:13:37Z</time></trkpt><trkpt lat="43.33211281741083" lon="-0.43605884795008554"><ele>161.0</ele><time>2026-04-26T15:13:39Z</time></trkpt><trkpt lat="43.3320262120206" lon="-0.43591767451680974"><ele>160.5</ele><time>2026-04-26T15:13:41Z</time></trkpt><trkpt lat="43.33194987859161" lon="-0.43579957459834107"><ele>160.0</ele><time>2026-04-26T15:13:43Z</time></trkpt><trkpt lat="43.3318629579268" lon="-0.43568360311286675"><ele>159.5</ele><time>2026-04-26T15:13:45Z</time></trkpt><trkpt lat="43.33175759417728" lon="-0.43562674377933014"><ele>159.0</ele><time>2026-04-26T15:13:47Z</time></trkpt><trkpt lat="43.33161725102378" lon="-0.4356271256813348"><ele>159.0</ele><time>2026-04-26T15:13:49Z</time></trkpt><trkpt lat="43.33154543940236" lon="-0.43562256623171686"><ele>159.0</ele><time>2026-04-26T15:13:50Z</time></trkpt><trkpt lat="43.33147404051884" lon="-0.4356215994453394"><ele>159.0</ele><time>2026-04-26T15:13:51Z</time></trkpt><trkpt lat="43.331409609768905" lon="-0.4356074406927961"><ele>159.0</ele><time>2026-04-26T15:13:52Z</time></trkpt><trkpt lat="43.33133578848441" lon="-0.4356084118442737"><ele>159.0</ele><time>2026-04-26T15:13:53Z</time></trkpt><trkpt lat="43.331266533725326" lon="-0.4356142268414878"><ele>159.0</ele><time>2026-04-26T15:13:54Z</time></trkpt><trkpt lat="43.33113061348314" lon="-0.43562988555297316"><ele>158.5</ele><time>2026-04-26T15:13:56Z</time></trkpt><trkpt lat="43.33105999934985" lon="-0.43564263165683254"><ele>158.0</ele><time>2026-04-26T15:13:57Z</time></trkpt><trkpt lat="43.33099421541935" lon="-0.43565834251089836"><ele>157.5</ele><time>2026-04-26T15:13:58Z</time></trkpt><trkpt lat="43.33092646035519" lon="-0.43568351808477684"><ele>157.0</ele><time>2026-04-26T15:13:59Z</time></trkpt><trkpt lat="43.33080697617605" lon="-0.4357291163481719"><ele>156.5</ele><time>2026-04-26T15:14:01Z</time></trkpt><trkpt lat="43.330704540919754" lon="-0.43578212681353246"><ele>156.0</ele><time>2026-04-26T15:14:03Z</time></trkpt><trkpt lat="43.330634161061404" lon="-0.4358206776102298"><ele>155.8</ele><time>2026-04-26T15:14:05Z</time></trkpt><trkpt lat="43.33054866892223" lon="-0.4358242183159768"><ele>155.6</ele><time>2026-04-26T15:14:08Z</time></trkpt><trkpt lat="43.33053174246044" lon="-0.4357121513294637"><ele>155.4</ele><time>2026-04-26T15:14:10Z</time></trkpt><trkpt lat="43.33054445858781" lon="-0.4355538610667278"><ele>155.2</ele><time>2026-04-26T15:14:12Z</time></trkpt><trkpt lat="43.33054562243028" lon="-0.4354075568339084"><ele>155.0</ele><time>2026-04-26T15:14:14Z</time></trkpt><trkpt lat="43.33055073711225" lon="-0.43524236987420645"><ele>154.83333333333331</ele><time>2026-04-26T15:14:16Z</time></trkpt><trkpt lat="43.330552065590474" lon="-0.435079956974956"><ele>154.66666666666666</ele><time>2026-04-26T15:14:18Z</time></trkpt><trkpt lat="43.33056003843788" lon="-0.4349938694728668"><ele>154.5</ele><time>2026-04-26T15:14:19Z</time></trkpt><trkpt lat="43.33056023742825" lon="-0.43482327949792265"><ele>154.33333333333334</ele><time>2026-04-26T15:14:21Z</time></trkpt><trkpt lat="43.33056024171146" lon="-0.4347331981374169"><ele>154.16666666666669</ele><time>2026-04-26T15:14:22Z</time></trkpt><trkpt lat="43.3305583879143" lon="-0.4346454899825165"><ele>154.0</ele><time>2026-04-26T15:14:23Z</time></trkpt><trkpt lat="43.33055614416394" lon="-0.4345563595992164"><ele>154.0</ele><time>2026-04-26T15:14:24Z</time></trkpt><trkpt lat="43.33055554243128" lon="-0.4343805865219831"><ele>154.0</ele><time>2026-04-26T15:14:26Z</time></trkpt><trkpt lat="43.33055792884496" lon="-0.4342866817666511"><ele>154.0</ele><time>2026-04-26T15:14:27Z</time></trkpt><trkpt lat="43.33055757612938" lon="-0.43419192352111047"><ele>154.0</ele><time>2026-04-26T15:14:28Z</time></trkpt><trkpt lat="43.33056310054961" lon="-0.43409955118433713"><ele>154.0</ele><time>2026-04-26T15:14:29Z</time></trkpt><trkpt lat="43.33055969753813" lon="-0.43400965484937665"><ele>154.0</ele><time>2026-04-26T15:14:30Z</time></trkpt><trkpt lat="43.33055372672566" lon="-0.4339161846471849"><ele>154.0</ele><time>2026-04-26T15:14:31Z</time></trkpt><trkpt lat="43.33055612730116" lon="-0.4338245925962302"><ele>154.0</ele><time>2026-04-26T15:14:32Z</time></trkpt><trkpt lat="43.330553880861885" lon="-0.4337338660279891"><ele>154.0</ele><time>2026-04-26T15:14:33Z</time></trkpt><trkpt lat="43.33055541308442" lon="-0.4336415963513419"><ele>154.0</ele><time>2026-04-26T15:14:34Z</time></trkpt><trkpt lat="43.33055052192499" lon="-0.43354997319225896"><ele>154.0</ele><time>2026-04-26T15:14:35Z</time></trkpt><trkpt lat="43.330549197868834" lon="-0.4334632437288058"><ele>154.0</ele><time>2026-04-26T15:14:36Z</time></trkpt><trkpt lat="43.33054868835537" lon="-0.4333746902158321"><ele>154.0</ele><time>2026-04-26T15:14:37Z</time></trkpt><trkpt lat="43.330553349051016" lon="-0.43328474524816185"><ele>154.0</ele><time>2026-04-26T15:14:38Z</time></trkpt><trkpt lat="43.33055444304157" lon="-0.4331958975734494"><ele>154.0</ele><time>2026-04-26T15:14:39Z</time></trkpt><trkpt lat="43.33056892411819" lon="-0.4330273904261229"><ele>154.0</ele><time>2026-04-26T15:14:41Z</time></trkpt><trkpt lat="43.330590442541904" lon="-0.43285068388265047"><ele>154.0</ele><time>2026-04-26T15:14:43Z</time></trkpt><trkpt lat="43.33062772247471" lon="-0.4326861479912012"><ele>154.0</ele><time>2026-04-26T15:14:45Z</time></trkpt><trkpt lat="43.33065090077895" lon="-0.4326034989180274"><ele>155.0</ele><time>2026-04-26T15:14:46Z</time></trkpt><trkpt lat="43.33067220652884" lon="-0.43252168701444726"><ele>156.0</ele><time>2026-04-26T15:14:47Z</time></trkpt><trkpt lat="43.33070998590817" lon="-0.43235931713644427"><ele>157.0</ele><time>2026-04-26T15:14:49Z</time></trkpt><trkpt lat="43.33074160436955" lon="-0.4322036911056351"><ele>158.0</ele><time>2026-04-26T15:14:51Z</time></trkpt><trkpt lat="43.33078542664552" lon="-0.4320562634063144"><ele>159.0</ele><time>2026-04-26T15:14:53Z</time></trkpt><trkpt lat="43.33085992124819" lon="-0.4319411493310667"><ele>159.6</ele><time>2026-04-26T15:14:55Z</time></trkpt><trkpt lat="43.33094287562218" lon="-0.43186507119133044"><ele>160.2</ele><time>2026-04-26T15:14:57Z</time></trkpt><trkpt lat="43.33101108143543" lon="-0.43177316206613997"><ele>160.79999999999998</ele><time>2026-04-26T15:14:59Z</time></trkpt><trkpt lat="43.33102805897989" lon="-0.4316663514886146"><ele>161.4</ele><time>2026-04-26T15:15:01Z</time></trkpt><trkpt lat="43.33100751472718" lon="-0.4315046864770105"><ele>162.0</ele><time>2026-04-26T15:15:03Z</time></trkpt><trkpt lat="43.331002108915804" lon="-0.43140628698550865"><ele>162.0</ele><time>2026-04-26T15:15:04Z</time></trkpt><trkpt lat="43.33100177418397" lon="-0.4313111188917358"><ele>162.0</ele><time>2026-04-26T15:15:05Z</time></trkpt><trkpt lat="43.330974741952936" lon="-0.43114521608035566"><ele>162.0</ele><time>2026-04-26T15:15:07Z</time></trkpt><trkpt lat="43.330949088084814" lon="-0.4309757119638233"><ele>162.0</ele><time>2026-04-26T15:15:09Z</time></trkpt><trkpt lat="43.33093332058759" lon="-0.4308843594979006"><ele>162.0</ele><time>2026-04-26T15:15:10Z</time></trkpt><trkpt lat="43.330903442033566" lon="-0.4307275680725387"><ele>162.2</ele><time>2026-04-26T15:15:12Z</time></trkpt><trkpt lat="43.330871642990815" lon="-0.4305703130653158"><ele>162.39999999999998</ele><time>2026-04-26T15:15:14Z</time></trkpt><trkpt lat="43.33084340661466" lon="-0.430420225943921"><ele>162.60000000000002</ele><time>2026-04-26T15:15:16Z</time></trkpt><trkpt lat="43.33081504347221" lon="-0.4302872698251236"><ele>162.8</ele><time>2026-04-26T15:15:18Z</time></trkpt><trkpt lat="43.3307923701684" lon="-0.43015769332678605"><ele>163.0</ele><time>2026-04-26T15:15:20Z</time></trkpt><trkpt lat="43.33075113087012" lon="-0.43001898510620423"><ele>163.60000000000002</ele><time>2026-04-26T15:15:22Z</time></trkpt><trkpt lat="43.33068772747037" lon="-0.42990063708383564"><ele>164.20000000000002</ele><time>2026-04-26T15:15:24Z</time></trkpt><trkpt lat="43.33057909693849" lon="-0.42990042662318917"><ele>164.8</ele><time>2026-04-26T15:15:26Z</time></trkpt><trkpt lat="43.33045166992318" lon="-0.4299442560490417"><ele>165.4</ele><time>2026-04-26T15:15:28Z</time></trkpt><trkpt lat="43.33037977951934" lon="-0.4299540885449031"><ele>166.0</ele><time>2026-04-26T15:15:29Z</time></trkpt><trkpt lat="43.33025491945693" lon="-0.4299826345536687"><ele>165.0</ele><time>2026-04-26T15:15:31Z</time></trkpt><trkpt lat="43.330178215352994" lon="-0.4300236504274824"><ele>164.0</ele><time>2026-04-26T15:15:33Z</time></trkpt><trkpt lat="43.33010990024642" lon="-0.43004876877282133"><ele>163.0</ele><time>2026-04-26T15:15:34Z</time></trkpt><trkpt lat="43.33003532813247" lon="-0.43007608569412614"><ele>162.0</ele><time>2026-04-26T15:15:35Z</time></trkpt><trkpt lat="43.3299245465158" lon="-0.43006049895484827"><ele>161.0</ele><time>2026-04-26T15:15:37Z</time></trkpt><trkpt lat="43.3298307448331" lon="-0.43002375126811154"><ele>160.0</ele><time>2026-04-26T15:15:39Z</time></trkpt><trkpt lat="43.32974669852582" lon="-0.42997016141062977"><ele>160.0</ele><time>2026-04-26T15:15:41Z</time></trkpt><trkpt lat="43.32982124980537" lon="-0.4299830100147497"><ele>160.0</ele><time>2026-04-26T15:15:47Z</time></trkpt><trkpt lat="43.329892411979685" lon="-0.4300118466573975"><ele>160.0</ele><time>2026-04-26T15:15:49Z</time></trkpt><trkpt lat="43.32997473812151" lon="-0.43002305053145556"><ele>160.0</ele><time>2026-04-26T15:15:51Z</time></trkpt><trkpt lat="43.33006605240873" lon="-0.4300332313250423"><ele>160.0</ele><time>2026-04-26T15:15:53Z</time></trkpt><trkpt lat="43.33016663309819" lon="-0.43000018837766985"><ele>160.0</ele><time>2026-04-26T15:15:55Z</time></trkpt><trkpt lat="43.33027549485935" lon="-0.42994334735442125"><ele>160.0</ele><time>2026-04-26T15:15:57Z</time></trkpt><trkpt lat="43.33035753957338" lon="-0.4299372545146233"><ele>160.0</ele><time>2026-04-26T15:15:58Z</time></trkpt><trkpt lat="43.33048361748108" lon="-0.429918602427862"><ele>160.0</ele><time>2026-04-26T15:16:00Z</time></trkpt><trkpt lat="43.330548892730455" lon="-0.4299098906457214"><ele>160.0</ele><time>2026-04-26T15:16:01Z</time></trkpt><trkpt lat="43.330668020867" lon="-0.42990610783580185"><ele>160.0</ele><time>2026-04-26T15:16:03Z</time></trkpt><trkpt lat="43.330775772141145" lon="-0.429969129995993"><ele>160.5</ele><time>2026-04-26T15:16:05Z</time></trkpt><trkpt lat="43.33082575169486" lon="-0.43003478068276124"><ele>161.0</ele><time>2026-04-26T15:16:06Z</time></trkpt><trkpt lat="43.330863730218404" lon="-0.4301238436064923"><ele>161.5</ele><time>2026-04-26T15:16:07Z</time></trkpt><trkpt lat="43.330865462519505" lon="-0.4302497816136722"><ele>162.0</ele><time>2026-04-26T15:16:09Z</time></trkpt><trkpt lat="43.33091369704318" lon="-0.43033339390765496"><ele>162.5</ele><time>2026-04-26T15:16:10Z</time></trkpt><trkpt lat="43.330954377377196" lon="-0.430471063792087"><ele>163.0</ele><time>2026-04-26T15:16:12Z</time></trkpt><trkpt lat="43.33099160736586" lon="-0.4306127393303462"><ele>163.0</ele><time>2026-04-26T15:16:14Z</time></trkpt><trkpt lat="43.33103398619944" lon="-0.43074415272614386"><ele>163.0</ele><time>2026-04-26T15:16:16Z</time></trkpt><trkpt lat="43.33107592239988" lon="-0.4308667011484711"><ele>163.0</ele><time>2026-04-26T15:16:18Z</time></trkpt><trkpt lat="43.33111504293178" lon="-0.4309879921648814"><ele>163.0</ele><time>2026-04-26T15:16:20Z</time></trkpt><trkpt lat="43.33115269766233" lon="-0.43111399335515077"><ele>163.0</ele><time>2026-04-26T15:16:22Z</time></trkpt><trkpt lat="43.33118523516624" lon="-0.43121401796337483"><ele>162.83333333333334</ele><time>2026-04-26T15:16:24Z</time></trkpt><trkpt lat="43.331223518586235" lon="-0.43131436356208036"><ele>162.66666666666669</ele><time>2026-04-26T15:16:26Z</time></trkpt><trkpt lat="43.33125931653188" lon="-0.4314062522375607"><ele>162.5</ele><time>2026-04-26T15:16:28Z</time></trkpt><trkpt lat="43.33131412387196" lon="-0.4314568895660327"><ele>162.33333333333334</ele><time>2026-04-26T15:16:30Z</time></trkpt><trkpt lat="43.33137569027951" lon="-0.4314835483807393"><ele>162.16666666666666</ele><time>2026-04-26T15:16:32Z</time></trkpt><trkpt lat="43.33148269811239" lon="-0.43151783834509594"><ele>162.0</ele><time>2026-04-26T15:16:37Z</time></trkpt><trkpt lat="43.331553841162325" lon="-0.43149247990767803"><ele>182.0</ele><time>2026-04-26T15:16:41Z</time></trkpt><trkpt lat="43.332442259421256" lon="-0.43072170609254895"><ele>182.0</ele><time>2026-04-26T15:17:41Z</time></trkpt><trkpt lat="43.332502745071416" lon="-0.43068258226501477"><ele>182.0</ele><time>2026-04-26T15:17:44Z</time></trkpt><trkpt lat="43.33254418027589" lon="-0.4306104715273446"><ele>182.0</ele><time>2026-04-26T15:17:47Z</time></trkpt><trkpt lat="43.33263766367421" lon="-0.4305660104151621"><ele>182.0</ele><time>2026-04-26T15:17:51Z</time></trkpt><trkpt lat="43.33277045449857" lon="-0.4305649933848659"><ele>182.0</ele><time>2026-04-26T15:17:54Z</time></trkpt><trkpt lat="43.33285734983364" lon="-0.4305048210647307"><ele>182.5</ele><time>2026-04-26T15:17:56Z</time></trkpt><trkpt lat="43.3329319747069" lon="-0.43041085082151076"><ele>183.0</ele><time>2026-04-26T15:17:58Z</time></trkpt><trkpt lat="43.33296287221413" lon="-0.43027731839485095"><ele>183.5</ele><time>2026-04-26T15:18:00Z</time></trkpt><trkpt lat="43.3330048177321" lon="-0.43016412187157127"><ele>184.0</ele><time>2026-04-26T15:18:02Z</time></trkpt><trkpt lat="43.3330339121798" lon="-0.4300545298394613"><ele>184.5</ele><time>2026-04-26T15:18:04Z</time></trkpt><trkpt lat="43.333037203299135" lon="-0.42996363564318446"><ele>185.0</ele><time>2026-04-26T15:18:06Z</time></trkpt><trkpt lat="43.333041854487234" lon="-0.4298398560857763"><ele>185.0</ele><time>2026-04-26T15:18:08Z</time></trkpt><trkpt lat="43.33303420311247" lon="-0.429741226687668"><ele>185.0</ele><time>2026-04-26T15:18:10Z</time></trkpt><trkpt lat="43.333042691195104" lon="-0.42962733338962117"><ele>185.0</ele><time>2026-04-26T15:18:12Z</time></trkpt><trkpt lat="43.333039854205104" lon="-0.4295196866302961"><ele>185.0</ele><time>2026-04-26T15:18:14Z</time></trkpt><trkpt lat="43.3330030088237" lon="-0.42933581627574763"><ele>185.0</ele><time>2026-04-26T15:18:16Z</time></trkpt><trkpt lat="43.33301115467259" lon="-0.4292284164001619"><ele>185.0</ele><time>2026-04-26T15:18:18Z</time></trkpt><trkpt lat="43.33300328740447" lon="-0.4291062730203064"><ele>185.0</ele><time>2026-04-26T15:18:20Z</time></trkpt><trkpt lat="43.33300965808538" lon="-0.4289625250269685"><ele>185.0</ele><time>2026-04-26T15:18:22Z</time></trkpt><trkpt lat="43.332997202895335" lon="-0.428818513747075"><ele>185.0</ele><time>2026-04-26T15:18:24Z</time></trkpt><trkpt lat="43.332995771233065" lon="-0.4286701141585092"><ele>185.0</ele><time>2026-04-26T15:18:26Z</time></trkpt><trkpt lat="43.33299282141474" lon="-0.42851777068902686"><ele>185.25</ele><time>2026-04-26T15:18:28Z</time></trkpt><trkpt lat="43.33298354360253" lon="-0.4283616012952601"><ele>185.5</ele><time>2026-04-26T15:18:30Z</time></trkpt><trkpt lat="43.332969979442844" lon="-0.42820864567471434"><ele>185.75</ele><time>2026-04-26T15:18:32Z</time></trkpt><trkpt lat="43.332954548832376" lon="-0.4280506509337535"><ele>186.0</ele><time>2026-04-26T15:18:34Z</time></trkpt><trkpt lat="43.33294020236675" lon="-0.4278943667692244"><ele>186.0</ele><time>2026-04-26T15:18:36Z</time></trkpt><trkpt lat="43.33291942056223" lon="-0.4277423960434609"><ele>186.0</ele><time>2026-04-26T15:18:38Z</time></trkpt><trkpt lat="43.33290046557996" lon="-0.42759951712287514"><ele>186.0</ele><time>2026-04-26T15:18:40Z</time></trkpt><trkpt lat="43.332880157954015" lon="-0.42745424281869004"><ele>186.0</ele><time>2026-04-26T15:18:42Z</time></trkpt><trkpt lat="43.332866150482765" lon="-0.42730354171145196"><ele>186.0</ele><time>2026-04-26T15:18:44Z</time></trkpt><trkpt lat="43.33283719059618" lon="-0.42716959092765255"><ele>186.0</ele><time>2026-04-26T15:18:46Z</time></trkpt><trkpt lat="43.33281276280112" lon="-0.4270190417882123"><ele>186.0</ele><time>2026-04-26T15:18:48Z</time></trkpt><trkpt lat="43.332779018436625" lon="-0.4268738534992199"><ele>186.0</ele><time>2026-04-26T15:18:50Z</time></trkpt><trkpt lat="43.332763038414164" lon="-0.42671979506803354"><ele>186.0</ele><time>2026-04-26T15:18:52Z</time></trkpt><trkpt lat="43.332744957625316" lon="-0.4265608958525214"><ele>186.0</ele><time>2026-04-26T15:18:54Z</time></trkpt><trkpt lat="43.332724862919754" lon="-0.42640771172336406"><ele>186.0</ele><time>2026-04-26T15:18:56Z</time></trkpt><trkpt lat="43.332698518395546" lon="-0.426248909248012"><ele>186.0</ele><time>2026-04-26T15:18:58Z</time></trkpt><trkpt lat="43.33266913899356" lon="-0.4260993227417389"><ele>186.0</ele><time>2026-04-26T15:19:00Z</time></trkpt><trkpt lat="43.33263762413596" lon="-0.42594494494298346"><ele>186.0</ele><time>2026-04-26T15:19:02Z</time></trkpt><trkpt lat="43.33260917251402" lon="-0.4257951265580888"><ele>186.0</ele><time>2026-04-26T15:19:04Z</time></trkpt><trkpt lat="43.33258187529224" lon="-0.42563793507155884"><ele>186.0</ele><time>2026-04-26T15:19:06Z</time></trkpt><trkpt lat="43.332509266824964" lon="-0.42543764962232555"><ele>186.0</ele><time>2026-04-26T15:19:09Z</time></trkpt><trkpt lat="43.33244791084092" lon="-0.4253003245437326"><ele>186.0</ele><time>2026-04-26T15:19:11Z</time></trkpt><trkpt lat="43.3324029112333" lon="-0.4251606712965553"><ele>186.0</ele><time>2026-04-26T15:19:13Z</time></trkpt><trkpt lat="43.33237162524769" lon="-0.4250023693845637"><ele>186.0</ele><time>2026-04-26T15:19:15Z</time></trkpt><trkpt lat="43.332339847993616" lon="-0.4248410573642417"><ele>186.0</ele><time>2026-04-26T15:19:17Z</time></trkpt><trkpt lat="43.33232936575961" lon="-0.4247555138824863"><ele>186.0</ele><time>2026-04-26T15:19:18Z</time></trkpt><trkpt lat="43.332304133833716" lon="-0.4245920295202317"><ele>185.75</ele><time>2026-04-26T15:19:20Z</time></trkpt><trkpt lat="43.33228583950058" lon="-0.42442185105348496"><ele>185.5</ele><time>2026-04-26T15:19:22Z</time></trkpt><trkpt lat="43.3322602729491" lon="-0.4242616875203005"><ele>185.25</ele><time>2026-04-26T15:19:24Z</time></trkpt><trkpt lat="43.33223500665781" lon="-0.424102706307838"><ele>185.0</ele><time>2026-04-26T15:19:26Z</time></trkpt><trkpt lat="43.33220873403771" lon="-0.423943491235265"><ele>185.5</ele><time>2026-04-26T15:19:28Z</time></trkpt><trkpt lat="43.332178947734945" lon="-0.42378676055244974"><ele>186.0</ele><time>2026-04-26T15:19:30Z</time></trkpt><trkpt lat="43.33215174417774" lon="-0.42364034779045817"><ele>186.5</ele><time>2026-04-26T15:19:32Z</time></trkpt><trkpt lat="43.33211836131347" lon="-0.4234867722654247"><ele>187.0</ele><time>2026-04-26T15:19:34Z</time></trkpt><trkpt lat="43.33209149466589" lon="-0.423336350750747"><ele>187.0</ele><time>2026-04-26T15:19:36Z</time></trkpt><trkpt lat="43.33205987724092" lon="-0.4231788177979549"><ele>187.0</ele><time>2026-04-26T15:19:38Z</time></trkpt><trkpt lat="43.33203495800739" lon="-0.42302241450541933"><ele>187.0</ele><time>2026-04-26T15:19:40Z</time></trkpt><trkpt lat="43.332001720532084" lon="-0.4228602272962667"><ele>187.0</ele><time>2026-04-26T15:19:42Z</time></trkpt><trkpt lat="43.33197447434357" lon="-0.4226984266280134"><ele>187.0</ele><time>2026-04-26T15:19:44Z</time></trkpt><trkpt lat="43.33195931252617" lon="-0.4225338286451507"><ele>187.0</ele><time>2026-04-26T15:19:46Z</time></trkpt><trkpt lat="43.33195348879508" lon="-0.42236990785561745"><ele>187.0</ele><time>2026-04-26T15:19:48Z</time></trkpt><trkpt lat="43.33194727443146" lon="-0.4222092739194673"><ele>187.0</ele><time>2026-04-26T15:19:50Z</time></trkpt><trkpt lat="43.33193473776139" lon="-0.4220388615862757"><ele>186.8</ele><time>2026-04-26T15:19:52Z</time></trkpt><trkpt lat="43.33191999331413" lon="-0.4218704307751361"><ele>186.6</ele><time>2026-04-26T15:19:54Z</time></trkpt><trkpt lat="43.33191296703442" lon="-0.4216975977046042"><ele>186.4</ele><time>2026-04-26T15:19:56Z</time></trkpt><trkpt lat="43.33190815265124" lon="-0.4216098913878886"><ele>186.20000000000002</ele><time>2026-04-26T15:19:57Z</time></trkpt><trkpt lat="43.33190004306167" lon="-0.4214413903854054"><ele>186.0</ele><time>2026-04-26T15:19:59Z</time></trkpt><trkpt lat="43.33189663239909" lon="-0.4213539918407717"><ele>186.20000000000002</ele><time>2026-04-26T15:20:00Z</time></trkpt><trkpt lat="43.33189540942405" lon="-0.4212646483948213"><ele>186.4</ele><time>2026-04-26T15:20:01Z</time></trkpt><trkpt lat="43.33189089066058" lon="-0.4211668331602577"><ele>186.6</ele><time>2026-04-26T15:20:02Z</time></trkpt><trkpt lat="43.33187846529782" lon="-0.4209984421751958"><ele>186.8</ele><time>2026-04-26T15:20:04Z</time></trkpt><trkpt lat="43.33186881434388" lon="-0.42082777559623824"><ele>187.0</ele><time>2026-04-26T15:20:06Z</time></trkpt><trkpt lat="43.33185315967661" lon="-0.4206581855077282"><ele>187.0</ele><time>2026-04-26T15:20:08Z</time></trkpt><trkpt lat="43.33183995020796" lon="-0.42048717303362737"><ele>187.0</ele><time>2026-04-26T15:20:10Z</time></trkpt><trkpt lat="43.33183726497345" lon="-0.4203976194654074"><ele>187.0</ele><time>2026-04-26T15:20:11Z</time></trkpt><trkpt lat="43.331825045128504" lon="-0.42022606012639585"><ele>187.0</ele><time>2026-04-26T15:20:13Z</time></trkpt><trkpt lat="43.331813726301014" lon="-0.42005785616971136"><ele>187.0</ele><time>2026-04-26T15:20:15Z</time></trkpt><trkpt lat="43.331813906409636" lon="-0.41987928914362815"><ele>187.2</ele><time>2026-04-26T15:20:17Z</time></trkpt><trkpt lat="43.33181144577802" lon="-0.4197192562515937"><ele>187.39999999999998</ele><time>2026-04-26T15:20:19Z</time></trkpt><trkpt lat="43.331812736201734" lon="-0.4195454326595722"><ele>187.60000000000002</ele><time>2026-04-26T15:20:21Z</time></trkpt><trkpt lat="43.33181618445007" lon="-0.41945541730648406"><ele>187.8</ele><time>2026-04-26T15:20:22Z</time></trkpt><trkpt lat="43.331821957660644" lon="-0.41928269606466245"><ele>188.0</ele><time>2026-04-26T15:20:24Z</time></trkpt><trkpt lat="43.33182002057046" lon="-0.4191179438596178"><ele>188.0</ele><time>2026-04-26T15:20:26Z</time></trkpt><trkpt lat="43.33182534836909" lon="-0.4189571486641472"><ele>188.0</ele><time>2026-04-26T15:20:28Z</time></trkpt><trkpt lat="43.331834236327275" lon="-0.41879242792458793"><ele>188.0</ele><time>2026-04-26T15:20:30Z</time></trkpt><trkpt lat="43.33184040041042" lon="-0.4186254644341983"><ele>188.0</ele><time>2026-04-26T15:20:32Z</time></trkpt><trkpt lat="43.331839672210506" lon="-0.4185385072154547"><ele>188.0</ele><time>2026-04-26T15:20:33Z</time></trkpt><trkpt lat="43.33184020325315" lon="-0.4183690021860682"><ele>188.0</ele><time>2026-04-26T15:20:35Z</time></trkpt><trkpt lat="43.331843657648406" lon="-0.4182010797355615"><ele>188.0</ele><time>2026-04-26T15:20:37Z</time></trkpt><trkpt lat="43.33185338298256" lon="-0.41803440902222905"><ele>188.0</ele><time>2026-04-26T15:20:39Z</time></trkpt><trkpt lat="43.33186328755463" lon="-0.41794872757565976"><ele>188.0</ele><time>2026-04-26T15:20:40Z</time></trkpt><trkpt lat="43.33188154355175" lon="-0.4177831041534935"><ele>188.0</ele><time>2026-04-26T15:20:42Z</time></trkpt><trkpt lat="43.33189427256623" lon="-0.41761731111980865"><ele>188.2</ele><time>2026-04-26T15:20:44Z</time></trkpt><trkpt lat="43.331904035561465" lon="-0.4174496644778393"><ele>188.4</ele><time>2026-04-26T15:20:46Z</time></trkpt><trkpt lat="43.33189730482477" lon="-0.4172854256495262"><ele>188.6</ele><time>2026-04-26T15:20:48Z</time></trkpt><trkpt lat="43.33189859337945" lon="-0.41712692148726316"><ele>188.79999999999998</ele><time>2026-04-26T15:20:50Z</time></trkpt><trkpt lat="43.33189174600807" lon="-0.4170388969791301"><ele>189.0</ele><time>2026-04-26T15:20:51Z</time></trkpt><trkpt lat="43.331875021454906" lon="-0.4168685093173804"><ele>189.2</ele><time>2026-04-26T15:20:53Z</time></trkpt><trkpt lat="43.331857767239654" lon="-0.4167751450000526"><ele>189.39999999999998</ele><time>2026-04-26T15:20:54Z</time></trkpt><trkpt lat="43.33184071828253" lon="-0.4166464863977429"><ele>189.6</ele><time>2026-04-26T15:20:56Z</time></trkpt><trkpt lat="43.33183309020438" lon="-0.4164839142267982"><ele>189.8</ele><time>2026-04-26T15:20:58Z</time></trkpt><trkpt lat="43.33182771467175" lon="-0.41632822441275324"><ele>190.0</ele><time>2026-04-26T15:21:00Z</time></trkpt><trkpt lat="43.33182112732155" lon="-0.4161570325392233"><ele>190.0</ele><time>2026-04-26T15:21:02Z</time></trkpt><trkpt lat="43.33181128272645" lon="-0.415993054669632"><ele>190.0</ele><time>2026-04-26T15:21:04Z</time></trkpt><trkpt lat="43.33180042609466" lon="-0.41582420715405216"><ele>190.0</ele><time>2026-04-26T15:21:06Z</time></trkpt><trkpt lat="43.3317907242703" lon="-0.4156547294099991"><ele>190.0</ele><time>2026-04-26T15:21:08Z</time></trkpt><trkpt lat="43.33178055231146" lon="-0.4154914464921483"><ele>190.4</ele><time>2026-04-26T15:21:10Z</time></trkpt><trkpt lat="43.33176808545515" lon="-0.4153269889021693"><ele>190.8</ele><time>2026-04-26T15:21:12Z</time></trkpt><trkpt lat="43.331756886565266" lon="-0.41516015832626035"><ele>191.2</ele><time>2026-04-26T15:21:14Z</time></trkpt><trkpt lat="43.331750028184594" lon="-0.41507222731243903"><ele>191.6</ele><time>2026-04-26T15:21:15Z</time></trkpt><trkpt lat="43.331741853523944" lon="-0.4149035697639498"><ele>192.0</ele><time>2026-04-26T15:21:17Z</time></trkpt><trkpt lat="43.3317320252886" lon="-0.4147359804775138"><ele>191.83333333333334</ele><time>2026-04-26T15:21:19Z</time></trkpt><trkpt lat="43.33172435028969" lon="-0.4146459080432075"><ele>191.66666666666666</ele><time>2026-04-26T15:21:20Z</time></trkpt><trkpt lat="43.331717226452554" lon="-0.4145580352430713"><ele>191.5</ele><time>2026-04-26T15:21:21Z</time></trkpt><trkpt lat="43.33171194126853" lon="-0.4144587666987916"><ele>191.33333333333331</ele><time>2026-04-26T15:21:22Z</time></trkpt><trkpt lat="43.33169897429775" lon="-0.41437053660629786"><ele>191.16666666666666</ele><time>2026-04-26T15:21:23Z</time></trkpt><trkpt lat="43.3316920854486" lon="-0.4142765980641388"><ele>191.0</ele><time>2026-04-26T15:21:24Z</time></trkpt><trkpt lat="43.33167049797496" lon="-0.41410582307835797"><ele>191.0</ele><time>2026-04-26T15:21:26Z</time></trkpt><trkpt lat="43.33165719942994" lon="-0.4140205837346321"><ele>191.0</ele><time>2026-04-26T15:21:27Z</time></trkpt><trkpt lat="43.33164298967356" lon="-0.41392706806559865"><ele>191.0</ele><time>2026-04-26T15:21:28Z</time></trkpt><trkpt lat="43.33163017245572" lon="-0.41383710819107145"><ele>191.0</ele><time>2026-04-26T15:21:29Z</time></trkpt><trkpt lat="43.33161624348155" lon="-0.4137477526082958"><ele>191.0</ele><time>2026-04-26T15:21:30Z</time></trkpt><trkpt lat="43.33159564468189" lon="-0.4136597745491471"><ele>191.0</ele><time>2026-04-26T15:21:31Z</time></trkpt><trkpt lat="43.33157474753838" lon="-0.41348174668966364"><ele>191.0</ele><time>2026-04-26T15:21:33Z</time></trkpt><trkpt lat="43.331555104096644" lon="-0.41339577498081104"><ele>191.0</ele><time>2026-04-26T15:21:34Z</time></trkpt><trkpt lat="43.33154070251499" lon="-0.41330615051405517"><ele>191.0</ele><time>2026-04-26T15:21:35Z</time></trkpt><trkpt lat="43.33152521872452" lon="-0.41321906167129213"><ele>191.0</ele><time>2026-04-26T15:21:36Z</time></trkpt><trkpt lat="43.33149739480953" lon="-0.4130512533374524"><ele>191.0</ele><time>2026-04-26T15:21:38Z</time></trkpt><trkpt lat="43.33149184979642" lon="-0.41296066962418765"><ele>191.0</ele><time>2026-04-26T15:21:39Z</time></trkpt><trkpt lat="43.33145305994543" lon="-0.4127969548963791"><ele>191.0</ele><time>2026-04-26T15:21:41Z</time></trkpt><trkpt lat="43.33144451370962" lon="-0.41270848696676654"><ele>191.0</ele><time>2026-04-26T15:21:42Z</time></trkpt><trkpt lat="43.33143006727979" lon="-0.4126223078042119"><ele>191.0</ele><time>2026-04-26T15:21:43Z</time></trkpt><trkpt lat="43.33140815585276" lon="-0.41245097433921696"><ele>191.0</ele><time>2026-04-26T15:21:45Z</time></trkpt><trkpt lat="43.33139830385716" lon="-0.41236511950223065"><ele>191.0</ele><time>2026-04-26T15:21:46Z</time></trkpt><trkpt lat="43.33137542394408" lon="-0.41219244209676686"><ele>191.0</ele><time>2026-04-26T15:21:48Z</time></trkpt><trkpt lat="43.33136594498003" lon="-0.4120171519137656"><ele>191.14285714285714</ele><time>2026-04-26T15:21:50Z</time></trkpt><trkpt lat="43.33135596275414" lon="-0.4119314523257963"><ele>191.28571428571428</ele><time>2026-04-26T15:21:51Z</time></trkpt><trkpt lat="43.33134719238988" lon="-0.4118452198766674"><ele>191.42857142857142</ele><time>2026-04-26T15:21:52Z</time></trkpt><trkpt lat="43.33134979487758" lon="-0.4117550896429536"><ele>191.57142857142856</ele><time>2026-04-26T15:21:53Z</time></trkpt><trkpt lat="43.33134484406401" lon="-0.411667178969257"><ele>191.71428571428572</ele><time>2026-04-26T15:21:54Z</time></trkpt><trkpt lat="43.33133977092067" lon="-0.41157798955818753"><ele>191.85714285714283</ele><time>2026-04-26T15:21:55Z</time></trkpt><trkpt lat="43.33132651788794" lon="-0.41140400794957865"><ele>192.0</ele><time>2026-04-26T15:21:57Z</time></trkpt><trkpt lat="43.33132153670688" lon="-0.4112257252446928"><ele>192.0</ele><time>2026-04-26T15:21:59Z</time></trkpt><trkpt lat="43.33131483501709" lon="-0.4110562982154696"><ele>192.0</ele><time>2026-04-26T15:22:01Z</time></trkpt><trkpt lat="43.33131320582435" lon="-0.41096901196555635"><ele>192.0</ele><time>2026-04-26T15:22:02Z</time></trkpt><trkpt lat="43.33130796681243" lon="-0.4108793974184196"><ele>192.0</ele><time>2026-04-26T15:22:03Z</time></trkpt><trkpt lat="43.33129760596478" lon="-0.41071007962556"><ele>192.0</ele><time>2026-04-26T15:22:05Z</time></trkpt><trkpt lat="43.331281657640204" lon="-0.4106234433311166"><ele>192.0</ele><time>2026-04-26T15:22:06Z</time></trkpt><trkpt lat="43.33127407337217" lon="-0.41053690309149093"><ele>191.99999999999997</ele><time>2026-04-26T15:22:07Z</time></trkpt><trkpt lat="43.33125844901021" lon="-0.41036743049121416"><ele>192.0</ele><time>2026-04-26T15:22:09Z</time></trkpt><trkpt lat="43.331253407642905" lon="-0.41027992667943386"><ele>192.0</ele><time>2026-04-26T15:22:10Z</time></trkpt><trkpt lat="43.33125217879777" lon="-0.41019199734223744"><ele>192.0</ele><time>2026-04-26T15:22:11Z</time></trkpt><trkpt lat="43.33124872559317" lon="-0.41010260417304795"><ele>192.0</ele><time>2026-04-26T15:22:12Z</time></trkpt><trkpt lat="43.33124487910124" lon="-0.4100136734020209"><ele>191.99999999999997</ele><time>2026-04-26T15:22:13Z</time></trkpt><trkpt lat="43.33124135157364" lon="-0.40992396586160257"><ele>192.0</ele><time>2026-04-26T15:22:14Z</time></trkpt><trkpt lat="43.33122946529292" lon="-0.4097504008144988"><ele>191.99999999999997</ele><time>2026-04-26T15:22:16Z</time></trkpt><trkpt lat="43.3312264109373" lon="-0.4096617447912717"><ele>192.0</ele><time>2026-04-26T15:22:17Z</time></trkpt><trkpt lat="43.33122792990236" lon="-0.4095705424931442"><ele>192.0</ele><time>2026-04-26T15:22:18Z</time></trkpt><trkpt lat="43.33123170033543" lon="-0.4094780550559028"><ele>192.0</ele><time>2026-04-26T15:22:19Z</time></trkpt><trkpt lat="43.331234026120995" lon="-0.4093890745507588"><ele>192.0</ele><time>2026-04-26T15:22:20Z</time></trkpt><trkpt lat="43.33122807764862" lon="-0.4092954448378777"><ele>191.99999999999997</ele><time>2026-04-26T15:22:21Z</time></trkpt><trkpt lat="43.33122092862451" lon="-0.40920370148081936"><ele>192.0</ele><time>2026-04-26T15:22:22Z</time></trkpt><trkpt lat="43.331218560370765" lon="-0.4091097143676069"><ele>192.0</ele><time>2026-04-26T15:22:23Z</time></trkpt><trkpt lat="43.33121198327931" lon="-0.40902065979708185"><ele>192.0</ele><time>2026-04-26T15:22:24Z</time></trkpt><trkpt lat="43.331207654784755" lon="-0.4089296941528403"><ele>192.0</ele><time>2026-04-26T15:22:25Z</time></trkpt><trkpt lat="43.331197003434085" lon="-0.4087521059405502"><ele>192.0</ele><time>2026-04-26T15:22:27Z</time></trkpt><trkpt lat="43.33119393556997" lon="-0.40866370180632794"><ele>192.0</ele><time>2026-04-26T15:22:28Z</time></trkpt><trkpt lat="43.33119377578464" lon="-0.40856805873266566"><ele>192.0</ele><time>2026-04-26T15:22:29Z</time></trkpt><trkpt lat="43.331177583571645" lon="-0.4084756138173013"><ele>192.14285714285714</ele><time>2026-04-26T15:22:30Z</time></trkpt><trkpt lat="43.33118118587144" lon="-0.4083878442972739"><ele>192.28571428571428</ele><time>2026-04-26T15:22:31Z</time></trkpt><trkpt lat="43.331180078885374" lon="-0.40829715914957265"><ele>192.42857142857144</ele><time>2026-04-26T15:22:32Z</time></trkpt><trkpt lat="43.33118023324614" lon="-0.4082067367552193"><ele>192.57142857142856</ele><time>2026-04-26T15:22:33Z</time></trkpt><trkpt lat="43.33117966694791" lon="-0.4081157581864299"><ele>192.71428571428572</ele><time>2026-04-26T15:22:34Z</time></trkpt><trkpt lat="43.33117617118278" lon="-0.4080291127483987"><ele>192.85714285714286</ele><time>2026-04-26T15:22:35Z</time></trkpt><trkpt lat="43.33117198823704" lon="-0.4079416642469049"><ele>193.0</ele><time>2026-04-26T15:22:36Z</time></trkpt><trkpt lat="43.33117379105109" lon="-0.4078415568728391"><ele>192.99999999999997</ele><time>2026-04-26T15:22:37Z</time></trkpt><trkpt lat="43.33117141275957" lon="-0.4077547600851016"><ele>193.0</ele><time>2026-04-26T15:22:38Z</time></trkpt><trkpt lat="43.33116265607394" lon="-0.40766629239981894"><ele>193.0</ele><time>2026-04-26T15:22:39Z</time></trkpt><trkpt lat="43.33115575827986" lon="-0.407576502759559"><ele>193.0</ele><time>2026-04-26T15:22:40Z</time></trkpt><trkpt lat="43.33115023267463" lon="-0.40748568129848967"><ele>192.99999999999997</ele><time>2026-04-26T15:22:41Z</time></trkpt><trkpt lat="43.33114041694533" lon="-0.4073116752191283"><ele>193.0</ele><time>2026-04-26T15:22:43Z</time></trkpt><trkpt lat="43.33113489715279" lon="-0.40722349863194146"><ele>193.00000000000003</ele><time>2026-04-26T15:22:44Z</time></trkpt><trkpt lat="43.33113391315281" lon="-0.4071300825644007"><ele>193.0</ele><time>2026-04-26T15:22:45Z</time></trkpt><trkpt lat="43.33112188543762" lon="-0.4070399968335738"><ele>193.0</ele><time>2026-04-26T15:22:46Z</time></trkpt><trkpt lat="43.33111404770146" lon="-0.40695179006226034"><ele>193.0</ele><time>2026-04-26T15:22:47Z</time></trkpt><trkpt lat="43.331105701265635" lon="-0.4068657053588748"><ele>193.0</ele><time>2026-04-26T15:22:48Z</time></trkpt><trkpt lat="43.331097301505395" lon="-0.40677613608192115"><ele>193.00000000000003</ele><time>2026-04-26T15:22:49Z</time></trkpt><trkpt lat="43.331091141897254" lon="-0.4066841971227621"><ele>193.0</ele><time>2026-04-26T15:22:50Z</time></trkpt><trkpt lat="43.331076517031356" lon="-0.4065954378979875"><ele>193.00000000000003</ele><time>2026-04-26T15:22:51Z</time></trkpt><trkpt lat="43.3310662726663" lon="-0.4065067712167375"><ele>193.0</ele><time>2026-04-26T15:22:52Z</time></trkpt><trkpt lat="43.33105897804531" lon="-0.40641513157326475"><ele>193.0</ele><time>2026-04-26T15:22:53Z</time></trkpt><trkpt lat="43.33104223581084" lon="-0.40632890824949275"><ele>193.0</ele><time>2026-04-26T15:22:54Z</time></trkpt><trkpt lat="43.331032549795054" lon="-0.40624059579198507"><ele>193.0</ele><time>2026-04-26T15:22:55Z</time></trkpt><trkpt lat="43.33102140848616" lon="-0.40615161143757805"><ele>193.00000000000003</ele><time>2026-04-26T15:22:56Z</time></trkpt><trkpt lat="43.33100705862205" lon="-0.40606371384920686"><ele>193.0</ele><time>2026-04-26T15:22:57Z</time></trkpt><trkpt lat="43.33099811735172" lon="-0.40597233052545495"><ele>193.16666666666666</ele><time>2026-04-26T15:22:58Z</time></trkpt><trkpt lat="43.33098710060181" lon="-0.40588545461820175"><ele>193.33333333333331</ele><time>2026-04-26T15:22:59Z</time></trkpt><trkpt lat="43.33096791901746" lon="-0.40571210362539173"><ele>193.5</ele><time>2026-04-26T15:23:01Z</time></trkpt><trkpt lat="43.330952104830004" lon="-0.4056254699489957"><ele>193.66666666666669</ele><time>2026-04-26T15:23:02Z</time></trkpt><trkpt lat="43.33093870334666" lon="-0.405536673026398"><ele>193.83333333333334</ele><time>2026-04-26T15:23:03Z</time></trkpt><trkpt lat="43.33092207385286" lon="-0.4054465316528253"><ele>194.0</ele><time>2026-04-26T15:23:04Z</time></trkpt><trkpt lat="43.33091104067405" lon="-0.4053576511370651"><ele>194.0</ele><time>2026-04-26T15:23:05Z</time></trkpt><trkpt lat="43.33089835595708" lon="-0.405267349916491"><ele>194.0</ele><time>2026-04-26T15:23:06Z</time></trkpt><trkpt lat="43.33088480178425" lon="-0.4051769295604041"><ele>194.0</ele><time>2026-04-26T15:23:07Z</time></trkpt><trkpt lat="43.33087135309951" lon="-0.40508755935436996"><ele>194.0</ele><time>2026-04-26T15:23:08Z</time></trkpt><trkpt lat="43.33085527722566" lon="-0.4049978007785068"><ele>194.0</ele><time>2026-04-26T15:23:09Z</time></trkpt><trkpt lat="43.33084233686886" lon="-0.40490345158323726"><ele>194.0</ele><time>2026-04-26T15:23:10Z</time></trkpt><trkpt lat="43.33082885467001" lon="-0.40481092432516186"><ele>194.0</ele><time>2026-04-26T15:23:11Z</time></trkpt><trkpt lat="43.330815098546246" lon="-0.4047245826737491"><ele>194.0</ele><time>2026-04-26T15:23:12Z</time></trkpt><trkpt lat="43.33080075009549" lon="-0.4046327086471654"><ele>194.0</ele><time>2026-04-26T15:23:13Z</time></trkpt><trkpt lat="43.33078580486573" lon="-0.40453903264477464"><ele>194.0</ele><time>2026-04-26T15:23:14Z</time></trkpt><trkpt lat="43.330772799545734" lon="-0.4044505577369078"><ele>194.0</ele><time>2026-04-26T15:23:15Z</time></trkpt><trkpt lat="43.330757326892055" lon="-0.4043606213054166"><ele>194.0</ele><time>2026-04-26T15:23:16Z</time></trkpt><trkpt lat="43.330742589927304" lon="-0.4042725429054687"><ele>194.0</ele><time>2026-04-26T15:23:17Z</time></trkpt><trkpt lat="43.33073236095453" lon="-0.4041808606406187"><ele>194.0</ele><time>2026-04-26T15:23:18Z</time></trkpt><trkpt lat="43.330718414236884" lon="-0.40409139442713854"><ele>194.00000000000003</ele><time>2026-04-26T15:23:19Z</time></trkpt><trkpt lat="43.33070598262924" lon="-0.40400206656358006"><ele>194.0</ele><time>2026-04-26T15:23:20Z</time></trkpt><trkpt lat="43.33069215445386" lon="-0.40391698546861177"><ele>194.0</ele><time>2026-04-26T15:23:21Z</time></trkpt><trkpt lat="43.33067089621269" lon="-0.40383070334169746"><ele>194.0</ele><time>2026-04-26T15:23:22Z</time></trkpt><trkpt lat="43.330628784602716" lon="-0.4036703903793586"><ele>194.00000000000003</ele><time>2026-04-26T15:23:24Z</time></trkpt><trkpt lat="43.33060410372628" lon="-0.4035832071080885"><ele>194.0</ele><time>2026-04-26T15:23:25Z</time></trkpt><trkpt lat="43.33058009847761" lon="-0.40349812738384555"><ele>194.16666666666669</ele><time>2026-04-26T15:23:26Z</time></trkpt><trkpt lat="43.330549521078105" lon="-0.4034144683825368"><ele>194.33333333333334</ele><time>2026-04-26T15:23:27Z</time></trkpt><trkpt lat="43.330519965236164" lon="-0.40332257807385763"><ele>194.5</ele><time>2026-04-26T15:23:28Z</time></trkpt><trkpt lat="43.33045295067035" lon="-0.4031661982721742"><ele>194.66666666666669</ele><time>2026-04-26T15:23:30Z</time></trkpt><trkpt lat="43.33041847936515" lon="-0.4030897912739381"><ele>194.83333333333334</ele><time>2026-04-26T15:23:31Z</time></trkpt><trkpt lat="43.33038899386493" lon="-0.4030070343984416"><ele>195.0</ele><time>2026-04-26T15:23:32Z</time></trkpt><trkpt lat="43.33035471376969" lon="-0.40292833559050206"><ele>195.14285714285714</ele><time>2026-04-26T15:23:33Z</time></trkpt><trkpt lat="43.330325718584746" lon="-0.4028459550706507"><ele>195.28571428571428</ele><time>2026-04-26T15:23:34Z</time></trkpt><trkpt lat="43.33029717411251" lon="-0.402765987933907"><ele>195.42857142857144</ele><time>2026-04-26T15:23:35Z</time></trkpt><trkpt lat="43.330266750128814" lon="-0.40267485006002074"><ele>195.57142857142856</ele><time>2026-04-26T15:23:36Z</time></trkpt><trkpt lat="43.330234070835075" lon="-0.40259894215012804"><ele>195.71428571428572</ele><time>2026-04-26T15:23:37Z</time></trkpt><trkpt lat="43.33020005233836" lon="-0.4025239316610572"><ele>195.85714285714286</ele><time>2026-04-26T15:23:38Z</time></trkpt><trkpt lat="43.3301686198673" lon="-0.40244187693851363"><ele>196.0</ele><time>2026-04-26T15:23:39Z</time></trkpt><trkpt lat="43.330135894972656" lon="-0.40236330749024823"><ele>196.0</ele><time>2026-04-26T15:23:40Z</time></trkpt><trkpt lat="43.330100117705896" lon="-0.4022861092956349"><ele>196.0</ele><time>2026-04-26T15:23:41Z</time></trkpt><trkpt lat="43.33006372494803" lon="-0.40220917693130515"><ele>196.0</ele><time>2026-04-26T15:23:42Z</time></trkpt><trkpt lat="43.330036605583004" lon="-0.4021280486582471"><ele>196.0</ele><time>2026-04-26T15:23:43Z</time></trkpt><trkpt lat="43.32999779964679" lon="-0.402050287191661"><ele>196.0</ele><time>2026-04-26T15:23:44Z</time></trkpt><trkpt lat="43.3299596451945" lon="-0.4019700310449147"><ele>196.0</ele><time>2026-04-26T15:23:45Z</time></trkpt><trkpt lat="43.329932049776126" lon="-0.40188577702897754"><ele>196.0</ele><time>2026-04-26T15:23:46Z</time></trkpt><trkpt lat="43.32990172101755" lon="-0.40180368149467305"><ele>195.99999999999997</ele><time>2026-04-26T15:23:47Z</time></trkpt><trkpt lat="43.32987261625214" lon="-0.40171984854199694"><ele>196.0</ele><time>2026-04-26T15:23:48Z</time></trkpt><trkpt lat="43.329844131084414" lon="-0.40163958312284265"><ele>196.0</ele><time>2026-04-26T15:23:49Z</time></trkpt><trkpt lat="43.329812399517444" lon="-0.40155763623906704"><ele>196.0</ele><time>2026-04-26T15:23:50Z</time></trkpt><trkpt lat="43.32978471355495" lon="-0.4014789651355928"><ele>195.99999999999997</ele><time>2026-04-26T15:23:51Z</time></trkpt><trkpt lat="43.32974593157823" lon="-0.40140559596333975"><ele>196.0</ele><time>2026-04-26T15:23:52Z</time></trkpt><trkpt lat="43.32969123978026" lon="-0.40125522400061187"><ele>196.0</ele><time>2026-04-26T15:23:54Z</time></trkpt><trkpt lat="43.32966348260948" lon="-0.4011758645007273"><ele>196.0</ele><time>2026-04-26T15:23:55Z</time></trkpt><trkpt lat="43.329629535785166" lon="-0.40110051501408506"><ele>196.0</ele><time>2026-04-26T15:23:56Z</time></trkpt><trkpt lat="43.32959926971115" lon="-0.4010230049921846"><ele>196.0</ele><time>2026-04-26T15:23:57Z</time></trkpt><trkpt lat="43.329565120454426" lon="-0.40095017101865177"><ele>196.0</ele><time>2026-04-26T15:23:58Z</time></trkpt><trkpt lat="43.32953359899881" lon="-0.4008720195901963"><ele>196.0</ele><time>2026-04-26T15:23:59Z</time></trkpt><trkpt lat="43.32947134265653" lon="-0.4007225658790521"><ele>196.0</ele><time>2026-04-26T15:24:01Z</time></trkpt><trkpt lat="43.329408220015566" lon="-0.4005686071793657"><ele>196.25</ele><time>2026-04-26T15:24:03Z</time></trkpt><trkpt lat="43.32934793485024" lon="-0.4004192773143124"><ele>196.5</ele><time>2026-04-26T15:24:05Z</time></trkpt><trkpt lat="43.329297485845146" lon="-0.40026544459210345"><ele>196.75</ele><time>2026-04-26T15:24:07Z</time></trkpt><trkpt lat="43.32926141603323" lon="-0.40010191616360957"><ele>197.0</ele><time>2026-04-26T15:24:09Z</time></trkpt><trkpt lat="43.32920452604374" lon="-0.3999525330428885"><ele>197.00000000000003</ele><time>2026-04-26T15:24:11Z</time></trkpt><trkpt lat="43.329185319537274" lon="-0.3998680670094143"><ele>197.0</ele><time>2026-04-26T15:24:12Z</time></trkpt><trkpt lat="43.32917627589796" lon="-0.39976999816985437"><ele>197.0</ele><time>2026-04-26T15:24:13Z</time></trkpt><trkpt lat="43.329158457516186" lon="-0.3996867042669627"><ele>197.0</ele><time>2026-04-26T15:24:14Z</time></trkpt><trkpt lat="43.32911914238777" lon="-0.39952458777817984"><ele>197.00000000000003</ele><time>2026-04-26T15:24:16Z</time></trkpt><trkpt lat="43.32907812508683" lon="-0.3993711798514305"><ele>197.0</ele><time>2026-04-26T15:24:18Z</time></trkpt><trkpt lat="43.3290421016435" lon="-0.39921410007469627"><ele>197.16666666666669</ele><time>2026-04-26T15:24:20Z</time></trkpt><trkpt lat="43.329005432422946" lon="-0.39905425749480633"><ele>197.33333333333334</ele><time>2026-04-26T15:24:22Z</time></trkpt><trkpt lat="43.328988744079474" lon="-0.3989671228270374"><ele>197.5</ele><time>2026-04-26T15:24:23Z</time></trkpt><trkpt lat="43.328981963591986" lon="-0.3988727814099115"><ele>197.66666666666669</ele><time>2026-04-26T15:24:24Z</time></trkpt><trkpt lat="43.32893544079571" lon="-0.3987144088743755"><ele>197.83333333333334</ele><time>2026-04-26T15:24:26Z</time></trkpt><trkpt lat="43.328919700513154" lon="-0.3986282484393095"><ele>198.0</ele><time>2026-04-26T15:24:27Z</time></trkpt><trkpt lat="43.32890330279962" lon="-0.3985399549167899"><ele>198.0</ele><time>2026-04-26T15:24:28Z</time></trkpt><trkpt lat="43.32884845673" lon="-0.39839063707475136"><ele>198.0</ele><time>2026-04-26T15:24:30Z</time></trkpt><trkpt lat="43.32879323865356" lon="-0.3982548708296593"><ele>198.0</ele><time>2026-04-26T15:24:32Z</time></trkpt><trkpt lat="43.32878700702481" lon="-0.39814800512833654"><ele>198.0</ele><time>2026-04-26T15:24:33Z</time></trkpt><trkpt lat="43.328765706846276" lon="-0.3980618548579242"><ele>198.0</ele><time>2026-04-26T15:24:34Z</time></trkpt><trkpt lat="43.32874920187516" lon="-0.3979755540358983"><ele>198.0</ele><time>2026-04-26T15:24:35Z</time></trkpt><trkpt lat="43.32872698571597" lon="-0.3978924435244554"><ele>198.2857142857143</ele><time>2026-04-26T15:24:36Z</time></trkpt><trkpt lat="43.32870717479167" lon="-0.3978094357029805"><ele>198.57142857142856</ele><time>2026-04-26T15:24:37Z</time></trkpt><trkpt lat="43.32868642127881" lon="-0.39772236791308135"><ele>198.85714285714286</ele><time>2026-04-26T15:24:38Z</time></trkpt><trkpt lat="43.32866337529227" lon="-0.3976332918655537"><ele>199.14285714285717</ele><time>2026-04-26T15:24:39Z</time></trkpt><trkpt lat="43.32864036988223" lon="-0.39754622944398127"><ele>199.42857142857144</ele><time>2026-04-26T15:24:40Z</time></trkpt><trkpt lat="43.32861287597678" lon="-0.39745666866598284"><ele>199.71428571428572</ele><time>2026-04-26T15:24:41Z</time></trkpt><trkpt lat="43.32859196468553" lon="-0.39737289770328715"><ele>200.0</ele><time>2026-04-26T15:24:42Z</time></trkpt><trkpt lat="43.32857316837222" lon="-0.39728841626960193"><ele>200.00000000000003</ele><time>2026-04-26T15:24:43Z</time></trkpt><trkpt lat="43.328549574891895" lon="-0.3972008935562719"><ele>200.0</ele><time>2026-04-26T15:24:44Z</time></trkpt><trkpt lat="43.328530316850554" lon="-0.3971138080659998"><ele>200.0</ele><time>2026-04-26T15:24:45Z</time></trkpt><trkpt lat="43.32851322703309" lon="-0.39702930042939255"><ele>200.0</ele><time>2026-04-26T15:24:46Z</time></trkpt><trkpt lat="43.32849402508045" lon="-0.3969431626478391"><ele>200.0</ele><time>2026-04-26T15:24:47Z</time></trkpt><trkpt lat="43.32847340262105" lon="-0.3968577888409984"><ele>200.00000000000003</ele><time>2026-04-26T15:24:48Z</time></trkpt><trkpt lat="43.328450064409914" lon="-0.39677368959621895"><ele>200.0</ele><time>2026-04-26T15:24:49Z</time></trkpt><trkpt lat="43.32843037637036" lon="-0.39668804666429863"><ele>199.8</ele><time>2026-04-26T15:24:50Z</time></trkpt><trkpt lat="43.328390180434546" lon="-0.3965256793125348"><ele>199.6</ele><time>2026-04-26T15:24:52Z</time></trkpt><trkpt lat="43.328368072254186" lon="-0.3964415872934164"><ele>199.39999999999998</ele><time>2026-04-26T15:24:53Z</time></trkpt><trkpt lat="43.328322679445264" lon="-0.39627297857514787"><ele>199.2</ele><time>2026-04-26T15:24:55Z</time></trkpt><trkpt lat="43.328287242002126" lon="-0.39611411442627265"><ele>199.0</ele><time>2026-04-26T15:24:57Z</time></trkpt><trkpt lat="43.32828462400656" lon="-0.39601763163207837"><ele>199.0</ele><time>2026-04-26T15:24:58Z</time></trkpt><trkpt lat="43.328236151299805" lon="-0.3958681759174986"><ele>199.0</ele><time>2026-04-26T15:25:00Z</time></trkpt><trkpt lat="43.32819895639881" lon="-0.3957123593319839"><ele>199.0</ele><time>2026-04-26T15:25:02Z</time></trkpt><trkpt lat="43.32815976823975" lon="-0.39555503416154186"><ele>199.0</ele><time>2026-04-26T15:25:04Z</time></trkpt><trkpt lat="43.328120177961985" lon="-0.395393783356152"><ele>198.5</ele><time>2026-04-26T15:25:06Z</time></trkpt><trkpt lat="43.32808369364463" lon="-0.395231496814401"><ele>198.0</ele><time>2026-04-26T15:25:08Z</time></trkpt><trkpt lat="43.328048241569846" lon="-0.39506936463933917"><ele>197.5</ele><time>2026-04-26T15:25:10Z</time></trkpt><trkpt lat="43.32801549740831" lon="-0.3949110224625295"><ele>197.0</ele><time>2026-04-26T15:25:12Z</time></trkpt><trkpt lat="43.32797322401387" lon="-0.3947618178597337"><ele>197.6</ele><time>2026-04-26T15:25:14Z</time></trkpt><trkpt lat="43.3279380011331" lon="-0.39462534137151906"><ele>198.2</ele><time>2026-04-26T15:25:16Z</time></trkpt><trkpt lat="43.32790532912247" lon="-0.3944772268014502"><ele>198.8</ele><time>2026-04-26T15:25:18Z</time></trkpt><trkpt lat="43.32787051578545" lon="-0.39432913299801703"><ele>199.4</ele><time>2026-04-26T15:25:20Z</time></trkpt><trkpt lat="43.32784841233293" lon="-0.3942229933280305"><ele>200.0</ele><time>2026-04-26T15:25:22Z</time></trkpt><trkpt lat="43.327642335750554" lon="-0.3941878561726896"><ele>200.0</ele><time>2026-04-26T15:26:02Z</time></trkpt><trkpt lat="43.327586198387884" lon="-0.3942978733422423"><ele>200.0</ele><time>2026-04-26T15:26:04Z</time></trkpt><trkpt lat="43.32751183062624" lon="-0.3944048605453058"><ele>200.0</ele><time>2026-04-26T15:26:06Z</time></trkpt><trkpt lat="43.32743692292534" lon="-0.39451510309683013"><ele>200.0</ele><time>2026-04-26T15:26:08Z</time></trkpt><trkpt lat="43.32734899891663" lon="-0.3946353554366509"><ele>200.0</ele><time>2026-04-26T15:26:10Z</time></trkpt><trkpt lat="43.32725773470054" lon="-0.39473995784580024"><ele>200.4</ele><time>2026-04-26T15:26:12Z</time></trkpt><trkpt lat="43.32717027081146" lon="-0.39485644982483475"><ele>200.8</ele><time>2026-04-26T15:26:14Z</time></trkpt><trkpt lat="43.32708373404395" lon="-0.3949830562479119"><ele>201.2</ele><time>2026-04-26T15:26:16Z</time></trkpt><trkpt lat="43.32704017824371" lon="-0.39508416095684407"><ele>201.6</ele><time>2026-04-26T15:26:17Z</time></trkpt><trkpt lat="43.32697207188688" lon="-0.3951562530426362"><ele>202.0</ele><time>2026-04-26T15:26:19Z</time></trkpt><trkpt lat="43.3269044344356" lon="-0.3952243452394877"><ele>202.0</ele><time>2026-04-26T15:26:21Z</time></trkpt><trkpt lat="43.32684785601951" lon="-0.39532106498562763"><ele>202.0</ele><time>2026-04-26T15:26:23Z</time></trkpt><trkpt lat="43.32675777243034" lon="-0.39539587388967573"><ele>202.0</ele><time>2026-04-26T15:26:25Z</time></trkpt><trkpt lat="43.32664038713256" lon="-0.39542962175180896"><ele>202.0</ele><time>2026-04-26T15:26:27Z</time></trkpt><trkpt lat="43.326546470442864" lon="-0.39555321720303727"><ele>202.0</ele><time>2026-04-26T15:26:29Z</time></trkpt><trkpt lat="43.32649067398273" lon="-0.3956063503047099"><ele>201.85714285714286</ele><time>2026-04-26T15:26:30Z</time></trkpt><trkpt lat="43.32643954785144" lon="-0.39566830517022583"><ele>201.71428571428572</ele><time>2026-04-26T15:26:31Z</time></trkpt><trkpt lat="43.326384521315155" lon="-0.3957456963835789"><ele>201.57142857142856</ele><time>2026-04-26T15:26:32Z</time></trkpt><trkpt lat="43.32632374729139" lon="-0.39580687541847753"><ele>201.42857142857144</ele><time>2026-04-26T15:26:33Z</time></trkpt><trkpt lat="43.32627419652061" lon="-0.3958985645053843"><ele>201.2857142857143</ele><time>2026-04-26T15:26:34Z</time></trkpt><trkpt lat="43.32622570904707" lon="-0.3959657639162411"><ele>201.14285714285714</ele><time>2026-04-26T15:26:35Z</time></trkpt><trkpt lat="43.32617442019132" lon="-0.39603308641092"><ele>201.0</ele><time>2026-04-26T15:26:36Z</time></trkpt><trkpt lat="43.32612128916516" lon="-0.39609549233435787"><ele>200.85714285714286</ele><time>2026-04-26T15:26:37Z</time></trkpt><trkpt lat="43.32607477847951" lon="-0.39617689604327083"><ele>200.71428571428572</ele><time>2026-04-26T15:26:38Z</time></trkpt><trkpt lat="43.326052454038184" lon="-0.3962637519160433"><ele>200.57142857142858</ele><time>2026-04-26T15:26:39Z</time></trkpt><trkpt lat="43.32599939325239" lon="-0.39632270772942246"><ele>200.42857142857144</ele><time>2026-04-26T15:26:40Z</time></trkpt><trkpt lat="43.32592949241778" lon="-0.3963762777062725"><ele>200.28571428571428</ele><time>2026-04-26T15:26:41Z</time></trkpt><trkpt lat="43.32586162885754" lon="-0.3964218281343134"><ele>200.14285714285717</ele><time>2026-04-26T15:26:42Z</time></trkpt><trkpt lat="43.325800065586435" lon="-0.39647504883155266"><ele>200.0</ele><time>2026-04-26T15:26:43Z</time></trkpt><trkpt lat="43.325739464877984" lon="-0.3965348433758021"><ele>199.83333333333334</ele><time>2026-04-26T15:26:44Z</time></trkpt><trkpt lat="43.32568102603312" lon="-0.3965945225681784"><ele>199.66666666666669</ele><time>2026-04-26T15:26:45Z</time></trkpt><trkpt lat="43.32562142766081" lon="-0.39664584701152594"><ele>199.5</ele><time>2026-04-26T15:26:46Z</time></trkpt><trkpt lat="43.32549579283231" lon="-0.3967274856874035"><ele>199.33333333333331</ele><time>2026-04-26T15:26:48Z</time></trkpt><trkpt lat="43.32542695356296" lon="-0.39677968273615677"><ele>199.16666666666666</ele><time>2026-04-26T15:26:49Z</time></trkpt><trkpt lat="43.3253710335612" lon="-0.3968259808722625"><ele>199.0</ele><time>2026-04-26T15:26:50Z</time></trkpt><trkpt lat="43.32529622236228" lon="-0.3968466468386232"><ele>199.0</ele><time>2026-04-26T15:26:51Z</time></trkpt><trkpt lat="43.32515851765018" lon="-0.3969349788923472"><ele>199.0</ele><time>2026-04-26T15:26:53Z</time></trkpt><trkpt lat="43.32507658114731" lon="-0.3969624018337412"><ele>199.0</ele><time>2026-04-26T15:26:54Z</time></trkpt><trkpt lat="43.32499604024928" lon="-0.39699046285147865"><ele>199.0</ele><time>2026-04-26T15:26:55Z</time></trkpt><trkpt lat="43.32490907089765" lon="-0.39704756179861433"><ele>199.0</ele><time>2026-04-26T15:26:56Z</time></trkpt><trkpt lat="43.324821148725974" lon="-0.39706181528340867"><ele>198.99999999999997</ele><time>2026-04-26T15:26:57Z</time></trkpt><trkpt lat="43.32476181753123" lon="-0.39711932411762463"><ele>199.0</ele><time>2026-04-26T15:26:58Z</time></trkpt><trkpt lat="43.32469733258221" lon="-0.3971666093081247"><ele>199.0</ele><time>2026-04-26T15:26:59Z</time></trkpt><trkpt lat="43.32463524007853" lon="-0.39720909485206124"><ele>199.0</ele><time>2026-04-26T15:27:00Z</time></trkpt><trkpt lat="43.32455998973952" lon="-0.3972513911300341"><ele>199.0</ele><time>2026-04-26T15:27:01Z</time></trkpt><trkpt lat="43.32449564242842" lon="-0.3972950715765367"><ele>198.99999999999997</ele><time>2026-04-26T15:27:02Z</time></trkpt><trkpt lat="43.32443469277711" lon="-0.39733526362672017"><ele>199.0</ele><time>2026-04-26T15:27:03Z</time></trkpt><trkpt lat="43.324369335898645" lon="-0.39738034303379116"><ele>198.99999999999997</ele><time>2026-04-26T15:27:04Z</time></trkpt><trkpt lat="43.32429339568403" lon="-0.39741149098844497"><ele>199.0</ele><time>2026-04-26T15:27:05Z</time></trkpt><trkpt lat="43.32423670875883" lon="-0.39746086047030377"><ele>199.0</ele><time>2026-04-26T15:27:06Z</time></trkpt><trkpt lat="43.324171580208606" lon="-0.3975069498930655"><ele>199.0</ele><time>2026-04-26T15:27:07Z</time></trkpt><trkpt lat="43.32411415658209" lon="-0.3975545694830567"><ele>199.0</ele><time>2026-04-26T15:27:08Z</time></trkpt><trkpt lat="43.3240551564402" lon="-0.39759378263982553"><ele>198.99999999999997</ele><time>2026-04-26T15:27:09Z</time></trkpt><trkpt lat="43.3239816794546" lon="-0.39763864167124324"><ele>199.0</ele><time>2026-04-26T15:27:10Z</time></trkpt><trkpt lat="43.323911253219514" lon="-0.3977040202491353"><ele>198.33333333333331</ele><time>2026-04-26T15:27:11Z</time></trkpt><trkpt lat="43.32385168221525" lon="-0.3977331325967725"><ele>197.66666666666666</ele><time>2026-04-26T15:27:12Z</time></trkpt><trkpt lat="43.32378124974671" lon="-0.3977968535428835"><ele>197.0</ele><time>2026-04-26T15:27:13Z</time></trkpt><trkpt lat="43.323698631768494" lon="-0.39787571722423043"><ele>196.33333333333331</ele><time>2026-04-26T15:27:15Z</time></trkpt><trkpt lat="43.3236118923192" lon="-0.3979606908487507"><ele>195.66666666666666</ele><time>2026-04-26T15:27:17Z</time></trkpt><trkpt lat="43.323564045936365" lon="-0.39804339512678377"><ele>195.0</ele><time>2026-04-26T15:27:18Z</time></trkpt><trkpt lat="43.32350959147352" lon="-0.3981043453287492"><ele>195.0</ele><time>2026-04-26T15:27:19Z</time></trkpt><trkpt lat="43.32340794757934" lon="-0.39817179442218553"><ele>195.0</ele><time>2026-04-26T15:27:21Z</time></trkpt><trkpt lat="43.32332266943295" lon="-0.3982780784922485"><ele>195.0</ele><time>2026-04-26T15:27:23Z</time></trkpt><trkpt lat="43.32324941054912" lon="-0.39840916423377043"><ele>195.0</ele><time>2026-04-26T15:27:25Z</time></trkpt><trkpt lat="43.323201014555096" lon="-0.3985709427174111"><ele>195.0</ele><time>2026-04-26T15:27:27Z</time></trkpt><trkpt lat="43.323183335560536" lon="-0.3986549039014918"><ele>195.0</ele><time>2026-04-26T15:27:28Z</time></trkpt><trkpt lat="43.323166169986926" lon="-0.39873900009704694"><ele>195.0</ele><time>2026-04-26T15:27:29Z</time></trkpt><trkpt lat="43.32312952743324" lon="-0.39889702779678227"><ele>195.0</ele><time>2026-04-26T15:27:31Z</time></trkpt><trkpt lat="43.32308465780772" lon="-0.3990120460488895"><ele>195.0</ele><time>2026-04-26T15:27:33Z</time></trkpt><trkpt lat="43.32306729540387" lon="-0.39910825207630957"><ele>195.0</ele><time>2026-04-26T15:27:35Z</time></trkpt><trkpt lat="43.32304567220734" lon="-0.3992285598014942"><ele>195.2</ele><time>2026-04-26T15:27:37Z</time></trkpt><trkpt lat="43.32302577134367" lon="-0.39936805648759915"><ele>195.4</ele><time>2026-04-26T15:27:39Z</time></trkpt><trkpt lat="43.32297415260446" lon="-0.39950469526106797"><ele>195.60000000000002</ele><time>2026-04-26T15:27:41Z</time></trkpt><trkpt lat="43.3228805598901" lon="-0.39960975388741854"><ele>195.8</ele><time>2026-04-26T15:27:43Z</time></trkpt><trkpt lat="43.322819614107885" lon="-0.3996357674793481"><ele>196.0</ele><time>2026-04-26T15:27:44Z</time></trkpt><trkpt lat="43.32270180759318" lon="-0.39965826086691025"><ele>196.0</ele><time>2026-04-26T15:27:46Z</time></trkpt><trkpt lat="43.322586343682595" lon="-0.39966426907721536"><ele>196.0</ele><time>2026-04-26T15:27:48Z</time></trkpt><trkpt lat="43.322527612022775" lon="-0.39970310028339634"><ele>196.0</ele><time>2026-04-26T15:27:49Z</time></trkpt><trkpt lat="43.3224434733291" lon="-0.3998275430138893"><ele>196.0</ele><time>2026-04-26T15:27:51Z</time></trkpt><trkpt lat="43.32241777105933" lon="-0.3999076246474307"><ele>196.0</ele><time>2026-04-26T15:27:52Z</time></trkpt><trkpt lat="43.32239968533559" lon="-0.40007479425895"><ele>195.99999999999997</ele><time>2026-04-26T15:27:54Z</time></trkpt><trkpt lat="43.322413375432234" lon="-0.40016022883411834"><ele>196.0</ele><time>2026-04-26T15:27:55Z</time></trkpt><trkpt lat="43.3224294200785" lon="-0.4002451417444709"><ele>196.0</ele><time>2026-04-26T15:27:56Z</time></trkpt><trkpt lat="43.32243198959188" lon="-0.40033682808225457"><ele>196.0</ele><time>2026-04-26T15:27:57Z</time></trkpt><trkpt lat="43.322430379605095" lon="-0.4005020497387339"><ele>195.99999999999997</ele><time>2026-04-26T15:27:59Z</time></trkpt><trkpt lat="43.322407267147874" lon="-0.4006006302190005"><ele>196.0</ele><time>2026-04-26T15:28:00Z</time></trkpt><trkpt lat="43.32238192495257" lon="-0.400680461013787"><ele>195.8</ele><time>2026-04-26T15:28:01Z</time></trkpt><trkpt lat="43.32232739495048" lon="-0.4008276206630432"><ele>195.60000000000002</ele><time>2026-04-26T15:28:03Z</time></trkpt><trkpt lat="43.32229803947679" lon="-0.40091097519833596"><ele>195.4</ele><time>2026-04-26T15:28:04Z</time></trkpt><trkpt lat="43.32225694370893" lon="-0.401075860559242"><ele>195.2</ele><time>2026-04-26T15:28:06Z</time></trkpt><trkpt lat="43.322260222081944" lon="-0.4011697293818068"><ele>195.0</ele><time>2026-04-26T15:28:07Z</time></trkpt><trkpt lat="43.32227021533466" lon="-0.4012608134653714"><ele>194.83333333333334</ele><time>2026-04-26T15:28:08Z</time></trkpt><trkpt lat="43.32224578372563" lon="-0.4014237785537385"><ele>194.66666666666669</ele><time>2026-04-26T15:28:10Z</time></trkpt><trkpt lat="43.32219939519959" lon="-0.4014986676371185"><ele>194.5</ele><time>2026-04-26T15:28:11Z</time></trkpt><trkpt lat="43.322145510840606" lon="-0.40156503116619957"><ele>194.33333333333334</ele><time>2026-04-26T15:28:12Z</time></trkpt><trkpt lat="43.322101620001746" lon="-0.40163449394675715"><ele>194.16666666666669</ele><time>2026-04-26T15:28:13Z</time></trkpt><trkpt lat="43.32205804373768" lon="-0.4017144217954154"><ele>194.0</ele><time>2026-04-26T15:28:14Z</time></trkpt><trkpt lat="43.32203180921548" lon="-0.40180301458551937"><ele>194.2</ele><time>2026-04-26T15:28:15Z</time></trkpt><trkpt lat="43.3219453700062" lon="-0.402063194343876"><ele>194.39999999999998</ele><time>2026-04-26T15:28:18Z</time></trkpt><trkpt lat="43.321916870417326" lon="-0.40215127111205473"><ele>194.6</ele><time>2026-04-26T15:28:19Z</time></trkpt><trkpt lat="43.32188833134115" lon="-0.40223745595002536"><ele>194.8</ele><time>2026-04-26T15:28:20Z</time></trkpt><trkpt lat="43.321865904181465" lon="-0.4023243153207049"><ele>195.0</ele><time>2026-04-26T15:28:21Z</time></trkpt><trkpt lat="43.32183849497748" lon="-0.4024185441282604"><ele>195.0</ele><time>2026-04-26T15:28:22Z</time></trkpt><trkpt lat="43.32180771204464" lon="-0.4025001722150514"><ele>195.0</ele><time>2026-04-26T15:28:23Z</time></trkpt><trkpt lat="43.32175971144506" lon="-0.4026487820493688"><ele>195.0</ele><time>2026-04-26T15:28:25Z</time></trkpt><trkpt lat="43.32171701947223" lon="-0.402798456356894"><ele>195.0</ele><time>2026-04-26T15:28:27Z</time></trkpt><trkpt lat="43.32168756125552" lon="-0.4028880708759838"><ele>195.0</ele><time>2026-04-26T15:28:28Z</time></trkpt><trkpt lat="43.32167013271788" lon="-0.40297913215675357"><ele>195.0</ele><time>2026-04-26T15:28:29Z</time></trkpt><trkpt lat="43.32163126619363" lon="-0.40313565441418076"><ele>195.0</ele><time>2026-04-26T15:28:31Z</time></trkpt><trkpt lat="43.32159941426894" lon="-0.40322479745978645"><ele>195.0</ele><time>2026-04-26T15:28:32Z</time></trkpt><trkpt lat="43.321575912130065" lon="-0.4033096023499699"><ele>195.0</ele><time>2026-04-26T15:28:33Z</time></trkpt><trkpt lat="43.32155573544866" lon="-0.4033960979783734"><ele>195.0</ele><time>2026-04-26T15:28:34Z</time></trkpt><trkpt lat="43.32152928583389" lon="-0.4034821395008951"><ele>195.0</ele><time>2026-04-26T15:28:35Z</time></trkpt><trkpt lat="43.321499281153365" lon="-0.40356582480591774"><ele>195.0</ele><time>2026-04-26T15:28:36Z</time></trkpt><trkpt lat="43.32144334633899" lon="-0.40373186276225703"><ele>195.0</ele><time>2026-04-26T15:28:38Z</time></trkpt><trkpt lat="43.32141421176042" lon="-0.40382728004585156"><ele>195.0</ele><time>2026-04-26T15:28:39Z</time></trkpt><trkpt lat="43.32139327122702" lon="-0.40391348756078865"><ele>195.0</ele><time>2026-04-26T15:28:40Z</time></trkpt><trkpt lat="43.32135921483505" lon="-0.40398638657807723"><ele>195.0</ele><time>2026-04-26T15:28:41Z</time></trkpt><trkpt lat="43.321325651956606" lon="-0.4040675692196762"><ele>195.0</ele><time>2026-04-26T15:28:42Z</time></trkpt><trkpt lat="43.321290859634075" lon="-0.4041447139653513"><ele>195.0</ele><time>2026-04-26T15:28:43Z</time></trkpt><trkpt lat="43.321224382717794" lon="-0.4042844708813658"><ele>195.0</ele><time>2026-04-26T15:28:45Z</time></trkpt><trkpt lat="43.32118276099182" lon="-0.40435691848004557"><ele>195.0</ele><time>2026-04-26T15:28:46Z</time></trkpt><trkpt lat="43.32111944642555" lon="-0.4044221620307223"><ele>195.0</ele><time>2026-04-26T15:28:47Z</time></trkpt><trkpt lat="43.32107024770339" lon="-0.4044922622635918"><ele>195.0</ele><time>2026-04-26T15:28:48Z</time></trkpt><trkpt lat="43.32102889097479" lon="-0.40456582306326655"><ele>195.0</ele><time>2026-04-26T15:28:49Z</time></trkpt><trkpt lat="43.32098208700185" lon="-0.40464932241282414"><ele>195.0</ele><time>2026-04-26T15:28:50Z</time></trkpt><trkpt lat="43.32092701260991" lon="-0.4047146438946294"><ele>195.0</ele><time>2026-04-26T15:28:51Z</time></trkpt><trkpt lat="43.320854226947866" lon="-0.4048633585601153"><ele>195.0</ele><time>2026-04-26T15:28:53Z</time></trkpt><trkpt lat="43.320790229580325" lon="-0.4049782218679909"><ele>195.0</ele><time>2026-04-26T15:28:55Z</time></trkpt><trkpt lat="43.32074002469548" lon="-0.40505120713724607"><ele>195.0</ele><time>2026-04-26T15:28:57Z</time></trkpt><trkpt lat="43.32069195747394" lon="-0.4051117340356607"><ele>195.0</ele><time>2026-04-26T15:29:01Z</time></trkpt><trkpt lat="43.32060764339967" lon="-0.40509370708822295"><ele>195.0</ele><time>2026-04-26T15:29:05Z</time></trkpt><trkpt lat="43.32035655558571" lon="-0.405233788193991"><ele>195.0</ele><time>2026-04-26T15:29:37Z</time></trkpt><trkpt lat="43.32031346515922" lon="-0.4051398202097319"><ele>195.0</ele><time>2026-04-26T15:29:39Z</time></trkpt><trkpt lat="43.32029414478689" lon="-0.40503754529183267"><ele>195.0</ele><time>2026-04-26T15:29:41Z</time></trkpt><trkpt lat="43.32027743011942" lon="-0.40491914237178156"><ele>195.0</ele><time>2026-04-26T15:29:43Z</time></trkpt><trkpt lat="43.32025073608728" lon="-0.40480606810407577"><ele>195.0</ele><time>2026-04-26T15:29:45Z</time></trkpt><trkpt lat="43.320224630949234" lon="-0.4046832997008184"><ele>195.0</ele><time>2026-04-26T15:29:47Z</time></trkpt><trkpt lat="43.320186361248155" lon="-0.40455597568356366"><ele>195.4</ele><time>2026-04-26T15:29:49Z</time></trkpt><trkpt lat="43.320145269140134" lon="-0.4044266090539623"><ele>195.8</ele><time>2026-04-26T15:29:51Z</time></trkpt><trkpt lat="43.32011128885887" lon="-0.40429313766166874"><ele>196.2</ele><time>2026-04-26T15:29:53Z</time></trkpt><trkpt lat="43.320071881471414" lon="-0.404161375074308"><ele>196.6</ele><time>2026-04-26T15:29:55Z</time></trkpt><trkpt lat="43.32003355309237" lon="-0.40403105359703817"><ele>197.0</ele><time>2026-04-26T15:29:57Z</time></trkpt><trkpt lat="43.32000174520347" lon="-0.40390718780708407"><ele>197.2</ele><time>2026-04-26T15:29:59Z</time></trkpt><trkpt lat="43.3199561521574" lon="-0.4037671851778693"><ele>197.39999999999998</ele><time>2026-04-26T15:30:01Z</time></trkpt><trkpt lat="43.31990412621332" lon="-0.40363225434099703"><ele>197.60000000000002</ele><time>2026-04-26T15:30:03Z</time></trkpt><trkpt lat="43.31984613621397" lon="-0.40350936393862913"><ele>197.8</ele><time>2026-04-26T15:30:05Z</time></trkpt><trkpt lat="43.31978912114689" lon="-0.40337616564229234"><ele>198.0</ele><time>2026-04-26T15:30:07Z</time></trkpt><trkpt lat="43.31974706811708" lon="-0.4032205520227023"><ele>198.4</ele><time>2026-04-26T15:30:09Z</time></trkpt><trkpt lat="43.31969785706816" lon="-0.40307432927673237"><ele>198.8</ele><time>2026-04-26T15:30:11Z</time></trkpt><trkpt lat="43.31966663785838" lon="-0.40299370248932403"><ele>199.2</ele><time>2026-04-26T15:30:12Z</time></trkpt><trkpt lat="43.31964619371324" lon="-0.4029112298615081"><ele>199.6</ele><time>2026-04-26T15:30:13Z</time></trkpt><trkpt lat="43.319570676151805" lon="-0.40278040411975713"><ele>200.0</ele><time>2026-04-26T15:30:15Z</time></trkpt><trkpt lat="43.319518255391564" lon="-0.40263507395650666"><ele>200.0</ele><time>2026-04-26T15:30:17Z</time></trkpt><trkpt lat="43.319465119931294" lon="-0.40248735740337627"><ele>200.0</ele><time>2026-04-26T15:30:19Z</time></trkpt><trkpt lat="43.31941003152009" lon="-0.40233973860718525"><ele>200.0</ele><time>2026-04-26T15:30:21Z</time></trkpt><trkpt lat="43.31936421245074" lon="-0.4021831028388644"><ele>200.0</ele><time>2026-04-26T15:30:23Z</time></trkpt><trkpt lat="43.31933613098555" lon="-0.40210434686260266"><ele>200.0</ele><time>2026-04-26T15:30:24Z</time></trkpt><trkpt lat="43.319276029022454" lon="-0.40196212569396167"><ele>199.33333333333334</ele><time>2026-04-26T15:30:26Z</time></trkpt><trkpt lat="43.31921055440037" lon="-0.40181715911221433"><ele>198.66666666666669</ele><time>2026-04-26T15:30:28Z</time></trkpt><trkpt lat="43.31918317053866" lon="-0.4017369769016659"><ele>198.0</ele><time>2026-04-26T15:30:29Z</time></trkpt><trkpt lat="43.319147787531826" lon="-0.40166130899829494"><ele>197.33333333333331</ele><time>2026-04-26T15:30:30Z</time></trkpt><trkpt lat="43.3190853244169" lon="-0.4015140498578814"><ele>196.66666666666666</ele><time>2026-04-26T15:30:32Z</time></trkpt><trkpt lat="43.31905466150116" lon="-0.4014355676987946"><ele>196.0</ele><time>2026-04-26T15:30:33Z</time></trkpt><trkpt lat="43.31901702824204" lon="-0.4013579398452975"><ele>196.14285714285714</ele><time>2026-04-26T15:30:34Z</time></trkpt><trkpt lat="43.31898741863686" lon="-0.40128078282130103"><ele>196.28571428571428</ele><time>2026-04-26T15:30:35Z</time></trkpt><trkpt lat="43.3189526872922" lon="-0.4012072741693843"><ele>196.42857142857144</ele><time>2026-04-26T15:30:36Z</time></trkpt><trkpt lat="43.31891552069905" lon="-0.40113143993439576"><ele>196.57142857142856</ele><time>2026-04-26T15:30:37Z</time></trkpt><trkpt lat="43.318880722908155" lon="-0.40105436059065924"><ele>196.71428571428572</ele><time>2026-04-26T15:30:38Z</time></trkpt><trkpt lat="43.31884814069101" lon="-0.4009743768729383"><ele>196.85714285714286</ele><time>2026-04-26T15:30:39Z</time></trkpt><trkpt lat="43.31881311132362" lon="-0.40089864926375507"><ele>197.0</ele><time>2026-04-26T15:30:40Z</time></trkpt><trkpt lat="43.318780969828794" lon="-0.40081797878086045"><ele>196.85714285714286</ele><time>2026-04-26T15:30:41Z</time></trkpt><trkpt lat="43.318740116526634" lon="-0.4007473578710053"><ele>196.71428571428572</ele><time>2026-04-26T15:30:42Z</time></trkpt><trkpt lat="43.31870011350434" lon="-0.40067007029710316"><ele>196.57142857142856</ele><time>2026-04-26T15:30:43Z</time></trkpt><trkpt lat="43.31866850588541" lon="-0.40059258745063264"><ele>196.42857142857144</ele><time>2026-04-26T15:30:44Z</time></trkpt><trkpt lat="43.31863426293121" lon="-0.40051272810764765"><ele>196.28571428571428</ele><time>2026-04-26T15:30:45Z</time></trkpt><trkpt lat="43.318603743413185" lon="-0.4004355037204063"><ele>196.14285714285714</ele><time>2026-04-26T15:30:46Z</time></trkpt><trkpt lat="43.318568692649144" lon="-0.4003561702271029"><ele>196.0</ele><time>2026-04-26T15:30:47Z</time></trkpt><trkpt lat="43.31853967813695" lon="-0.40027418009739424"><ele>195.99999999999997</ele><time>2026-04-26T15:30:48Z</time></trkpt><trkpt lat="43.3185073376805" lon="-0.40018964069868457"><ele>196.0</ele><time>2026-04-26T15:30:49Z</time></trkpt><trkpt lat="43.318482861677914" lon="-0.4000984252405281"><ele>196.0</ele><time>2026-04-26T15:30:50Z</time></trkpt><trkpt lat="43.318460813383076" lon="-0.40000100722977505"><ele>196.0</ele><time>2026-04-26T15:30:51Z</time></trkpt><trkpt lat="43.31844211755909" lon="-0.39990958586803976"><ele>195.99999999999997</ele><time>2026-04-26T15:30:52Z</time></trkpt><trkpt lat="43.318427211861554" lon="-0.39981064849451375"><ele>196.0</ele><time>2026-04-26T15:30:53Z</time></trkpt><trkpt lat="43.31841161044006" lon="-0.39960979941847763"><ele>196.0</ele><time>2026-04-26T15:30:55Z</time></trkpt><trkpt lat="43.31840753961171" lon="-0.3995118908700898"><ele>196.0</ele><time>2026-04-26T15:30:56Z</time></trkpt><trkpt lat="43.31840819420142" lon="-0.3994097176914945"><ele>196.0</ele><time>2026-04-26T15:30:57Z</time></trkpt><trkpt lat="43.318411374273744" lon="-0.399306530179263"><ele>196.0</ele><time>2026-04-26T15:30:58Z</time></trkpt><trkpt lat="43.318401081077376" lon="-0.39921393126390536"><ele>196.0</ele><time>2026-04-26T15:30:59Z</time></trkpt><trkpt lat="43.31839687155762" lon="-0.39910919678932805"><ele>196.0</ele><time>2026-04-26T15:31:00Z</time></trkpt><trkpt lat="43.31838988128304" lon="-0.3990132922617951"><ele>196.0</ele><time>2026-04-26T15:31:01Z</time></trkpt><trkpt lat="43.318381887627666" lon="-0.39891454439820834"><ele>196.0</ele><time>2026-04-26T15:31:02Z</time></trkpt><trkpt lat="43.31837789957111" lon="-0.39881173426447847"><ele>196.0</ele><time>2026-04-26T15:31:03Z</time></trkpt><trkpt lat="43.3183746091877" lon="-0.3987149630382317"><ele>196.0</ele><time>2026-04-26T15:31:04Z</time></trkpt><trkpt lat="43.31836868736083" lon="-0.3986211983358057"><ele>196.0</ele><time>2026-04-26T15:31:05Z</time></trkpt><trkpt lat="43.318362957396744" lon="-0.39852871924396505"><ele>196.0</ele><time>2026-04-26T15:31:06Z</time></trkpt><trkpt lat="43.31835965475194" lon="-0.3984322358602267"><ele>196.0</ele><time>2026-04-26T15:31:07Z</time></trkpt><trkpt lat="43.31835822283457" lon="-0.3983361330349105"><ele>196.0</ele><time>2026-04-26T15:31:08Z</time></trkpt><trkpt lat="43.318351891976526" lon="-0.39823922395613187"><ele>196.0</ele><time>2026-04-26T15:31:09Z</time></trkpt><trkpt lat="43.31834801344038" lon="-0.3981419720526593"><ele>196.0</ele><time>2026-04-26T15:31:10Z</time></trkpt><trkpt lat="43.318343100715246" lon="-0.39804635635284724"><ele>196.0</ele><time>2026-04-26T15:31:11Z</time></trkpt><trkpt lat="43.318342172758385" lon="-0.39795262751836935"><ele>196.0</ele><time>2026-04-26T15:31:12Z</time></trkpt><trkpt lat="43.318338247366924" lon="-0.3978599189096684"><ele>196.0</ele><time>2026-04-26T15:31:13Z</time></trkpt><trkpt lat="43.318336918114824" lon="-0.39776387517415607"><ele>196.0</ele><time>2026-04-26T15:31:14Z</time></trkpt><trkpt lat="43.318340889164965" lon="-0.3976668531482163"><ele>196.0</ele><time>2026-04-26T15:31:15Z</time></trkpt><trkpt lat="43.318348037596266" lon="-0.3975721781826006"><ele>196.14285714285714</ele><time>2026-04-26T15:31:16Z</time></trkpt><trkpt lat="43.3183585373193" lon="-0.39747776166692317"><ele>196.28571428571428</ele><time>2026-04-26T15:31:17Z</time></trkpt><trkpt lat="43.31837446086938" lon="-0.39738741612310463"><ele>196.42857142857144</ele><time>2026-04-26T15:31:18Z</time></trkpt><trkpt lat="43.318376354827905" lon="-0.39729428134631817"><ele>196.57142857142856</ele><time>2026-04-26T15:31:19Z</time></trkpt><trkpt lat="43.31838438357519" lon="-0.39720199028112974"><ele>196.71428571428572</ele><time>2026-04-26T15:31:20Z</time></trkpt><trkpt lat="43.31837992546987" lon="-0.3971078379064529"><ele>196.85714285714286</ele><time>2026-04-26T15:31:21Z</time></trkpt><trkpt lat="43.318370142779656" lon="-0.3970112726046099"><ele>197.0</ele><time>2026-04-26T15:31:22Z</time></trkpt><trkpt lat="43.318348989051266" lon="-0.39691184236357446"><ele>197.0</ele><time>2026-04-26T15:31:23Z</time></trkpt><trkpt lat="43.318321247803844" lon="-0.396821886477055"><ele>197.0</ele><time>2026-04-26T15:31:24Z</time></trkpt><trkpt lat="43.31828161706923" lon="-0.3967349602452352"><ele>197.0</ele><time>2026-04-26T15:31:25Z</time></trkpt><trkpt lat="43.31823064238007" lon="-0.3966602324961295"><ele>197.0</ele><time>2026-04-26T15:31:26Z</time></trkpt><trkpt lat="43.31817280604501" lon="-0.3965940890506954"><ele>197.0</ele><time>2026-04-26T15:31:27Z</time></trkpt><trkpt lat="43.31811496383776" lon="-0.39653407765670773"><ele>197.0</ele><time>2026-04-26T15:31:28Z</time></trkpt><trkpt lat="43.31804378101319" lon="-0.39648639784639916"><ele>197.0</ele><time>2026-04-26T15:31:29Z</time></trkpt><trkpt lat="43.31798605018964" lon="-0.396422285980392"><ele>196.83333333333334</ele><time>2026-04-26T15:31:30Z</time></trkpt><trkpt lat="43.317924608777766" lon="-0.3963615459081665"><ele>196.66666666666669</ele><time>2026-04-26T15:31:31Z</time></trkpt><trkpt lat="43.31786120180516" lon="-0.39630656954582677"><ele>196.5</ele><time>2026-04-26T15:31:32Z</time></trkpt><trkpt lat="43.317797948480596" lon="-0.3962440625081143"><ele>196.33333333333331</ele><time>2026-04-26T15:31:33Z</time></trkpt><trkpt lat="43.31773505395623" lon="-0.3961851484806993"><ele>196.16666666666666</ele><time>2026-04-26T15:31:34Z</time></trkpt><trkpt lat="43.31767426151867" lon="-0.3961221241170553"><ele>196.0</ele><time>2026-04-26T15:31:35Z</time></trkpt><trkpt lat="43.317615021652436" lon="-0.39605371863272215"><ele>195.99999999999997</ele><time>2026-04-26T15:31:36Z</time></trkpt><trkpt lat="43.3175675782003" lon="-0.3959801219171738"><ele>196.0</ele><time>2026-04-26T15:31:37Z</time></trkpt><trkpt lat="43.31752120453555" lon="-0.3959082803008206"><ele>196.0</ele><time>2026-04-26T15:31:38Z</time></trkpt><trkpt lat="43.317480222721194" lon="-0.39583409862192703"><ele>196.0</ele><time>2026-04-26T15:31:39Z</time></trkpt><trkpt lat="43.31744296025873" lon="-0.39575989015705715"><ele>195.99999999999997</ele><time>2026-04-26T15:31:40Z</time></trkpt><trkpt lat="43.31737984043496" lon="-0.3956179414836056"><ele>196.0</ele><time>2026-04-26T15:31:42Z</time></trkpt><trkpt lat="43.317271738006156" lon="-0.3954463711198351"><ele>196.8</ele><time>2026-04-26T15:31:45Z</time></trkpt><trkpt lat="43.31721698587907" lon="-0.3953455376722318"><ele>197.60000000000002</ele><time>2026-04-26T15:31:47Z</time></trkpt><trkpt lat="43.317160519146476" lon="-0.39527295510407173"><ele>198.4</ele><time>2026-04-26T15:31:49Z</time></trkpt><trkpt lat="43.31706006259043" lon="-0.39522695801175384"><ele>199.2</ele><time>2026-04-26T15:31:51Z</time></trkpt><trkpt lat="43.31694481659733" lon="-0.3951903229723791"><ele>200.0</ele><time>2026-04-26T15:31:53Z</time></trkpt><trkpt lat="43.31686044791178" lon="-0.39509569547564893"><ele>200.0</ele><time>2026-04-26T15:31:55Z</time></trkpt><trkpt lat="43.31682586662828" lon="-0.39494871418797384"><ele>200.0</ele><time>2026-04-26T15:31:57Z</time></trkpt><trkpt lat="43.31686726903846" lon="-0.3947999013050115"><ele>200.0</ele><time>2026-04-26T15:31:59Z</time></trkpt><trkpt lat="43.31691732174724" lon="-0.3947417690653112"><ele>200.0</ele><time>2026-04-26T15:32:00Z</time></trkpt><trkpt lat="43.31703116437706" lon="-0.3946734762222909"><ele>200.0</ele><time>2026-04-26T15:32:02Z</time></trkpt><trkpt lat="43.31716809569817" lon="-0.394648891174039"><ele>199.71428571428572</ele><time>2026-04-26T15:32:04Z</time></trkpt><trkpt lat="43.317234430840244" lon="-0.39463399722336506"><ele>199.42857142857144</ele><time>2026-04-26T15:32:05Z</time></trkpt><trkpt lat="43.31729931593404" lon="-0.39461082794223157"><ele>199.14285714285717</ele><time>2026-04-26T15:32:06Z</time></trkpt><trkpt lat="43.31736280553724" lon="-0.3945830070259726"><ele>198.85714285714286</ele><time>2026-04-26T15:32:07Z</time></trkpt><trkpt lat="43.31742898431296" lon="-0.3945557038108895"><ele>198.57142857142856</ele><time>2026-04-26T15:32:08Z</time></trkpt><trkpt lat="43.317489615895134" lon="-0.394521063232815"><ele>198.2857142857143</ele><time>2026-04-26T15:32:09Z</time></trkpt><trkpt lat="43.31755336368864" lon="-0.39448540729724907"><ele>198.0</ele><time>2026-04-26T15:32:10Z</time></trkpt><trkpt lat="43.3176133348685" lon="-0.3944474698131473"><ele>197.85714285714286</ele><time>2026-04-26T15:32:11Z</time></trkpt><trkpt lat="43.3176729815598" lon="-0.3944045216227556"><ele>197.7142857142857</ele><time>2026-04-26T15:32:12Z</time></trkpt><trkpt lat="43.317737441315195" lon="-0.3943652446106041"><ele>197.57142857142856</ele><time>2026-04-26T15:32:13Z</time></trkpt><trkpt lat="43.3177951009752" lon="-0.39432137945709755"><ele>197.42857142857144</ele><time>2026-04-26T15:32:14Z</time></trkpt><trkpt lat="43.317853197293175" lon="-0.3942777813551621"><ele>197.28571428571428</ele><time>2026-04-26T15:32:15Z</time></trkpt><trkpt lat="43.31791647734478" lon="-0.39424212578515366"><ele>197.14285714285714</ele><time>2026-04-26T15:32:16Z</time></trkpt><trkpt lat="43.317976768853235" lon="-0.3942012690476191"><ele>197.0</ele><time>2026-04-26T15:32:17Z</time></trkpt><trkpt lat="43.31803797368795" lon="-0.39416507203617707"><ele>197.0</ele><time>2026-04-26T15:32:18Z</time></trkpt><trkpt lat="43.318101055019646" lon="-0.39412616660489397"><ele>197.0</ele><time>2026-04-26T15:32:19Z</time></trkpt><trkpt lat="43.31816870508511" lon="-0.3940841938391415"><ele>197.0</ele><time>2026-04-26T15:32:20Z</time></trkpt><trkpt lat="43.31823517601384" lon="-0.39404600017220653"><ele>197.0</ele><time>2026-04-26T15:32:21Z</time></trkpt><trkpt lat="43.31829994143758" lon="-0.3940064877228374"><ele>197.0</ele><time>2026-04-26T15:32:22Z</time></trkpt><trkpt lat="43.31836224247631" lon="-0.3939718238435475"><ele>197.0</ele><time>2026-04-26T15:32:23Z</time></trkpt><trkpt lat="43.31842897319065" lon="-0.39393153734252906"><ele>197.0</ele><time>2026-04-26T15:32:24Z</time></trkpt><trkpt lat="43.31849802856334" lon="-0.39389706417068854"><ele>197.0</ele><time>2026-04-26T15:32:25Z</time></trkpt><trkpt lat="43.318564577594024" lon="-0.3938569823930984"><ele>197.0</ele><time>2026-04-26T15:32:26Z</time></trkpt><trkpt lat="43.31863121978534" lon="-0.39381356985882093"><ele>197.0</ele><time>2026-04-26T15:32:27Z</time></trkpt><trkpt lat="43.31869720511172" lon="-0.3937718442843522"><ele>197.0</ele><time>2026-04-26T15:32:28Z</time></trkpt><trkpt lat="43.31876997757986" lon="-0.39372974542416767"><ele>197.0</ele><time>2026-04-26T15:32:29Z</time></trkpt><trkpt lat="43.318838800166446" lon="-0.39369454787160113"><ele>197.0</ele><time>2026-04-26T15:32:30Z</time></trkpt><trkpt lat="43.3189044431588" lon="-0.3936534551926521"><ele>197.0</ele><time>2026-04-26T15:32:31Z</time></trkpt><trkpt lat="43.31896928661193" lon="-0.3936177756959854"><ele>197.14285714285714</ele><time>2026-04-26T15:32:32Z</time></trkpt><trkpt lat="43.319037572549874" lon="-0.39357891681369955"><ele>197.28571428571428</ele><time>2026-04-26T15:32:33Z</time></trkpt><trkpt lat="43.319101539748544" lon="-0.39353357795980726"><ele>197.42857142857144</ele><time>2026-04-26T15:32:34Z</time></trkpt><trkpt lat="43.31916759796491" lon="-0.3934876683053549"><ele>197.57142857142856</ele><time>2026-04-26T15:32:35Z</time></trkpt><trkpt lat="43.31923054872196" lon="-0.39344415859958703"><ele>197.7142857142857</ele><time>2026-04-26T15:32:36Z</time></trkpt><trkpt lat="43.31929459289438" lon="-0.39339714725711483"><ele>197.85714285714286</ele><time>2026-04-26T15:32:37Z</time></trkpt><trkpt lat="43.31936225606654" lon="-0.3933484108816283"><ele>198.0</ele><time>2026-04-26T15:32:38Z</time></trkpt><trkpt lat="43.3194236500837" lon="-0.39329507150445236"><ele>198.0</ele><time>2026-04-26T15:32:39Z</time></trkpt><trkpt lat="43.319484008878035" lon="-0.39325063342633304"><ele>198.0</ele><time>2026-04-26T15:32:40Z</time></trkpt><trkpt lat="43.31954277446548" lon="-0.39319775031182597"><ele>198.0</ele><time>2026-04-26T15:32:41Z</time></trkpt><trkpt lat="43.31959922477547" lon="-0.3931438039296817"><ele>198.0</ele><time>2026-04-26T15:32:42Z</time></trkpt><trkpt lat="43.31965551480846" lon="-0.39309419473508805"><ele>198.0</ele><time>2026-04-26T15:32:43Z</time></trkpt><trkpt lat="43.319711794736044" lon="-0.3930393493270807"><ele>198.0</ele><time>2026-04-26T15:32:44Z</time></trkpt><trkpt lat="43.319765185115635" lon="-0.3929816154654478"><ele>198.0</ele><time>2026-04-26T15:32:45Z</time></trkpt><trkpt lat="43.31981748945566" lon="-0.39292812828235224"><ele>198.33333333333334</ele><time>2026-04-26T15:32:46Z</time></trkpt><trkpt lat="43.31986769040406" lon="-0.3928742686210481"><ele>198.66666666666669</ele><time>2026-04-26T15:32:47Z</time></trkpt><trkpt lat="43.31993790243234" lon="-0.392789031086502"><ele>199.0</ele><time>2026-04-26T15:32:49Z</time></trkpt><trkpt lat="43.319993535256884" lon="-0.3927265654703617"><ele>199.33333333333334</ele><time>2026-04-26T15:32:51Z</time></trkpt><trkpt lat="43.320054155908906" lon="-0.3926491907105899"><ele>199.66666666666669</ele><time>2026-04-26T15:32:54Z</time></trkpt><trkpt lat="43.32011457088173" lon="-0.3925722070118363"><ele>200.0</ele><time>2026-04-26T15:32:57Z</time></trkpt><trkpt lat="43.32016700902818" lon="-0.39250223198724066"><ele>200.00000000000003</ele><time>2026-04-26T15:32:59Z</time></trkpt><trkpt lat="43.32022443438478" lon="-0.392425123531043"><ele>200.0</ele><time>2026-04-26T15:33:01Z</time></trkpt><trkpt lat="43.32027594303224" lon="-0.39235557640386637"><ele>200.0</ele><time>2026-04-26T15:33:03Z</time></trkpt><trkpt lat="43.3203324247847" lon="-0.3922747215838225"><ele>200.0</ele><time>2026-04-26T15:33:06Z</time></trkpt><trkpt lat="43.3203891231161" lon="-0.39217449152039763"><ele>200.00000000000003</ele><time>2026-04-26T15:33:09Z</time></trkpt><trkpt lat="43.3204217393319" lon="-0.39209936612432333"><ele>200.0</ele><time>2026-04-26T15:33:11Z</time></trkpt><trkpt lat="43.32046338835399" lon="-0.39199581299824976"><ele>200.00000000000003</ele><time>2026-04-26T15:33:14Z</time></trkpt><trkpt lat="43.320466184774865" lon="-0.39187433200567157"><ele>200.0</ele><time>2026-04-26T15:33:16Z</time></trkpt><trkpt lat="43.32048605168491" lon="-0.39174261366002744"><ele>200.0</ele><time>2026-04-26T15:33:18Z</time></trkpt><trkpt lat="43.32055622016351" lon="-0.39160967555339377"><ele>200.0</ele><time>2026-04-26T15:33:20Z</time></trkpt><trkpt lat="43.32061379215369" lon="-0.39157230095160916"><ele>200.00000000000003</ele><time>2026-04-26T15:33:21Z</time></trkpt><trkpt lat="43.320677287178555" lon="-0.39154449313731976"><ele>200.0</ele><time>2026-04-26T15:33:22Z</time></trkpt><trkpt lat="43.320742052097174" lon="-0.3915348593716102"><ele>199.83333333333334</ele><time>2026-04-26T15:33:23Z</time></trkpt><trkpt lat="43.32080456664339" lon="-0.39154581687086915"><ele>199.66666666666669</ele><time>2026-04-26T15:33:24Z</time></trkpt><trkpt lat="43.32086452709904" lon="-0.39158733298835763"><ele>199.5</ele><time>2026-04-26T15:33:25Z</time></trkpt><trkpt lat="43.320916340171635" lon="-0.3916424946725931"><ele>199.33333333333331</ele><time>2026-04-26T15:33:26Z</time></trkpt><trkpt lat="43.320961874588825" lon="-0.3917056712233402"><ele>199.16666666666666</ele><time>2026-04-26T15:33:27Z</time></trkpt><trkpt lat="43.32099918254408" lon="-0.39188174545942805"><ele>199.0</ele><time>2026-04-26T15:33:29Z</time></trkpt><trkpt lat="43.321002938205474" lon="-0.39198934720362705"><ele>198.99999999999997</ele><time>2026-04-26T15:33:30Z</time></trkpt><trkpt lat="43.32097498444987" lon="-0.39217867190338945"><ele>199.0</ele><time>2026-04-26T15:33:32Z</time></trkpt><trkpt lat="43.32097022519059" lon="-0.3922790929007902"><ele>199.0</ele><time>2026-04-26T15:33:33Z</time></trkpt><trkpt lat="43.32098466224578" lon="-0.3923825992938233"><ele>199.0</ele><time>2026-04-26T15:33:34Z</time></trkpt><trkpt lat="43.32101739854164" lon="-0.3924801823758969"><ele>198.99999999999997</ele><time>2026-04-26T15:33:35Z</time></trkpt><trkpt lat="43.32104826747378" lon="-0.3925777516467753"><ele>199.0</ele><time>2026-04-26T15:33:36Z</time></trkpt><trkpt lat="43.321078557222606" lon="-0.39267317029548665"><ele>198.99999999999997</ele><time>2026-04-26T15:33:37Z</time></trkpt><trkpt lat="43.3210993680219" lon="-0.3927768202127727"><ele>199.0</ele><time>2026-04-26T15:33:38Z</time></trkpt><trkpt lat="43.321131540536925" lon="-0.3928733694693685"><ele>199.0</ele><time>2026-04-26T15:33:39Z</time></trkpt><trkpt lat="43.321158926820694" lon="-0.39297010089465045"><ele>199.0</ele><time>2026-04-26T15:33:40Z</time></trkpt><trkpt lat="43.321187051824346" lon="-0.39306594651398913"><ele>198.99999999999997</ele><time>2026-04-26T15:33:41Z</time></trkpt><trkpt lat="43.3212096366328" lon="-0.39316642814265274"><ele>199.0</ele><time>2026-04-26T15:33:42Z</time></trkpt><trkpt lat="43.32123782962181" lon="-0.39326872843898825"><ele>198.99999999999997</ele><time>2026-04-26T15:33:43Z</time></trkpt><trkpt lat="43.32126146820098" lon="-0.3933700537994909"><ele>199.0</ele><time>2026-04-26T15:33:44Z</time></trkpt><trkpt lat="43.321290568707894" lon="-0.39346693874766575"><ele>199.0</ele><time>2026-04-26T15:33:45Z</time></trkpt><trkpt lat="43.32131832891613" lon="-0.39356520556986635"><ele>199.0</ele><time>2026-04-26T15:33:46Z</time></trkpt><trkpt lat="43.321343728003654" lon="-0.3936660599149038"><ele>198.99999999999997</ele><time>2026-04-26T15:33:47Z</time></trkpt><trkpt lat="43.32137157935895" lon="-0.39376451515644395"><ele>199.0</ele><time>2026-04-26T15:33:48Z</time></trkpt><trkpt lat="43.32139510232464" lon="-0.3938664947684156"><ele>199.33333333333331</ele><time>2026-04-26T15:33:49Z</time></trkpt><trkpt lat="43.32142302605157" lon="-0.39396688492400195"><ele>199.66666666666666</ele><time>2026-04-26T15:33:50Z</time></trkpt><trkpt lat="43.32144935389871" lon="-0.3940680163400187"><ele>200.0</ele><time>2026-04-26T15:33:51Z</time></trkpt><trkpt lat="43.321475899717896" lon="-0.3941672906265352"><ele>200.33333333333331</ele><time>2026-04-26T15:33:52Z</time></trkpt><trkpt lat="43.32150414956815" lon="-0.3942705609613562"><ele>200.66666666666666</ele><time>2026-04-26T15:33:53Z</time></trkpt><trkpt lat="43.321534421537116" lon="-0.39437096077930966"><ele>201.0</ele><time>2026-04-26T15:33:54Z</time></trkpt><trkpt lat="43.32156451914512" lon="-0.39447075255139813"><ele>201.0</ele><time>2026-04-26T15:33:55Z</time></trkpt><trkpt lat="43.32159452728851" lon="-0.3945707838465338"><ele>201.0</ele><time>2026-04-26T15:33:56Z</time></trkpt><trkpt lat="43.32162091200404" lon="-0.39467578406335885"><ele>201.0</ele><time>2026-04-26T15:33:57Z</time></trkpt><trkpt lat="43.321648250215425" lon="-0.3947761483656316"><ele>201.0</ele><time>2026-04-26T15:33:58Z</time></trkpt><trkpt lat="43.32167638759273" lon="-0.39487863547124613"><ele>201.0</ele><time>2026-04-26T15:33:59Z</time></trkpt><trkpt lat="43.32170542418356" lon="-0.3949809894935956"><ele>201.0</ele><time>2026-04-26T15:34:00Z</time></trkpt><trkpt lat="43.32173424954961" lon="-0.3950828571703858"><ele>201.0</ele><time>2026-04-26T15:34:01Z</time></trkpt><trkpt lat="43.32176311821574" lon="-0.39518512091786345"><ele>201.0</ele><time>2026-04-26T15:34:02Z</time></trkpt><trkpt lat="43.32181246357077" lon="-0.3953936091370852"><ele>201.0</ele><time>2026-04-26T15:34:04Z</time></trkpt><trkpt lat="43.32183222957071" lon="-0.39548571260052345"><ele>201.0</ele><time>2026-04-26T15:34:05Z</time></trkpt><trkpt lat="43.32186539335785" lon="-0.3955940418203317"><ele>201.0</ele><time>2026-04-26T15:34:06Z</time></trkpt><trkpt lat="43.321894344184884" lon="-0.39569237593721196"><ele>201.0</ele><time>2026-04-26T15:34:07Z</time></trkpt><trkpt lat="43.32192286096315" lon="-0.39579665642671397"><ele>201.0</ele><time>2026-04-26T15:34:08Z</time></trkpt><trkpt lat="43.32195170614392" lon="-0.3958998572110747"><ele>201.0</ele><time>2026-04-26T15:34:09Z</time></trkpt><trkpt lat="43.321979160559245" lon="-0.39599909110534065"><ele>201.0</ele><time>2026-04-26T15:34:10Z</time></trkpt><trkpt lat="43.32201072398748" lon="-0.39609927890375296"><ele>201.0</ele><time>2026-04-26T15:34:11Z</time></trkpt><trkpt lat="43.322036022631146" lon="-0.39620564093500543"><ele>201.0</ele><time>2026-04-26T15:34:12Z</time></trkpt><trkpt lat="43.32205923557471" lon="-0.3963083281275686"><ele>201.0</ele><time>2026-04-26T15:34:13Z</time></trkpt><trkpt lat="43.32209266822321" lon="-0.39640201320744134"><ele>201.0</ele><time>2026-04-26T15:34:14Z</time></trkpt><trkpt lat="43.322115921128656" lon="-0.3965008702070487"><ele>201.0</ele><time>2026-04-26T15:34:15Z</time></trkpt><trkpt lat="43.322143782745925" lon="-0.39660028309145334"><ele>201.0</ele><time>2026-04-26T15:34:16Z</time></trkpt><trkpt lat="43.322169993334526" lon="-0.3967035069177032"><ele>201.0</ele><time>2026-04-26T15:34:17Z</time></trkpt><trkpt lat="43.32220017346193" lon="-0.3968006886709555"><ele>201.0</ele><time>2026-04-26T15:34:18Z</time></trkpt><trkpt lat="43.322229256582965" lon="-0.3969001503589212"><ele>201.0</ele><time>2026-04-26T15:34:19Z</time></trkpt><trkpt lat="43.32225403424185" lon="-0.3970069608715712"><ele>201.0</ele><time>2026-04-26T15:34:20Z</time></trkpt><trkpt lat="43.322280180689745" lon="-0.39711351601061723"><ele>201.0</ele><time>2026-04-26T15:34:21Z</time></trkpt><trkpt lat="43.32230510415634" lon="-0.39721083131860707"><ele>201.0</ele><time>2026-04-26T15:34:22Z</time></trkpt><trkpt lat="43.3223330631484" lon="-0.39731141778623874"><ele>201.0</ele><time>2026-04-26T15:34:23Z</time></trkpt><trkpt lat="43.32235628461478" lon="-0.3974124575322154"><ele>201.0</ele><time>2026-04-26T15:34:24Z</time></trkpt><trkpt lat="43.32237991797274" lon="-0.39751584435072945"><ele>201.0</ele><time>2026-04-26T15:34:25Z</time></trkpt><trkpt lat="43.32240160435441" lon="-0.3976032408621053"><ele>201.0</ele><time>2026-04-26T15:34:26Z</time></trkpt><trkpt lat="43.322429529287724" lon="-0.3977042691629571"><ele>201.0</ele><time>2026-04-26T15:34:27Z</time></trkpt><trkpt lat="43.32243298602921" lon="-0.39781475417052786"><ele>201.0</ele><time>2026-04-26T15:34:28Z</time></trkpt><trkpt lat="43.322444740418945" lon="-0.3979162305832894"><ele>201.0</ele><time>2026-04-26T15:34:29Z</time></trkpt><trkpt lat="43.32246841180492" lon="-0.39801451946047467"><ele>201.0</ele><time>2026-04-26T15:34:30Z</time></trkpt><trkpt lat="43.322482613813" lon="-0.3981108004083667"><ele>201.0</ele><time>2026-04-26T15:34:31Z</time></trkpt><trkpt lat="43.32249447485214" lon="-0.39820992470056743"><ele>200.85714285714286</ele><time>2026-04-26T15:34:32Z</time></trkpt><trkpt lat="43.32250523834641" lon="-0.39830529399456027"><ele>200.71428571428572</ele><time>2026-04-26T15:34:33Z</time></trkpt><trkpt lat="43.32252567023452" lon="-0.39840234217713916"><ele>200.57142857142858</ele><time>2026-04-26T15:34:34Z</time></trkpt><trkpt lat="43.32254311528952" lon="-0.39849946095224054"><ele>200.42857142857144</ele><time>2026-04-26T15:34:35Z</time></trkpt><trkpt lat="43.32256620007564" lon="-0.3985876444421867"><ele>200.28571428571428</ele><time>2026-04-26T15:34:36Z</time></trkpt><trkpt lat="43.32258535375529" lon="-0.39868313936778405"><ele>200.14285714285717</ele><time>2026-04-26T15:34:37Z</time></trkpt><trkpt lat="43.322611751607546" lon="-0.3987721957679407"><ele>200.0</ele><time>2026-04-26T15:34:38Z</time></trkpt><trkpt lat="43.32264571453144" lon="-0.3988544160408984"><ele>199.42857142857144</ele><time>2026-04-26T15:34:39Z</time></trkpt><trkpt lat="43.322698347724334" lon="-0.39891838917862404"><ele>198.85714285714286</ele><time>2026-04-26T15:34:40Z</time></trkpt><trkpt lat="43.322761674290284" lon="-0.39895403289744"><ele>198.28571428571428</ele><time>2026-04-26T15:34:41Z</time></trkpt><trkpt lat="43.322827392871424" lon="-0.398984075342684"><ele>197.71428571428572</ele><time>2026-04-26T15:34:42Z</time></trkpt><trkpt lat="43.32289265775964" lon="-0.39901260507557307"><ele>197.14285714285714</ele><time>2026-04-26T15:34:43Z</time></trkpt><trkpt lat="43.322951505452934" lon="-0.39906726523194763"><ele>196.57142857142858</ele><time>2026-04-26T15:34:44Z</time></trkpt><trkpt lat="43.32299073879027" lon="-0.3991469646268827"><ele>196.0</ele><time>2026-04-26T15:34:45Z</time></trkpt><trkpt lat="43.323001297931874" lon="-0.39924535954036583"><ele>196.0</ele><time>2026-04-26T15:34:46Z</time></trkpt><trkpt lat="43.323005065505846" lon="-0.3993377498585507"><ele>196.0</ele><time>2026-04-26T15:34:47Z</time></trkpt><trkpt lat="43.322999234439514" lon="-0.3994304213614819"><ele>196.0</ele><time>2026-04-26T15:34:48Z</time></trkpt><trkpt lat="43.32299577767276" lon="-0.3995289728924262"><ele>196.0</ele><time>2026-04-26T15:34:49Z</time></trkpt><trkpt lat="43.32299604437798" lon="-0.39961923523354104"><ele>196.0</ele><time>2026-04-26T15:34:50Z</time></trkpt><trkpt lat="43.32300694055652" lon="-0.3997130866301678"><ele>196.0</ele><time>2026-04-26T15:34:51Z</time></trkpt><trkpt lat="43.32302545717088" lon="-0.39980461419102264"><ele>196.0</ele><time>2026-04-26T15:34:52Z</time></trkpt><trkpt lat="43.32305491862387" lon="-0.3998934136037775"><ele>195.49999999999997</ele><time>2026-04-26T15:34:53Z</time></trkpt><trkpt lat="43.32308443137822" lon="-0.3999860811894829"><ele>195.0</ele><time>2026-04-26T15:34:54Z</time></trkpt><trkpt lat="43.32310253728577" lon="-0.4000849849193657"><ele>194.5</ele><time>2026-04-26T15:34:55Z</time></trkpt><trkpt lat="43.32311635036366" lon="-0.40018895982432123"><ele>194.0</ele><time>2026-04-26T15:34:56Z</time></trkpt><trkpt lat="43.32313257716625" lon="-0.40029054320063495"><ele>193.49999999999997</ele><time>2026-04-26T15:34:57Z</time></trkpt><trkpt lat="43.32314599422193" lon="-0.40039697810990665"><ele>193.0</ele><time>2026-04-26T15:34:58Z</time></trkpt><trkpt lat="43.323157599517785" lon="-0.4005062777145035"><ele>192.99999999999997</ele><time>2026-04-26T15:34:59Z</time></trkpt><trkpt lat="43.32317426302057" lon="-0.40061511409522865"><ele>193.0</ele><time>2026-04-26T15:35:00Z</time></trkpt><trkpt lat="43.32319051317986" lon="-0.4007274183754262"><ele>193.0</ele><time>2026-04-26T15:35:01Z</time></trkpt><trkpt lat="43.32320928164896" lon="-0.40084238121097526"><ele>193.0</ele><time>2026-04-26T15:35:02Z</time></trkpt><trkpt lat="43.323232581271604" lon="-0.4009524135247284"><ele>192.99999999999997</ele><time>2026-04-26T15:35:03Z</time></trkpt><trkpt lat="43.32325646964547" lon="-0.4010639291908338"><ele>193.0</ele><time>2026-04-26T15:35:04Z</time></trkpt><trkpt lat="43.32327756841612" lon="-0.40117426369154385"><ele>192.99999999999997</ele><time>2026-04-26T15:35:05Z</time></trkpt><trkpt lat="43.32330268999378" lon="-0.40128026236112735"><ele>193.0</ele><time>2026-04-26T15:35:06Z</time></trkpt><trkpt lat="43.32332779562956" lon="-0.40139063779886136"><ele>193.0</ele><time>2026-04-26T15:35:07Z</time></trkpt><trkpt lat="43.32335612112001" lon="-0.40149851587270385"><ele>193.0</ele><time>2026-04-26T15:35:08Z</time></trkpt><trkpt lat="43.32338267214836" lon="-0.4016055775777628"><ele>192.99999999999997</ele><time>2026-04-26T15:35:09Z</time></trkpt><trkpt lat="43.323409206299985" lon="-0.40171475949284746"><ele>193.0</ele><time>2026-04-26T15:35:10Z</time></trkpt><trkpt lat="43.32343474346286" lon="-0.4018206363019508"><ele>192.83333333333331</ele><time>2026-04-26T15:35:11Z</time></trkpt><trkpt lat="43.3234612339552" lon="-0.40192990187221067"><ele>192.66666666666666</ele><time>2026-04-26T15:35:12Z</time></trkpt><trkpt lat="43.32349483795575" lon="-0.4020376572221437"><ele>192.5</ele><time>2026-04-26T15:35:13Z</time></trkpt><trkpt lat="43.32352017927934" lon="-0.40214338172855596"><ele>192.33333333333331</ele><time>2026-04-26T15:35:14Z</time></trkpt><trkpt lat="43.323541898161125" lon="-0.4022532899811872"><ele>192.16666666666666</ele><time>2026-04-26T15:35:15Z</time></trkpt><trkpt lat="43.32356607567903" lon="-0.402361115057443"><ele>192.0</ele><time>2026-04-26T15:35:16Z</time></trkpt><trkpt lat="43.323594110052476" lon="-0.40246740790548124"><ele>192.0</ele><time>2026-04-26T15:35:17Z</time></trkpt><trkpt lat="43.3236240658079" lon="-0.4025728799500826"><ele>192.0</ele><time>2026-04-26T15:35:18Z</time></trkpt><trkpt lat="43.3236512039272" lon="-0.40267542629844144"><ele>192.0</ele><time>2026-04-26T15:35:19Z</time></trkpt><trkpt lat="43.323684216365464" lon="-0.4027751456918893"><ele>192.0</ele><time>2026-04-26T15:35:20Z</time></trkpt><trkpt lat="43.32371628835829" lon="-0.40287231341741725"><ele>192.0</ele><time>2026-04-26T15:35:21Z</time></trkpt><trkpt lat="43.32374546124377" lon="-0.40298095033506953"><ele>192.0</ele><time>2026-04-26T15:35:22Z</time></trkpt><trkpt lat="43.323780745668635" lon="-0.4030827833571283"><ele>191.66666666666666</ele><time>2026-04-26T15:35:23Z</time></trkpt><trkpt lat="43.323813267032634" lon="-0.4031786263700731"><ele>191.33333333333334</ele><time>2026-04-26T15:35:24Z</time></trkpt><trkpt lat="43.32384805819575" lon="-0.4032863568934551"><ele>191.0</ele><time>2026-04-26T15:35:25Z</time></trkpt><trkpt lat="43.32387915644027" lon="-0.4033897027200722"><ele>190.66666666666669</ele><time>2026-04-26T15:35:26Z</time></trkpt><trkpt lat="43.32390844091347" lon="-0.4034934156077097"><ele>190.33333333333334</ele><time>2026-04-26T15:35:27Z</time></trkpt><trkpt lat="43.323949259086916" lon="-0.4035936030027665"><ele>190.0</ele><time>2026-04-26T15:35:28Z</time></trkpt><trkpt lat="43.32399068181639" lon="-0.4036930516729255"><ele>190.0</ele><time>2026-04-26T15:35:29Z</time></trkpt><trkpt lat="43.32402710011032" lon="-0.4037923027922275"><ele>190.0</ele><time>2026-04-26T15:35:30Z</time></trkpt><trkpt lat="43.324064377977344" lon="-0.4038939904857162"><ele>190.0</ele><time>2026-04-26T15:35:31Z</time></trkpt><trkpt lat="43.324100053580906" lon="-0.4039914237333905"><ele>190.0</ele><time>2026-04-26T15:35:32Z</time></trkpt><trkpt lat="43.3241376015094" lon="-0.40409127843744247"><ele>190.0</ele><time>2026-04-26T15:35:33Z</time></trkpt><trkpt lat="43.32417608129889" lon="-0.4041853085572862"><ele>190.0</ele><time>2026-04-26T15:35:34Z</time></trkpt><trkpt lat="43.324214615739315" lon="-0.40428405681074603"><ele>189.83333333333334</ele><time>2026-04-26T15:35:35Z</time></trkpt><trkpt lat="43.32425895785279" lon="-0.4043787820807762"><ele>189.66666666666669</ele><time>2026-04-26T15:35:36Z</time></trkpt><trkpt lat="43.32430569949256" lon="-0.4044720911407381"><ele>189.5</ele><time>2026-04-26T15:35:37Z</time></trkpt><trkpt lat="43.32434988104094" lon="-0.4045679897412869"><ele>189.33333333333334</ele><time>2026-04-26T15:35:38Z</time></trkpt><trkpt lat="43.324393915236406" lon="-0.40466573776262577"><ele>189.16666666666666</ele><time>2026-04-26T15:35:39Z</time></trkpt><trkpt lat="43.324440720540004" lon="-0.4047536839860198"><ele>189.0</ele><time>2026-04-26T15:35:40Z</time></trkpt><trkpt lat="43.32449049852654" lon="-0.4048391345146997"><ele>189.0</ele><time>2026-04-26T15:35:41Z</time></trkpt><trkpt lat="43.324593000370776" lon="-0.4050176379619057"><ele>189.0</ele><time>2026-04-26T15:35:43Z</time></trkpt><trkpt lat="43.32464772627106" lon="-0.4051065117246737"><ele>189.0</ele><time>2026-04-26T15:35:44Z</time></trkpt><trkpt lat="43.324694957478656" lon="-0.4052049099646017"><ele>189.0</ele><time>2026-04-26T15:35:45Z</time></trkpt><trkpt lat="43.324745240806415" lon="-0.4052922879627419"><ele>189.0</ele><time>2026-04-26T15:35:46Z</time></trkpt><trkpt lat="43.32478594291584" lon="-0.4054116172534043"><ele>188.79999999999998</ele><time>2026-04-26T15:35:47Z</time></trkpt><trkpt lat="43.32483109176298" lon="-0.40552521124713115"><ele>188.6</ele><time>2026-04-26T15:35:48Z</time></trkpt><trkpt lat="43.324926554637756" lon="-0.4056606932874616"><ele>188.4</ele><time>2026-04-26T15:35:50Z</time></trkpt><trkpt lat="43.32499254792227" lon="-0.4057398183327132"><ele>188.2</ele><time>2026-04-26T15:35:51Z</time></trkpt><trkpt lat="43.325049406534895" lon="-0.40581626943918486"><ele>188.0</ele><time>2026-04-26T15:35:52Z</time></trkpt><trkpt lat="43.32514341056274" lon="-0.40598073475371055"><ele>188.0</ele><time>2026-04-26T15:35:54Z</time></trkpt><trkpt lat="43.32519490261501" lon="-0.40607165632631226"><ele>188.0</ele><time>2026-04-26T15:35:55Z</time></trkpt><trkpt lat="43.32524509385613" lon="-0.40615390080610725"><ele>188.0</ele><time>2026-04-26T15:35:56Z</time></trkpt><trkpt lat="43.32528597333024" lon="-0.40624319317635094"><ele>188.0</ele><time>2026-04-26T15:35:57Z</time></trkpt><trkpt lat="43.325341618871654" lon="-0.40632340649656723"><ele>188.0</ele><time>2026-04-26T15:35:58Z</time></trkpt><trkpt lat="43.32539976501501" lon="-0.4064043181779993"><ele>188.0</ele><time>2026-04-26T15:35:59Z</time></trkpt><trkpt lat="43.32544001292591" lon="-0.4064955938250174"><ele>188.16666666666666</ele><time>2026-04-26T15:36:00Z</time></trkpt><trkpt lat="43.32550099692715" lon="-0.4065501029187541"><ele>188.33333333333331</ele><time>2026-04-26T15:36:01Z</time></trkpt><trkpt lat="43.325552932838555" lon="-0.4066388100547869"><ele>188.5</ele><time>2026-04-26T15:36:02Z</time></trkpt><trkpt lat="43.325591802488475" lon="-0.40673762443003497"><ele>188.66666666666666</ele><time>2026-04-26T15:36:03Z</time></trkpt><trkpt lat="43.32564306185209" lon="-0.40683062360603384"><ele>188.83333333333334</ele><time>2026-04-26T15:36:04Z</time></trkpt><trkpt lat="43.325688245516574" lon="-0.4069219171389789"><ele>189.0</ele><time>2026-04-26T15:36:05Z</time></trkpt><trkpt lat="43.32572973849064" lon="-0.40701557268016897"><ele>189.0</ele><time>2026-04-26T15:36:06Z</time></trkpt><trkpt lat="43.32577713592136" lon="-0.40710176832306"><ele>189.0</ele><time>2026-04-26T15:36:07Z</time></trkpt><trkpt lat="43.32581292542699" lon="-0.4072088438563528"><ele>189.0</ele><time>2026-04-26T15:36:08Z</time></trkpt><trkpt lat="43.3258499073878" lon="-0.40729551340053227"><ele>189.0</ele><time>2026-04-26T15:36:09Z</time></trkpt><trkpt lat="43.32589004158549" lon="-0.40739007301960173"><ele>189.0</ele><time>2026-04-26T15:36:10Z</time></trkpt><trkpt lat="43.32592639723904" lon="-0.40748502039678886"><ele>189.0</ele><time>2026-04-26T15:36:11Z</time></trkpt><trkpt lat="43.32596391552856" lon="-0.407573435705785"><ele>188.71428571428572</ele><time>2026-04-26T15:36:12Z</time></trkpt><trkpt lat="43.32599637340621" lon="-0.4076620234988073"><ele>188.42857142857144</ele><time>2026-04-26T15:36:13Z</time></trkpt><trkpt lat="43.32603881325402" lon="-0.4077543062530432"><ele>188.14285714285714</ele><time>2026-04-26T15:36:14Z</time></trkpt><trkpt lat="43.32607532867229" lon="-0.40784502795549754"><ele>187.85714285714286</ele><time>2026-04-26T15:36:15Z</time></trkpt><trkpt lat="43.3261127544896" lon="-0.40794206866877714"><ele>187.57142857142858</ele><time>2026-04-26T15:36:16Z</time></trkpt><trkpt lat="43.32614930222782" lon="-0.40802072657563804"><ele>187.28571428571428</ele><time>2026-04-26T15:36:17Z</time></trkpt><trkpt lat="43.32617011818986" lon="-0.40811395604349326"><ele>187.0</ele><time>2026-04-26T15:36:18Z</time></trkpt><trkpt lat="43.326204896770996" lon="-0.40821051882473297"><ele>187.0</ele><time>2026-04-26T15:36:19Z</time></trkpt><trkpt lat="43.326240249644094" lon="-0.40829045077692"><ele>187.0</ele><time>2026-04-26T15:36:20Z</time></trkpt><trkpt lat="43.32627620666477" lon="-0.40838027488387546"><ele>187.0</ele><time>2026-04-26T15:36:21Z</time></trkpt><trkpt lat="43.326314581368365" lon="-0.40846902241332445"><ele>187.0</ele><time>2026-04-26T15:36:22Z</time></trkpt><trkpt lat="43.326359411832264" lon="-0.40854732904654145"><ele>187.0</ele><time>2026-04-26T15:36:23Z</time></trkpt><trkpt lat="43.32640172644472" lon="-0.4086243856173162"><ele>187.0</ele><time>2026-04-26T15:36:24Z</time></trkpt><trkpt lat="43.32646157402869" lon="-0.40867523076448264"><ele>187.0</ele><time>2026-04-26T15:36:25Z</time></trkpt><trkpt lat="43.32654105712829" lon="-0.40870121586769037"><ele>186.85714285714286</ele><time>2026-04-26T15:36:26Z</time></trkpt><trkpt lat="43.3266153844128" lon="-0.4086797018081202"><ele>186.71428571428572</ele><time>2026-04-26T15:36:27Z</time></trkpt><trkpt lat="43.32667974019687" lon="-0.40861159735414093"><ele>186.57142857142858</ele><time>2026-04-26T15:36:28Z</time></trkpt><trkpt lat="43.326722652468185" lon="-0.4085209526136615"><ele>186.42857142857144</ele><time>2026-04-26T15:36:29Z</time></trkpt><trkpt lat="43.326754705953064" lon="-0.4084264234167571"><ele>186.28571428571428</ele><time>2026-04-26T15:36:30Z</time></trkpt><trkpt lat="43.32677673891384" lon="-0.40833852108859336"><ele>186.14285714285717</ele><time>2026-04-26T15:36:31Z</time></trkpt><trkpt lat="43.32680773006481" lon="-0.40825448118505764"><ele>186.0</ele><time>2026-04-26T15:36:32Z</time></trkpt><trkpt lat="43.3268456155515" lon="-0.4081617760443631"><ele>186.0</ele><time>2026-04-26T15:36:33Z</time></trkpt><trkpt lat="43.326889040233894" lon="-0.40808784011697635"><ele>186.0</ele><time>2026-04-26T15:36:34Z</time></trkpt><trkpt lat="43.32694474997211" lon="-0.40803904440370004"><ele>186.0</ele><time>2026-04-26T15:36:35Z</time></trkpt><trkpt lat="43.32699670982771" lon="-0.40798689239070557"><ele>186.0</ele><time>2026-04-26T15:36:36Z</time></trkpt><trkpt lat="43.3270692492342" lon="-0.40790022528555947"><ele>186.0</ele><time>2026-04-26T15:36:38Z</time></trkpt><trkpt lat="43.327171128643954" lon="-0.40786685239056053"><ele>186.0</ele><time>2026-04-26T15:36:40Z</time></trkpt><trkpt lat="43.32726921420687" lon="-0.40785369494723833"><ele>187.4</ele><time>2026-04-26T15:36:42Z</time></trkpt><trkpt lat="43.32734633672337" lon="-0.4078248455170409"><ele>188.8</ele><time>2026-04-26T15:36:44Z</time></trkpt><trkpt lat="43.32744427581897" lon="-0.40778427975433224"><ele>190.20000000000002</ele><time>2026-04-26T15:36:46Z</time></trkpt><trkpt lat="43.3275432357722" lon="-0.407745158963533"><ele>191.60000000000002</ele><time>2026-04-26T15:36:48Z</time></trkpt><trkpt lat="43.3276454277513" lon="-0.40769158967265295"><ele>193.0</ele><time>2026-04-26T15:36:50Z</time></trkpt><trkpt lat="43.32772044291216" lon="-0.4076419623036701"><ele>192.99999999999997</ele><time>2026-04-26T15:36:52Z</time></trkpt><trkpt lat="43.327799649835804" lon="-0.4075743477330486"><ele>193.0</ele><time>2026-04-26T15:36:54Z</time></trkpt><trkpt lat="43.327879933705205" lon="-0.4075121509881285"><ele>193.0</ele><time>2026-04-26T15:36:56Z</time></trkpt><trkpt lat="43.32794355364062" lon="-0.4074352231395516"><ele>193.0</ele><time>2026-04-26T15:36:58Z</time></trkpt><trkpt lat="43.32800501493119" lon="-0.4073746162144056"><ele>192.99999999999997</ele><time>2026-04-26T15:37:00Z</time></trkpt><trkpt lat="43.32806759434606" lon="-0.4073056312828042"><ele>193.0</ele><time>2026-04-26T15:37:02Z</time></trkpt><trkpt lat="43.328117722266796" lon="-0.4072421685584128"><ele>193.0</ele><time>2026-04-26T15:37:04Z</time></trkpt><trkpt lat="43.32819227114538" lon="-0.4071583339112514"><ele>193.0</ele><time>2026-04-26T15:37:07Z</time></trkpt><trkpt lat="43.32825255033615" lon="-0.40708621738851475"><ele>193.0</ele><time>2026-04-26T15:37:09Z</time></trkpt><trkpt lat="43.32831439913139" lon="-0.40701023339038844"><ele>193.0</ele><time>2026-04-26T15:37:11Z</time></trkpt><trkpt lat="43.32838840498487" lon="-0.4069251872952169"><ele>193.0</ele><time>2026-04-26T15:37:13Z</time></trkpt><trkpt lat="43.3284631570371" lon="-0.40683765852057235"><ele>193.0</ele><time>2026-04-26T15:37:15Z</time></trkpt><trkpt lat="43.32853697533887" lon="-0.40675526639762943"><ele>193.0</ele><time>2026-04-26T15:37:17Z</time></trkpt><trkpt lat="43.32861760207533" lon="-0.4066732393659738"><ele>193.0</ele><time>2026-04-26T15:37:19Z</time></trkpt><trkpt lat="43.32868632420896" lon="-0.4065670976996774"><ele>193.0</ele><time>2026-04-26T15:37:21Z</time></trkpt><trkpt lat="43.32877937862305" lon="-0.40647265787211384"><ele>193.0</ele><time>2026-04-26T15:37:23Z</time></trkpt><trkpt lat="43.32886395656378" lon="-0.4063727418867821"><ele>193.2</ele><time>2026-04-26T15:37:25Z</time></trkpt><trkpt lat="43.32895089580499" lon="-0.40627059485717104"><ele>193.4</ele><time>2026-04-26T15:37:27Z</time></trkpt><trkpt lat="43.3290421274102" lon="-0.40617401492847977"><ele>193.6</ele><time>2026-04-26T15:37:29Z</time></trkpt><trkpt lat="43.32912183269176" lon="-0.4060758565927782"><ele>193.79999999999998</ele><time>2026-04-26T15:37:31Z</time></trkpt><trkpt lat="43.32921338633157" lon="-0.40600545049008324"><ele>194.0</ele><time>2026-04-26T15:37:33Z</time></trkpt><trkpt lat="43.32933272624188" lon="-0.4059865365918404"><ele>194.0</ele><time>2026-04-26T15:37:36Z</time></trkpt><trkpt lat="43.329386654196504" lon="-0.40610150155738256"><ele>194.0</ele><time>2026-04-26T15:37:38Z</time></trkpt><trkpt lat="43.32937921055533" lon="-0.40625682990498496"><ele>194.0</ele><time>2026-04-26T15:37:40Z</time></trkpt><trkpt lat="43.329381733686645" lon="-0.4064121462315567"><ele>194.0</ele><time>2026-04-26T15:37:42Z</time></trkpt><trkpt lat="43.32938258329175" lon="-0.4065718883934906"><ele>194.0</ele><time>2026-04-26T15:37:44Z</time></trkpt><trkpt lat="43.329389802994484" lon="-0.4066606804041384"><ele>193.83333333333334</ele><time>2026-04-26T15:37:45Z</time></trkpt><trkpt lat="43.32939480788095" lon="-0.40682923434971613"><ele>193.66666666666669</ele><time>2026-04-26T15:37:47Z</time></trkpt><trkpt lat="43.32940067371004" lon="-0.4070011750743191"><ele>193.5</ele><time>2026-04-26T15:37:49Z</time></trkpt><trkpt lat="43.329403068934795" lon="-0.40709023590838167"><ele>193.33333333333331</ele><time>2026-04-26T15:37:50Z</time></trkpt><trkpt lat="43.32939948679743" lon="-0.40718072509436043"><ele>193.16666666666666</ele><time>2026-04-26T15:37:51Z</time></trkpt><trkpt lat="43.329398499081414" lon="-0.40727288287581065"><ele>193.0</ele><time>2026-04-26T15:37:52Z</time></trkpt><trkpt lat="43.32939600359197" lon="-0.4073664257248045"><ele>192.85714285714286</ele><time>2026-04-26T15:37:53Z</time></trkpt><trkpt lat="43.32939182231205" lon="-0.4074643099912416"><ele>192.71428571428572</ele><time>2026-04-26T15:37:54Z</time></trkpt><trkpt lat="43.329385508463105" lon="-0.4075532494359889"><ele>192.57142857142856</ele><time>2026-04-26T15:37:55Z</time></trkpt><trkpt lat="43.32937786065182" lon="-0.40765059714259255"><ele>192.42857142857144</ele><time>2026-04-26T15:37:56Z</time></trkpt><trkpt lat="43.329371080632534" lon="-0.407750252468211"><ele>192.28571428571428</ele><time>2026-04-26T15:37:57Z</time></trkpt><trkpt lat="43.32936682279293" lon="-0.40784184770405896"><ele>192.14285714285714</ele><time>2026-04-26T15:37:58Z</time></trkpt><trkpt lat="43.32936219175865" lon="-0.4079394818451492"><ele>192.0</ele><time>2026-04-26T15:37:59Z</time></trkpt><trkpt lat="43.32935662746418" lon="-0.4080387340934324"><ele>191.99999999999997</ele><time>2026-04-26T15:38:00Z</time></trkpt><trkpt lat="43.329350792294534" lon="-0.4081359929040676"><ele>192.0</ele><time>2026-04-26T15:38:01Z</time></trkpt><trkpt lat="43.32935082158539" lon="-0.40823322159455383"><ele>192.0</ele><time>2026-04-26T15:38:02Z</time></trkpt><trkpt lat="43.329347661762725" lon="-0.40833268351580077"><ele>192.0</ele><time>2026-04-26T15:38:03Z</time></trkpt><trkpt lat="43.32934071804322" lon="-0.4084325119016006"><ele>192.0</ele><time>2026-04-26T15:38:04Z</time></trkpt><trkpt lat="43.32932826651307" lon="-0.4085377599754956"><ele>191.99999999999997</ele><time>2026-04-26T15:38:05Z</time></trkpt><trkpt lat="43.32932264312388" lon="-0.4086396203095961"><ele>192.0</ele><time>2026-04-26T15:38:06Z</time></trkpt><trkpt lat="43.32931767851086" lon="-0.408741762510526"><ele>192.0</ele><time>2026-04-26T15:38:07Z</time></trkpt><trkpt lat="43.32931452373027" lon="-0.40884650202166833"><ele>192.0</ele><time>2026-04-26T15:38:08Z</time></trkpt><trkpt lat="43.32930810294767" lon="-0.4089531005309162"><ele>192.0</ele><time>2026-04-26T15:38:09Z</time></trkpt><trkpt lat="43.32930450477429" lon="-0.4090606744842988"><ele>192.0</ele><time>2026-04-26T15:38:10Z</time></trkpt><trkpt lat="43.329299801001355" lon="-0.40916101768704877"><ele>192.0</ele><time>2026-04-26T15:38:11Z</time></trkpt><trkpt lat="43.3292939389965" lon="-0.4092663105299203"><ele>192.0</ele><time>2026-04-26T15:38:12Z</time></trkpt><trkpt lat="43.32929087824999" lon="-0.4093715389131798"><ele>192.0</ele><time>2026-04-26T15:38:13Z</time></trkpt><trkpt lat="43.329285715526574" lon="-0.40947738804202577"><ele>192.0</ele><time>2026-04-26T15:38:14Z</time></trkpt><trkpt lat="43.32928830832716" lon="-0.4095805167280986"><ele>192.0</ele><time>2026-04-26T15:38:15Z</time></trkpt><trkpt lat="43.32928066753431" lon="-0.40968238892503434"><ele>192.0</ele><time>2026-04-26T15:38:16Z</time></trkpt><trkpt lat="43.329271701603695" lon="-0.40978559920300295"><ele>192.0</ele><time>2026-04-26T15:38:17Z</time></trkpt><trkpt lat="43.32926891030161" lon="-0.4098894728151669"><ele>192.0</ele><time>2026-04-26T15:38:18Z</time></trkpt><trkpt lat="43.329269286454796" lon="-0.4099954076136613"><ele>191.83333333333334</ele><time>2026-04-26T15:38:19Z</time></trkpt><trkpt lat="43.329268434733734" lon="-0.410102378047086"><ele>191.66666666666666</ele><time>2026-04-26T15:38:20Z</time></trkpt><trkpt lat="43.32927014595926" lon="-0.4102075875907614"><ele>191.5</ele><time>2026-04-26T15:38:21Z</time></trkpt><trkpt lat="43.32927733385829" lon="-0.41030936366282256"><ele>191.33333333333331</ele><time>2026-04-26T15:38:22Z</time></trkpt><trkpt lat="43.3292883038922" lon="-0.41041369449681303"><ele>191.16666666666666</ele><time>2026-04-26T15:38:23Z</time></trkpt><trkpt lat="43.32929993985772" lon="-0.41051562969890937"><ele>191.0</ele><time>2026-04-26T15:38:24Z</time></trkpt><trkpt lat="43.32931418098977" lon="-0.4106294767339494"><ele>191.0</ele><time>2026-04-26T15:38:25Z</time></trkpt><trkpt lat="43.32937214299977" lon="-0.41082687148293606"><ele>191.0</ele><time>2026-04-26T15:38:27Z</time></trkpt><trkpt lat="43.32940394141025" lon="-0.41092624698986513"><ele>191.0</ele><time>2026-04-26T15:38:28Z</time></trkpt><trkpt lat="43.329432247312305" lon="-0.41102568256160066"><ele>191.0</ele><time>2026-04-26T15:38:29Z</time></trkpt><trkpt lat="43.32945849422171" lon="-0.41112567036301345"><ele>191.0</ele><time>2026-04-26T15:38:30Z</time></trkpt><trkpt lat="43.32949245925195" lon="-0.4112321130202586"><ele>190.83333333333331</ele><time>2026-04-26T15:38:31Z</time></trkpt><trkpt lat="43.32952219699911" lon="-0.41134089172385546"><ele>190.66666666666666</ele><time>2026-04-26T15:38:32Z</time></trkpt><trkpt lat="43.32955709393726" lon="-0.4114415638289536"><ele>190.5</ele><time>2026-04-26T15:38:33Z</time></trkpt><trkpt lat="43.32957884397205" lon="-0.4115435865166261"><ele>190.33333333333334</ele><time>2026-04-26T15:38:34Z</time></trkpt><trkpt lat="43.329612060603615" lon="-0.41164453014857355"><ele>190.16666666666669</ele><time>2026-04-26T15:38:35Z</time></trkpt><trkpt lat="43.329649576337" lon="-0.4117449875077999"><ele>190.0</ele><time>2026-04-26T15:38:36Z</time></trkpt><trkpt lat="43.329681126424965" lon="-0.41184078463442075"><ele>190.0</ele><time>2026-04-26T15:38:37Z</time></trkpt><trkpt lat="43.32970846640736" lon="-0.4119515734364189"><ele>190.0</ele><time>2026-04-26T15:38:38Z</time></trkpt><trkpt lat="43.329742405065346" lon="-0.41205066535444457"><ele>190.0</ele><time>2026-04-26T15:38:39Z</time></trkpt><trkpt lat="43.329774030150375" lon="-0.4121570751856718"><ele>190.0</ele><time>2026-04-26T15:38:40Z</time></trkpt><trkpt lat="43.329801892183546" lon="-0.4122574794176336"><ele>190.0</ele><time>2026-04-26T15:38:41Z</time></trkpt><trkpt lat="43.3298248072466" lon="-0.4123614738134627"><ele>190.0</ele><time>2026-04-26T15:38:42Z</time></trkpt><trkpt lat="43.329844098844696" lon="-0.4124695199001274"><ele>190.16666666666669</ele><time>2026-04-26T15:38:43Z</time></trkpt><trkpt lat="43.32985924999148" lon="-0.4125769774637805"><ele>190.33333333333334</ele><time>2026-04-26T15:38:44Z</time></trkpt><trkpt lat="43.329875154493934" lon="-0.4126816019335761"><ele>190.5</ele><time>2026-04-26T15:38:45Z</time></trkpt><trkpt lat="43.329892829999274" lon="-0.4127839872504763"><ele>190.66666666666666</ele><time>2026-04-26T15:38:46Z</time></trkpt><trkpt lat="43.329912019701965" lon="-0.41288717848278583"><ele>190.83333333333331</ele><time>2026-04-26T15:38:47Z</time></trkpt><trkpt lat="43.32993315896053" lon="-0.41298730034798625"><ele>191.0</ele><time>2026-04-26T15:38:48Z</time></trkpt><trkpt lat="43.329951658366134" lon="-0.4130883092369708"><ele>190.42857142857144</ele><time>2026-04-26T15:38:49Z</time></trkpt><trkpt lat="43.329967312072895" lon="-0.4131900717317507"><ele>189.85714285714283</ele><time>2026-04-26T15:38:50Z</time></trkpt><trkpt lat="43.32998874347342" lon="-0.41327952820407143"><ele>189.28571428571428</ele><time>2026-04-26T15:38:51Z</time></trkpt><trkpt lat="43.330004489958945" lon="-0.41337660445934243"><ele>188.71428571428572</ele><time>2026-04-26T15:38:52Z</time></trkpt><trkpt lat="43.33001759053183" lon="-0.41347401320107846"><ele>188.14285714285717</ele><time>2026-04-26T15:38:53Z</time></trkpt><trkpt lat="43.330026202819774" lon="-0.41356970825501466"><ele>187.57142857142856</ele><time>2026-04-26T15:38:54Z</time></trkpt><trkpt lat="43.33002789955517" lon="-0.4136745177809868"><ele>187.0</ele><time>2026-04-26T15:38:55Z</time></trkpt><trkpt lat="43.3300268238246" lon="-0.41377386951017703"><ele>187.14285714285714</ele><time>2026-04-26T15:38:56Z</time></trkpt><trkpt lat="43.33002086480575" lon="-0.4138741071570699"><ele>187.2857142857143</ele><time>2026-04-26T15:38:57Z</time></trkpt><trkpt lat="43.33001154965403" lon="-0.41397514672466734"><ele>187.42857142857144</ele><time>2026-04-26T15:38:58Z</time></trkpt><trkpt lat="43.32999546195006" lon="-0.414074376071285"><ele>187.57142857142856</ele><time>2026-04-26T15:38:59Z</time></trkpt><trkpt lat="43.329974579832495" lon="-0.41417335245666775"><ele>187.71428571428572</ele><time>2026-04-26T15:39:00Z</time></trkpt><trkpt lat="43.32995617288262" lon="-0.41427496990117674"><ele>187.85714285714286</ele><time>2026-04-26T15:39:01Z</time></trkpt><trkpt lat="43.32993573295936" lon="-0.4143692613788244"><ele>188.0</ele><time>2026-04-26T15:39:02Z</time></trkpt><trkpt lat="43.32991500881728" lon="-0.4144664121823941"><ele>188.0</ele><time>2026-04-26T15:39:03Z</time></trkpt><trkpt lat="43.329894124257486" lon="-0.41456197402089656"><ele>188.0</ele><time>2026-04-26T15:39:04Z</time></trkpt><trkpt lat="43.32987839955414" lon="-0.41465776591374887"><ele>188.0</ele><time>2026-04-26T15:39:05Z</time></trkpt><trkpt lat="43.3298589262338" lon="-0.4147485153061403"><ele>188.0</ele><time>2026-04-26T15:39:06Z</time></trkpt><trkpt lat="43.32984546047855" lon="-0.41483888829626225"><ele>188.0</ele><time>2026-04-26T15:39:07Z</time></trkpt><trkpt lat="43.329814862599456" lon="-0.4150044169675275"><ele>188.0</ele><time>2026-04-26T15:39:09Z</time></trkpt><trkpt lat="43.3297809882821" lon="-0.4151629509182786"><ele>188.2</ele><time>2026-04-26T15:39:11Z</time></trkpt><trkpt lat="43.32976133086548" lon="-0.4152584719985719"><ele>188.4</ele><time>2026-04-26T15:39:12Z</time></trkpt><trkpt lat="43.32973608163513" lon="-0.4153750220634853"><ele>188.6</ele><time>2026-04-26T15:39:14Z</time></trkpt><trkpt lat="43.32965145906413" lon="-0.4154232009203903"><ele>188.79999999999998</ele><time>2026-04-26T15:39:16Z</time></trkpt><trkpt lat="43.329542886233355" lon="-0.4154092542845864"><ele>189.0</ele><time>2026-04-26T15:39:18Z</time></trkpt><trkpt lat="43.329414201801754" lon="-0.4153490699990483"><ele>188.66666666666666</ele><time>2026-04-26T15:39:20Z</time></trkpt><trkpt lat="43.329348197774685" lon="-0.41531899798909616"><ele>188.33333333333334</ele><time>2026-04-26T15:39:21Z</time></trkpt><trkpt lat="43.329268397125816" lon="-0.4153039407136732"><ele>188.0</ele><time>2026-04-26T15:39:22Z</time></trkpt><trkpt lat="43.32919549040563" lon="-0.41527777657935666"><ele>187.66666666666669</ele><time>2026-04-26T15:39:23Z</time></trkpt><trkpt lat="43.32911898259225" lon="-0.4152619241212796"><ele>187.33333333333334</ele><time>2026-04-26T15:39:24Z</time></trkpt><trkpt lat="43.32904310720602" lon="-0.41526735847286955"><ele>187.0</ele><time>2026-04-26T15:39:25Z</time></trkpt><trkpt lat="43.32897191508698" lon="-0.4152838163668359"><ele>187.0</ele><time>2026-04-26T15:39:26Z</time></trkpt><trkpt lat="43.328902278374414" lon="-0.41531967070422315"><ele>187.0</ele><time>2026-04-26T15:39:27Z</time></trkpt><trkpt lat="43.3288460057378" lon="-0.4153652097309759"><ele>187.0</ele><time>2026-04-26T15:39:28Z</time></trkpt><trkpt lat="43.32878872804239" lon="-0.41542161665511573"><ele>187.0</ele><time>2026-04-26T15:39:29Z</time></trkpt><trkpt lat="43.32873304830857" lon="-0.41548321031822577"><ele>187.0</ele><time>2026-04-26T15:39:30Z</time></trkpt><trkpt lat="43.328646126795924" lon="-0.4156051856232016"><ele>187.0</ele><time>2026-04-26T15:39:32Z</time></trkpt><trkpt lat="43.32854204339634" lon="-0.4156480434378314"><ele>187.0</ele><time>2026-04-26T15:39:34Z</time></trkpt><trkpt lat="43.32845448694374" lon="-0.41555917238498435"><ele>187.0</ele><time>2026-04-26T15:39:36Z</time></trkpt><trkpt lat="43.32839552376458" lon="-0.41542923788335634"><ele>187.0</ele><time>2026-04-26T15:39:38Z</time></trkpt><trkpt lat="43.32827842094164" lon="-0.41539290067821444"><ele>187.0</ele><time>2026-04-26T15:39:40Z</time></trkpt><trkpt lat="43.328167515612705" lon="-0.41538383392334444"><ele>187.0</ele><time>2026-04-26T15:39:42Z</time></trkpt><trkpt lat="43.32809736628145" lon="-0.4153044549013257"><ele>187.0</ele><time>2026-04-26T15:39:44Z</time></trkpt><trkpt lat="43.328076035616455" lon="-0.41519386683394743"><ele>187.0</ele><time>2026-04-26T15:39:46Z</time></trkpt><trkpt lat="43.328076035616455" lon="-0.41519386683394743"><ele>187.0</ele><time>2026-04-26T15:39:46Z</time></trkpt></trkseg></trk></gpx>